ftp/pub/mcmurdo/arrivalheights/2017/04262017_DOWNLOAD.TXT

Download

		Temp	Hi	Low	Out	Dew	Wind	Wind	Wind	Hi	Wind	Heat	THW		Heat	Cool	In 	In	Arc.
Date	Time	Out	Temp	Temp	Hum	Pt.	Speed	Dir	Run	Speed	Chill	Index	Index	Bar  	D-D 	D-D 	Temp	Hum	Int.
04/25/17	12:06 a	-17.2	-17.2	-17.2	---	---	25.2	SE	0.42	27.0	-31.2	---	---	723.0	0.025	0.000	18.5	70	1
04/25/17	12:07 a	-17.2	-17.2	-17.2	---	---	20.0	SSE	0.33	23.5	-29.9	---	---	723.2	0.025	0.000	18.6	70	1
04/25/17	12:08 a	-17.2	-17.2	-17.2	---	---	20.9	SSE	0.35	23.5	-30.2	---	---	723.1	0.025	0.000	18.6	70	1
04/25/17	12:09 a	-17.2	-17.2	-17.2	---	---	20.9	SSE	0.35	25.2	-30.2	---	---	723.1	0.025	0.000	18.5	70	1
04/25/17	12:10 a	-17.2	-17.2	-17.2	---	---	17.4	SSE	0.29	20.9	-29.2	---	---	723.2	0.025	0.000	18.5	70	1
04/25/17	12:11 a	-17.2	-17.2	-17.2	---	---	17.4	SSE	0.29	20.9	-29.2	---	---	723.2	0.025	0.000	18.5	70	1
04/25/17	12:12 a	-17.2	-17.2	-17.2	---	---	18.3	SSE	0.30	20.9	-29.4	---	---	723.3	0.025	0.000	18.4	70	1
04/25/17	12:13 a	-17.2	-17.2	-17.2	---	---	18.3	SSE	0.30	20.9	-29.4	---	---	723.3	0.025	0.000	18.4	70	1
04/25/17	12:14 a	-17.2	-17.2	-17.2	---	---	16.5	SSE	0.28	19.1	-28.9	---	---	723.2	0.025	0.000	18.4	70	1
04/25/17	12:15 a	-17.2	-17.1	-17.2	---	---	17.4	SSE	0.29	21.7	-29.2	---	---	723.3	0.025	0.000	18.4	70	1
04/25/17	12:16 a	-17.2	-17.1	-17.2	---	---	18.3	SSE	0.30	22.6	-29.4	---	---	723.2	0.025	0.000	18.4	70	1
04/25/17	12:17 a	-17.1	-17.1	-17.2	---	---	19.1	SSE	0.32	21.7	-29.6	---	---	723.2	0.025	0.000	18.4	70	1
04/25/17	12:18 a	-17.1	-17.1	-17.1	---	---	18.3	SSE	0.30	20.0	-29.3	---	---	723.2	0.025	0.000	18.4	70	1
04/25/17	12:19 a	-17.1	-17.1	-17.1	---	---	15.7	SSE	0.26	22.6	-28.6	---	---	723.1	0.025	0.000	18.3	71	1
04/25/17	12:20 a	-17.1	-17.1	-17.1	---	---	15.7	SSE	0.26	20.0	-28.6	---	---	723.2	0.025	0.000	18.4	71	1
04/25/17	12:21 a	-17.1	-17.1	-17.1	---	---	14.8	SSE	0.25	18.3	-28.2	---	---	723.2	0.025	0.000	18.4	71	1
04/25/17	12:22 a	-17.1	-17.1	-17.1	---	---	13.0	SSE	0.22	17.4	-27.6	---	---	723.3	0.025	0.000	18.4	71	1
04/25/17	12:23 a	-17.1	-17.1	-17.1	---	---	13.9	SSE	0.23	17.4	-27.9	---	---	723.3	0.025	0.000	18.4	71	1
04/25/17	12:24 a	-17.0	-17.0	-17.1	---	---	16.5	SSE	0.28	19.1	-28.7	---	---	723.2	0.025	0.000	18.4	71	1
04/25/17	12:25 a	-17.0	-17.0	-17.1	---	---	15.7	SSE	0.26	17.4	-28.4	---	---	723.3	0.025	0.000	18.5	71	1
04/25/17	12:26 a	-17.0	-17.0	-17.1	---	---	14.8	SSE	0.25	16.5	-28.1	---	---	723.2	0.025	0.000	18.5	71	1
04/25/17	12:27 a	-17.0	-17.0	-17.1	---	---	15.7	SSE	0.26	18.3	-28.4	---	---	723.3	0.025	0.000	18.5	71	1
04/25/17	12:28 a	-17.1	-17.0	-17.1	---	---	15.7	SSE	0.26	17.4	-28.4	---	---	723.3	0.025	0.000	18.6	71	1
04/25/17	12:29 a	-17.1	-17.1	-17.1	---	---	15.7	SSE	0.26	16.5	-28.4	---	---	723.2	0.025	0.000	18.6	71	1
04/25/17	12:30 a	-17.1	-17.1	-17.1	---	---	14.8	SSE	0.25	17.4	-28.2	---	---	723.3	0.025	0.000	18.6	70	1
04/25/17	12:31 a	-17.1	-17.1	-17.1	---	---	15.7	SSE	0.26	15.7	-28.6	---	---	723.2	0.025	0.000	18.6	71	1
04/25/17	12:32 a	-17.1	-17.1	-17.2	---	---	15.7	SSE	0.26	16.5	-28.6	---	---	723.2	0.025	0.000	18.6	70	1
04/25/17	12:33 a	-17.2	-17.1	-17.2	---	---	15.7	SSE	0.26	16.5	-28.6	---	---	723.2	0.025	0.000	18.6	70	1
04/25/17	12:34 a	-17.2	-17.2	-17.2	---	---	14.8	SSE	0.25	15.7	-28.3	---	---	723.3	0.025	0.000	18.6	70	1
04/25/17	12:35 a	-17.2	-17.2	-17.2	---	---	14.8	SSE	0.25	16.5	-28.4	---	---	723.2	0.025	0.000	18.6	70	1
04/25/17	12:36 a	-17.3	-17.3	-17.3	---	---	13.9	SSE	0.23	14.8	-28.2	---	---	723.2	0.025	0.000	18.5	70	1
04/25/17	12:37 a	-17.3	-17.3	-17.3	---	---	13.9	SSE	0.23	15.7	-28.2	---	---	723.2	0.025	0.000	18.5	70	1
04/25/17	12:38 a	-17.3	-17.3	-17.3	---	---	14.8	SSE	0.25	15.7	-28.6	---	---	723.3	0.025	0.000	18.5	70	1
04/25/17	12:39 a	-17.3	-17.3	-17.4	---	---	13.9	SSE	0.23	15.7	-28.2	---	---	723.2	0.025	0.000	18.4	70	1
04/25/17	12:40 a	-17.4	-17.4	-17.4	---	---	12.2	SSE	0.20	13.0	-27.7	---	---	723.3	0.025	0.000	18.4	70	1
04/25/17	12:41 a	-17.4	-17.4	-17.4	---	---	9.6	SSE	0.16	11.3	-26.6	---	---	723.4	0.025	0.000	18.4	70	1
04/25/17	12:42 a	-17.4	-17.4	-17.5	---	---	11.3	SSE	0.19	13.0	-27.4	---	---	723.3	0.025	0.000	18.4	70	1
04/25/17	12:43 a	-17.5	-17.5	-17.5	---	---	13.0	SSE	0.22	13.9	-28.2	---	---	723.3	0.025	0.000	18.4	70	1
04/25/17	12:44 a	-17.6	-17.5	-17.6	---	---	12.2	SSE	0.20	13.9	-27.9	---	---	723.3	0.025	0.000	18.4	70	1
04/25/17	12:45 a	-17.6	-17.6	-17.6	---	---	12.2	SSE	0.20	13.9	-27.9	---	---	723.2	0.025	0.000	18.4	70	1
04/25/17	12:46 a	-17.6	-17.6	-17.6	---	---	12.2	SSE	0.20	13.9	-27.9	---	---	723.3	0.025	0.000	18.4	70	1
04/25/17	12:47 a	-17.6	-17.6	-17.7	---	---	12.2	SSE	0.20	13.0	-27.9	---	---	723.3	0.025	0.000	18.4	70	1
04/25/17	12:48 a	-17.7	-17.6	-17.7	---	---	11.3	SSE	0.19	13.0	-27.7	---	---	723.3	0.025	0.000	18.4	70	1
04/25/17	12:49 a	-17.7	-17.7	-17.7	---	---	11.3	SSE	0.19	13.0	-27.7	---	---	723.3	0.025	0.000	18.4	70	1
04/25/17	12:50 a	-17.7	-17.7	-17.7	---	---	12.2	SSE	0.20	13.0	-28.1	---	---	723.2	0.025	0.000	18.4	70	1
04/25/17	12:51 a	-17.7	-17.7	-17.8	---	---	12.2	SSE	0.20	13.0	-28.1	---	---	723.2	0.025	0.000	18.4	70	1
04/25/17	12:52 a	-17.8	-17.7	-17.8	---	---	13.0	SSE	0.22	13.9	-28.5	---	---	723.2	0.025	0.000	18.5	70	1
04/25/17	12:53 a	-17.8	-17.8	-17.8	---	---	13.0	SSE	0.22	13.9	-28.5	---	---	723.2	0.025	0.000	18.5	70	1
04/25/17	12:54 a	-17.8	-17.8	-17.8	---	---	12.2	SSE	0.20	13.0	-28.2	---	---	723.1	0.025	0.000	18.5	71	1
04/25/17	12:55 a	-17.8	-17.8	-17.8	---	---	10.4	SSE	0.17	13.0	-27.5	---	---	723.1	0.025	0.000	18.6	70	1
04/25/17	12:56 a	-17.8	-17.8	-17.8	---	---	12.2	SSE	0.20	13.0	-28.2	---	---	723.2	0.025	0.000	18.6	70	1
04/25/17	12:57 a	-17.8	-17.8	-17.9	---	---	12.2	SSE	0.20	13.0	-28.2	---	---	723.2	0.025	0.000	18.6	70	1
04/25/17	12:58 a	-17.8	-17.8	-17.9	---	---	11.3	SSE	0.19	13.0	-27.9	---	---	723.3	0.025	0.000	18.6	70	1
04/25/17	12:59 a	-17.9	-17.9	-17.9	---	---	11.3	SSE	0.19	12.2	-27.9	---	---	723.3	0.025	0.000	18.6	70	1
04/25/17	1:00 a	-17.9	-17.9	-17.9	---	---	11.3	SSE	0.19	12.2	-27.9	---	---	723.2	0.025	0.000	18.6	71	1
04/25/17	1:01 a	-17.9	-17.9	-17.9	---	---	12.2	SSE	0.20	13.0	-28.3	---	---	723.2	0.025	0.000	18.6	71	1
04/25/17	1:02 a	-17.9	-17.9	-17.9	---	---	10.4	SSE	0.17	12.2	-27.6	---	---	723.2	0.025	0.000	18.6	70	1
04/25/17	1:03 a	-17.9	-17.9	-17.9	---	---	9.6	SSE	0.16	11.3	-27.2	---	---	723.2	0.025	0.000	18.6	71	1
04/25/17	1:04 a	-17.9	-17.9	-17.9	---	---	10.4	SSE	0.17	10.4	-27.6	---	---	723.2	0.025	0.000	18.6	71	1
04/25/17	1:05 a	-17.9	-17.9	-17.9	---	---	10.4	SSE	0.17	11.3	-27.6	---	---	723.2	0.025	0.000	18.6	71	1
04/25/17	1:06 a	-17.9	-17.9	-17.9	---	---	10.4	SSE	0.17	11.3	-27.6	---	---	723.2	0.025	0.000	18.6	71	1
04/25/17	1:07 a	-17.9	-17.9	-17.9	---	---	9.6	SSE	0.16	10.4	-27.2	---	---	723.2	0.025	0.000	18.6	71	1
04/25/17	1:08 a	-17.9	-17.9	-17.9	---	---	10.4	SSE	0.17	11.3	-27.6	---	---	723.2	0.025	0.000	18.7	72	1
04/25/17	1:09 a	-17.9	-17.9	-17.9	---	---	9.6	SSE	0.16	10.4	-27.2	---	---	723.2	0.025	0.000	18.7	72	1
04/25/17	1:10 a	-17.9	-17.9	-17.9	---	---	10.4	SSE	0.17	11.3	-27.6	---	---	723.2	0.025	0.000	18.7	72	1
04/25/17	1:11 a	-17.9	-17.9	-17.9	---	---	8.7	SSE	0.14	11.3	-26.8	---	---	723.2	0.025	0.000	18.7	72	1
04/25/17	1:12 a	-17.9	-17.9	-18.0	---	---	9.6	SSE	0.16	10.4	-27.2	---	---	723.2	0.025	0.000	18.7	72	1
04/25/17	1:13 a	-18.0	-17.9	-18.0	---	---	10.4	SSE	0.17	12.2	-27.7	---	---	723.3	0.025	0.000	18.8	73	1
04/25/17	1:14 a	-17.9	-17.9	-18.0	---	---	10.4	SSE	0.17	13.0	-27.6	---	---	723.3	0.025	0.000	18.8	73	1
04/25/17	1:15 a	-18.0	-17.9	-18.0	---	---	12.2	SSE	0.20	14.8	-28.4	---	---	723.1	0.025	0.000	18.8	73	1
04/25/17	1:16 a	-18.0	-17.9	-18.0	---	---	12.2	SSE	0.20	14.8	-28.4	---	---	723.1	0.025	0.000	18.9	73	1
04/25/17	1:17 a	-17.9	-17.9	-18.0	---	---	13.0	SSE	0.22	16.5	-28.7	---	---	723.2	0.025	0.000	18.9	73	1
04/25/17	1:18 a	-17.9	-17.9	-17.9	---	---	13.0	SSE	0.22	16.5	-28.7	---	---	723.1	0.025	0.000	19.0	73	1
04/25/17	1:19 a	-17.9	-17.9	-17.9	---	---	9.6	SSE	0.16	13.9	-27.2	---	---	723.1	0.025	0.000	19.0	73	1
04/25/17	1:20 a	-17.9	-17.9	-17.9	---	---	8.7	SSE	0.14	13.9	-26.7	---	---	723.2	0.025	0.000	19.0	73	1
04/25/17	1:21 a	-17.9	-17.8	-17.9	---	---	9.6	SSE	0.16	12.2	-27.2	---	---	723.2	0.025	0.000	19.0	73	1
04/25/17	1:22 a	-17.8	-17.8	-17.8	---	---	6.1	SSE	0.10	12.2	-25.1	---	---	723.2	0.025	0.000	19.0	73	1
04/25/17	1:23 a	-17.8	-17.7	-17.8	---	---	7.8	SSE	0.13	11.3	-26.1	---	---	723.2	0.025	0.000	19.0	73	1
04/25/17	1:24 a	-17.7	-17.7	-17.7	---	---	5.2	SSE	0.09	9.6	-24.3	---	---	723.2	0.025	0.000	19.1	73	1
04/25/17	1:25 a	-17.7	-17.7	-17.7	---	---	5.2	SSE	0.09	9.6	-24.2	---	---	723.2	0.025	0.000	19.1	73	1
04/25/17	1:26 a	-17.6	-17.6	-17.7	---	---	2.6	S	0.04	7.0	-21.3	---	---	723.2	0.025	0.000	19.1	73	1
04/25/17	1:27 a	-17.6	-17.6	-17.6	---	---	5.2	S	0.09	10.4	-24.1	---	---	723.3	0.025	0.000	19.1	73	1
04/25/17	1:28 a	-17.6	-17.5	-17.6	---	---	3.5	S	0.06	7.8	-22.4	---	---	723.2	0.025	0.000	19.1	73	1
04/25/17	1:29 a	-17.5	-17.4	-17.6	---	---	2.6	SSE	0.04	8.7	-21.2	---	---	723.2	0.025	0.000	19.1	72	1
04/25/17	1:30 a	-17.4	-17.4	-17.5	---	---	4.3	SSE	0.07	7.8	-23.2	---	---	723.3	0.025	0.000	19.2	73	1
04/25/17	1:31 a	-17.4	-17.4	-17.4	---	---	7.0	SSE	0.12	8.7	-25.1	---	---	723.2	0.025	0.000	19.2	73	1
04/25/17	1:32 a	-17.4	-17.4	-17.4	---	---	7.0	SSE	0.12	8.7	-25.1	---	---	723.3	0.025	0.000	19.2	73	1
04/25/17	1:33 a	-17.4	-17.3	-17.4	---	---	8.7	SSE	0.14	10.4	-26.1	---	---	723.3	0.025	0.000	19.3	73	1
04/25/17	1:34 a	-17.4	-17.3	-17.4	---	---	7.8	SSE	0.13	9.6	-25.6	---	---	723.2	0.025	0.000	19.3	73	1
04/25/17	1:35 a	-17.4	-17.4	-17.4	---	---	9.6	SSE	0.16	10.4	-26.6	---	---	723.2	0.025	0.000	19.4	73	1
04/25/17	1:36 a	-17.4	-17.3	-17.4	---	---	10.4	SSE	0.17	11.3	-26.9	---	---	723.2	0.025	0.000	19.4	72	1
04/25/17	1:37 a	-17.4	-17.4	-17.4	---	---	9.6	SSE	0.16	10.4	-26.6	---	---	723.2	0.025	0.000	19.4	72	1
04/25/17	1:38 a	-17.4	-17.4	-17.4	---	---	9.6	SSE	0.16	9.6	-26.6	---	---	723.2	0.025	0.000	19.5	72	1
04/25/17	1:39 a	-17.4	-17.4	-17.4	---	---	9.6	SSE	0.16	9.6	-26.6	---	---	723.1	0.025	0.000	19.6	73	1
04/25/17	1:40 a	-17.4	-17.4	-17.5	---	---	8.7	SSE	0.14	9.6	-26.2	---	---	723.2	0.025	0.000	19.6	72	1
04/25/17	1:41 a	-17.5	-17.5	-17.5	---	---	8.7	SSE	0.14	9.6	-26.2	---	---	723.1	0.025	0.000	19.6	71	1
04/25/17	1:42 a	-17.6	-17.5	-17.6	---	---	9.6	SSE	0.16	9.6	-26.7	---	---	723.2	0.025	0.000	19.7	71	1
04/25/17	1:43 a	-17.6	-17.6	-17.6	---	---	9.6	SSE	0.16	10.4	-26.7	---	---	723.2	0.025	0.000	19.6	72	1
04/25/17	1:44 a	-17.6	-17.6	-17.6	---	---	11.3	SSE	0.19	12.2	-27.6	---	---	723.1	0.025	0.000	19.6	72	1
04/25/17	1:45 a	-17.6	-17.6	-17.7	---	---	12.2	SSE	0.20	13.0	-27.9	---	---	723.2	0.025	0.000	19.6	67	1
04/25/17	1:46 a	-17.7	-17.7	-17.7	---	---	12.2	SSE	0.20	13.9	-28.0	---	---	723.1	0.025	0.000	19.6	72	1
04/25/17	1:47 a	-17.7	-17.7	-17.7	---	---	12.2	SSE	0.20	13.0	-28.1	---	---	723.2	0.025	0.000	19.6	71	1
04/25/17	1:48 a	-17.8	-17.7	-17.8	---	---	11.3	SSE	0.19	12.2	-27.8	---	---	723.2	0.025	0.000	19.6	69	1
04/25/17	1:49 a	-17.8	-17.8	-17.8	---	---	11.3	SSE	0.19	13.0	-27.8	---	---	723.2	0.025	0.000	19.6	71	1
04/25/17	1:50 a	-17.8	-17.8	-17.9	---	---	8.7	SSE	0.14	12.2	-26.7	---	---	723.2	0.025	0.000	19.6	68	1
04/25/17	1:51 a	-17.9	-17.8	-17.9	---	---	11.3	SSE	0.19	12.2	-27.9	---	---	723.2	0.025	0.000	19.6	68	1
04/25/17	1:52 a	-17.9	-17.9	-17.9	---	---	11.3	SSE	0.19	13.9	-27.9	---	---	723.2	0.025	0.000	19.6	68	1
04/25/17	1:53 a	-17.9	-17.9	-18.0	---	---	12.2	SSE	0.20	13.0	-28.4	---	---	723.2	0.025	0.000	19.6	71	1
04/25/17	1:54 a	-17.9	-17.9	-18.0	---	---	13.0	SSE	0.22	13.9	-28.7	---	---	723.1	0.025	0.000	19.6	71	1
04/25/17	1:55 a	-18.0	-17.9	-18.0	---	---	13.9	SSE	0.23	14.8	-29.1	---	---	723.2	0.025	0.000	19.6	72	1
04/25/17	1:56 a	-18.0	-18.0	-18.1	---	---	13.9	SSE	0.23	14.8	-29.1	---	---	723.2	0.025	0.000	19.6	72	1
04/25/17	1:57 a	-18.1	-18.1	-18.1	---	---	12.2	SSE	0.20	14.8	-28.5	---	---	723.2	0.025	0.000	19.6	71	1
04/25/17	1:58 a	-18.1	-18.1	-18.1	---	---	12.2	SSE	0.20	14.8	-28.5	---	---	723.2	0.025	0.000	19.5	71	1
04/25/17	1:59 a	-18.1	-18.1	-18.1	---	---	13.9	SSE	0.23	15.7	-29.2	---	---	723.1	0.025	0.000	19.6	71	1
04/25/17	2:00 a	-18.1	-18.1	-18.1	---	---	12.2	SSE	0.20	16.5	-28.6	---	---	723.1	0.025	0.000	19.6	70	1
04/25/17	2:01 a	-18.1	-18.1	-18.1	---	---	11.3	SSE	0.19	13.9	-28.2	---	---	723.1	0.025	0.000	19.6	70	1
04/25/17	2:02 a	-18.1	-18.1	-18.1	---	---	8.7	SSE	0.14	11.3	-26.9	---	---	723.2	0.025	0.000	19.7	70	1
04/25/17	2:03 a	-18.1	-18.0	-18.1	---	---	4.3	SSE	0.07	7.8	-23.9	---	---	723.2	0.025	0.000	19.7	70	1
04/25/17	2:04 a	-18.0	-18.0	-18.1	---	---	3.5	SSE	0.06	9.6	-22.9	---	---	723.2	0.025	0.000	19.7	70	1
04/25/17	2:05 a	-17.9	-17.9	-18.0	---	---	3.5	S	0.06	12.2	-22.8	---	---	723.2	0.025	0.000	19.8	70	1
04/25/17	2:06 a	-17.9	-17.9	-17.9	---	---	10.4	SSE	0.17	13.9	-27.6	---	---	723.1	0.025	0.000	19.8	70	1
04/25/17	2:07 a	-17.8	-17.8	-17.9	---	---	12.2	SSE	0.20	14.8	-28.2	---	---	723.2	0.025	0.000	19.9	70	1
04/25/17	2:08 a	-17.8	-17.8	-17.8	---	---	10.4	SSE	0.17	13.9	-27.5	---	---	723.2	0.025	0.000	19.9	69	1
04/25/17	2:09 a	-17.8	-17.7	-17.8	---	---	12.2	SSE	0.20	15.7	-28.2	---	---	723.1	0.025	0.000	19.9	70	1
04/25/17	2:10 a	-17.7	-17.7	-17.7	---	---	11.3	SSE	0.19	15.7	-27.7	---	---	723.2	0.025	0.000	20.0	70	1
04/25/17	2:11 a	-17.6	-17.6	-17.7	---	---	13.0	SSE	0.22	17.4	-28.3	---	---	723.1	0.025	0.000	20.0	70	1
04/25/17	2:12 a	-17.6	-17.6	-17.6	---	---	13.0	SSE	0.22	16.5	-28.3	---	---	723.1	0.025	0.000	19.9	65	1
04/25/17	2:13 a	-17.6	-17.5	-17.6	---	---	11.3	SSE	0.19	16.5	-27.5	---	---	723.0	0.025	0.000	19.9	66	1
04/25/17	2:14 a	-17.5	-17.5	-17.5	---	---	11.3	SSE	0.19	19.1	-27.4	---	---	723.0	0.025	0.000	19.9	65	1
04/25/17	2:15 a	-17.4	-17.4	-17.4	---	---	12.2	SSE	0.20	18.3	-27.7	---	---	723.1	0.025	0.000	19.9	66	1
04/25/17	2:16 a	-17.4	-17.3	-17.4	---	---	14.8	SSE	0.25	20.0	-28.6	---	---	723.1	0.025	0.000	19.9	68	1
04/25/17	2:17 a	-17.3	-17.3	-17.3	---	---	14.8	SSE	0.25	20.0	-28.6	---	---	723.0	0.025	0.000	19.9	69	1
04/25/17	2:18 a	-17.3	-17.2	-17.3	---	---	10.4	SSE	0.17	19.1	-26.8	---	---	723.1	0.025	0.000	19.9	68	1
04/25/17	2:19 a	-17.2	-17.2	-17.2	---	---	13.0	SSE	0.22	20.0	-27.8	---	---	723.0	0.025	0.000	19.9	68	1
04/25/17	2:20 a	-17.1	-17.1	-17.2	---	---	7.8	SSE	0.13	16.5	-25.3	---	---	723.1	0.025	0.000	19.9	70	1
04/25/17	2:21 a	-17.1	-17.0	-17.1	---	---	7.8	SSE	0.13	20.0	-25.2	---	---	723.1	0.025	0.000	19.9	69	1
04/25/17	2:22 a	-17.0	-16.9	-17.0	---	---	7.8	SSE	0.13	22.6	-25.1	---	---	723.1	0.025	0.000	19.9	69	1
04/25/17	2:23 a	-16.9	-16.8	-16.9	---	---	13.0	SSE	0.22	18.3	-27.3	---	---	723.0	0.024	0.000	19.9	69	1
04/25/17	2:24 a	-16.8	-16.8	-16.9	---	---	10.4	SSE	0.17	20.0	-26.2	---	---	723.1	0.024	0.000	19.9	70	1
04/25/17	2:25 a	-16.7	-16.7	-16.8	---	---	11.3	SSE	0.19	17.4	-26.4	---	---	723.1	0.024	0.000	19.9	71	1
04/25/17	2:26 a	-16.7	-16.6	-16.7	---	---	8.7	S	0.14	24.3	-25.2	---	---	723.1	0.024	0.000	19.9	70	1
04/25/17	2:27 a	-16.7	-16.6	-16.7	---	---	12.2	SSE	0.20	20.0	-26.7	---	---	723.1	0.024	0.000	19.9	71	1
04/25/17	2:28 a	-16.6	-16.6	-16.6	---	---	8.7	SSE	0.14	20.0	-25.1	---	---	723.1	0.024	0.000	19.9	70	1
04/25/17	2:29 a	-16.6	-16.5	-16.6	---	---	6.1	SSE	0.10	14.8	-23.5	---	---	723.1	0.024	0.000	19.9	71	1
04/25/17	2:30 a	-16.5	-16.4	-16.5	---	---	9.6	SSE	0.16	20.0	-25.4	---	---	723.0	0.024	0.000	19.9	70	1
04/25/17	2:31 a	-16.4	-16.4	-16.4	---	---	5.2	SSE	0.09	14.8	-22.7	---	---	723.2	0.024	0.000	19.9	62	1
04/25/17	2:32 a	-16.4	-16.4	-16.4	---	---	8.7	SSE	0.14	15.7	-24.9	---	---	723.0	0.024	0.000	19.9	62	1
04/25/17	2:33 a	-16.4	-16.4	-16.4	---	---	9.6	SSE	0.16	21.7	-25.3	---	---	723.0	0.024	0.000	19.9	62	1
04/25/17	2:34 a	-16.3	-16.3	-16.4	---	---	9.6	SSE	0.16	22.6	-25.2	---	---	723.1	0.024	0.000	19.9	62	1
04/25/17	2:35 a	-16.3	-16.3	-16.4	---	---	11.3	SSE	0.19	21.7	-26.0	---	---	723.1	0.024	0.000	19.9	62	1
04/25/17	2:36 a	-16.3	-16.3	-16.3	---	---	12.2	SSE	0.20	19.1	-26.3	---	---	723.2	0.024	0.000	19.9	62	1
04/25/17	2:37 a	-16.3	-16.3	-16.3	---	---	11.3	SSE	0.19	18.3	-25.9	---	---	723.1	0.024	0.000	20.0	62	1
04/25/17	2:38 a	-16.3	-16.3	-16.3	---	---	13.9	SSE	0.23	22.6	-26.9	---	---	723.0	0.024	0.000	20.1	63	1
04/25/17	2:39 a	-16.3	-16.3	-16.3	---	---	14.8	SSE	0.25	21.7	-27.2	---	---	723.0	0.024	0.000	20.1	64	1
04/25/17	2:40 a	-16.2	-16.2	-16.3	---	---	13.9	SSE	0.23	17.4	-26.8	---	---	723.1	0.024	0.000	20.1	70	1
04/25/17	2:41 a	-16.2	-16.2	-16.2	---	---	14.8	SSE	0.25	20.9	-27.1	---	---	723.0	0.024	0.000	20.2	71	1
04/25/17	2:42 a	-16.2	-16.2	-16.2	---	---	15.7	SSE	0.26	20.0	-27.4	---	---	723.1	0.024	0.000	20.2	69	1
04/25/17	2:43 a	-16.2	-16.2	-16.2	---	---	14.8	SSE	0.25	19.1	-27.1	---	---	723.0	0.024	0.000	20.3	70	1
04/25/17	2:44 a	-16.2	-16.2	-16.2	---	---	14.8	SSE	0.25	21.7	-27.1	---	---	723.0	0.024	0.000	20.3	72	1
04/25/17	2:45 a	-16.2	-16.2	-16.2	---	---	13.9	SSE	0.23	21.7	-26.8	---	---	723.0	0.024	0.000	20.3	67	1
04/25/17	2:46 a	-16.2	-16.2	-16.2	---	---	14.8	SSE	0.25	19.1	-27.1	---	---	723.0	0.024	0.000	20.4	67	1
04/25/17	2:47 a	-16.2	-16.2	-16.2	---	---	13.0	SSE	0.22	21.7	-26.5	---	---	723.1	0.024	0.000	20.4	68	1
04/25/17	2:48 a	-16.2	-16.2	-16.2	---	---	13.0	SSE	0.22	22.6	-26.5	---	---	723.0	0.024	0.000	20.4	67	1
04/25/17	2:49 a	-16.2	-16.2	-16.2	---	---	9.6	SSE	0.16	17.4	-25.1	---	---	723.1	0.024	0.000	20.4	68	1
04/25/17	2:50 a	-16.2	-16.2	-16.2	---	---	13.9	SSE	0.23	20.0	-26.8	---	---	723.0	0.024	0.000	20.4	67	1
04/25/17	2:51 a	-16.2	-16.2	-16.2	---	---	16.5	SSE	0.28	19.1	-27.6	---	---	723.1	0.024	0.000	20.4	67	1
04/25/17	2:52 a	-16.2	-16.2	-16.2	---	---	16.5	SSE	0.28	18.3	-27.6	---	---	723.1	0.024	0.000	20.4	66	1
04/25/17	2:53 a	-16.2	-16.2	-16.2	---	---	8.7	SSE	0.14	16.5	-24.6	---	---	723.2	0.024	0.000	20.4	67	1
04/25/17	2:54 a	-16.2	-16.2	-16.2	---	---	15.7	SSE	0.26	19.1	-27.3	---	---	723.1	0.024	0.000	20.4	66	1
04/25/17	2:55 a	-16.2	-16.2	-16.2	---	---	13.0	SSE	0.22	19.1	-26.4	---	---	723.2	0.024	0.000	20.4	67	1
04/25/17	2:56 a	-16.2	-16.2	-16.2	---	---	7.0	S	0.12	15.7	-23.6	---	---	723.2	0.024	0.000	20.3	69	1
04/25/17	2:57 a	-16.2	-16.2	-16.2	---	---	9.6	SSE	0.16	19.1	-25.0	---	---	723.1	0.024	0.000	20.3	69	1
04/25/17	2:58 a	-16.2	-16.1	-16.2	---	---	13.0	SSE	0.22	20.9	-26.4	---	---	723.1	0.024	0.000	20.3	69	1
04/25/17	2:59 a	-16.2	-16.2	-16.2	---	---	6.1	SSE	0.10	20.0	-23.1	---	---	723.2	0.024	0.000	20.3	69	1
04/25/17	3:00 a	-16.2	-16.2	-16.2	---	---	4.3	SSE	0.07	9.6	-21.7	---	---	723.3	0.024	0.000	20.4	70	1
04/25/17	3:01 a	-16.2	-16.2	-16.2	---	---	5.2	SSE	0.09	10.4	-22.4	---	---	723.2	0.024	0.000	20.3	68	1
04/25/17	3:02 a	-16.2	-16.2	-16.2	---	---	9.6	SSE	0.16	18.3	-25.0	---	---	723.1	0.024	0.000	20.3	67	1
04/25/17	3:03 a	-16.2	-16.2	-16.2	---	---	7.8	SSE	0.13	13.9	-24.1	---	---	723.1	0.024	0.000	20.3	68	1
04/25/17	3:04 a	-16.2	-16.2	-16.2	---	---	6.1	SSE	0.10	13.0	-23.1	---	---	723.2	0.024	0.000	20.3	68	1
04/25/17	3:05 a	-16.2	-16.2	-16.2	---	---	2.6	S	0.04	9.6	-19.7	---	---	723.2	0.024	0.000	20.3	69	1
04/25/17	3:06 a	-16.2	-16.2	-16.2	---	---	6.1	S	0.10	13.0	-23.1	---	---	723.2	0.024	0.000	20.3	69	1
04/25/17	3:07 a	-16.2	-16.2	-16.2	---	---	4.3	SSE	0.07	10.4	-21.7	---	---	723.2	0.024	0.000	20.3	69	1
04/25/17	3:08 a	-16.2	-16.2	-16.2	---	---	4.3	SSE	0.07	8.7	-21.7	---	---	723.2	0.024	0.000	20.3	69	1
04/25/17	3:09 a	-16.2	-16.2	-16.2	---	---	4.3	S	0.07	12.2	-21.7	---	---	723.1	0.024	0.000	20.3	69	1
04/25/17	3:10 a	-16.2	-16.2	-16.2	---	---	7.0	S	0.12	12.2	-23.7	---	---	723.2	0.024	0.000	20.3	68	1
04/25/17	3:11 a	-16.2	-16.2	-16.3	---	---	5.2	S	0.09	13.9	-22.4	---	---	723.1	0.024	0.000	20.3	68	1
04/25/17	3:12 a	-16.3	-16.2	-16.3	---	---	7.8	S	0.13	17.4	-24.3	---	---	723.1	0.024	0.000	20.3	68	1
04/25/17	3:13 a	-16.3	-16.3	-16.3	---	---	3.5	S	0.06	7.0	-20.9	---	---	723.1	0.024	0.000	20.3	68	1
04/25/17	3:14 a	-16.3	-16.3	-16.3	---	---	0.9	SSE	0.01	2.6	-16.3	---	---	723.1	0.024	0.000	20.3	68	1
04/25/17	3:15 a	-16.3	-16.3	-16.4	---	---	0.9	SSE	0.01	2.6	-16.3	---	---	723.2	0.024	0.000	20.3	68	1
04/25/17	3:16 a	-16.4	-16.3	-16.4	---	---	1.7	S	0.03	3.5	-18.6	---	---	723.1	0.024	0.000	20.3	68	1
04/25/17	3:17 a	-16.4	-16.4	-16.4	---	---	3.5	S	0.06	12.2	-21.1	---	---	723.1	0.024	0.000	20.3	68	1
04/25/17	3:18 a	-16.4	-16.4	-16.5	---	---	4.3	SSE	0.07	9.6	-22.0	---	---	723.2	0.024	0.000	20.3	68	1
04/25/17	3:19 a	-16.5	-16.5	-16.5	---	---	3.5	S	0.06	7.8	-21.2	---	---	723.2	0.024	0.000	20.3	67	1
04/25/17	3:20 a	-16.5	-16.5	-16.6	---	---	7.8	S	0.13	12.2	-24.5	---	---	723.1	0.024	0.000	20.3	67	1
04/25/17	3:21 a	-16.6	-16.6	-16.6	---	---	7.0	S	0.12	9.6	-24.1	---	---	723.1	0.024	0.000	20.3	68	1
04/25/17	3:22 a	-16.6	-16.6	-16.6	---	---	5.2	S	0.09	8.7	-22.9	---	---	723.1	0.024	0.000	20.4	68	1
04/25/17	3:23 a	-16.6	-16.6	-16.6	---	---	7.0	S	0.12	11.3	-24.2	---	---	723.1	0.024	0.000	20.4	68	1
04/25/17	3:24 a	-16.6	-16.6	-16.6	---	---	10.4	S	0.17	18.3	-25.9	---	---	723.1	0.024	0.000	20.4	68	1
04/25/17	3:25 a	-16.6	-16.6	-16.6	---	---	11.3	SSW	0.19	20.0	-26.3	---	---	723.0	0.024	0.000	20.5	68	1
04/25/17	3:26 a	-16.6	-16.6	-16.6	---	---	1.7	S	0.03	5.2	-18.8	---	---	723.1	0.024	0.000	20.5	68	1
04/25/17	3:27 a	-16.6	-16.6	-16.6	---	---	2.6	S	0.04	4.3	-20.2	---	---	723.1	0.024	0.000	20.6	67	1
04/25/17	3:28 a	-16.6	-16.6	-16.6	---	---	3.5	SSE	0.06	8.7	-21.3	---	---	723.1	0.024	0.000	20.6	67	1
04/25/17	3:29 a	-16.6	-16.6	-16.6	---	---	3.5	S	0.06	6.1	-21.2	---	---	723.0	0.024	0.000	20.6	69	1
04/25/17	3:30 a	-16.6	-16.6	-16.6	---	---	6.1	SSE	0.10	9.6	-23.5	---	---	723.0	0.024	0.000	20.7	66	1
04/25/17	3:31 a	-16.6	-16.6	-16.6	---	---	5.2	S	0.09	12.2	-22.9	---	---	723.0	0.024	0.000	20.6	68	1
04/25/17	3:32 a	-16.6	-16.6	-16.6	---	---	7.0	S	0.12	14.8	-24.1	---	---	723.1	0.024	0.000	20.6	66	1
04/25/17	3:33 a	-16.6	-16.6	-16.6	---	---	3.5	SSE	0.06	6.1	-21.2	---	---	723.1	0.024	0.000	20.6	66	1
04/25/17	3:34 a	-16.6	-16.6	-16.6	---	---	7.0	S	0.12	14.8	-24.1	---	---	723.1	0.024	0.000	20.6	63	1
04/25/17	3:35 a	-16.6	-16.6	-16.6	---	---	4.3	S	0.07	7.8	-22.1	---	---	723.1	0.024	0.000	20.6	64	1
04/25/17	3:36 a	-16.6	-16.6	-16.6	---	---	6.1	S	0.10	11.3	-23.5	---	---	723.1	0.024	0.000	20.6	63	1
04/25/17	3:37 a	-16.6	-16.6	-16.6	---	---	5.2	S	0.09	12.2	-22.9	---	---	723.1	0.024	0.000	20.6	63	1
04/25/17	3:38 a	-16.6	-16.6	-16.6	---	---	5.2	S	0.09	13.0	-22.9	---	---	723.0	0.024	0.000	20.6	63	1
04/25/17	3:39 a	-16.6	-16.6	-16.6	---	---	2.6	S	0.04	9.6	-20.2	---	---	723.0	0.024	0.000	20.5	63	1
04/25/17	3:40 a	-16.6	-16.6	-16.6	---	---	2.6	S	0.04	10.4	-20.2	---	---	723.1	0.024	0.000	20.5	64	1
04/25/17	3:41 a	-16.6	-16.6	-16.7	---	---	3.5	SSE	0.06	10.4	-21.3	---	---	723.0	0.024	0.000	20.5	66	1
04/25/17	3:42 a	-16.7	-16.6	-16.7	---	---	5.2	SSE	0.09	11.3	-23.0	---	---	722.9	0.024	0.000	20.5	65	1
04/25/17	3:43 a	-16.7	-16.7	-16.7	---	---	7.0	SSE	0.12	11.3	-24.2	---	---	723.0	0.024	0.000	20.5	65	1
04/25/17	3:44 a	-16.7	-16.7	-16.7	---	---	3.5	S	0.06	9.6	-21.4	---	---	723.0	0.024	0.000	20.5	64	1
04/25/17	3:45 a	-16.7	-16.7	-16.7	---	---	4.3	S	0.07	10.4	-22.3	---	---	723.0	0.024	0.000	20.5	64	1
04/25/17	3:46 a	-16.7	-16.7	-16.7	---	---	3.5	SSE	0.06	12.2	-21.4	---	---	722.9	0.024	0.000	20.5	65	1
04/25/17	3:47 a	-16.7	-16.7	-16.8	---	---	5.2	SSE	0.09	12.2	-23.1	---	---	722.8	0.024	0.000	20.5	64	1
04/25/17	3:48 a	-16.8	-16.7	-16.8	---	---	4.3	SSE	0.07	13.9	-22.4	---	---	722.9	0.024	0.000	20.5	63	1
04/25/17	3:49 a	-16.8	-16.7	-16.8	---	---	6.1	SSE	0.10	13.0	-23.8	---	---	722.9	0.024	0.000	20.5	63	1
04/25/17	3:50 a	-16.8	-16.7	-16.8	---	---	5.2	SSE	0.09	14.8	-23.1	---	---	722.8	0.024	0.000	20.5	63	1
04/25/17	3:51 a	-16.7	-16.7	-16.8	---	---	7.0	SSE	0.12	18.3	-24.3	---	---	722.8	0.024	0.000	20.5	62	1
04/25/17	3:52 a	-16.7	-16.7	-16.7	---	---	4.3	SSE	0.07	9.6	-22.3	---	---	722.8	0.024	0.000	20.5	62	1
04/25/17	3:53 a	-16.7	-16.7	-16.7	---	---	6.1	S	0.10	17.4	-23.7	---	---	722.8	0.024	0.000	20.5	63	1
04/25/17	3:54 a	-16.7	-16.6	-16.7	---	---	6.1	S	0.10	13.9	-23.7	---	---	722.8	0.024	0.000	20.5	63	1
04/25/17	3:55 a	-16.6	-16.6	-16.6	---	---	3.5	S	0.06	11.3	-21.3	---	---	722.8	0.024	0.000	20.5	63	1
04/25/17	3:56 a	-16.5	-16.5	-16.6	---	---	7.8	S	0.13	13.9	-24.5	---	---	722.8	0.024	0.000	20.5	62	1
04/25/17	3:57 a	-16.4	-16.4	-16.4	---	---	4.3	S	0.07	10.4	-22.0	---	---	722.8	0.024	0.000	20.4	63	1
04/25/17	3:58 a	-16.4	-16.3	-16.4	---	---	4.3	S	0.07	17.4	-21.9	---	---	722.8	0.024	0.000	20.4	62	1
04/25/17	3:59 a	-16.3	-16.3	-16.3	---	---	7.8	S	0.13	16.5	-24.3	---	---	722.7	0.024	0.000	20.4	62	1
04/25/17	4:00 a	-16.3	-16.3	-16.3	---	---	17.4	SSW	0.29	22.6	-28.0	---	---	722.9	0.024	0.000	20.4	61	1
04/25/17	4:01 a	-16.3	-16.2	-16.3	---	---	15.7	SSW	0.26	22.6	-27.4	---	---	722.8	0.024	0.000	20.3	61	1
04/25/17	4:02 a	-16.2	-16.2	-16.2	---	---	5.2	S	0.09	8.7	-22.4	---	---	722.7	0.024	0.000	20.3	61	1
04/25/17	4:03 a	-16.2	-16.2	-16.2	---	---	1.7	S	0.03	6.1	-18.3	---	---	722.7	0.024	0.000	20.3	62	1
04/25/17	4:04 a	-16.2	-16.2	-16.3	---	---	3.5	SSE	0.06	8.7	-20.9	---	---	722.8	0.024	0.000	20.2	62	1
04/25/17	4:05 a	-16.3	-16.2	-16.3	---	---	7.8	SSE	0.13	10.4	-24.3	---	---	722.8	0.024	0.000	20.2	62	1
04/25/17	4:06 a	-16.3	-16.3	-16.3	---	---	1.7	SSE	0.03	3.5	-18.4	---	---	722.8	0.024	0.000	20.2	62	1
04/25/17	4:07 a	-16.4	-16.3	-16.4	---	---	2.6	SSE	0.04	5.2	-20.0	---	---	722.8	0.024	0.000	20.2	62	1
04/25/17	4:08 a	-16.4	-16.4	-16.5	---	---	1.7	S	0.03	7.8	-18.6	---	---	722.9	0.024	0.000	20.2	61	1
04/25/17	4:09 a	-16.5	-16.5	-16.6	---	---	2.6	S	0.04	5.2	-20.1	---	---	722.8	0.024	0.000	20.2	62	1
04/25/17	4:10 a	-16.6	-16.6	-16.6	---	---	0.9	SSE	0.01	2.6	-16.6	---	---	722.9	0.024	0.000	20.2	62	1
04/25/17	4:11 a	-16.7	-16.7	-16.7	---	---	1.7	SSE	0.03	5.2	-18.8	---	---	722.8	0.024	0.000	20.2	62	1
04/25/17	4:12 a	-16.7	-16.7	-16.8	---	---	4.3	SSE	0.07	7.0	-22.3	---	---	722.9	0.024	0.000	20.2	62	1
04/25/17	4:13 a	-16.8	-16.8	-16.9	---	---	3.5	S	0.06	8.7	-21.6	---	---	722.9	0.024	0.000	20.2	62	1
04/25/17	4:14 a	-16.9	-16.8	-16.9	---	---	0.9	S	0.01	4.3	-16.9	---	---	722.9	0.024	0.000	20.2	62	1
04/25/17	4:15 a	-16.9	-16.9	-17.0	---	---	6.1	SSE	0.10	10.4	-24.0	---	---	722.9	0.024	0.000	20.2	62	1
04/25/17	4:16 a	-17.0	-16.9	-17.1	---	---	2.6	SSE	0.04	7.8	-20.7	---	---	722.9	0.025	0.000	20.2	62	1
04/25/17	4:17 a	-17.1	-17.0	-17.1	---	---	3.5	SSE	0.06	6.1	-21.8	---	---	722.9	0.025	0.000	20.1	63	1
04/25/17	4:18 a	-17.1	-17.1	-17.1	---	---	3.5	SSE	0.06	7.0	-21.9	---	---	723.0	0.025	0.000	20.1	63	1
04/25/17	4:19 a	-17.1	-17.1	-17.2	---	---	3.5	S	0.06	7.8	-21.9	---	---	723.0	0.025	0.000	20.1	63	1
04/25/17	4:20 a	-17.2	-17.2	-17.2	---	---	2.6	S	0.04	5.2	-20.8	---	---	722.9	0.025	0.000	20.1	63	1
04/25/17	4:21 a	-17.2	-17.2	-17.2	---	---	2.6	S	0.04	5.2	-20.9	---	---	723.0	0.025	0.000	20.1	62	1
04/25/17	4:22 a	-17.2	-17.2	-17.3	---	---	3.5	SSE	0.06	6.1	-22.0	---	---	723.0	0.025	0.000	20.0	62	1
04/25/17	4:23 a	-17.3	-17.3	-17.3	---	---	4.3	SSE	0.07	6.1	-23.0	---	---	723.0	0.025	0.000	20.0	62	1
04/25/17	4:24 a	-17.3	-17.3	-17.3	---	---	3.5	SSE	0.06	5.2	-22.2	---	---	723.0	0.025	0.000	19.9	63	1
04/25/17	4:25 a	-17.4	-17.3	-17.4	---	---	3.5	SSE	0.06	7.8	-22.2	---	---	723.0	0.025	0.000	19.9	63	1
04/25/17	4:26 a	-17.4	-17.4	-17.4	---	---	3.5	SSE	0.06	6.1	-22.2	---	---	723.0	0.025	0.000	19.9	63	1
04/25/17	4:27 a	-17.4	-17.4	-17.4	---	---	2.6	S	0.04	7.0	-21.2	---	---	723.0	0.025	0.000	19.9	63	1
04/25/17	4:28 a	-17.5	-17.4	-17.5	---	---	2.6	S	0.04	5.2	-21.2	---	---	723.0	0.025	0.000	19.9	63	1
04/25/17	4:29 a	-17.6	-17.5	-17.6	---	---	4.3	S	0.07	7.0	-23.3	---	---	723.0	0.025	0.000	19.8	63	1
04/25/17	4:30 a	-17.6	-17.6	-17.6	---	---	6.1	SW	0.10	7.8	-24.7	---	---	723.0	0.025	0.000	19.8	63	1
04/25/17	4:31 a	-17.6	-17.6	-17.6	---	---	7.8	SW	0.13	10.4	-25.8	---	---	723.0	0.025	0.000	19.8	63	1
04/25/17	4:32 a	-17.6	-17.6	-17.6	---	---	7.8	SW	0.13	8.7	-25.8	---	---	723.0	0.025	0.000	19.8	63	1
04/25/17	4:33 a	-17.6	-17.5	-17.6	---	---	7.0	SW	0.12	8.7	-25.3	---	---	723.0	0.025	0.000	19.8	63	1
04/25/17	4:34 a	-17.6	-17.5	-17.6	---	---	6.1	WSW	0.10	8.7	-24.7	---	---	723.0	0.025	0.000	19.7	63	1
04/25/17	4:35 a	-17.4	-17.4	-17.5	---	---	6.1	WSW	0.10	7.0	-24.6	---	---	723.0	0.025	0.000	19.7	63	1
04/25/17	4:36 a	-17.4	-17.3	-17.4	---	---	5.2	WSW	0.09	7.0	-23.8	---	---	723.0	0.025	0.000	19.7	63	1
04/25/17	4:37 a	-17.3	-17.2	-17.3	---	---	3.5	SW	0.06	5.2	-22.1	---	---	723.0	0.025	0.000	19.7	63	1
04/25/17	4:38 a	-17.2	-17.2	-17.2	---	---	4.3	SW	0.07	5.2	-22.9	---	---	723.0	0.025	0.000	19.8	63	1
04/25/17	4:39 a	-17.2	-17.1	-17.2	---	---	6.1	WSW	0.10	8.7	-24.2	---	---	723.0	0.025	0.000	19.8	63	1
04/25/17	4:40 a	-17.1	-17.0	-17.1	---	---	6.1	SW	0.10	9.6	-24.1	---	---	723.0	0.025	0.000	19.8	63	1
04/25/17	4:41 a	-17.0	-16.9	-17.0	---	---	7.0	SW	0.12	9.6	-24.6	---	---	723.0	0.025	0.000	19.8	63	1
04/25/17	4:42 a	-16.9	-16.9	-16.9	---	---	8.7	SW	0.14	10.4	-25.6	---	---	723.0	0.024	0.000	19.8	63	1
04/25/17	4:43 a	-16.8	-16.8	-16.9	---	---	5.2	SW	0.09	7.0	-23.2	---	---	723.0	0.024	0.000	19.8	63	1
04/25/17	4:44 a	-16.8	-16.8	-16.8	---	---	6.1	SSW	0.10	7.0	-23.8	---	---	723.0	0.024	0.000	19.8	63	1
04/25/17	4:45 a	-16.8	-16.8	-16.8	---	---	5.2	SSW	0.09	6.1	-23.1	---	---	723.0	0.024	0.000	19.8	63	1
04/25/17	4:46 a	-16.8	-16.7	-16.8	---	---	3.5	S	0.06	6.1	-21.5	---	---	722.9	0.024	0.000	19.8	62	1
04/25/17	4:47 a	-16.7	-16.7	-16.7	---	---	7.0	SSW	0.12	8.7	-24.3	---	---	722.9	0.024	0.000	19.8	63	1
04/25/17	4:48 a	-16.7	-16.7	-16.7	---	---	4.3	SW	0.07	6.1	-22.3	---	---	723.0	0.024	0.000	19.7	63	1
04/25/17	4:49 a	-16.7	-16.7	-16.7	---	---	5.2	SSW	0.09	8.7	-23.1	---	---	723.0	0.024	0.000	19.7	63	1
04/25/17	4:50 a	-16.7	-16.7	-16.7	---	---	5.2	SSW	0.09	6.1	-23.0	---	---	723.1	0.024	0.000	19.7	64	1
04/25/17	4:51 a	-16.7	-16.7	-16.7	---	---	4.3	SSW	0.07	6.1	-22.3	---	---	723.1	0.024	0.000	19.7	63	1
04/25/17	4:52 a	-16.7	-16.7	-16.7	---	---	3.5	S	0.06	6.1	-21.4	---	---	723.0	0.024	0.000	19.7	63	1
04/25/17	4:53 a	-16.7	-16.7	-16.7	---	---	4.3	SSW	0.07	5.2	-22.3	---	---	723.0	0.024	0.000	19.6	63	1
04/25/17	4:54 a	-16.7	-16.7	-16.7	---	---	1.7	S	0.03	5.2	-18.9	---	---	723.0	0.024	0.000	19.6	63	1
04/25/17	4:55 a	-16.7	-16.7	-16.7	---	---	1.7	S	0.03	3.5	-18.9	---	---	722.9	0.024	0.000	19.6	63	1
04/25/17	4:56 a	-16.7	-16.7	-16.8	---	---	1.7	S	0.03	2.6	-18.9	---	---	723.0	0.024	0.000	19.6	63	1
04/25/17	4:57 a	-16.8	-16.7	-16.8	---	---	1.7	S	0.03	2.6	-18.9	---	---	723.0	0.024	0.000	19.6	64	1
04/25/17	4:58 a	-16.8	-16.7	-16.8	---	---	1.7	S	0.03	3.5	-18.9	---	---	723.1	0.024	0.000	19.6	63	1
04/25/17	4:59 a	-16.8	-16.8	-16.8	---	---	1.7	S	0.03	3.5	-18.9	---	---	723.1	0.024	0.000	19.5	64	1
04/25/17	5:00 a	-16.8	-16.8	-16.8	---	---	3.5	SSW	0.06	6.1	-21.5	---	---	723.0	0.024	0.000	19.5	64	1
04/25/17	5:01 a	-16.8	-16.8	-16.8	---	---	4.3	SW	0.07	6.1	-22.4	---	---	723.0	0.024	0.000	19.5	64	1
04/25/17	5:02 a	-16.8	-16.8	-16.8	---	---	4.3	SSW	0.07	6.1	-22.4	---	---	723.0	0.024	0.000	19.4	64	1
04/25/17	5:03 a	-16.8	-16.8	-16.8	---	---	2.6	SSW	0.04	5.2	-20.5	---	---	723.0	0.024	0.000	19.5	64	1
04/25/17	5:04 a	-16.8	-16.8	-16.8	---	---	2.6	S	0.04	5.2	-20.5	---	---	722.9	0.024	0.000	19.5	64	1
04/25/17	5:05 a	-16.8	-16.8	-16.8	---	---	1.7	S	0.03	3.5	-19.0	---	---	723.0	0.024	0.000	19.6	64	1
04/25/17	5:06 a	-16.8	-16.8	-16.8	---	---	2.6	SSW	0.04	5.2	-20.5	---	---	723.0	0.024	0.000	19.6	63	1
04/25/17	5:07 a	-16.8	-16.8	-16.8	---	---	1.7	SSW	0.03	2.6	-19.0	---	---	723.0	0.024	0.000	19.6	63	1
04/25/17	5:08 a	-16.8	-16.8	-16.8	---	---	1.7	SSW	0.03	2.6	-19.0	---	---	723.0	0.024	0.000	19.6	63	1
04/25/17	5:09 a	-16.8	-16.8	-16.8	---	---	1.7	S	0.03	4.3	-19.0	---	---	723.0	0.024	0.000	19.6	64	1
04/25/17	5:10 a	-16.8	-16.8	-16.8	---	---	4.3	SW	0.07	7.0	-22.4	---	---	723.0	0.024	0.000	19.6	64	1
04/25/17	5:11 a	-16.8	-16.8	-16.8	---	---	3.5	SW	0.06	4.3	-21.5	---	---	723.0	0.024	0.000	19.6	64	1
04/25/17	5:12 a	-16.8	-16.8	-16.8	---	---	5.2	SSW	0.09	7.0	-23.1	---	---	723.0	0.024	0.000	19.6	64	1
04/25/17	5:13 a	-16.8	-16.8	-16.8	---	---	5.2	SSW	0.09	6.1	-23.1	---	---	723.0	0.024	0.000	19.6	64	1
04/25/17	5:14 a	-16.8	-16.8	-16.8	---	---	3.5	S	0.06	7.0	-21.5	---	---	723.1	0.024	0.000	19.6	64	1
04/25/17	5:15 a	-16.8	-16.7	-16.8	---	---	2.6	S	0.04	5.2	-20.4	---	---	723.0	0.024	0.000	19.5	64	1
04/25/17	5:16 a	-16.7	-16.7	-16.8	---	---	2.6	S	0.04	4.3	-20.3	---	---	723.0	0.024	0.000	19.5	64	1
04/25/17	5:17 a	-16.7	-16.7	-16.7	---	---	2.6	SSE	0.04	3.5	-20.3	---	---	722.9	0.024	0.000	19.4	64	1
04/25/17	5:18 a	-16.7	-16.7	-16.7	---	---	0.9	SSE	0.01	1.7	-16.7	---	---	722.9	0.024	0.000	19.4	65	1
04/25/17	5:19 a	-16.7	-16.7	-16.7	---	---	3.5	S	0.06	5.2	-21.4	---	---	722.9	0.024	0.000	19.4	65	1
04/25/17	5:20 a	-16.7	-16.7	-16.7	---	---	2.6	S	0.04	5.2	-20.3	---	---	722.9	0.024	0.000	19.4	65	1
04/25/17	5:21 a	-16.7	-16.7	-16.7	---	---	2.6	SSE	0.04	3.5	-20.3	---	---	723.0	0.024	0.000	19.4	64	1
04/25/17	5:22 a	-16.7	-16.7	-16.7	---	---	2.6	SSE	0.04	3.5	-20.3	---	---	722.8	0.024	0.000	19.4	65	1
04/25/17	5:23 a	-16.7	-16.7	-16.7	---	---	2.6	SSW	0.04	6.1	-20.3	---	---	722.9	0.024	0.000	19.4	65	1
04/25/17	5:24 a	-16.7	-16.7	-16.7	---	---	3.5	S	0.06	7.0	-21.4	---	---	723.0	0.024	0.000	19.3	65	1
04/25/17	5:25 a	-16.7	-16.7	-16.7	---	---	4.3	S	0.07	7.0	-22.3	---	---	722.9	0.024	0.000	19.3	65	1
04/25/17	5:26 a	-16.7	-16.7	-16.7	---	---	4.3	SSW	0.07	7.0	-22.3	---	---	722.9	0.024	0.000	19.3	65	1
04/25/17	5:27 a	-16.7	-16.6	-16.7	---	---	5.2	SSW	0.09	7.8	-23.0	---	---	722.9	0.024	0.000	19.3	65	1
04/25/17	5:28 a	-16.6	-16.6	-16.7	---	---	6.1	SSW	0.10	11.3	-23.6	---	---	722.8	0.024	0.000	19.3	65	1
04/25/17	5:29 a	-16.7	-16.6	-16.7	---	---	4.3	SSE	0.07	6.1	-22.3	---	---	722.8	0.024	0.000	19.4	65	1
04/25/17	5:30 a	-16.6	-16.6	-16.7	---	---	4.3	S	0.07	8.7	-22.2	---	---	722.9	0.024	0.000	19.4	65	1
04/25/17	5:31 a	-16.6	-16.6	-16.6	---	---	8.7	SSW	0.14	13.0	-25.1	---	---	722.8	0.024	0.000	19.4	65	1
04/25/17	5:32 a	-16.6	-16.6	-16.6	---	---	6.1	S	0.10	10.4	-23.6	---	---	722.9	0.024	0.000	19.4	65	1
04/25/17	5:33 a	-16.6	-16.6	-16.6	---	---	5.2	S	0.09	8.7	-22.9	---	---	722.8	0.024	0.000	19.4	64	1
04/25/17	5:34 a	-16.6	-16.6	-16.6	---	---	6.1	S	0.10	12.2	-23.5	---	---	722.8	0.024	0.000	19.4	65	1
04/25/17	5:35 a	-16.6	-16.5	-16.6	---	---	5.2	S	0.09	10.4	-22.9	---	---	722.8	0.024	0.000	19.4	65	1
04/25/17	5:36 a	-16.5	-16.5	-16.5	---	---	6.1	SSE	0.10	12.2	-23.4	---	---	722.8	0.024	0.000	19.4	65	1
04/25/17	5:37 a	-16.4	-16.4	-16.4	---	---	10.4	SSW	0.17	13.9	-25.7	---	---	722.8	0.024	0.000	19.4	65	1
04/25/17	5:38 a	-16.4	-16.3	-16.4	---	---	4.3	S	0.07	13.0	-22.0	---	---	722.9	0.024	0.000	19.4	65	1
04/25/17	5:39 a	-16.4	-16.3	-16.4	---	---	5.2	S	0.09	13.0	-22.7	---	---	722.9	0.024	0.000	19.4	65	1
04/25/17	5:40 a	-16.3	-16.3	-16.3	---	---	2.6	SSE	0.04	4.3	-19.9	---	---	722.8	0.024	0.000	19.4	65	1
04/25/17	5:41 a	-16.3	-16.3	-16.3	---	---	2.6	S	0.04	7.0	-19.8	---	---	722.8	0.024	0.000	19.3	65	1
04/25/17	5:42 a	-16.3	-16.3	-16.3	---	---	3.5	S	0.06	8.7	-20.9	---	---	722.8	0.024	0.000	19.3	64	1
04/25/17	5:43 a	-16.2	-16.2	-16.3	---	---	2.6	SSE	0.04	6.1	-19.8	---	---	722.7	0.024	0.000	19.3	64	1
04/25/17	5:44 a	-16.2	-16.2	-16.3	---	---	5.2	S	0.09	11.3	-22.4	---	---	722.8	0.024	0.000	19.3	65	1
04/25/17	5:45 a	-16.2	-16.2	-16.2	---	---	0.9	S	0.01	2.6	-16.2	---	---	722.8	0.024	0.000	19.3	65	1
04/25/17	5:46 a	-16.2	-16.2	-16.2	---	---	5.2	S	0.09	13.0	-22.4	---	---	722.8	0.024	0.000	19.3	65	1
04/25/17	5:47 a	-16.2	-16.2	-16.2	---	---	1.7	S	0.03	4.3	-18.3	---	---	722.8	0.024	0.000	19.3	65	1
04/25/17	5:48 a	-16.2	-16.2	-16.2	---	---	4.3	S	0.07	7.0	-21.7	---	---	722.8	0.024	0.000	19.2	65	1
04/25/17	5:49 a	-16.2	-16.2	-16.2	---	---	7.0	S	0.12	13.9	-23.7	---	---	722.7	0.024	0.000	19.2	65	1
04/25/17	5:50 a	-16.2	-16.2	-16.2	---	---	3.5	S	0.06	10.4	-20.9	---	---	722.8	0.024	0.000	19.2	64	1
04/25/17	5:51 a	-16.2	-16.2	-16.2	---	---	4.3	S	0.07	10.4	-21.7	---	---	722.9	0.024	0.000	19.2	65	1
04/25/17	5:52 a	-16.2	-16.2	-16.2	---	---	2.6	S	0.04	7.8	-19.7	---	---	722.9	0.024	0.000	19.2	65	1
04/25/17	5:53 a	-16.2	-16.2	-16.2	---	---	0.9	S	0.01	2.6	-16.2	---	---	722.8	0.024	0.000	19.3	65	1
04/25/17	5:54 a	-16.2	-16.2	-16.2	---	---	1.7	S	0.03	4.3	-18.3	---	---	722.8	0.024	0.000	19.3	65	1
04/25/17	5:55 a	-16.2	-16.2	-16.2	---	---	1.7	S	0.03	5.2	-18.3	---	---	722.8	0.024	0.000	19.3	65	1
04/25/17	5:56 a	-16.2	-16.2	-16.2	---	---	1.7	S	0.03	6.1	-18.3	---	---	722.9	0.024	0.000	19.3	65	1
04/25/17	5:57 a	-16.2	-16.2	-16.2	---	---	1.7	S	0.03	4.3	-18.3	---	---	722.8	0.024	0.000	19.3	64	1
04/25/17	5:58 a	-16.2	-16.2	-16.2	---	---	2.6	S	0.04	7.0	-19.7	---	---	722.8	0.024	0.000	19.3	65	1
04/25/17	5:59 a	-16.2	-16.2	-16.2	---	---	0.9	S	0.01	3.5	-16.2	---	---	722.8	0.024	0.000	19.3	64	1
04/25/17	6:00 a	-16.2	-16.2	-16.2	---	---	0.9	S	0.01	1.7	-16.2	---	---	722.8	0.024	0.000	19.3	64	1
04/25/17	6:01 a	-16.2	-16.2	-16.2	---	---	3.5	S	0.06	7.8	-20.8	---	---	722.9	0.024	0.000	19.3	64	1
04/25/17	6:02 a	-16.2	-16.2	-16.2	---	---	3.5	S	0.06	6.1	-20.8	---	---	722.9	0.024	0.000	19.3	64	1
04/25/17	6:03 a	-16.2	-16.2	-16.2	---	---	1.7	S	0.03	4.3	-18.3	---	---	722.8	0.024	0.000	19.3	64	1
04/25/17	6:04 a	-16.2	-16.2	-16.2	---	---	0.9	S	0.01	2.6	-16.2	---	---	722.8	0.024	0.000	19.3	65	1
04/25/17	6:05 a	-16.2	-16.2	-16.2	---	---	1.7	S	0.03	4.3	-18.3	---	---	722.8	0.024	0.000	19.2	65	1
04/25/17	6:06 a	-16.2	-16.2	-16.2	---	---	1.7	S	0.03	3.5	-18.3	---	---	722.8	0.024	0.000	19.2	64	1
04/25/17	6:07 a	-16.2	-16.2	-16.2	---	---	2.6	S	0.04	8.7	-19.7	---	---	722.8	0.024	0.000	19.2	64	1
04/25/17	6:08 a	-16.2	-16.2	-16.2	---	---	3.5	S	0.06	8.7	-20.9	---	---	722.9	0.024	0.000	19.2	64	1
04/25/17	6:09 a	-16.2	-16.2	-16.2	---	---	7.0	SSW	0.12	9.6	-23.7	---	---	722.8	0.024	0.000	19.2	64	1
04/25/17	6:10 a	-16.2	-16.2	-16.2	---	---	5.2	SSW	0.09	10.4	-22.4	---	---	722.8	0.024	0.000	19.2	64	1
04/25/17	6:11 a	-16.2	-16.2	-16.2	---	---	6.1	SSW	0.10	9.6	-23.1	---	---	722.8	0.024	0.000	19.2	64	1
04/25/17	6:12 a	-16.2	-16.2	-16.2	---	---	7.0	S	0.12	12.2	-23.7	---	---	722.8	0.024	0.000	19.2	64	1
04/25/17	6:13 a	-16.2	-16.2	-16.2	---	---	6.1	SSW	0.10	9.6	-23.1	---	---	722.8	0.024	0.000	19.2	65	1
04/25/17	6:14 a	-16.2	-16.2	-16.2	---	---	3.5	S	0.06	7.8	-20.9	---	---	722.8	0.024	0.000	19.2	65	1
04/25/17	6:15 a	-16.2	-16.2	-16.2	---	---	2.6	S	0.04	4.3	-19.7	---	---	722.8	0.024	0.000	19.2	64	1
04/25/17	6:16 a	-16.2	-16.2	-16.2	---	---	3.5	S	0.06	5.2	-20.8	---	---	722.9	0.024	0.000	19.2	64	1
04/25/17	6:17 a	-16.2	-16.2	-16.2	---	---	0.9	S	0.01	2.6	-16.2	---	---	722.8	0.024	0.000	19.2	64	1
04/25/17	6:18 a	-16.2	-16.2	-16.2	---	---	3.5	S	0.06	7.0	-20.8	---	---	722.8	0.024	0.000	19.2	64	1
04/25/17	6:19 a	-16.2	-16.2	-16.2	---	---	7.0	SSW	0.12	9.6	-23.6	---	---	722.8	0.024	0.000	19.2	64	1
04/25/17	6:20 a	-16.2	-16.1	-16.2	---	---	5.2	S	0.09	10.4	-22.4	---	---	722.9	0.024	0.000	19.2	64	1
04/25/17	6:21 a	-16.2	-16.1	-16.2	---	---	4.3	S	0.07	7.0	-21.7	---	---	722.9	0.024	0.000	19.3	64	1
04/25/17	6:22 a	-16.1	-16.1	-16.2	---	---	7.0	SSW	0.12	8.7	-23.6	---	---	722.8	0.024	0.000	19.3	64	1
04/25/17	6:23 a	-16.1	-16.1	-16.2	---	---	6.1	SSW	0.10	7.8	-23.0	---	---	722.8	0.024	0.000	19.3	64	1
04/25/17	6:24 a	-16.1	-16.1	-16.1	---	---	7.0	SSW	0.12	8.7	-23.6	---	---	722.8	0.024	0.000	19.3	64	1
04/25/17	6:25 a	-16.1	-16.1	-16.1	---	---	6.1	SSW	0.10	7.8	-23.0	---	---	722.8	0.024	0.000	19.3	64	1
04/25/17	6:26 a	-16.1	-16.1	-16.1	---	---	7.0	SSW	0.12	8.7	-23.6	---	---	722.8	0.024	0.000	19.2	64	1
04/25/17	6:27 a	-16.1	-16.1	-16.1	---	---	6.1	SSW	0.10	7.0	-22.9	---	---	722.8	0.024	0.000	19.2	64	1
04/25/17	6:28 a	-16.1	-16.1	-16.1	---	---	6.1	SSW	0.10	7.0	-22.9	---	---	722.8	0.024	0.000	19.2	63	1
04/25/17	6:29 a	-16.1	-16.0	-16.1	---	---	6.1	SSW	0.10	7.8	-22.9	---	---	722.9	0.024	0.000	19.2	64	1
04/25/17	6:30 a	-16.1	-16.0	-16.1	---	---	7.0	SSW	0.12	7.8	-23.4	---	---	722.8	0.024	0.000	19.2	64	1
04/25/17	6:31 a	-16.0	-16.0	-16.0	---	---	6.1	SSW	0.10	7.0	-22.8	---	---	722.7	0.024	0.000	19.2	64	1
04/25/17	6:32 a	-16.0	-16.0	-16.0	---	---	6.1	SSW	0.10	6.1	-22.8	---	---	722.8	0.024	0.000	19.2	64	1
04/25/17	6:33 a	-16.0	-16.0	-16.0	---	---	4.3	SSW	0.07	7.0	-21.5	---	---	722.8	0.024	0.000	19.2	64	1
04/25/17	6:34 a	-16.0	-16.0	-16.0	---	---	0.9	S	0.01	2.6	-16.0	---	---	722.8	0.024	0.000	19.2	64	1
04/25/17	6:35 a	-16.0	-16.0	-16.0	---	---	0.0	S	0.00	1.7	-16.0	---	---	722.8	0.024	0.000	19.1	64	1
04/25/17	6:36 a	-16.0	-15.9	-16.0	---	---	0.9	S	0.01	3.5	-16.0	---	---	722.8	0.024	0.000	19.1	64	1
04/25/17	6:37 a	-16.0	-16.0	-16.0	---	---	0.9	S	0.01	3.5	-16.0	---	---	722.8	0.024	0.000	19.1	64	1
04/25/17	6:38 a	-16.0	-16.0	-16.1	---	---	0.9	S	0.01	2.6	-16.0	---	---	722.7	0.024	0.000	19.1	64	1
04/25/17	6:39 a	-16.0	-16.0	-16.0	---	---	1.7	SSE	0.03	2.6	-18.1	---	---	722.8	0.024	0.000	19.1	64	1
04/25/17	6:40 a	-16.0	-16.0	-16.0	---	---	1.7	SSE	0.03	2.6	-18.1	---	---	722.7	0.024	0.000	19.1	64	1
04/25/17	6:41 a	-16.0	-16.0	-16.1	---	---	0.9	S	0.01	1.7	-16.0	---	---	722.8	0.024	0.000	19.2	64	1
04/25/17	6:42 a	-16.1	-16.0	-16.1	---	---	1.7	S	0.03	3.5	-18.2	---	---	722.8	0.024	0.000	19.2	64	1
04/25/17	6:43 a	-16.1	-16.0	-16.1	---	---	0.9	S	0.01	1.7	-16.1	---	---	722.8	0.024	0.000	19.2	64	1
04/25/17	6:44 a	-16.1	-16.1	-16.1	---	---	1.7	SSE	0.03	2.6	-18.2	---	---	722.8	0.024	0.000	19.2	64	1
04/25/17	6:45 a	-16.1	-16.0	-16.1	---	---	2.6	SSE	0.04	2.6	-19.6	---	---	722.9	0.024	0.000	19.2	64	1
04/25/17	6:46 a	-16.1	-16.1	-16.1	---	---	1.7	S	0.03	2.6	-18.2	---	---	722.8	0.024	0.000	19.2	64	1
04/25/17	6:47 a	-16.1	-16.1	-16.1	---	---	1.7	SSE	0.03	2.6	-18.2	---	---	722.8	0.024	0.000	19.2	64	1
04/25/17	6:48 a	-16.1	-16.1	-16.1	---	---	0.9	SSE	0.01	1.7	-16.1	---	---	722.9	0.024	0.000	19.2	63	1
04/25/17	6:49 a	-16.1	-16.1	-16.1	---	---	0.9	SSE	0.01	1.7	-16.1	---	---	722.7	0.024	0.000	19.2	64	1
04/25/17	6:50 a	-16.1	-16.1	-16.1	---	---	2.6	SSE	0.04	4.3	-19.7	---	---	722.8	0.024	0.000	19.2	63	1
04/25/17	6:51 a	-16.1	-16.1	-16.2	---	---	3.5	SSW	0.06	4.3	-20.7	---	---	722.8	0.024	0.000	19.2	63	1
04/25/17	6:52 a	-16.2	-16.2	-16.2	---	---	2.6	SSW	0.04	4.3	-19.7	---	---	722.8	0.024	0.000	19.2	63	1
04/25/17	6:53 a	-16.2	-16.1	-16.2	---	---	4.3	SSW	0.07	5.2	-21.7	---	---	722.9	0.024	0.000	19.2	63	1
04/25/17	6:54 a	-16.2	-16.2	-16.2	---	---	3.5	SSW	0.06	5.2	-20.8	---	---	722.8	0.024	0.000	19.2	62	1
04/25/17	6:55 a	-16.2	-16.2	-16.2	---	---	3.5	SSW	0.06	5.2	-20.9	---	---	722.9	0.024	0.000	19.1	62	1
04/25/17	6:56 a	-16.2	-16.2	-16.2	---	---	0.9	SSW	0.01	2.6	-16.2	---	---	722.8	0.024	0.000	19.1	62	1
04/25/17	6:57 a	-16.2	-16.2	-16.2	---	---	2.6	S	0.04	2.6	-19.8	---	---	722.8	0.024	0.000	19.1	62	1
04/25/17	6:58 a	-16.2	-16.2	-16.3	---	---	1.7	SSE	0.03	2.6	-18.3	---	---	722.8	0.024	0.000	19.1	63	1
04/25/17	6:59 a	-16.3	-16.3	-16.3	---	---	2.6	SE	0.04	3.5	-19.8	---	---	722.9	0.024	0.000	19.1	64	1
04/25/17	7:00 a	-16.3	-16.3	-16.3	---	---	2.6	SE	0.04	4.3	-19.9	---	---	722.8	0.024	0.000	19.1	64	1
04/25/17	7:01 a	-16.3	-16.3	-16.3	---	---	3.5	ESE	0.06	4.3	-21.0	---	---	722.8	0.024	0.000	19.1	63	1
04/25/17	7:02 a	-16.3	-16.3	-16.3	---	---	3.5	ESE	0.06	4.3	-21.0	---	---	722.9	0.024	0.000	19.1	63	1
04/25/17	7:03 a	-16.3	-16.3	-16.4	---	---	3.5	ESE	0.06	4.3	-21.0	---	---	722.7	0.024	0.000	19.1	63	1
04/25/17	7:04 a	-16.4	-16.4	-16.4	---	---	4.3	SE	0.07	4.3	-21.9	---	---	722.8	0.024	0.000	19.1	63	1
04/25/17	7:05 a	-16.4	-16.4	-16.4	---	---	4.3	SE	0.07	7.0	-21.9	---	---	722.8	0.024	0.000	19.1	64	1
04/25/17	7:06 a	-16.4	-16.4	-16.4	---	---	6.1	SE	0.10	7.0	-23.4	---	---	722.7	0.024	0.000	19.2	64	1
04/25/17	7:07 a	-16.4	-16.4	-16.5	---	---	5.2	SE	0.09	7.0	-22.7	---	---	722.7	0.024	0.000	19.2	63	1
04/25/17	7:08 a	-16.5	-16.4	-16.5	---	---	5.2	SE	0.09	6.1	-22.8	---	---	722.7	0.024	0.000	19.2	63	1
04/25/17	7:09 a	-16.5	-16.5	-16.5	---	---	5.2	SE	0.09	7.0	-22.8	---	---	722.7	0.024	0.000	19.2	63	1
04/25/17	7:10 a	-16.5	-16.5	-16.6	---	---	3.5	SSE	0.06	4.3	-21.2	---	---	722.7	0.024	0.000	19.2	63	1
04/25/17	7:11 a	-16.6	-16.5	-16.6	---	---	3.5	SSE	0.06	4.3	-21.2	---	---	722.7	0.024	0.000	19.2	63	1
04/25/17	7:12 a	-16.6	-16.6	-16.6	---	---	3.5	SSE	0.06	3.5	-21.2	---	---	722.7	0.024	0.000	19.2	63	1
04/25/17	7:13 a	-16.6	-16.6	-16.6	---	---	2.6	SSE	0.04	3.5	-20.2	---	---	722.7	0.024	0.000	19.2	63	1
04/25/17	7:14 a	-16.6	-16.6	-16.6	---	---	3.5	SSE	0.06	4.3	-21.3	---	---	722.7	0.024	0.000	19.2	63	1
04/25/17	7:15 a	-16.6	-16.6	-16.6	---	---	3.5	SSE	0.06	4.3	-21.3	---	---	722.6	0.024	0.000	19.2	63	1
04/25/17	7:16 a	-16.7	-16.7	-16.7	---	---	4.3	SSE	0.07	5.2	-22.3	---	---	722.6	0.024	0.000	19.2	63	1
04/25/17	7:17 a	-16.7	-16.7	-16.7	---	---	3.5	SSE	0.06	4.3	-21.4	---	---	722.7	0.024	0.000	19.1	63	1
04/25/17	7:18 a	-16.7	-16.7	-16.7	---	---	2.6	SSE	0.04	4.3	-20.3	---	---	722.7	0.024	0.000	19.1	63	1
04/25/17	7:19 a	-16.7	-16.7	-16.7	---	---	2.6	SSE	0.04	3.5	-20.3	---	---	722.6	0.024	0.000	19.1	63	1
04/25/17	7:20 a	-16.7	-16.7	-16.7	---	---	0.9	SSE	0.01	1.7	-16.7	---	---	722.7	0.024	0.000	19.1	63	1
04/25/17	7:21 a	-16.7	-16.7	-16.7	---	---	0.9	S	0.01	1.7	-16.7	---	---	722.6	0.024	0.000	19.1	63	1
04/25/17	7:22 a	-16.7	-16.7	-16.8	---	---	4.3	S	0.07	6.1	-22.3	---	---	722.6	0.024	0.000	19.1	63	1
04/25/17	7:23 a	-16.8	-16.7	-16.8	---	---	4.3	SSW	0.07	5.2	-22.4	---	---	722.6	0.024	0.000	19.1	63	1
04/25/17	7:24 a	-16.8	-16.7	-16.8	---	---	3.5	SSW	0.06	4.3	-21.5	---	---	722.6	0.024	0.000	19.1	63	1
04/25/17	7:25 a	-16.8	-16.8	-16.8	---	---	3.5	SSW	0.06	4.3	-21.5	---	---	722.6	0.024	0.000	19.1	63	1
04/25/17	7:26 a	-16.8	-16.7	-16.8	---	---	3.5	SSW	0.06	4.3	-21.5	---	---	722.6	0.024	0.000	19.1	63	1
04/25/17	7:27 a	-16.7	-16.7	-16.8	---	---	2.6	SSW	0.04	3.5	-20.3	---	---	722.6	0.024	0.000	19.1	63	1
04/25/17	7:28 a	-16.8	-16.7	-16.8	---	---	4.3	W	0.07	5.2	-22.4	---	---	722.7	0.024	0.000	19.1	63	1
04/25/17	7:29 a	-16.7	-16.7	-16.7	---	---	3.5	WNW	0.06	3.5	-21.4	---	---	722.6	0.024	0.000	19.1	63	1
04/25/17	7:30 a	-16.7	-16.7	-16.7	---	---	1.7	WNW	0.03	2.6	-18.9	---	---	722.6	0.024	0.000	19.1	63	1
04/25/17	7:31 a	-16.7	-16.7	-16.7	---	---	1.7	WNW	0.03	2.6	-18.9	---	---	722.6	0.024	0.000	19.2	63	1
04/25/17	7:32 a	-16.7	-16.7	-16.7	---	---	3.5	WNW	0.06	3.5	-21.4	---	---	722.6	0.024	0.000	19.2	63	1
04/25/17	7:33 a	-16.7	-16.7	-16.7	---	---	4.3	WNW	0.07	4.3	-22.3	---	---	722.6	0.024	0.000	19.2	63	1
04/25/17	7:34 a	-16.7	-16.7	-16.7	---	---	1.7	WNW	0.03	2.6	-18.8	---	---	722.6	0.024	0.000	19.2	63	1
04/25/17	7:35 a	-16.7	-16.6	-16.7	---	---	0.9	WNW	0.01	1.7	-16.7	---	---	722.7	0.024	0.000	19.2	63	1
04/25/17	7:36 a	-16.7	-16.7	-16.7	---	---	0.9	WNW	0.01	0.9	-16.7	---	---	722.6	0.024	0.000	19.2	63	1
04/25/17	7:37 a	-16.6	-16.6	-16.7	---	---	0.9	WNW	0.01	1.7	-16.6	---	---	722.6	0.024	0.000	19.2	63	1
04/25/17	7:38 a	-16.6	-16.6	-16.6	---	---	1.7	WNW	0.03	1.7	-18.8	---	---	722.6	0.024	0.000	19.2	63	1
04/25/17	7:39 a	-16.6	-16.6	-16.7	---	---	0.9	WNW	0.01	1.7	-16.6	---	---	722.6	0.024	0.000	19.2	63	1
04/25/17	7:40 a	-16.6	-16.6	-16.6	---	---	0.0	WNW	0.00	0.9	-16.6	---	---	722.6	0.024	0.000	19.2	63	1
04/25/17	7:41 a	-16.6	-16.6	-16.6	---	---	0.9	WNW	0.01	1.7	-16.6	---	---	722.6	0.024	0.000	19.2	63	1
04/25/17	7:42 a	-16.6	-16.6	-16.6	---	---	0.9	WNW	0.01	1.7	-16.6	---	---	722.5	0.024	0.000	19.1	63	1
04/25/17	7:43 a	-16.6	-16.6	-16.6	---	---	1.7	WNW	0.03	3.5	-18.7	---	---	722.6	0.024	0.000	19.1	63	1
04/25/17	7:44 a	-16.6	-16.6	-16.6	---	---	3.5	ESE	0.06	5.2	-21.2	---	---	722.7	0.024	0.000	19.1	63	1
04/25/17	7:45 a	-16.6	-16.6	-16.6	---	---	1.7	E	0.03	2.6	-18.7	---	---	722.6	0.024	0.000	19.1	63	1
04/25/17	7:46 a	-16.6	-16.6	-16.6	---	---	0.0	E	0.00	0.9	-16.6	---	---	722.6	0.024	0.000	19.1	63	1
04/25/17	7:47 a	-16.6	-16.6	-16.6	---	---	0.9	E	0.01	0.9	-16.6	---	---	722.6	0.024	0.000	19.1	63	1
04/25/17	7:48 a	-16.6	-16.6	-16.6	---	---	0.9	E	0.01	2.6	-16.6	---	---	722.6	0.024	0.000	19.1	63	1
04/25/17	7:49 a	-16.6	-16.6	-16.6	---	---	0.9	E	0.01	1.7	-16.6	---	---	722.6	0.024	0.000	19.1	63	1
04/25/17	7:50 a	-16.6	-16.6	-16.6	---	---	0.9	E	0.01	1.7	-16.6	---	---	722.7	0.024	0.000	19.1	63	1
04/25/17	7:51 a	-16.6	-16.5	-16.6	---	---	1.7	E	0.03	2.6	-18.7	---	---	722.6	0.024	0.000	19.1	63	1
04/25/17	7:52 a	-16.6	-16.5	-16.6	---	---	2.6	E	0.04	2.6	-20.2	---	---	722.6	0.024	0.000	19.1	63	1
04/25/17	7:53 a	-16.5	-16.5	-16.6	---	---	1.7	E	0.03	2.6	-18.7	---	---	722.5	0.024	0.000	19.1	63	1
04/25/17	7:54 a	-16.5	-16.5	-16.5	---	---	1.7	E	0.03	1.7	-18.7	---	---	722.6	0.024	0.000	19.1	63	1
04/25/17	7:55 a	-16.5	-16.4	-16.5	---	---	1.7	E	0.03	2.6	-18.7	---	---	722.6	0.024	0.000	19.1	63	1
04/25/17	7:56 a	-16.4	-16.4	-16.4	---	---	0.9	E	0.01	1.7	-16.4	---	---	722.6	0.024	0.000	19.1	63	1
04/25/17	7:57 a	-16.4	-16.4	-16.4	---	---	0.9	E	0.01	1.7	-16.4	---	---	722.6	0.024	0.000	19.2	63	1
04/25/17	7:58 a	-16.4	-16.3	-16.4	---	---	0.9	E	0.01	1.7	-16.4	---	---	722.7	0.024	0.000	19.2	63	1
04/25/17	7:59 a	-16.3	-16.3	-16.3	---	---	0.9	E	0.01	2.6	-16.3	---	---	722.6	0.024	0.000	19.2	63	1
04/25/17	8:00 a	-16.3	-16.3	-16.3	---	---	1.7	E	0.03	2.6	-18.4	---	---	722.7	0.024	0.000	19.2	63	1
04/25/17	8:01 a	-16.3	-16.3	-16.3	---	---	0.9	E	0.01	1.7	-16.3	---	---	722.6	0.024	0.000	19.2	63	1
04/25/17	8:02 a	-16.3	-16.3	-16.3	---	---	0.9	E	0.01	1.7	-16.3	---	---	722.6	0.024	0.000	19.2	63	1
04/25/17	8:03 a	-16.3	-16.2	-16.3	---	---	1.7	E	0.03	2.6	-18.4	---	---	722.6	0.024	0.000	19.2	63	1
04/25/17	8:04 a	-16.2	-16.2	-16.2	---	---	3.5	E	0.06	3.5	-20.9	---	---	722.7	0.024	0.000	19.2	63	1
04/25/17	8:05 a	-16.2	-16.2	-16.2	---	---	2.6	E	0.04	3.5	-19.8	---	---	722.6	0.024	0.000	19.2	63	1
04/25/17	8:06 a	-16.2	-16.2	-16.2	---	---	2.6	NW	0.04	3.5	-19.8	---	---	722.6	0.024	0.000	19.2	63	1
04/25/17	8:07 a	-16.2	-16.2	-16.2	---	---	2.6	WNW	0.04	3.5	-19.7	---	---	722.6	0.024	0.000	19.1	63	1
04/25/17	8:08 a	-16.1	-16.1	-16.2	---	---	2.6	WNW	0.04	2.6	-19.7	---	---	722.7	0.024	0.000	19.1	63	1
04/25/17	8:09 a	-16.1	-16.1	-16.1	---	---	2.6	WNW	0.04	3.5	-19.7	---	---	722.6	0.024	0.000	19.1	62	1
04/25/17	8:10 a	-16.1	-16.1	-16.1	---	---	1.7	WNW	0.03	2.6	-18.2	---	---	722.6	0.024	0.000	19.1	63	1
04/25/17	8:11 a	-16.1	-16.1	-16.1	---	---	1.7	WNW	0.03	2.6	-18.2	---	---	722.7	0.024	0.000	19.1	63	1
04/25/17	8:12 a	-16.0	-16.0	-16.1	---	---	1.7	WNW	0.03	1.7	-18.1	---	---	722.6	0.024	0.000	19.1	63	1
04/25/17	8:13 a	-16.0	-16.0	-16.0	---	---	2.6	WNW	0.04	2.6	-19.6	---	---	722.6	0.024	0.000	19.1	63	1
04/25/17	8:14 a	-16.0	-15.9	-16.0	---	---	1.7	WNW	0.03	2.6	-18.1	---	---	722.6	0.024	0.000	19.1	63	1
04/25/17	8:15 a	-15.9	-15.9	-16.0	---	---	1.7	WNW	0.03	1.7	-18.1	---	---	722.7	0.024	0.000	19.0	63	1
04/25/17	8:16 a	-15.9	-15.9	-15.9	---	---	1.7	WNW	0.03	2.6	-18.1	---	---	722.6	0.024	0.000	19.0	63	1
04/25/17	8:17 a	-15.9	-15.9	-15.9	---	---	1.7	WNW	0.03	2.6	-18.1	---	---	722.6	0.024	0.000	19.1	63	1
04/25/17	8:18 a	-15.9	-15.9	-15.9	---	---	1.7	WNW	0.03	3.5	-18.1	---	---	722.6	0.024	0.000	19.1	63	1
04/25/17	8:19 a	-15.9	-15.9	-15.9	---	---	1.7	WNW	0.03	3.5	-18.1	---	---	722.6	0.024	0.000	19.1	63	1
04/25/17	8:20 a	-15.9	-15.9	-15.9	---	---	1.7	NW	0.03	2.6	-18.1	---	---	722.6	0.024	0.000	19.1	63	1
04/25/17	8:21 a	-15.9	-15.9	-15.9	---	---	1.7	NW	0.03	2.6	-18.0	---	---	722.6	0.024	0.000	19.1	63	1
04/25/17	8:22 a	-15.9	-15.9	-15.9	---	---	1.7	NW	0.03	2.6	-18.0	---	---	722.6	0.024	0.000	19.1	63	1
04/25/17	8:23 a	-15.9	-15.9	-15.9	---	---	1.7	NW	0.03	2.6	-18.0	---	---	722.6	0.024	0.000	19.1	63	1
04/25/17	8:24 a	-15.9	-15.9	-15.9	---	---	1.7	NW	0.03	2.6	-18.0	---	---	722.6	0.024	0.000	19.1	63	1
04/25/17	8:25 a	-15.9	-15.9	-15.9	---	---	1.7	NW	0.03	2.6	-18.0	---	---	722.7	0.024	0.000	19.1	63	1
04/25/17	8:26 a	-15.9	-15.8	-15.9	---	---	2.6	WNW	0.04	3.5	-19.4	---	---	722.6	0.024	0.000	19.1	62	1
04/25/17	8:27 a	-15.9	-15.8	-15.9	---	---	1.7	WNW	0.03	2.6	-18.0	---	---	722.6	0.024	0.000	19.2	62	1
04/25/17	8:28 a	-15.9	-15.8	-15.9	---	---	2.6	WNW	0.04	2.6	-19.4	---	---	722.6	0.024	0.000	19.1	62	1
04/25/17	8:29 a	-15.8	-15.8	-15.9	---	---	1.7	WNW	0.03	2.6	-17.9	---	---	722.7	0.024	0.000	19.1	63	1
04/25/17	8:30 a	-15.8	-15.8	-15.8	---	---	2.6	WNW	0.04	3.5	-19.3	---	---	722.6	0.024	0.000	19.1	63	1
04/25/17	8:31 a	-15.8	-15.8	-15.8	---	---	2.6	WNW	0.04	3.5	-19.3	---	---	722.7	0.024	0.000	19.1	63	1
04/25/17	8:32 a	-15.8	-15.8	-15.8	---	---	2.6	WNW	0.04	3.5	-19.3	---	---	722.6	0.024	0.000	19.1	62	1
04/25/17	8:33 a	-15.8	-15.8	-15.8	---	---	2.6	WNW	0.04	3.5	-19.3	---	---	722.6	0.024	0.000	19.1	63	1
04/25/17	8:34 a	-15.8	-15.8	-15.8	---	---	2.6	WNW	0.04	2.6	-19.3	---	---	722.7	0.024	0.000	19.1	63	1
04/25/17	8:35 a	-15.8	-15.8	-15.8	---	---	1.7	WNW	0.03	2.6	-17.9	---	---	722.6	0.024	0.000	19.0	63	1
04/25/17	8:36 a	-15.8	-15.8	-15.8	---	---	1.7	WNW	0.03	2.6	-17.9	---	---	722.6	0.024	0.000	19.0	63	1
04/25/17	8:37 a	-15.8	-15.8	-15.8	---	---	2.6	WNW	0.04	2.6	-19.3	---	---	722.7	0.024	0.000	19.0	63	1
04/25/17	8:38 a	-15.8	-15.8	-15.8	---	---	2.6	WNW	0.04	3.5	-19.3	---	---	722.6	0.024	0.000	19.0	62	1
04/25/17	8:39 a	-15.8	-15.8	-15.8	---	---	2.6	WNW	0.04	3.5	-19.3	---	---	722.6	0.024	0.000	19.0	63	1
04/25/17	8:40 a	-15.8	-15.8	-15.8	---	---	2.6	WNW	0.04	2.6	-19.3	---	---	722.6	0.024	0.000	19.0	63	1
04/25/17	8:41 a	-15.8	-15.8	-15.8	---	---	2.6	WNW	0.04	2.6	-19.3	---	---	722.5	0.024	0.000	19.0	63	1
04/25/17	8:42 a	-15.8	-15.8	-15.8	---	---	2.6	WNW	0.04	2.6	-19.3	---	---	722.6	0.024	0.000	19.1	62	1
04/25/17	8:43 a	-15.8	-15.8	-15.8	---	---	2.6	WNW	0.04	2.6	-19.3	---	---	722.6	0.024	0.000	19.1	63	1
04/25/17	8:44 a	-15.8	-15.8	-15.8	---	---	1.7	WNW	0.03	2.6	-17.8	---	---	722.6	0.024	0.000	19.1	62	1
04/25/17	8:45 a	-15.8	-15.8	-15.8	---	---	1.7	WNW	0.03	2.6	-17.8	---	---	722.6	0.024	0.000	19.1	62	1
04/25/17	8:46 a	-15.8	-15.8	-15.8	---	---	2.6	WNW	0.04	3.5	-19.3	---	---	722.6	0.024	0.000	19.1	62	1
04/25/17	8:47 a	-15.8	-15.8	-15.8	---	---	2.6	WNW	0.04	3.5	-19.3	---	---	722.6	0.024	0.000	19.1	63	1
04/25/17	8:48 a	-15.8	-15.8	-15.8	---	---	1.7	WNW	0.03	2.6	-17.8	---	---	722.6	0.024	0.000	19.1	63	1
04/25/17	8:49 a	-15.8	-15.8	-15.8	---	---	1.7	WNW	0.03	2.6	-17.8	---	---	722.6	0.024	0.000	19.2	63	1
04/25/17	8:50 a	-15.8	-15.8	-15.8	---	---	0.9	WNW	0.01	1.7	-15.8	---	---	722.6	0.024	0.000	19.1	63	1
04/25/17	8:51 a	-15.8	-15.8	-15.8	---	---	1.7	WNW	0.03	2.6	-17.8	---	---	722.6	0.024	0.000	19.2	62	1
04/25/17	8:52 a	-15.8	-15.7	-15.8	---	---	1.7	WNW	0.03	2.6	-17.8	---	---	722.6	0.024	0.000	19.1	62	1
04/25/17	8:53 a	-15.8	-15.7	-15.8	---	---	2.6	WNW	0.04	3.5	-19.3	---	---	722.6	0.024	0.000	19.1	62	1
04/25/17	8:54 a	-15.8	-15.8	-15.8	---	---	2.6	WNW	0.04	3.5	-19.3	---	---	722.6	0.024	0.000	19.1	62	1
04/25/17	8:55 a	-15.8	-15.7	-15.8	---	---	2.6	WNW	0.04	3.5	-19.3	---	---	722.6	0.024	0.000	19.1	62	1
04/25/17	8:56 a	-15.7	-15.7	-15.8	---	---	1.7	WNW	0.03	2.6	-17.8	---	---	722.6	0.024	0.000	19.1	62	1
04/25/17	8:57 a	-15.7	-15.7	-15.8	---	---	0.9	WNW	0.01	1.7	-15.7	---	---	722.6	0.024	0.000	19.1	62	1
04/25/17	8:58 a	-15.7	-15.7	-15.8	---	---	0.0	WNW	0.00	1.7	-15.7	---	---	722.6	0.024	0.000	19.1	63	1
04/25/17	8:59 a	-15.7	-15.7	-15.7	---	---	0.9	WNW	0.01	1.7	-15.7	---	---	722.6	0.024	0.000	19.1	62	1
04/25/17	9:00 a	-15.7	-15.7	-15.7	---	---	0.9	WNW	0.01	1.7	-15.7	---	---	722.5	0.024	0.000	19.0	62	1
04/25/17	9:01 a	-15.7	-15.7	-15.7	---	---	0.9	WNW	0.01	2.6	-15.7	---	---	722.6	0.024	0.000	19.0	62	1
04/25/17	9:02 a	-15.7	-15.7	-15.7	---	---	2.6	WNW	0.04	2.6	-19.2	---	---	722.5	0.024	0.000	19.0	62	1
04/25/17	9:03 a	-15.7	-15.7	-15.7	---	---	1.7	WNW	0.03	1.7	-17.8	---	---	722.6	0.024	0.000	19.0	62	1
04/25/17	9:04 a	-15.7	-15.6	-15.7	---	---	1.7	WNW	0.03	1.7	-17.8	---	---	722.6	0.024	0.000	19.0	62	1
04/25/17	9:05 a	-15.6	-15.6	-15.7	---	---	0.9	WNW	0.01	1.7	-15.6	---	---	722.5	0.024	0.000	19.0	62	1
04/25/17	9:06 a	-15.6	-15.6	-15.6	---	---	0.9	WNW	0.01	1.7	-15.6	---	---	722.5	0.024	0.000	19.0	62	1
04/25/17	9:07 a	-15.6	-15.6	-15.6	---	---	1.7	WNW	0.03	2.6	-17.7	---	---	722.5	0.024	0.000	19.1	62	1
04/25/17	9:08 a	-15.6	-15.6	-15.6	---	---	1.7	WNW	0.03	2.6	-17.7	---	---	722.5	0.024	0.000	19.1	62	1
04/25/17	9:09 a	-15.6	-15.6	-15.6	---	---	1.7	WNW	0.03	2.6	-17.7	---	---	722.5	0.024	0.000	19.1	63	1
04/25/17	9:10 a	-15.6	-15.6	-15.6	---	---	1.7	WNW	0.03	2.6	-17.7	---	---	722.5	0.024	0.000	19.1	64	1
04/25/17	9:11 a	-15.5	-15.5	-15.6	---	---	1.7	WNW	0.03	2.6	-17.6	---	---	722.5	0.023	0.000	19.1	62	1
04/25/17	9:12 a	-15.5	-15.5	-15.5	---	---	1.7	WNW	0.03	2.6	-17.6	---	---	722.5	0.023	0.000	19.1	63	1
04/25/17	9:13 a	-15.5	-15.4	-15.5	---	---	1.7	WNW	0.03	1.7	-17.6	---	---	722.5	0.023	0.000	19.1	63	1
04/25/17	9:14 a	-15.5	-15.4	-15.5	---	---	2.6	WNW	0.04	3.5	-18.9	---	---	722.5	0.023	0.000	19.1	63	1
04/25/17	9:15 a	-15.4	-15.4	-15.4	---	---	2.6	NNW	0.04	3.5	-18.9	---	---	722.5	0.023	0.000	19.1	63	1
04/25/17	9:16 a	-15.4	-15.4	-15.4	---	---	2.6	NNW	0.04	3.5	-18.9	---	---	722.5	0.023	0.000	19.1	64	1
04/25/17	9:17 a	-15.4	-15.4	-15.4	---	---	1.7	NNW	0.03	2.6	-17.5	---	---	722.5	0.023	0.000	19.1	64	1
04/25/17	9:18 a	-15.4	-15.3	-15.4	---	---	2.6	NNW	0.04	3.5	-18.8	---	---	722.5	0.023	0.000	19.1	64	1
04/25/17	9:19 a	-15.3	-15.3	-15.4	---	---	3.5	NNW	0.06	4.3	-19.8	---	---	722.5	0.023	0.000	19.1	64	1
04/25/17	9:20 a	-15.3	-15.3	-15.3	---	---	2.6	NNW	0.04	3.5	-18.8	---	---	722.4	0.023	0.000	19.1	64	1
04/25/17	9:21 a	-15.3	-15.3	-15.3	---	---	2.6	NNW	0.04	3.5	-18.7	---	---	722.5	0.023	0.000	19.0	64	1
04/25/17	9:22 a	-15.3	-15.3	-15.3	---	---	2.6	NW	0.04	3.5	-18.7	---	---	722.4	0.023	0.000	19.0	64	1
04/25/17	9:23 a	-15.3	-15.2	-15.3	---	---	1.7	NW	0.03	2.6	-17.4	---	---	722.5	0.023	0.000	19.0	64	1
04/25/17	9:24 a	-15.2	-15.2	-15.3	---	---	1.7	NW	0.03	2.6	-17.3	---	---	722.4	0.023	0.000	19.0	64	1
04/25/17	9:25 a	-15.2	-15.2	-15.2	---	---	1.7	NW	0.03	2.6	-17.3	---	---	722.4	0.023	0.000	19.0	64	1
04/25/17	9:26 a	-15.2	-15.2	-15.2	---	---	2.6	NW	0.04	3.5	-18.7	---	---	722.5	0.023	0.000	19.0	64	1
04/25/17	9:27 a	-15.2	-15.2	-15.2	---	---	2.6	NW	0.04	3.5	-18.7	---	---	722.4	0.023	0.000	19.0	64	1
04/25/17	9:28 a	-15.2	-15.2	-15.2	---	---	2.6	NW	0.04	2.6	-18.7	---	---	722.5	0.023	0.000	19.0	64	1
04/25/17	9:29 a	-15.2	-15.2	-15.2	---	---	1.7	NW	0.03	2.6	-17.3	---	---	722.5	0.023	0.000	19.0	64	1
04/25/17	9:30 a	-15.2	-15.2	-15.2	---	---	2.6	NW	0.04	3.5	-18.7	---	---	722.5	0.023	0.000	19.0	64	1
04/25/17	9:31 a	-15.2	-15.2	-15.2	---	---	2.6	NW	0.04	3.5	-18.7	---	---	722.4	0.023	0.000	19.1	64	1
04/25/17	9:32 a	-15.2	-15.2	-15.2	---	---	2.6	NW	0.04	2.6	-18.6	---	---	722.4	0.023	0.000	19.1	64	1
04/25/17	9:33 a	-15.2	-15.2	-15.2	---	---	2.6	NW	0.04	2.6	-18.6	---	---	722.5	0.023	0.000	19.1	64	1
04/25/17	9:34 a	-15.2	-15.2	-15.2	---	---	2.6	NW	0.04	3.5	-18.6	---	---	722.4	0.023	0.000	19.1	64	1
04/25/17	9:35 a	-15.2	-15.2	-15.2	---	---	2.6	NW	0.04	3.5	-18.6	---	---	722.5	0.023	0.000	19.1	65	1
04/25/17	9:36 a	-15.2	-15.2	-15.2	---	---	2.6	NW	0.04	2.6	-18.6	---	---	722.4	0.023	0.000	19.1	65	1
04/25/17	9:37 a	-15.2	-15.2	-15.2	---	---	2.6	NW	0.04	2.6	-18.7	---	---	722.4	0.023	0.000	19.1	65	1
04/25/17	9:38 a	-15.2	-15.2	-15.2	---	---	1.7	NW	0.03	2.6	-17.2	---	---	722.4	0.023	0.000	19.1	65	1
04/25/17	9:39 a	-15.2	-15.2	-15.2	---	---	1.7	NW	0.03	2.6	-17.3	---	---	722.4	0.023	0.000	19.1	64	1
04/25/17	9:40 a	-15.2	-15.2	-15.2	---	---	1.7	NW	0.03	2.6	-17.3	---	---	722.4	0.023	0.000	19.1	65	1
04/25/17	9:41 a	-15.2	-15.2	-15.2	---	---	1.7	NW	0.03	2.6	-17.3	---	---	722.4	0.023	0.000	19.1	63	1
04/25/17	9:42 a	-15.2	-15.2	-15.2	---	---	2.6	NW	0.04	2.6	-18.7	---	---	722.4	0.023	0.000	19.1	63	1
04/25/17	9:43 a	-15.2	-15.2	-15.2	---	---	2.6	NW	0.04	3.5	-18.7	---	---	722.4	0.023	0.000	19.0	63	1
04/25/17	9:44 a	-15.2	-15.2	-15.2	---	---	2.6	WNW	0.04	3.5	-18.7	---	---	722.4	0.023	0.000	19.0	63	1
04/25/17	9:45 a	-15.2	-15.2	-15.3	---	---	2.6	WNW	0.04	3.5	-18.7	---	---	722.4	0.023	0.000	19.0	63	1
04/25/17	9:46 a	-15.2	-15.2	-15.2	---	---	2.6	WNW	0.04	3.5	-18.7	---	---	722.3	0.023	0.000	19.0	64	1
04/25/17	9:47 a	-15.2	-15.2	-15.3	---	---	2.6	WNW	0.04	3.5	-18.7	---	---	722.4	0.023	0.000	19.0	64	1
04/25/17	9:48 a	-15.2	-15.2	-15.3	---	---	3.5	WNW	0.06	3.5	-19.7	---	---	722.4	0.023	0.000	18.9	64	1
04/25/17	9:49 a	-15.2	-15.2	-15.3	---	---	2.6	WNW	0.04	3.5	-18.7	---	---	722.4	0.023	0.000	19.0	64	1
04/25/17	9:50 a	-15.3	-15.2	-15.3	---	---	3.5	WNW	0.06	4.3	-19.8	---	---	722.3	0.023	0.000	18.9	64	1
04/25/17	9:51 a	-15.3	-15.3	-15.3	---	---	2.6	WNW	0.04	3.5	-18.7	---	---	722.4	0.023	0.000	19.0	64	1
04/25/17	9:52 a	-15.3	-15.3	-15.3	---	---	2.6	WNW	0.04	2.6	-18.7	---	---	722.3	0.023	0.000	19.0	64	1
04/25/17	9:53 a	-15.3	-15.3	-15.3	---	---	2.6	WNW	0.04	2.6	-18.7	---	---	722.3	0.023	0.000	19.0	64	1
04/25/17	9:54 a	-15.3	-15.3	-15.3	---	---	2.6	WNW	0.04	3.5	-18.7	---	---	722.4	0.023	0.000	19.0	63	1
04/25/17	9:55 a	-15.3	-15.3	-15.3	---	---	1.7	WNW	0.03	2.6	-17.4	---	---	722.3	0.023	0.000	19.1	63	1
04/25/17	9:56 a	-15.3	-15.3	-15.3	---	---	1.7	WNW	0.03	2.6	-17.4	---	---	722.4	0.023	0.000	19.1	63	1
04/25/17	9:57 a	-15.3	-15.3	-15.3	---	---	1.7	WNW	0.03	2.6	-17.4	---	---	722.4	0.023	0.000	19.1	63	1
04/25/17	9:58 a	-15.3	-15.3	-15.3	---	---	1.7	WNW	0.03	1.7	-17.4	---	---	722.3	0.023	0.000	19.1	63	1
04/25/17	9:59 a	-15.3	-15.3	-15.3	---	---	1.7	WNW	0.03	1.7	-17.4	---	---	722.3	0.023	0.000	19.1	63	1
04/25/17	10:00 a	-15.3	-15.3	-15.4	---	---	0.9	WNW	0.01	1.7	-15.3	---	---	722.3	0.023	0.000	19.1	63	1
04/25/17	10:01 a	-15.3	-15.3	-15.4	---	---	0.9	WNW	0.01	1.7	-15.3	---	---	722.3	0.023	0.000	19.1	63	1
04/25/17	10:02 a	-15.4	-15.3	-15.4	---	---	0.9	WNW	0.01	1.7	-15.4	---	---	722.3	0.023	0.000	19.1	63	1
04/25/17	10:03 a	-15.4	-15.4	-15.4	---	---	1.7	WNW	0.03	3.5	-17.5	---	---	722.3	0.023	0.000	19.1	63	1
04/25/17	10:04 a	-15.4	-15.3	-15.4	---	---	2.6	WNW	0.04	3.5	-18.8	---	---	722.2	0.023	0.000	19.1	63	1
04/25/17	10:05 a	-15.4	-15.4	-15.4	---	---	1.7	WNW	0.03	1.7	-17.5	---	---	722.3	0.023	0.000	19.1	63	1
04/25/17	10:06 a	-15.4	-15.4	-15.4	---	---	0.9	WNW	0.01	1.7	-15.4	---	---	722.3	0.023	0.000	19.1	63	1
04/25/17	10:07 a	-15.4	-15.4	-15.4	---	---	1.7	WNW	0.03	2.6	-17.5	---	---	722.2	0.023	0.000	19.0	63	1
04/25/17	10:08 a	-15.4	-15.3	-15.4	---	---	1.7	WNW	0.03	2.6	-17.5	---	---	722.3	0.023	0.000	19.0	64	1
04/25/17	10:09 a	-15.4	-15.3	-15.4	---	---	1.7	WNW	0.03	2.6	-17.5	---	---	722.2	0.023	0.000	19.0	64	1
04/25/17	10:10 a	-15.4	-15.3	-15.4	---	---	1.7	WNW	0.03	1.7	-17.5	---	---	722.3	0.023	0.000	19.0	64	1
04/25/17	10:11 a	-15.3	-15.3	-15.4	---	---	0.9	WNW	0.01	1.7	-15.3	---	---	722.3	0.023	0.000	19.0	64	1
04/25/17	10:12 a	-15.3	-15.3	-15.4	---	---	0.9	WNW	0.01	1.7	-15.3	---	---	722.3	0.023	0.000	19.0	64	1
04/25/17	10:13 a	-15.3	-15.3	-15.3	---	---	1.7	WNW	0.03	2.6	-17.4	---	---	722.2	0.023	0.000	19.0	64	1
04/25/17	10:14 a	-15.3	-15.3	-15.4	---	---	1.7	WNW	0.03	1.7	-17.4	---	---	722.2	0.023	0.000	19.0	64	1
04/25/17	10:15 a	-15.4	-15.3	-15.4	---	---	2.6	WNW	0.04	2.6	-18.8	---	---	722.2	0.023	0.000	19.0	64	1
04/25/17	10:16 a	-15.3	-15.3	-15.3	---	---	1.7	WNW	0.03	3.5	-17.4	---	---	722.2	0.023	0.000	19.0	64	1
04/25/17	10:17 a	-15.3	-15.3	-15.4	---	---	1.7	WNW	0.03	2.6	-17.4	---	---	722.2	0.023	0.000	19.1	63	1
04/25/17	10:18 a	-15.3	-15.3	-15.4	---	---	1.7	WNW	0.03	2.6	-17.4	---	---	722.2	0.023	0.000	19.1	63	1
04/25/17	10:19 a	-15.3	-15.3	-15.4	---	---	1.7	WNW	0.03	1.7	-17.4	---	---	722.3	0.023	0.000	19.1	63	1
04/25/17	10:20 a	-15.3	-15.3	-15.4	---	---	1.7	WNW	0.03	2.6	-17.4	---	---	722.3	0.023	0.000	19.1	63	1
04/25/17	10:21 a	-15.4	-15.3	-15.4	---	---	1.7	WNW	0.03	2.6	-17.5	---	---	722.2	0.023	0.000	19.1	63	1
04/25/17	10:22 a	-15.4	-15.3	-15.4	---	---	2.6	WNW	0.04	3.5	-18.8	---	---	722.1	0.023	0.000	19.1	63	1
04/25/17	10:23 a	-15.4	-15.3	-15.4	---	---	3.5	WNW	0.06	4.3	-19.9	---	---	722.1	0.023	0.000	19.1	63	1
04/25/17	10:24 a	-15.4	-15.4	-15.4	---	---	3.5	NW	0.06	4.3	-19.9	---	---	722.2	0.023	0.000	19.1	63	1
04/25/17	10:25 a	-15.4	-15.4	-15.4	---	---	2.6	NW	0.04	3.5	-18.8	---	---	722.1	0.023	0.000	19.1	64	1
04/25/17	10:26 a	-15.4	-15.4	-15.4	---	---	2.6	NW	0.04	3.5	-18.8	---	---	722.1	0.023	0.000	19.1	63	1
04/25/17	10:27 a	-15.4	-15.4	-15.4	---	---	2.6	WNW	0.04	4.3	-18.9	---	---	722.2	0.023	0.000	19.1	63	1
04/25/17	10:28 a	-15.4	-15.4	-15.4	---	---	2.6	WNW	0.04	3.5	-18.8	---	---	722.1	0.023	0.000	19.1	63	1
04/25/17	10:29 a	-15.4	-15.4	-15.4	---	---	2.6	WNW	0.04	3.5	-18.9	---	---	722.1	0.023	0.000	19.1	64	1
04/25/17	10:30 a	-15.4	-15.4	-15.4	---	---	2.6	NW	0.04	3.5	-18.9	---	---	722.1	0.023	0.000	19.0	64	1
04/25/17	10:31 a	-15.4	-15.4	-15.4	---	---	3.5	NW	0.06	4.3	-19.9	---	---	722.1	0.023	0.000	19.0	64	1
04/25/17	10:32 a	-15.4	-15.4	-15.4	---	---	2.6	NW	0.04	2.6	-18.9	---	---	722.2	0.023	0.000	19.0	64	1
04/25/17	10:33 a	-15.4	-15.4	-15.4	---	---	2.6	NW	0.04	2.6	-18.9	---	---	722.1	0.023	0.000	19.0	64	1
04/25/17	10:34 a	-15.4	-15.4	-15.4	---	---	1.7	NW	0.03	2.6	-17.6	---	---	722.1	0.023	0.000	19.0	64	1
04/25/17	10:35 a	-15.4	-15.4	-15.5	---	---	1.7	NW	0.03	2.6	-17.6	---	---	722.1	0.023	0.000	19.0	64	1
04/25/17	10:36 a	-15.4	-15.4	-15.4	---	---	2.6	NW	0.04	3.5	-18.9	---	---	722.1	0.023	0.000	19.0	64	1
04/25/17	10:37 a	-15.4	-15.4	-15.5	---	---	2.6	NW	0.04	3.5	-18.9	---	---	722.0	0.023	0.000	18.9	64	1
04/25/17	10:38 a	-15.5	-15.4	-15.5	---	---	2.6	NW	0.04	3.5	-18.9	---	---	722.1	0.023	0.000	19.0	63	1
04/25/17	10:39 a	-15.5	-15.4	-15.5	---	---	2.6	NW	0.04	3.5	-18.9	---	---	722.1	0.023	0.000	19.0	64	1
04/25/17	10:40 a	-15.4	-15.4	-15.5	---	---	2.6	NW	0.04	2.6	-18.9	---	---	722.1	0.023	0.000	19.1	64	1
04/25/17	10:41 a	-15.4	-15.4	-15.5	---	---	2.6	NW	0.04	3.5	-18.9	---	---	722.1	0.023	0.000	19.1	65	1
04/25/17	10:42 a	-15.4	-15.4	-15.5	---	---	2.6	NW	0.04	3.5	-18.9	---	---	722.1	0.023	0.000	19.1	64	1
04/25/17	10:43 a	-15.4	-15.4	-15.5	---	---	2.6	NW	0.04	3.5	-18.9	---	---	722.0	0.023	0.000	19.1	65	1
04/25/17	10:44 a	-15.4	-15.4	-15.4	---	---	3.5	NW	0.06	3.5	-19.9	---	---	722.1	0.023	0.000	19.1	63	1
04/25/17	10:45 a	-15.4	-15.4	-15.5	---	---	2.6	NW	0.04	3.5	-18.9	---	---	722.2	0.023	0.000	19.1	64	1
04/25/17	10:46 a	-15.4	-15.4	-15.5	---	---	3.5	NW	0.06	4.3	-19.9	---	---	722.1	0.023	0.000	19.1	64	1
04/25/17	10:47 a	-15.5	-15.4	-15.5	---	---	3.5	NNW	0.06	4.3	-20.1	---	---	722.1	0.023	0.000	19.1	64	1
04/25/17	10:48 a	-15.5	-15.4	-15.5	---	---	3.5	NNW	0.06	5.2	-20.1	---	---	722.0	0.023	0.000	19.1	63	1
04/25/17	10:49 a	-15.4	-15.4	-15.5	---	---	2.6	NNW	0.04	3.5	-18.9	---	---	722.1	0.023	0.000	19.1	63	1
04/25/17	10:50 a	-15.4	-15.4	-15.5	---	---	2.6	NNW	0.04	3.5	-18.9	---	---	722.1	0.023	0.000	19.1	64	1
04/25/17	10:51 a	-15.5	-15.4	-15.5	---	---	2.6	NNW	0.04	3.5	-18.9	---	---	722.1	0.023	0.000	19.1	64	1
04/25/17	10:52 a	-15.4	-15.4	-15.5	---	---	2.6	NNW	0.04	3.5	-18.9	---	---	722.1	0.023	0.000	19.1	65	1
04/25/17	10:53 a	-15.4	-15.4	-15.5	---	---	2.6	NNW	0.04	4.3	-18.9	---	---	722.1	0.023	0.000	19.1	64	1
04/25/17	10:54 a	-15.5	-15.4	-15.5	---	---	2.6	NNW	0.04	3.5	-18.9	---	---	722.1	0.023	0.000	19.0	64	1
04/25/17	10:55 a	-15.4	-15.4	-15.5	---	---	3.5	NNW	0.06	4.3	-19.9	---	---	722.1	0.023	0.000	19.0	64	1
04/25/17	10:56 a	-15.4	-15.4	-15.5	---	---	3.5	NNW	0.06	4.3	-19.9	---	---	722.1	0.023	0.000	19.0	64	1
04/25/17	10:57 a	-15.5	-15.4	-15.5	---	---	3.5	NW	0.06	4.3	-20.1	---	---	722.1	0.023	0.000	19.0	65	1
04/25/17	10:58 a	-15.5	-15.4	-15.5	---	---	2.6	NNW	0.04	3.5	-18.9	---	---	722.1	0.023	0.000	19.0	63	1
04/25/17	10:59 a	-15.5	-15.4	-15.5	---	---	2.6	NNW	0.04	3.5	-18.9	---	---	722.1	0.023	0.000	19.0	64	1
04/25/17	11:00 a	-15.5	-15.5	-15.6	---	---	2.6	NNW	0.04	3.5	-18.9	---	---	722.0	0.023	0.000	19.0	63	1
04/25/17	11:01 a	-15.5	-15.5	-15.6	---	---	2.6	NNW	0.04	3.5	-18.9	---	---	722.1	0.023	0.000	19.0	63	1
04/25/17	11:02 a	-15.6	-15.5	-15.6	---	---	2.6	NNW	0.04	3.5	-19.1	---	---	722.0	0.024	0.000	19.0	65	1
04/25/17	11:03 a	-15.6	-15.6	-15.6	---	---	3.5	NNW	0.06	4.3	-20.1	---	---	722.1	0.024	0.000	19.0	65	1
04/25/17	11:04 a	-15.6	-15.6	-15.6	---	---	3.5	NNW	0.06	4.3	-20.1	---	---	722.0	0.024	0.000	19.1	64	1
04/25/17	11:05 a	-15.6	-15.6	-15.6	---	---	4.3	NNW	0.07	5.2	-20.9	---	---	722.1	0.024	0.000	19.1	64	1
04/25/17	11:06 a	-15.6	-15.6	-15.6	---	---	3.5	NNW	0.06	4.3	-20.2	---	---	722.1	0.024	0.000	19.1	64	1
04/25/17	11:07 a	-15.6	-15.6	-15.6	---	---	3.5	NNW	0.06	3.5	-20.2	---	---	722.0	0.024	0.000	19.1	64	1
04/25/17	11:08 a	-15.6	-15.6	-15.7	---	---	3.5	NNW	0.06	4.3	-20.2	---	---	722.0	0.024	0.000	19.1	64	1
04/25/17	11:09 a	-15.7	-15.6	-15.7	---	---	3.5	NNW	0.06	4.3	-20.2	---	---	722.1	0.024	0.000	19.1	64	1
04/25/17	11:10 a	-15.7	-15.6	-15.7	---	---	3.5	NNW	0.06	4.3	-20.2	---	---	722.0	0.024	0.000	19.1	63	1
04/25/17	11:11 a	-15.7	-15.7	-15.7	---	---	2.6	NNW	0.04	3.5	-19.2	---	---	722.0	0.024	0.000	19.1	63	1
04/25/17	11:12 a	-15.7	-15.7	-15.7	---	---	2.6	NNW	0.04	3.5	-19.2	---	---	722.0	0.024	0.000	19.1	63	1
04/25/17	11:13 a	-15.7	-15.7	-15.7	---	---	2.6	NNW	0.04	3.5	-19.2	---	---	722.0	0.024	0.000	19.1	64	1
04/25/17	11:14 a	-15.8	-15.7	-15.8	---	---	2.6	NNW	0.04	2.6	-19.3	---	---	722.0	0.024	0.000	19.1	64	1
04/25/17	11:15 a	-15.8	-15.7	-15.8	---	---	2.6	NW	0.04	2.6	-19.3	---	---	721.9	0.024	0.000	19.0	63	1
04/25/17	11:16 a	-15.8	-15.8	-15.8	---	---	1.7	NW	0.03	2.6	-17.8	---	---	721.9	0.024	0.000	19.0	63	1
04/25/17	11:17 a	-15.8	-15.8	-15.8	---	---	2.6	NW	0.04	3.5	-19.3	---	---	722.0	0.024	0.000	19.0	63	1
04/25/17	11:18 a	-15.8	-15.8	-15.8	---	---	2.6	NW	0.04	2.6	-19.3	---	---	722.0	0.024	0.000	19.0	64	1
04/25/17	11:19 a	-15.8	-15.8	-15.8	---	---	1.7	NW	0.03	2.6	-17.9	---	---	722.0	0.024	0.000	18.9	63	1
04/25/17	11:20 a	-15.8	-15.8	-15.8	---	---	2.6	NNW	0.04	2.6	-19.3	---	---	722.0	0.024	0.000	18.9	63	1
04/25/17	11:21 a	-15.8	-15.8	-15.8	---	---	2.6	NNW	0.04	3.5	-19.3	---	---	722.0	0.024	0.000	18.9	63	1
04/25/17	11:22 a	-15.8	-15.8	-15.8	---	---	2.6	NNW	0.04	3.5	-19.3	---	---	722.0	0.024	0.000	18.9	63	1
04/25/17	11:23 a	-15.8	-15.8	-15.8	---	---	2.6	NNW	0.04	2.6	-19.3	---	---	722.0	0.024	0.000	18.9	63	1
04/25/17	11:24 a	-15.8	-15.8	-15.8	---	---	2.6	NNW	0.04	3.5	-19.3	---	---	722.0	0.024	0.000	18.9	63	1
04/25/17	11:25 a	-15.8	-15.8	-15.8	---	---	3.5	NNW	0.06	4.3	-20.4	---	---	722.0	0.024	0.000	19.0	63	1
04/25/17	11:26 a	-15.8	-15.8	-15.8	---	---	3.5	NW	0.06	4.3	-20.4	---	---	722.0	0.024	0.000	19.0	63	1
04/25/17	11:27 a	-15.8	-15.8	-15.8	---	---	3.5	NW	0.06	5.2	-20.4	---	---	721.9	0.024	0.000	19.0	63	1
04/25/17	11:28 a	-15.8	-15.8	-15.8	---	---	3.5	NW	0.06	4.3	-20.4	---	---	722.0	0.024	0.000	19.1	63	1
04/25/17	11:29 a	-15.8	-15.8	-15.8	---	---	3.5	NW	0.06	4.3	-20.4	---	---	721.9	0.024	0.000	19.1	63	1
04/25/17	11:30 a	-15.8	-15.8	-15.8	---	---	2.6	NW	0.04	4.3	-19.3	---	---	722.0	0.024	0.000	19.1	63	1
04/25/17	11:31 a	-15.8	-15.8	-15.8	---	---	3.5	NW	0.06	3.5	-20.4	---	---	721.9	0.024	0.000	19.1	63	1
04/25/17	11:32 a	-15.8	-15.8	-15.8	---	---	3.5	NW	0.06	4.3	-20.4	---	---	721.9	0.024	0.000	19.1	63	1
04/25/17	11:33 a	-15.8	-15.8	-15.8	---	---	2.6	NW	0.04	3.5	-19.3	---	---	721.9	0.024	0.000	19.1	64	1
04/25/17	11:34 a	-15.8	-15.8	-15.8	---	---	3.5	NW	0.06	5.2	-20.4	---	---	721.9	0.024	0.000	19.1	64	1
04/25/17	11:35 a	-15.8	-15.8	-15.9	---	---	3.5	NW	0.06	4.3	-20.4	---	---	721.8	0.024	0.000	19.1	65	1
04/25/17	11:36 a	-15.8	-15.8	-15.9	---	---	2.6	NW	0.04	2.6	-19.3	---	---	721.9	0.024	0.000	19.0	65	1
04/25/17	11:37 a	-15.8	-15.8	-15.8	---	---	3.5	NW	0.06	4.3	-20.4	---	---	721.9	0.024	0.000	19.0	65	1
04/25/17	11:38 a	-15.8	-15.8	-15.9	---	---	3.5	NNW	0.06	4.3	-20.4	---	---	722.0	0.024	0.000	19.0	65	1
04/25/17	11:39 a	-15.8	-15.8	-15.8	---	---	3.5	NNW	0.06	3.5	-20.4	---	---	721.9	0.024	0.000	19.0	65	1
04/25/17	11:40 a	-15.8	-15.8	-15.9	---	---	2.6	NNW	0.04	3.5	-19.3	---	---	722.0	0.024	0.000	19.0	65	1
04/25/17	11:41 a	-15.8	-15.8	-15.9	---	---	4.3	NNW	0.07	5.2	-21.3	---	---	722.0	0.024	0.000	19.0	66	1
04/25/17	11:42 a	-15.8	-15.8	-15.8	---	---	3.5	NNW	0.06	4.3	-20.4	---	---	721.9	0.024	0.000	18.9	65	1
04/25/17	11:43 a	-15.8	-15.8	-15.8	---	---	2.6	NNW	0.04	3.5	-19.3	---	---	721.9	0.024	0.000	18.9	65	1
04/25/17	11:44 a	-15.8	-15.8	-15.8	---	---	3.5	NNW	0.06	4.3	-20.4	---	---	721.9	0.024	0.000	18.9	65	1
04/25/17	11:45 a	-15.8	-15.8	-15.8	---	---	5.2	NNW	0.09	6.1	-22.0	---	---	721.9	0.024	0.000	18.9	65	1
04/25/17	11:46 a	-15.8	-15.8	-15.8	---	---	4.3	NW	0.07	5.2	-21.3	---	---	721.9	0.024	0.000	18.9	65	1
04/25/17	11:47 a	-15.8	-15.8	-15.8	---	---	4.3	NW	0.07	5.2	-21.3	---	---	721.9	0.024	0.000	18.9	65	1
04/25/17	11:48 a	-15.8	-15.8	-15.8	---	---	4.3	NW	0.07	5.2	-21.3	---	---	721.9	0.024	0.000	19.0	65	1
04/25/17	11:49 a	-15.8	-15.8	-15.9	---	---	4.3	NW	0.07	5.2	-21.3	---	---	722.0	0.024	0.000	19.0	65	1
04/25/17	11:50 a	-15.9	-15.9	-15.9	---	---	5.2	NW	0.09	6.1	-22.1	---	---	721.9	0.024	0.000	19.0	65	1
04/25/17	11:51 a	-15.9	-15.9	-15.9	---	---	4.3	NW	0.07	5.2	-21.3	---	---	721.9	0.024	0.000	19.1	66	1
04/25/17	11:52 a	-15.9	-15.9	-15.9	---	---	3.5	NNW	0.06	4.3	-20.5	---	---	721.9	0.024	0.000	19.1	65	1
04/25/17	11:53 a	-15.9	-15.9	-15.9	---	---	3.5	NNW	0.06	4.3	-20.5	---	---	721.9	0.024	0.000	19.1	65	1
04/25/17	11:54 a	-15.9	-15.9	-15.9	---	---	3.5	NNW	0.06	4.3	-20.5	---	---	721.9	0.024	0.000	19.1	65	1
04/25/17	11:55 a	-15.9	-15.9	-15.9	---	---	4.3	NW	0.07	5.2	-21.3	---	---	721.9	0.024	0.000	19.1	65	1
04/25/17	11:56 a	-15.9	-15.9	-15.9	---	---	4.3	NW	0.07	5.2	-21.4	---	---	721.9	0.024	0.000	19.1	66	1
04/25/17	11:57 a	-15.9	-15.9	-15.9	---	---	3.5	NW	0.06	4.3	-20.5	---	---	721.9	0.024	0.000	19.1	66	1
04/25/17	11:58 a	-15.9	-15.9	-15.9	---	---	3.5	NW	0.06	4.3	-20.6	---	---	721.9	0.024	0.000	19.1	66	1
04/25/17	11:59 a	-15.9	-15.9	-15.9	---	---	3.5	NW	0.06	3.5	-20.6	---	---	721.9	0.024	0.000	19.1	65	1
04/25/17	12:00 p	-15.9	-15.9	-15.9	---	---	3.5	NW	0.06	4.3	-20.6	---	---	722.0	0.024	0.000	19.1	66	1
04/25/17	12:01 p	-15.9	-15.9	-15.9	---	---	2.6	NW	0.04	3.5	-19.4	---	---	721.9	0.024	0.000	19.0	66	1
04/25/17	12:02 p	-15.9	-15.9	-15.9	---	---	3.5	NW	0.06	4.3	-20.6	---	---	721.9	0.024	0.000	19.0	66	1
04/25/17	12:03 p	-15.9	-15.9	-15.9	---	---	3.5	NW	0.06	3.5	-20.6	---	---	721.8	0.024	0.000	19.0	66	1
04/25/17	12:04 p	-15.9	-15.9	-15.9	---	---	3.5	NW	0.06	4.3	-20.6	---	---	721.9	0.024	0.000	19.0	66	1
04/25/17	12:05 p	-15.9	-15.9	-15.9	---	---	3.5	NW	0.06	4.3	-20.6	---	---	721.9	0.024	0.000	19.0	65	1
04/25/17	12:06 p	-15.9	-15.9	-15.9	---	---	3.5	NW	0.06	4.3	-20.6	---	---	721.9	0.024	0.000	18.9	66	1
04/25/17	12:07 p	-15.9	-15.9	-15.9	---	---	3.5	NW	0.06	4.3	-20.6	---	---	721.9	0.024	0.000	18.9	66	1
04/25/17	12:08 p	-15.9	-15.9	-15.9	---	---	3.5	NW	0.06	4.3	-20.6	---	---	721.9	0.024	0.000	18.9	66	1
04/25/17	12:09 p	-15.9	-15.9	-15.9	---	---	3.5	NW	0.06	4.3	-20.6	---	---	721.9	0.024	0.000	18.9	66	1
04/25/17	12:10 p	-15.9	-15.9	-15.9	---	---	3.5	NW	0.06	4.3	-20.6	---	---	721.8	0.024	0.000	18.9	66	1
04/25/17	12:11 p	-15.9	-15.9	-16.0	---	---	3.5	NW	0.06	3.5	-20.6	---	---	721.9	0.024	0.000	18.9	66	1
04/25/17	12:12 p	-16.0	-15.9	-16.0	---	---	3.5	NW	0.06	4.3	-20.6	---	---	721.8	0.024	0.000	18.9	66	1
04/25/17	12:13 p	-16.0	-15.9	-16.0	---	---	4.3	NNW	0.07	5.2	-21.5	---	---	721.9	0.024	0.000	18.9	66	1
04/25/17	12:14 p	-15.9	-15.9	-16.0	---	---	4.3	NNW	0.07	5.2	-21.4	---	---	721.8	0.024	0.000	19.0	66	1
04/25/17	12:15 p	-15.9	-15.9	-16.0	---	---	5.2	N	0.09	6.1	-22.1	---	---	721.9	0.024	0.000	19.0	66	1
04/25/17	12:16 p	-15.9	-15.9	-15.9	---	---	5.2	N	0.09	5.2	-22.1	---	---	721.9	0.024	0.000	19.0	66	1
04/25/17	12:17 p	-15.9	-15.9	-15.9	---	---	5.2	N	0.09	6.1	-22.1	---	---	721.8	0.024	0.000	19.1	66	1
04/25/17	12:18 p	-15.9	-15.9	-15.9	---	---	5.2	N	0.09	6.1	-22.1	---	---	721.8	0.024	0.000	19.1	66	1
04/25/17	12:19 p	-15.9	-15.9	-15.9	---	---	5.2	N	0.09	6.1	-22.1	---	---	721.9	0.024	0.000	19.1	66	1
04/25/17	12:20 p	-15.9	-15.9	-15.9	---	---	5.2	N	0.09	6.1	-22.1	---	---	721.9	0.024	0.000	19.1	66	1
04/25/17	12:21 p	-15.9	-15.8	-15.9	---	---	5.2	N	0.09	6.1	-22.1	---	---	721.8	0.024	0.000	19.1	66	1
04/25/17	12:22 p	-15.8	-15.8	-15.8	---	---	5.2	N	0.09	6.1	-22.0	---	---	721.8	0.024	0.000	19.1	66	1
04/25/17	12:23 p	-15.8	-15.8	-15.8	---	---	5.2	NNW	0.09	6.1	-22.0	---	---	721.8	0.024	0.000	19.1	66	1
04/25/17	12:24 p	-15.8	-15.8	-15.8	---	---	6.1	NNW	0.10	6.1	-22.7	---	---	721.8	0.024	0.000	19.1	66	1
04/25/17	12:25 p	-15.8	-15.8	-15.8	---	---	5.2	NNW	0.09	6.1	-21.9	---	---	721.8	0.024	0.000	19.1	66	1
04/25/17	12:26 p	-15.8	-15.8	-15.8	---	---	6.1	NNW	0.10	7.0	-22.6	---	---	721.8	0.024	0.000	19.0	66	1
04/25/17	12:27 p	-15.8	-15.8	-15.8	---	---	7.8	N	0.13	8.7	-23.6	---	---	721.8	0.024	0.000	19.0	66	1
04/25/17	12:28 p	-15.8	-15.8	-15.8	---	---	7.0	N	0.12	7.8	-23.2	---	---	721.9	0.024	0.000	19.0	65	1
04/25/17	12:29 p	-15.8	-15.8	-15.9	---	---	5.2	N	0.09	6.1	-22.0	---	---	721.8	0.024	0.000	19.0	65	1
04/25/17	12:30 p	-15.9	-15.8	-15.9	---	---	6.1	NNW	0.10	6.1	-22.7	---	---	721.9	0.024	0.000	19.0	65	1
04/25/17	12:31 p	-15.9	-15.9	-16.0	---	---	5.2	N	0.09	6.1	-22.1	---	---	721.8	0.024	0.000	19.0	65	1
04/25/17	12:32 p	-16.0	-16.0	-16.1	---	---	6.1	N	0.10	7.0	-22.8	---	---	721.8	0.024	0.000	18.9	65	1
04/25/17	12:33 p	-16.1	-16.1	-16.1	---	---	7.0	N	0.12	7.8	-23.4	---	---	721.8	0.024	0.000	18.9	65	1
04/25/17	12:34 p	-16.1	-16.1	-16.1	---	---	7.0	N	0.12	7.8	-23.6	---	---	721.8	0.024	0.000	18.9	66	1
04/25/17	12:35 p	-16.2	-16.1	-16.2	---	---	7.0	N	0.12	7.0	-23.6	---	---	721.8	0.024	0.000	18.9	66	1
04/25/17	12:36 p	-16.2	-16.2	-16.2	---	---	7.0	N	0.12	7.8	-23.6	---	---	721.9	0.024	0.000	19.0	65	1
04/25/17	12:37 p	-16.2	-16.2	-16.2	---	---	7.0	N	0.12	7.8	-23.6	---	---	721.8	0.024	0.000	19.0	65	1
04/25/17	12:38 p	-16.2	-16.2	-16.2	---	---	7.8	N	0.13	8.7	-24.2	---	---	721.8	0.024	0.000	19.0	65	1
04/25/17	12:39 p	-16.2	-16.2	-16.2	---	---	7.8	N	0.13	8.7	-24.2	---	---	721.8	0.024	0.000	19.1	65	1
04/25/17	12:40 p	-16.2	-16.2	-16.2	---	---	7.8	N	0.13	7.8	-24.2	---	---	721.8	0.024	0.000	19.1	65	1
04/25/17	12:41 p	-16.2	-16.2	-16.3	---	---	7.8	N	0.13	8.7	-24.2	---	---	721.8	0.024	0.000	19.1	65	1
04/25/17	12:42 p	-16.2	-16.2	-16.3	---	---	7.8	N	0.13	8.7	-24.2	---	---	721.8	0.024	0.000	19.1	65	1
04/25/17	12:43 p	-16.3	-16.3	-16.3	---	---	8.7	N	0.14	8.7	-24.7	---	---	721.8	0.024	0.000	19.1	65	1
04/25/17	12:44 p	-16.3	-16.3	-16.3	---	---	8.7	N	0.14	9.6	-24.8	---	---	721.8	0.024	0.000	19.1	65	1
04/25/17	12:45 p	-16.3	-16.3	-16.3	---	---	8.7	N	0.14	9.6	-24.8	---	---	721.8	0.024	0.000	19.1	65	1
04/25/17	12:46 p	-16.3	-16.3	-16.4	---	---	8.7	N	0.14	8.7	-24.8	---	---	721.8	0.024	0.000	19.1	65	1
04/25/17	12:47 p	-16.4	-16.3	-16.4	---	---	8.7	N	0.14	9.6	-24.8	---	---	721.7	0.024	0.000	19.1	65	1
04/25/17	12:48 p	-16.4	-16.4	-16.4	---	---	7.8	N	0.13	9.6	-24.4	---	---	721.8	0.024	0.000	19.1	65	1
04/25/17	12:49 p	-16.4	-16.4	-16.4	---	---	7.8	N	0.13	8.7	-24.4	---	---	721.8	0.024	0.000	19.1	65	1
04/25/17	12:50 p	-16.4	-16.4	-16.4	---	---	7.8	N	0.13	8.7	-24.4	---	---	721.8	0.024	0.000	19.1	65	1
04/25/17	12:51 p	-16.4	-16.4	-16.4	---	---	7.8	N	0.13	8.7	-24.4	---	---	721.8	0.024	0.000	19.1	65	1
04/25/17	12:52 p	-16.4	-16.4	-16.4	---	---	7.8	N	0.13	8.7	-24.4	---	---	721.7	0.024	0.000	19.0	65	1
04/25/17	12:53 p	-16.4	-16.4	-16.4	---	---	7.8	N	0.13	7.8	-24.4	---	---	721.7	0.024	0.000	19.0	65	1
04/25/17	12:54 p	-16.4	-16.4	-16.4	---	---	7.8	N	0.13	7.8	-24.4	---	---	721.8	0.024	0.000	19.0	65	1
04/25/17	12:55 p	-16.4	-16.4	-16.4	---	---	7.8	N	0.13	7.8	-24.4	---	---	721.8	0.024	0.000	19.0	66	1
04/25/17	12:56 p	-16.4	-16.4	-16.4	---	---	7.0	N	0.12	7.8	-23.9	---	---	721.7	0.024	0.000	18.9	65	1
04/25/17	12:57 p	-16.4	-16.4	-16.4	---	---	7.0	N	0.12	7.8	-23.9	---	---	721.7	0.024	0.000	18.9	65	1
04/25/17	12:58 p	-16.4	-16.4	-16.4	---	---	7.0	N	0.12	7.8	-23.9	---	---	721.8	0.024	0.000	18.9	65	1
04/25/17	12:59 p	-16.4	-16.4	-16.4	---	---	7.0	N	0.12	7.8	-23.9	---	---	721.7	0.024	0.000	18.9	65	1
04/25/17	1:00 p	-16.3	-16.3	-16.4	---	---	7.0	N	0.12	7.8	-23.8	---	---	721.8	0.024	0.000	18.9	65	1
04/25/17	1:01 p	-16.3	-16.3	-16.3	---	---	7.0	N	0.12	7.8	-23.8	---	---	721.7	0.024	0.000	18.9	66	1
04/25/17	1:02 p	-16.3	-16.3	-16.3	---	---	7.0	N	0.12	7.8	-23.7	---	---	721.7	0.024	0.000	18.9	65	1
04/25/17	1:03 p	-16.3	-16.2	-16.3	---	---	7.8	N	0.13	7.8	-24.3	---	---	721.7	0.024	0.000	18.9	65	1
04/25/17	1:04 p	-16.3	-16.2	-16.3	---	---	7.8	N	0.13	7.8	-24.3	---	---	721.7	0.024	0.000	19.0	65	1
04/25/17	1:05 p	-16.2	-16.2	-16.2	---	---	7.0	N	0.12	8.7	-23.7	---	---	721.7	0.024	0.000	19.0	65	1
04/25/17	1:06 p	-16.2	-16.2	-16.2	---	---	7.8	N	0.13	7.8	-24.2	---	---	721.7	0.024	0.000	19.1	65	1
04/25/17	1:07 p	-16.2	-16.2	-16.2	---	---	7.8	N	0.13	8.7	-24.1	---	---	721.7	0.024	0.000	19.1	65	1
04/25/17	1:08 p	-16.2	-16.1	-16.2	---	---	7.8	N	0.13	8.7	-24.1	---	---	721.7	0.024	0.000	19.1	65	1
04/25/17	1:09 p	-16.1	-16.1	-16.1	---	---	7.8	N	0.13	8.7	-24.1	---	---	721.7	0.024	0.000	19.1	66	1
04/25/17	1:10 p	-16.1	-16.1	-16.1	---	---	7.0	N	0.12	7.8	-23.6	---	---	721.7	0.024	0.000	19.1	65	1
04/25/17	1:11 p	-16.1	-16.1	-16.1	---	---	7.0	N	0.12	7.8	-23.4	---	---	721.7	0.024	0.000	19.1	65	1
04/25/17	1:12 p	-16.0	-16.0	-16.1	---	---	7.0	N	0.12	7.8	-23.4	---	---	721.7	0.024	0.000	19.1	66	1
04/25/17	1:13 p	-16.0	-16.0	-16.1	---	---	7.0	N	0.12	7.8	-23.4	---	---	721.7	0.024	0.000	19.1	66	1
04/25/17	1:14 p	-16.0	-15.9	-16.0	---	---	7.8	N	0.13	8.7	-23.9	---	---	721.7	0.024	0.000	19.1	66	1
04/25/17	1:15 p	-15.9	-15.9	-16.0	---	---	7.8	N	0.13	8.7	-23.8	---	---	721.8	0.024	0.000	19.1	66	1
04/25/17	1:16 p	-16.0	-15.9	-16.0	---	---	7.8	N	0.13	8.7	-23.9	---	---	721.7	0.024	0.000	19.0	66	1
04/25/17	1:17 p	-15.9	-15.9	-16.0	---	---	7.8	N	0.13	8.7	-23.8	---	---	721.7	0.024	0.000	19.0	66	1
04/25/17	1:18 p	-15.9	-15.9	-15.9	---	---	7.8	N	0.13	8.7	-23.8	---	---	721.7	0.024	0.000	19.0	66	1
04/25/17	1:19 p	-15.9	-15.9	-15.9	---	---	7.8	N	0.13	8.7	-23.8	---	---	721.7	0.024	0.000	19.0	66	1
04/25/17	1:20 p	-15.9	-15.9	-15.9	---	---	7.8	N	0.13	8.7	-23.8	---	---	721.6	0.024	0.000	19.0	66	1
04/25/17	1:21 p	-15.9	-15.9	-15.9	---	---	7.8	N	0.13	8.7	-23.8	---	---	721.7	0.024	0.000	19.0	66	1
04/25/17	1:22 p	-15.9	-15.9	-15.9	---	---	7.0	N	0.12	7.8	-23.3	---	---	721.7	0.024	0.000	18.9	66	1
04/25/17	1:23 p	-15.9	-15.9	-15.9	---	---	7.0	N	0.12	8.7	-23.3	---	---	721.7	0.024	0.000	18.9	66	1
04/25/17	1:24 p	-15.9	-15.9	-15.9	---	---	7.0	N	0.12	7.8	-23.3	---	---	721.7	0.024	0.000	18.9	66	1
04/25/17	1:25 p	-15.9	-15.9	-16.0	---	---	7.0	N	0.12	7.8	-23.3	---	---	721.7	0.024	0.000	18.9	66	1
04/25/17	1:26 p	-15.9	-15.9	-16.0	---	---	7.0	N	0.12	8.7	-23.3	---	---	721.7	0.024	0.000	18.9	66	1
04/25/17	1:27 p	-16.0	-15.9	-16.0	---	---	7.8	N	0.13	8.7	-23.9	---	---	721.7	0.024	0.000	18.9	66	1
04/25/17	1:28 p	-16.0	-15.9	-16.0	---	---	7.8	N	0.13	8.7	-23.9	---	---	721.6	0.024	0.000	18.9	66	1
04/25/17	1:29 p	-15.9	-15.9	-16.0	---	---	7.8	N	0.13	8.7	-23.8	---	---	721.6	0.024	0.000	18.9	66	1
04/25/17	1:30 p	-16.0	-15.9	-16.0	---	---	7.8	N	0.13	9.6	-23.9	---	---	721.6	0.024	0.000	19.0	66	1
04/25/17	1:31 p	-16.0	-15.9	-16.0	---	---	7.8	N	0.13	8.7	-23.9	---	---	721.7	0.024	0.000	19.0	66	1
04/25/17	1:32 p	-15.9	-15.9	-16.0	---	---	7.8	N	0.13	8.7	-23.8	---	---	721.7	0.024	0.000	19.0	66	1
04/25/17	1:33 p	-15.9	-15.9	-15.9	---	---	7.8	N	0.13	8.7	-23.8	---	---	721.6	0.024	0.000	19.1	66	1
04/25/17	1:34 p	-15.9	-15.9	-15.9	---	---	8.7	N	0.14	10.4	-24.3	---	---	721.7	0.024	0.000	19.0	65	1
04/25/17	1:35 p	-15.9	-15.9	-15.9	---	---	10.4	NNW	0.17	10.4	-25.1	---	---	721.6	0.024	0.000	19.1	66	1
04/25/17	1:36 p	-15.9	-15.9	-15.9	---	---	8.7	NNW	0.14	10.4	-24.3	---	---	721.6	0.024	0.000	19.1	65	1
04/25/17	1:37 p	-15.9	-15.9	-15.9	---	---	7.0	NNW	0.12	8.7	-23.3	---	---	721.6	0.024	0.000	19.0	66	1
04/25/17	1:38 p	-15.9	-15.9	-15.9	---	---	7.8	N	0.13	8.7	-23.8	---	---	721.6	0.024	0.000	19.0	66	1
04/25/17	1:39 p	-15.9	-15.9	-15.9	---	---	7.8	N	0.13	8.7	-23.8	---	---	721.6	0.024	0.000	19.0	65	1
04/25/17	1:40 p	-15.9	-15.9	-15.9	---	---	8.7	N	0.14	8.7	-24.3	---	---	721.6	0.024	0.000	19.0	65	1
04/25/17	1:41 p	-15.9	-15.9	-15.9	---	---	7.8	N	0.13	8.7	-23.8	---	---	721.6	0.024	0.000	19.0	65	1
04/25/17	1:42 p	-15.9	-15.9	-15.9	---	---	7.0	N	0.12	7.8	-23.3	---	---	721.6	0.024	0.000	18.9	66	1
04/25/17	1:43 p	-15.9	-15.9	-15.9	---	---	7.0	N	0.12	8.7	-23.3	---	---	721.7	0.024	0.000	18.9	66	1
04/25/17	1:44 p	-15.9	-15.9	-15.9	---	---	7.0	N	0.12	7.8	-23.3	---	---	721.6	0.024	0.000	18.9	65	1
04/25/17	1:45 p	-15.9	-15.9	-15.9	---	---	7.8	N	0.13	8.7	-23.8	---	---	721.7	0.024	0.000	18.9	65	1
04/25/17	1:46 p	-15.9	-15.9	-15.9	---	---	7.0	N	0.12	7.8	-23.3	---	---	721.6	0.024	0.000	18.9	65	1
04/25/17	1:47 p	-15.9	-15.9	-15.9	---	---	7.0	N	0.12	7.8	-23.3	---	---	721.6	0.024	0.000	18.9	65	1
04/25/17	1:48 p	-15.9	-15.8	-15.9	---	---	7.0	N	0.12	7.8	-23.3	---	---	721.6	0.024	0.000	18.9	66	1
04/25/17	1:49 p	-15.8	-15.8	-15.9	---	---	7.0	N	0.12	7.8	-23.2	---	---	721.6	0.024	0.000	18.9	65	1
04/25/17	1:50 p	-15.8	-15.8	-15.9	---	---	7.8	N	0.13	8.7	-23.7	---	---	721.6	0.024	0.000	18.9	65	1
04/25/17	1:51 p	-15.8	-15.8	-15.9	---	---	7.8	N	0.13	8.7	-23.7	---	---	721.6	0.024	0.000	18.9	65	1
04/25/17	1:52 p	-15.9	-15.8	-15.9	---	---	7.0	N	0.12	7.8	-23.3	---	---	721.6	0.024	0.000	18.9	66	1
04/25/17	1:53 p	-15.9	-15.8	-15.9	---	---	7.8	N	0.13	8.7	-23.8	---	---	721.6	0.024	0.000	19.0	65	1
04/25/17	1:54 p	-15.9	-15.9	-15.9	---	---	7.0	N	0.12	7.8	-23.3	---	---	721.6	0.024	0.000	19.0	65	1
04/25/17	1:55 p	-15.9	-15.9	-15.9	---	---	7.8	N	0.13	8.7	-23.8	---	---	721.6	0.024	0.000	19.0	65	1
04/25/17	1:56 p	-15.9	-15.8	-15.9	---	---	7.8	N	0.13	9.6	-23.8	---	---	721.6	0.024	0.000	19.0	65	1
04/25/17	1:57 p	-15.9	-15.8	-15.9	---	---	7.8	N	0.13	9.6	-23.8	---	---	721.6	0.024	0.000	19.0	65	1
04/25/17	1:58 p	-15.8	-15.8	-15.8	---	---	7.8	N	0.13	9.6	-23.7	---	---	721.6	0.024	0.000	19.0	65	1
04/25/17	1:59 p	-15.8	-15.8	-15.8	---	---	7.8	N	0.13	8.7	-23.7	---	---	721.6	0.024	0.000	19.0	65	1
04/25/17	2:00 p	-15.8	-15.8	-15.8	---	---	7.8	N	0.13	9.6	-23.7	---	---	721.5	0.024	0.000	19.0	65	1
04/25/17	2:01 p	-15.8	-15.8	-15.8	---	---	8.7	NNW	0.14	10.4	-24.2	---	---	721.5	0.024	0.000	19.0	65	1
04/25/17	2:02 p	-15.8	-15.8	-15.8	---	---	7.8	N	0.13	10.4	-23.7	---	---	721.6	0.024	0.000	19.0	65	1
04/25/17	2:03 p	-15.8	-15.8	-15.8	---	---	8.7	N	0.14	9.6	-24.2	---	---	721.5	0.024	0.000	18.9	65	1
04/25/17	2:04 p	-15.8	-15.8	-15.8	---	---	8.7	N	0.14	9.6	-24.2	---	---	721.6	0.024	0.000	18.9	65	1
04/25/17	2:05 p	-15.8	-15.8	-15.8	---	---	8.7	N	0.14	10.4	-24.2	---	---	721.5	0.024	0.000	18.9	65	1
04/25/17	2:06 p	-15.8	-15.7	-15.8	---	---	7.0	N	0.12	8.7	-23.1	---	---	721.6	0.024	0.000	18.9	65	1
04/25/17	2:07 p	-15.8	-15.8	-15.8	---	---	7.0	N	0.12	9.6	-23.1	---	---	721.5	0.024	0.000	18.9	65	1
04/25/17	2:08 p	-15.7	-15.7	-15.8	---	---	7.8	N	0.13	8.7	-23.6	---	---	721.6	0.024	0.000	18.9	65	1
04/25/17	2:09 p	-15.7	-15.7	-15.8	---	---	7.0	N	0.12	7.8	-23.1	---	---	721.6	0.024	0.000	18.9	65	1
04/25/17	2:10 p	-15.7	-15.7	-15.8	---	---	7.0	N	0.12	7.8	-23.1	---	---	721.6	0.024	0.000	18.9	65	1
04/25/17	2:11 p	-15.8	-15.7	-15.8	---	---	7.0	N	0.12	7.8	-23.1	---	---	721.6	0.024	0.000	18.9	65	1
04/25/17	2:12 p	-15.8	-15.7	-15.8	---	---	7.8	NNW	0.13	8.7	-23.6	---	---	721.6	0.024	0.000	18.9	65	1
04/25/17	2:13 p	-15.8	-15.8	-15.8	---	---	7.0	NNW	0.12	9.6	-23.1	---	---	721.5	0.024	0.000	18.9	65	1
04/25/17	2:14 p	-15.8	-15.8	-15.8	---	---	7.0	N	0.12	7.8	-23.2	---	---	721.6	0.024	0.000	18.9	65	1
04/25/17	2:15 p	-15.8	-15.8	-15.9	---	---	7.0	N	0.12	8.7	-23.2	---	---	721.5	0.024	0.000	18.9	65	1
04/25/17	2:16 p	-15.9	-15.9	-15.9	---	---	7.0	N	0.12	7.8	-23.3	---	---	721.5	0.024	0.000	18.9	65	1
04/25/17	2:17 p	-15.9	-15.9	-15.9	---	---	7.0	N	0.12	7.8	-23.3	---	---	721.5	0.024	0.000	18.9	65	1
04/25/17	2:18 p	-15.9	-15.9	-15.9	---	---	7.0	N	0.12	7.8	-23.3	---	---	721.6	0.024	0.000	19.0	65	1
04/25/17	2:19 p	-15.9	-15.9	-15.9	---	---	7.0	N	0.12	7.8	-23.3	---	---	721.5	0.024	0.000	19.0	65	1
04/25/17	2:20 p	-15.9	-15.9	-15.9	---	---	7.8	N	0.13	8.7	-23.8	---	---	721.5	0.024	0.000	19.0	65	1
04/25/17	2:21 p	-15.9	-15.9	-15.9	---	---	7.8	N	0.13	7.8	-23.8	---	---	721.5	0.024	0.000	19.0	65	1
04/25/17	2:22 p	-15.9	-15.9	-15.9	---	---	7.8	N	0.13	8.7	-23.8	---	---	721.5	0.024	0.000	19.0	65	1
04/25/17	2:23 p	-15.9	-15.9	-15.9	---	---	8.7	N	0.14	9.6	-24.3	---	---	721.5	0.024	0.000	19.0	65	1
04/25/17	2:24 p	-15.9	-15.9	-15.9	---	---	7.8	N	0.13	8.7	-23.8	---	---	721.5	0.024	0.000	19.0	65	1
04/25/17	2:25 p	-15.9	-15.9	-15.9	---	---	7.8	N	0.13	8.7	-23.8	---	---	721.5	0.024	0.000	19.0	65	1
04/25/17	2:26 p	-15.9	-15.8	-15.9	---	---	8.7	N	0.14	9.6	-24.2	---	---	721.5	0.024	0.000	18.9	65	1
04/25/17	2:27 p	-15.8	-15.8	-15.8	---	---	7.8	N	0.13	8.7	-23.7	---	---	721.5	0.024	0.000	18.9	65	1
04/25/17	2:28 p	-15.8	-15.8	-15.8	---	---	7.8	N	0.13	8.7	-23.7	---	---	721.5	0.024	0.000	18.9	65	1
04/25/17	2:29 p	-15.8	-15.8	-15.8	---	---	7.8	N	0.13	9.6	-23.6	---	---	721.4	0.024	0.000	18.9	65	1
04/25/17	2:30 p	-15.8	-15.8	-15.8	---	---	7.8	N	0.13	7.8	-23.6	---	---	721.5	0.024	0.000	18.9	63	1
04/25/17	2:31 p	-15.7	-15.7	-15.8	---	---	7.8	N	0.13	9.6	-23.6	---	---	721.5	0.024	0.000	18.9	63	1
04/25/17	2:32 p	-15.7	-15.7	-15.7	---	---	7.8	N	0.13	9.6	-23.6	---	---	721.5	0.024	0.000	18.9	64	1
04/25/17	2:33 p	-15.7	-15.7	-15.7	---	---	7.8	N	0.13	8.7	-23.6	---	---	721.4	0.024	0.000	18.9	63	1
04/25/17	2:34 p	-15.7	-15.7	-15.7	---	---	8.7	N	0.14	9.6	-23.9	---	---	721.5	0.024	0.000	18.9	63	1
04/25/17	2:35 p	-15.7	-15.7	-15.7	---	---	8.7	N	0.14	9.6	-23.9	---	---	721.4	0.024	0.000	18.9	64	1
04/25/17	2:36 p	-15.7	-15.7	-15.7	---	---	7.8	N	0.13	8.7	-23.5	---	---	721.5	0.024	0.000	18.9	63	1
04/25/17	2:37 p	-15.7	-15.6	-15.7	---	---	7.8	N	0.13	9.6	-23.5	---	---	721.5	0.024	0.000	18.9	63	1
04/25/17	2:38 p	-15.7	-15.6	-15.7	---	---	8.7	N	0.14	8.7	-23.9	---	---	721.5	0.024	0.000	18.9	64	1
04/25/17	2:39 p	-15.6	-15.6	-15.6	---	---	7.8	N	0.13	8.7	-23.4	---	---	721.4	0.024	0.000	18.9	63	1
04/25/17	2:40 p	-15.6	-15.6	-15.6	---	---	7.8	N	0.13	8.7	-23.4	---	---	721.5	0.024	0.000	18.9	63	1
04/25/17	2:41 p	-15.6	-15.6	-15.6	---	---	8.7	N	0.14	9.6	-23.9	---	---	721.5	0.024	0.000	18.9	64	1
04/25/17	2:42 p	-15.6	-15.6	-15.6	---	---	8.7	N	0.14	9.6	-23.8	---	---	721.5	0.024	0.000	19.0	64	1
04/25/17	2:43 p	-15.6	-15.6	-15.6	---	---	8.7	N	0.14	9.6	-23.8	---	---	721.6	0.024	0.000	19.0	63	1
04/25/17	2:44 p	-15.6	-15.6	-15.6	---	---	7.8	N	0.13	8.7	-23.4	---	---	721.5	0.024	0.000	19.0	63	1
04/25/17	2:45 p	-15.6	-15.5	-15.6	---	---	7.8	N	0.13	8.7	-23.4	---	---	721.4	0.024	0.000	19.0	64	1
04/25/17	2:46 p	-15.5	-15.5	-15.6	---	---	8.7	N	0.14	9.6	-23.8	---	---	721.5	0.023	0.000	19.0	65	1
04/25/17	2:47 p	-15.5	-15.5	-15.6	---	---	8.7	N	0.14	8.7	-23.8	---	---	721.4	0.023	0.000	19.0	65	1
04/25/17	2:48 p	-15.5	-15.5	-15.6	---	---	8.7	N	0.14	9.6	-23.8	---	---	721.5	0.023	0.000	18.9	65	1
04/25/17	2:49 p	-15.5	-15.5	-15.5	---	---	8.7	N	0.14	9.6	-23.8	---	---	721.4	0.023	0.000	18.9	65	1
04/25/17	2:50 p	-15.5	-15.5	-15.5	---	---	9.6	N	0.16	9.6	-24.2	---	---	721.4	0.023	0.000	18.9	65	1
04/25/17	2:51 p	-15.5	-15.5	-15.6	---	---	8.7	N	0.14	9.6	-23.8	---	---	721.4	0.023	0.000	18.9	65	1
04/25/17	2:52 p	-15.5	-15.5	-15.6	---	---	8.7	N	0.14	10.4	-23.8	---	---	721.4	0.023	0.000	18.9	65	1
04/25/17	2:53 p	-15.5	-15.5	-15.6	---	---	11.3	N	0.19	13.0	-24.9	---	---	721.4	0.023	0.000	18.9	65	1
04/25/17	2:54 p	-15.6	-15.5	-15.6	---	---	10.4	N	0.17	11.3	-24.6	---	---	721.4	0.024	0.000	18.9	65	1
04/25/17	2:55 p	-15.5	-15.5	-15.5	---	---	11.3	N	0.19	12.2	-24.9	---	---	721.5	0.023	0.000	18.9	65	1
04/25/17	2:56 p	-15.5	-15.4	-15.5	---	---	10.4	N	0.17	13.0	-24.6	---	---	721.4	0.023	0.000	18.9	65	1
04/25/17	2:57 p	-15.4	-15.4	-15.4	---	---	8.7	N	0.14	10.4	-23.7	---	---	721.4	0.023	0.000	18.8	65	1
04/25/17	2:58 p	-15.4	-15.4	-15.4	---	---	9.6	N	0.16	10.4	-24.1	---	---	721.4	0.023	0.000	18.8	65	1
04/25/17	2:59 p	-15.4	-15.4	-15.4	---	---	9.6	N	0.16	10.4	-24.1	---	---	721.4	0.023	0.000	18.8	65	1
04/25/17	3:00 p	-15.4	-15.4	-15.4	---	---	8.7	N	0.14	9.6	-23.6	---	---	721.4	0.023	0.000	18.8	64	1
04/25/17	3:01 p	-15.4	-15.3	-15.4	---	---	9.6	N	0.16	10.4	-24.1	---	---	721.4	0.023	0.000	18.9	64	1
04/25/17	3:02 p	-15.4	-15.3	-15.4	---	---	9.6	N	0.16	11.3	-24.1	---	---	721.5	0.023	0.000	18.9	64	1
04/25/17	3:03 p	-15.4	-15.4	-15.4	---	---	9.6	N	0.16	10.4	-24.1	---	---	721.4	0.023	0.000	18.9	65	1
04/25/17	3:04 p	-15.4	-15.3	-15.4	---	---	8.7	N	0.14	9.6	-23.6	---	---	721.4	0.023	0.000	18.9	64	1
04/25/17	3:05 p	-15.4	-15.4	-15.4	---	---	9.6	N	0.16	10.4	-24.1	---	---	721.4	0.023	0.000	18.9	64	1
04/25/17	3:06 p	-15.4	-15.4	-15.4	---	---	9.6	N	0.16	10.4	-24.1	---	---	721.4	0.023	0.000	18.9	65	1
04/25/17	3:07 p	-15.4	-15.4	-15.4	---	---	9.6	N	0.16	10.4	-24.1	---	---	721.4	0.023	0.000	18.9	64	1
04/25/17	3:08 p	-15.4	-15.4	-15.4	---	---	9.6	N	0.16	11.3	-24.1	---	---	721.4	0.023	0.000	18.9	64	1
04/25/17	3:09 p	-15.4	-15.4	-15.4	---	---	8.7	N	0.14	9.6	-23.7	---	---	721.4	0.023	0.000	18.9	65	1
04/25/17	3:10 p	-15.4	-15.4	-15.4	---	---	8.7	N	0.14	10.4	-23.7	---	---	721.4	0.023	0.000	18.9	65	1
04/25/17	3:11 p	-15.4	-15.4	-15.4	---	---	8.7	N	0.14	11.3	-23.7	---	---	721.4	0.023	0.000	18.9	64	1
04/25/17	3:12 p	-15.4	-15.4	-15.4	---	---	10.4	N	0.17	11.3	-24.4	---	---	721.4	0.023	0.000	18.9	65	1
04/25/17	3:13 p	-15.3	-15.3	-15.4	---	---	9.6	N	0.16	11.3	-23.9	---	---	721.3	0.023	0.000	18.9	64	1
04/25/17	3:14 p	-15.3	-15.3	-15.3	---	---	9.6	N	0.16	10.4	-23.9	---	---	721.3	0.023	0.000	18.9	65	1
04/25/17	3:15 p	-15.3	-15.2	-15.3	---	---	8.7	N	0.14	9.6	-23.5	---	---	721.4	0.023	0.000	18.9	64	1
04/25/17	3:16 p	-15.2	-15.2	-15.3	---	---	8.7	N	0.14	9.6	-23.4	---	---	721.4	0.023	0.000	18.9	65	1
04/25/17	3:17 p	-15.2	-15.2	-15.2	---	---	8.7	N	0.14	9.6	-23.4	---	---	721.4	0.023	0.000	18.9	64	1
04/25/17	3:18 p	-15.2	-15.2	-15.2	---	---	8.7	N	0.14	9.6	-23.4	---	---	721.3	0.023	0.000	18.9	63	1
04/25/17	3:19 p	-15.2	-15.2	-15.2	---	---	8.7	N	0.14	9.6	-23.4	---	---	721.3	0.023	0.000	18.8	64	1
04/25/17	3:20 p	-15.2	-15.2	-15.2	---	---	10.4	N	0.17	12.2	-24.2	---	---	721.3	0.023	0.000	18.8	64	1
04/25/17	3:21 p	-15.2	-15.2	-15.3	---	---	10.4	N	0.17	12.2	-24.2	---	---	721.2	0.023	0.000	18.8	64	1
04/25/17	3:22 p	-15.2	-15.2	-15.2	---	---	9.6	N	0.16	11.3	-23.8	---	---	721.3	0.023	0.000	18.8	65	1
04/25/17	3:23 p	-15.2	-15.2	-15.2	---	---	9.6	N	0.16	10.4	-23.8	---	---	721.3	0.023	0.000	18.8	64	1
04/25/17	3:24 p	-15.2	-15.2	-15.2	---	---	9.6	N	0.16	10.4	-23.8	---	---	721.4	0.023	0.000	18.8	64	1
04/25/17	3:25 p	-15.2	-15.2	-15.2	---	---	12.2	N	0.20	13.9	-24.9	---	---	721.3	0.023	0.000	18.8	64	1
04/25/17	3:26 p	-15.2	-15.2	-15.2	---	---	10.4	N	0.17	12.2	-24.2	---	---	721.3	0.023	0.000	18.8	65	1
04/25/17	3:27 p	-15.2	-15.1	-15.2	---	---	9.6	N	0.16	11.3	-23.8	---	---	721.3	0.023	0.000	18.9	64	1
04/25/17	3:28 p	-15.1	-15.1	-15.1	---	---	8.7	N	0.14	10.4	-23.3	---	---	721.3	0.023	0.000	18.9	64	1
04/25/17	3:29 p	-15.1	-15.1	-15.1	---	---	8.7	NNE	0.14	9.6	-23.3	---	---	721.3	0.023	0.000	18.9	65	1
04/25/17	3:30 p	-15.1	-15.1	-15.1	---	---	8.7	N	0.14	11.3	-23.3	---	---	721.3	0.023	0.000	18.9	64	1
04/25/17	3:31 p	-15.1	-15.1	-15.2	---	---	9.6	N	0.16	12.2	-23.7	---	---	721.3	0.023	0.000	18.9	65	1
04/25/17	3:32 p	-15.2	-15.2	-15.2	---	---	8.7	N	0.14	10.4	-23.3	---	---	721.3	0.023	0.000	18.9	65	1
04/25/17	3:33 p	-15.2	-15.1	-15.2	---	---	10.4	N	0.17	12.2	-24.2	---	---	721.3	0.023	0.000	19.0	64	1
04/25/17	3:34 p	-15.2	-15.2	-15.2	---	---	9.6	N	0.16	11.3	-23.8	---	---	721.4	0.023	0.000	19.0	65	1
04/25/17	3:35 p	-15.2	-15.2	-15.2	---	---	10.4	N	0.17	11.3	-24.2	---	---	721.3	0.023	0.000	19.0	65	1
04/25/17	3:36 p	-15.2	-15.2	-15.2	---	---	9.6	N	0.16	10.4	-23.8	---	---	721.3	0.023	0.000	19.0	64	1
04/25/17	3:37 p	-15.2	-15.2	-15.2	---	---	10.4	N	0.17	11.3	-24.2	---	---	721.4	0.023	0.000	18.9	64	1
04/25/17	3:38 p	-15.2	-15.2	-15.2	---	---	9.6	N	0.16	10.4	-23.8	---	---	721.4	0.023	0.000	18.9	64	1
04/25/17	3:39 p	-15.2	-15.2	-15.2	---	---	9.6	N	0.16	11.3	-23.8	---	---	721.4	0.023	0.000	18.9	64	1
04/25/17	3:40 p	-15.2	-15.2	-15.2	---	---	9.6	N	0.16	10.4	-23.8	---	---	721.4	0.023	0.000	18.9	64	1
04/25/17	3:41 p	-15.2	-15.2	-15.2	---	---	10.4	N	0.17	12.2	-24.2	---	---	721.4	0.023	0.000	18.9	64	1
04/25/17	3:42 p	-15.2	-15.2	-15.2	---	---	9.6	N	0.16	11.3	-23.8	---	---	721.3	0.023	0.000	18.9	64	1
04/25/17	3:43 p	-15.2	-15.2	-15.2	---	---	11.3	N	0.19	13.0	-24.5	---	---	721.3	0.023	0.000	18.9	64	1
04/25/17	3:44 p	-15.2	-15.2	-15.2	---	---	11.3	N	0.19	12.2	-24.6	---	---	721.4	0.023	0.000	18.9	64	1
04/25/17	3:45 p	-15.2	-15.2	-15.2	---	---	9.6	N	0.16	11.3	-23.8	---	---	721.3	0.023	0.000	18.9	64	1
04/25/17	3:46 p	-15.2	-15.1	-15.2	---	---	9.6	N	0.16	11.3	-23.8	---	---	721.4	0.023	0.000	18.8	64	1
04/25/17	3:47 p	-15.1	-15.1	-15.1	---	---	10.4	N	0.17	11.3	-24.1	---	---	721.4	0.023	0.000	18.8	64	1
04/25/17	3:48 p	-15.1	-15.1	-15.2	---	---	9.6	N	0.16	10.4	-23.7	---	---	721.3	0.023	0.000	18.8	64	1
04/25/17	3:49 p	-15.1	-15.1	-15.2	---	---	10.4	N	0.17	11.3	-24.1	---	---	721.3	0.023	0.000	18.8	64	1
04/25/17	3:50 p	-15.1	-15.1	-15.1	---	---	11.3	N	0.19	12.2	-24.4	---	---	721.4	0.023	0.000	18.8	64	1
04/25/17	3:51 p	-15.1	-15.1	-15.2	---	---	10.4	N	0.17	12.2	-24.1	---	---	721.4	0.023	0.000	18.9	64	1
04/25/17	3:52 p	-15.2	-15.1	-15.2	---	---	8.7	N	0.14	10.4	-23.3	---	---	721.3	0.023	0.000	18.9	64	1
04/25/17	3:53 p	-15.2	-15.1	-15.2	---	---	10.4	N	0.17	12.2	-24.2	---	---	721.2	0.023	0.000	18.9	64	1
04/25/17	3:54 p	-15.2	-15.2	-15.2	---	---	10.4	N	0.17	12.2	-24.2	---	---	721.3	0.023	0.000	18.9	64	1
04/25/17	3:55 p	-15.2	-15.1	-15.2	---	---	10.4	N	0.17	13.0	-24.2	---	---	721.3	0.023	0.000	18.9	64	1
04/25/17	3:56 p	-15.1	-15.1	-15.2	---	---	11.3	N	0.19	13.0	-24.4	---	---	721.3	0.023	0.000	18.9	64	1
04/25/17	3:57 p	-15.1	-15.1	-15.1	---	---	9.6	N	0.16	10.4	-23.7	---	---	721.3	0.023	0.000	18.9	64	1
04/25/17	3:58 p	-15.1	-15.1	-15.1	---	---	9.6	N	0.16	11.3	-23.6	---	---	721.3	0.023	0.000	19.0	64	1
04/25/17	3:59 p	-15.1	-15.0	-15.1	---	---	9.6	N	0.16	11.3	-23.6	---	---	721.2	0.023	0.000	19.0	64	1
04/25/17	4:00 p	-15.0	-15.0	-15.0	---	---	8.7	N	0.14	9.6	-23.1	---	---	721.3	0.023	0.000	19.0	64	1
04/25/17	4:01 p	-14.9	-14.9	-14.9	---	---	8.7	N	0.14	9.6	-23.1	---	---	721.3	0.023	0.000	19.0	61	1
04/25/17	4:02 p	-14.9	-14.9	-14.9	---	---	8.7	N	0.14	9.6	-23.1	---	---	721.2	0.023	0.000	19.0	61	1
04/25/17	4:03 p	-14.9	-14.9	-14.9	---	---	7.8	N	0.13	9.6	-22.6	---	---	721.3	0.023	0.000	18.9	60	1
04/25/17	4:04 p	-14.9	-14.9	-14.9	---	---	7.8	N	0.13	9.6	-22.6	---	---	721.2	0.023	0.000	18.9	61	1
04/25/17	4:05 p	-14.9	-14.8	-14.9	---	---	7.8	N	0.13	9.6	-22.6	---	---	721.3	0.023	0.000	18.9	60	1
04/25/17	4:06 p	-14.8	-14.8	-14.9	---	---	8.7	N	0.14	9.6	-22.9	---	---	721.2	0.023	0.000	18.9	60	1
04/25/17	4:07 p	-14.8	-14.8	-14.9	---	---	8.7	N	0.14	9.6	-22.9	---	---	721.2	0.023	0.000	18.9	61	1
04/25/17	4:08 p	-14.8	-14.8	-14.8	---	---	7.0	N	0.12	10.4	-22.0	---	---	721.2	0.023	0.000	18.9	61	1
04/25/17	4:09 p	-14.8	-14.8	-14.8	---	---	7.0	N	0.12	7.8	-21.9	---	---	721.2	0.023	0.000	18.9	61	1
04/25/17	4:10 p	-14.8	-14.8	-14.8	---	---	7.0	N	0.12	7.8	-21.9	---	---	721.2	0.023	0.000	18.8	61	1
04/25/17	4:11 p	-14.8	-14.8	-14.8	---	---	7.0	N	0.12	8.7	-21.9	---	---	721.3	0.023	0.000	18.8	61	1
04/25/17	4:12 p	-14.8	-14.8	-14.8	---	---	7.8	N	0.13	8.7	-22.4	---	---	721.2	0.023	0.000	18.8	61	1
04/25/17	4:13 p	-14.8	-14.8	-14.8	---	---	7.8	N	0.13	8.7	-22.5	---	---	721.2	0.023	0.000	18.8	61	1
04/25/17	4:14 p	-14.8	-14.8	-14.8	---	---	7.8	N	0.13	8.7	-22.5	---	---	721.2	0.023	0.000	18.8	61	1
04/25/17	4:15 p	-14.8	-14.8	-14.9	---	---	7.8	N	0.13	8.7	-22.5	---	---	721.2	0.023	0.000	18.8	61	1
04/25/17	4:16 p	-14.9	-14.9	-14.9	---	---	8.7	N	0.14	9.6	-23.0	---	---	721.2	0.023	0.000	18.8	61	1
04/25/17	4:17 p	-14.9	-14.9	-14.9	---	---	7.8	N	0.13	8.7	-22.6	---	---	721.2	0.023	0.000	18.8	61	1
04/25/17	4:18 p	-14.9	-14.9	-14.9	---	---	7.8	NNW	0.13	8.7	-22.6	---	---	721.2	0.023	0.000	18.8	61	1
04/25/17	4:19 p	-14.9	-14.9	-15.0	---	---	7.8	NNW	0.13	8.7	-22.6	---	---	721.1	0.023	0.000	18.9	62	1
04/25/17	4:20 p	-14.9	-14.9	-15.0	---	---	7.0	NNW	0.12	8.7	-22.1	---	---	721.2	0.023	0.000	18.9	62	1
04/25/17	4:21 p	-15.0	-15.0	-15.0	---	---	7.0	NNW	0.12	8.7	-22.2	---	---	721.1	0.023	0.000	18.9	62	1
04/25/17	4:22 p	-15.0	-15.0	-15.1	---	---	7.8	NNW	0.13	9.6	-22.7	---	---	721.1	0.023	0.000	18.9	62	1
04/25/17	4:23 p	-15.1	-15.0	-15.1	---	---	8.7	NNW	0.14	8.7	-23.2	---	---	721.1	0.023	0.000	18.9	62	1
04/25/17	4:24 p	-15.1	-15.1	-15.1	---	---	8.7	NNW	0.14	8.7	-23.2	---	---	721.1	0.023	0.000	18.9	62	1
04/25/17	4:25 p	-15.1	-15.1	-15.1	---	---	7.8	NNW	0.13	8.7	-22.7	---	---	721.2	0.023	0.000	18.9	62	1
04/25/17	4:26 p	-15.1	-15.1	-15.1	---	---	7.8	NNW	0.13	8.7	-22.7	---	---	721.2	0.023	0.000	18.9	64	1
04/25/17	4:27 p	-15.1	-15.1	-15.1	---	---	7.8	N	0.13	8.7	-22.7	---	---	721.1	0.023	0.000	18.9	66	1
04/25/17	4:28 p	-15.1	-15.1	-15.1	---	---	7.0	N	0.12	9.6	-22.3	---	---	721.1	0.023	0.000	18.9	65	1
04/25/17	4:29 p	-15.1	-15.1	-15.1	---	---	8.7	N	0.14	10.4	-23.2	---	---	721.1	0.023	0.000	18.9	65	1
04/25/17	4:30 p	-15.1	-15.0	-15.1	---	---	7.8	N	0.13	9.6	-22.7	---	---	721.1	0.023	0.000	18.9	64	1
04/25/17	4:31 p	-15.0	-14.9	-15.0	---	---	7.0	NNW	0.12	8.7	-22.2	---	---	721.1	0.023	0.000	18.9	65	1
04/25/17	4:32 p	-14.9	-14.9	-14.9	---	---	7.0	N	0.12	7.8	-22.1	---	---	721.1	0.023	0.000	18.8	66	1
04/25/17	4:33 p	-14.9	-14.9	-14.9	---	---	7.0	N	0.12	7.8	-22.1	---	---	721.1	0.023	0.000	18.8	66	1
04/25/17	4:34 p	-14.9	-14.9	-14.9	---	---	6.1	N	0.10	7.0	-21.6	---	---	721.0	0.023	0.000	18.8	66	1
04/25/17	4:35 p	-14.9	-14.9	-14.9	---	---	6.1	N	0.10	7.0	-21.5	---	---	721.1	0.023	0.000	18.8	66	1
04/25/17	4:36 p	-14.9	-14.9	-14.9	---	---	6.1	N	0.10	7.0	-21.5	---	---	721.0	0.023	0.000	18.8	64	1
04/25/17	4:37 p	-14.9	-14.9	-14.9	---	---	6.1	N	0.10	7.0	-21.5	---	---	721.1	0.023	0.000	18.8	64	1
04/25/17	4:38 p	-14.9	-14.9	-14.9	---	---	6.1	N	0.10	7.0	-21.5	---	---	721.1	0.023	0.000	18.8	64	1
04/25/17	4:39 p	-14.9	-14.9	-14.9	---	---	7.0	N	0.12	7.8	-22.1	---	---	721.1	0.023	0.000	18.8	64	1
04/25/17	4:40 p	-14.9	-14.9	-14.9	---	---	6.1	NNW	0.10	7.0	-21.5	---	---	721.2	0.023	0.000	18.8	64	1
04/25/17	4:41 p	-14.9	-14.9	-14.9	---	---	6.1	NNW	0.10	7.8	-21.5	---	---	721.1	0.023	0.000	18.8	64	1
04/25/17	4:42 p	-14.9	-14.9	-14.9	---	---	6.1	NNW	0.10	7.0	-21.5	---	---	721.1	0.023	0.000	18.9	65	1
04/25/17	4:43 p	-14.9	-14.9	-14.9	---	---	5.2	NNW	0.09	7.0	-20.9	---	---	721.1	0.023	0.000	18.9	65	1
04/25/17	4:44 p	-14.9	-14.9	-14.9	---	---	6.1	NNW	0.10	7.0	-21.5	---	---	721.1	0.023	0.000	18.9	64	1
04/25/17	4:45 p	-14.9	-14.9	-14.9	---	---	6.1	NNW	0.10	7.0	-21.6	---	---	721.1	0.023	0.000	18.9	65	1
04/25/17	4:46 p	-14.9	-14.9	-14.9	---	---	6.1	N	0.10	7.0	-21.6	---	---	721.2	0.023	0.000	18.9	65	1
04/25/17	4:47 p	-14.9	-14.9	-14.9	---	---	6.1	NNW	0.10	7.0	-21.6	---	---	721.1	0.023	0.000	18.9	65	1
04/25/17	4:48 p	-14.9	-14.9	-14.9	---	---	5.2	NNW	0.09	6.1	-20.9	---	---	721.1	0.023	0.000	18.9	65	1
04/25/17	4:49 p	-14.9	-14.9	-14.9	---	---	5.2	N	0.09	6.1	-20.9	---	---	721.0	0.023	0.000	18.9	65	1
04/25/17	4:50 p	-14.9	-14.9	-14.9	---	---	5.2	NNW	0.09	6.1	-20.9	---	---	721.1	0.023	0.000	18.9	65	1
04/25/17	4:51 p	-14.9	-14.9	-14.9	---	---	5.2	NNW	0.09	6.1	-20.9	---	---	721.1	0.023	0.000	18.9	65	1
04/25/17	4:52 p	-14.9	-14.9	-14.9	---	---	6.1	N	0.10	7.0	-21.6	---	---	721.1	0.023	0.000	18.9	65	1
04/25/17	4:53 p	-14.9	-14.9	-14.9	---	---	5.2	NNW	0.09	6.1	-20.9	---	---	721.0	0.023	0.000	18.9	65	1
04/25/17	4:54 p	-14.9	-14.9	-14.9	---	---	6.1	NNW	0.10	7.0	-21.5	---	---	721.1	0.023	0.000	18.9	65	1
04/25/17	4:55 p	-14.9	-14.9	-14.9	---	---	6.1	NNW	0.10	7.0	-21.6	---	---	721.1	0.023	0.000	18.8	65	1
04/25/17	4:56 p	-14.9	-14.9	-14.9	---	---	6.1	NNW	0.10	6.1	-21.6	---	---	721.1	0.023	0.000	18.8	65	1
04/25/17	4:57 p	-14.9	-14.9	-14.9	---	---	5.2	NNW	0.09	6.1	-20.9	---	---	721.0	0.023	0.000	18.8	65	1
04/25/17	4:58 p	-14.9	-14.9	-14.9	---	---	5.2	N	0.09	7.0	-20.9	---	---	721.1	0.023	0.000	18.8	65	1
04/25/17	4:59 p	-14.9	-14.9	-14.9	---	---	5.2	NNW	0.09	5.2	-20.9	---	---	721.1	0.023	0.000	18.8	64	1
04/25/17	5:00 p	-14.9	-14.9	-14.9	---	---	4.3	NNW	0.07	6.1	-20.2	---	---	721.0	0.023	0.000	18.8	64	1
04/25/17	5:01 p	-14.9	-14.9	-14.9	---	---	5.2	NNW	0.09	6.1	-20.9	---	---	721.1	0.023	0.000	18.8	65	1
04/25/17	5:02 p	-14.9	-14.9	-14.9	---	---	5.2	N	0.09	6.1	-20.9	---	---	721.1	0.023	0.000	18.8	64	1
04/25/17	5:03 p	-14.9	-14.9	-14.9	---	---	5.2	N	0.09	6.1	-20.9	---	---	721.0	0.023	0.000	18.8	64	1
04/25/17	5:04 p	-14.9	-14.9	-14.9	---	---	5.2	N	0.09	6.1	-20.9	---	---	721.0	0.023	0.000	18.8	64	1
04/25/17	5:05 p	-14.9	-14.9	-14.9	---	---	4.3	N	0.07	5.2	-20.2	---	---	721.0	0.023	0.000	18.9	64	1
04/25/17	5:06 p	-14.9	-14.9	-14.9	---	---	4.3	N	0.07	5.2	-20.2	---	---	721.0	0.023	0.000	18.9	64	1
04/25/17	5:07 p	-14.9	-14.9	-14.9	---	---	6.1	N	0.10	6.1	-21.5	---	---	721.0	0.023	0.000	18.9	64	1
04/25/17	5:08 p	-14.9	-14.9	-14.9	---	---	5.2	N	0.09	6.1	-20.9	---	---	721.0	0.023	0.000	18.9	64	1
04/25/17	5:09 p	-14.9	-14.8	-14.9	---	---	5.2	N	0.09	7.0	-20.9	---	---	720.9	0.023	0.000	18.9	64	1
04/25/17	5:10 p	-14.9	-14.8	-14.9	---	---	7.0	N	0.12	7.8	-22.1	---	---	721.0	0.023	0.000	18.9	64	1
04/25/17	5:11 p	-14.9	-14.8	-14.9	---	---	6.1	N	0.10	7.0	-21.5	---	---	721.0	0.023	0.000	18.9	64	1
04/25/17	5:12 p	-14.9	-14.8	-14.9	---	---	6.1	N	0.10	7.0	-21.5	---	---	721.0	0.023	0.000	18.9	64	1
04/25/17	5:13 p	-14.9	-14.8	-14.9	---	---	6.1	N	0.10	6.1	-21.5	---	---	721.0	0.023	0.000	18.9	64	1
04/25/17	5:14 p	-14.9	-14.9	-14.9	---	---	6.1	N	0.10	6.1	-21.5	---	---	721.0	0.023	0.000	18.9	64	1
04/25/17	5:15 p	-14.9	-14.9	-14.9	---	---	6.1	N	0.10	7.8	-21.5	---	---	720.9	0.023	0.000	18.9	64	1
04/25/17	5:16 p	-14.9	-14.9	-14.9	---	---	7.8	N	0.13	9.6	-22.6	---	---	721.0	0.023	0.000	18.9	64	1
04/25/17	5:17 p	-14.9	-14.9	-14.9	---	---	7.8	N	0.13	9.6	-22.6	---	---	721.0	0.023	0.000	18.9	64	1
04/25/17	5:18 p	-14.9	-14.9	-14.9	---	---	7.0	N	0.12	8.7	-22.1	---	---	721.0	0.023	0.000	18.8	64	1
04/25/17	5:19 p	-14.9	-14.9	-14.9	---	---	6.1	N	0.10	7.0	-21.5	---	---	721.0	0.023	0.000	18.8	64	1
04/25/17	5:20 p	-14.9	-14.9	-14.9	---	---	7.0	N	0.12	9.6	-22.1	---	---	721.0	0.023	0.000	18.8	64	1
04/25/17	5:21 p	-14.9	-14.9	-14.9	---	---	7.8	N	0.13	8.7	-22.6	---	---	721.0	0.023	0.000	18.8	64	1
04/25/17	5:22 p	-14.9	-14.9	-14.9	---	---	7.0	N	0.12	7.8	-22.1	---	---	721.0	0.023	0.000	18.8	64	1
04/25/17	5:23 p	-14.9	-14.9	-14.9	---	---	6.1	N	0.10	7.0	-21.5	---	---	721.0	0.023	0.000	18.8	64	1
04/25/17	5:24 p	-14.9	-14.9	-14.9	---	---	7.8	N	0.13	8.7	-22.6	---	---	721.0	0.023	0.000	18.8	64	1
04/25/17	5:25 p	-14.9	-14.9	-14.9	---	---	7.0	N	0.12	8.7	-22.1	---	---	720.9	0.023	0.000	18.8	64	1
04/25/17	5:26 p	-14.9	-14.9	-14.9	---	---	7.0	N	0.12	7.8	-22.1	---	---	721.0	0.023	0.000	18.8	64	1
04/25/17	5:27 p	-14.9	-14.9	-14.9	---	---	6.1	N	0.10	7.0	-21.5	---	---	721.0	0.023	0.000	18.9	64	1
04/25/17	5:28 p	-14.9	-14.9	-14.9	---	---	7.0	N	0.12	7.8	-22.1	---	---	721.0	0.023	0.000	18.9	64	1
04/25/17	5:29 p	-14.9	-14.9	-14.9	---	---	7.0	N	0.12	7.8	-22.1	---	---	720.9	0.023	0.000	18.9	64	1
04/25/17	5:30 p	-14.9	-14.9	-14.9	---	---	7.0	N	0.12	8.7	-22.1	---	---	720.9	0.023	0.000	18.9	63	1
04/25/17	5:31 p	-14.9	-14.9	-14.9	---	---	7.0	N	0.12	7.8	-22.1	---	---	720.9	0.023	0.000	18.9	63	1
04/25/17	5:32 p	-14.9	-14.9	-15.0	---	---	7.0	N	0.12	8.7	-22.1	---	---	720.9	0.023	0.000	19.0	64	1
04/25/17	5:33 p	-15.0	-14.9	-15.0	---	---	7.8	N	0.13	9.6	-22.7	---	---	720.9	0.023	0.000	19.0	64	1
04/25/17	5:34 p	-15.0	-14.9	-15.0	---	---	6.1	N	0.10	7.8	-21.6	---	---	720.9	0.023	0.000	19.0	64	1
04/25/17	5:35 p	-15.0	-14.9	-15.0	---	---	7.0	N	0.12	7.8	-22.2	---	---	720.9	0.023	0.000	19.1	64	1
04/25/17	5:36 p	-15.0	-14.9	-15.0	---	---	7.0	N	0.12	7.8	-22.2	---	---	720.9	0.023	0.000	19.1	64	1
04/25/17	5:37 p	-14.9	-14.9	-15.0	---	---	6.1	N	0.10	7.8	-21.6	---	---	720.9	0.023	0.000	19.1	64	1
04/25/17	5:38 p	-14.9	-14.9	-15.0	---	---	7.0	N	0.12	8.7	-22.1	---	---	720.9	0.023	0.000	19.1	64	1
04/25/17	5:39 p	-14.9	-14.9	-15.0	---	---	7.0	N	0.12	7.8	-22.1	---	---	720.9	0.023	0.000	19.1	64	1
04/25/17	5:40 p	-15.0	-14.9	-15.0	---	---	7.0	N	0.12	7.8	-22.2	---	---	720.9	0.023	0.000	19.1	64	1
04/25/17	5:41 p	-14.9	-14.9	-15.0	---	---	7.8	N	0.13	7.8	-22.6	---	---	720.8	0.023	0.000	19.1	64	1
04/25/17	5:42 p	-15.0	-14.9	-15.0	---	---	6.1	N	0.10	7.0	-21.6	---	---	720.8	0.023	0.000	19.1	64	1
04/25/17	5:43 p	-15.0	-14.9	-15.0	---	---	6.1	N	0.10	7.8	-21.6	---	---	720.8	0.023	0.000	19.0	64	1
04/25/17	5:44 p	-14.9	-14.9	-15.0	---	---	6.1	N	0.10	7.0	-21.6	---	---	720.8	0.023	0.000	19.0	63	1
04/25/17	5:45 p	-15.0	-14.9	-15.0	---	---	5.2	N	0.09	6.1	-21.0	---	---	720.9	0.023	0.000	19.0	63	1
04/25/17	5:46 p	-14.9	-14.9	-15.0	---	---	5.2	N	0.09	6.1	-20.9	---	---	720.9	0.023	0.000	18.9	63	1
04/25/17	5:47 p	-15.0	-14.9	-15.0	---	---	5.2	N	0.09	6.1	-21.0	---	---	720.9	0.023	0.000	18.9	64	1
04/25/17	5:48 p	-15.0	-14.9	-15.0	---	---	6.1	N	0.10	7.8	-21.6	---	---	720.9	0.023	0.000	18.9	64	1
04/25/17	5:49 p	-15.0	-14.9	-15.0	---	---	7.0	N	0.12	7.8	-22.2	---	---	720.8	0.023	0.000	18.9	64	1
04/25/17	5:50 p	-15.0	-15.0	-15.0	---	---	6.1	N	0.10	7.0	-21.6	---	---	720.9	0.023	0.000	18.9	63	1
04/25/17	5:51 p	-15.0	-15.0	-15.0	---	---	7.0	N	0.12	7.8	-22.2	---	---	720.9	0.023	0.000	18.9	64	1
04/25/17	5:52 p	-15.0	-15.0	-15.1	---	---	7.0	N	0.12	7.8	-22.2	---	---	720.9	0.023	0.000	18.9	64	1
04/25/17	5:53 p	-15.1	-15.0	-15.1	---	---	7.0	N	0.12	7.8	-22.3	---	---	720.9	0.023	0.000	18.9	63	1
04/25/17	5:54 p	-15.1	-15.0	-15.1	---	---	7.0	N	0.12	8.7	-22.3	---	---	720.9	0.023	0.000	18.9	63	1
04/25/17	5:55 p	-15.1	-15.1	-15.1	---	---	7.8	N	0.13	8.7	-22.7	---	---	720.8	0.023	0.000	18.9	63	1
04/25/17	5:56 p	-15.1	-15.0	-15.1	---	---	7.0	N	0.12	8.7	-22.3	---	---	720.8	0.023	0.000	18.9	64	1
04/25/17	5:57 p	-15.1	-15.1	-15.1	---	---	7.0	N	0.12	7.8	-22.3	---	---	720.9	0.023	0.000	18.9	63	1
04/25/17	5:58 p	-15.1	-15.1	-15.1	---	---	7.0	N	0.12	7.8	-22.3	---	---	720.8	0.023	0.000	18.8	64	1
04/25/17	5:59 p	-15.1	-15.1	-15.1	---	---	7.0	N	0.12	8.7	-22.3	---	---	720.8	0.023	0.000	18.9	64	1
04/25/17	6:00 p	-15.1	-15.1	-15.1	---	---	7.8	N	0.13	8.7	-22.8	---	---	720.8	0.023	0.000	18.9	64	1
04/25/17	6:01 p	-15.1	-15.1	-15.1	---	---	7.0	N	0.12	8.7	-22.3	---	---	720.8	0.023	0.000	18.9	63	1
04/25/17	6:02 p	-15.1	-15.1	-15.1	---	---	7.8	N	0.13	8.7	-22.7	---	---	720.8	0.023	0.000	18.9	63	1
04/25/17	6:03 p	-15.1	-15.1	-15.1	---	---	7.8	N	0.13	9.6	-22.7	---	---	720.8	0.023	0.000	18.9	63	1
04/25/17	6:04 p	-15.1	-15.1	-15.1	---	---	7.8	N	0.13	8.7	-22.8	---	---	720.8	0.023	0.000	18.9	63	1
04/25/17	6:05 p	-15.2	-15.1	-15.2	---	---	7.8	N	0.13	8.7	-22.9	---	---	720.8	0.023	0.000	18.9	63	1
04/25/17	6:06 p	-15.2	-15.1	-15.2	---	---	7.8	N	0.13	8.7	-22.9	---	---	720.8	0.023	0.000	19.0	64	1
04/25/17	6:07 p	-15.2	-15.2	-15.2	---	---	7.8	N	0.13	7.8	-22.9	---	---	720.8	0.023	0.000	19.0	64	1
04/25/17	6:08 p	-15.2	-15.2	-15.2	---	---	7.8	N	0.13	8.7	-22.9	---	---	720.7	0.023	0.000	18.9	65	1
04/25/17	6:09 p	-15.2	-15.2	-15.2	---	---	7.8	N	0.13	8.7	-22.9	---	---	720.7	0.023	0.000	18.9	64	1
04/25/17	6:10 p	-15.2	-15.2	-15.2	---	---	7.8	N	0.13	9.6	-22.9	---	---	720.7	0.023	0.000	18.9	64	1
04/25/17	6:11 p	-15.3	-15.2	-15.3	---	---	7.8	N	0.13	9.6	-23.0	---	---	720.8	0.023	0.000	18.9	64	1
04/25/17	6:12 p	-15.3	-15.2	-15.3	---	---	8.7	N	0.14	8.7	-23.5	---	---	720.8	0.023	0.000	18.9	64	1
04/25/17	6:13 p	-15.3	-15.2	-15.3	---	---	8.7	N	0.14	9.6	-23.5	---	---	720.8	0.023	0.000	18.9	64	1
04/25/17	6:14 p	-15.3	-15.3	-15.3	---	---	7.8	N	0.13	8.7	-23.0	---	---	720.7	0.023	0.000	18.9	64	1
04/25/17	6:15 p	-15.3	-15.3	-15.3	---	---	7.8	N	0.13	8.7	-23.1	---	---	720.8	0.023	0.000	18.9	64	1
04/25/17	6:16 p	-15.3	-15.3	-15.3	---	---	7.0	N	0.12	7.8	-22.6	---	---	720.7	0.023	0.000	18.9	65	1
04/25/17	6:17 p	-15.3	-15.3	-15.4	---	---	7.0	N	0.12	9.6	-22.6	---	---	720.6	0.023	0.000	18.9	65	1
04/25/17	6:18 p	-15.4	-15.3	-15.4	---	---	7.8	N	0.13	9.6	-23.2	---	---	720.7	0.023	0.000	18.9	65	1
04/25/17	6:19 p	-15.4	-15.4	-15.4	---	---	7.8	N	0.13	7.8	-23.2	---	---	720.7	0.023	0.000	18.8	65	1
04/25/17	6:20 p	-15.4	-15.4	-15.4	---	---	7.8	N	0.13	7.8	-23.2	---	---	720.7	0.023	0.000	18.8	65	1
04/25/17	6:21 p	-15.4	-15.4	-15.4	---	---	7.0	N	0.12	7.8	-22.7	---	---	720.8	0.023	0.000	18.8	65	1
04/25/17	6:22 p	-15.4	-15.4	-15.4	---	---	7.0	N	0.12	8.7	-22.7	---	---	720.8	0.023	0.000	18.8	65	1
04/25/17	6:23 p	-15.4	-15.4	-15.4	---	---	7.0	N	0.12	7.8	-22.7	---	---	720.7	0.023	0.000	18.9	64	1
04/25/17	6:24 p	-15.4	-15.4	-15.4	---	---	7.0	N	0.12	7.0	-22.7	---	---	720.7	0.023	0.000	18.9	64	1
04/25/17	6:25 p	-15.4	-15.4	-15.4	---	---	6.1	N	0.10	7.8	-22.2	---	---	720.8	0.023	0.000	18.9	64	1
04/25/17	6:26 p	-15.4	-15.4	-15.4	---	---	7.0	N	0.12	7.8	-22.7	---	---	720.7	0.023	0.000	18.9	65	1
04/25/17	6:27 p	-15.4	-15.4	-15.4	---	---	7.0	N	0.12	7.0	-22.7	---	---	720.7	0.023	0.000	18.9	64	1
04/25/17	6:28 p	-15.4	-15.4	-15.4	---	---	7.0	N	0.12	7.8	-22.7	---	---	720.7	0.023	0.000	18.9	64	1
04/25/17	6:29 p	-15.4	-15.4	-15.5	---	---	7.0	N	0.12	7.0	-22.7	---	---	720.6	0.023	0.000	18.9	64	1
04/25/17	6:30 p	-15.4	-15.4	-15.5	---	---	7.0	N	0.12	7.8	-22.7	---	---	720.8	0.023	0.000	18.9	64	1
04/25/17	6:31 p	-15.5	-15.4	-15.5	---	---	6.1	N	0.10	7.0	-22.2	---	---	720.7	0.023	0.000	18.9	64	1
04/25/17	6:32 p	-15.5	-15.5	-15.5	---	---	6.1	N	0.10	7.0	-22.2	---	---	720.7	0.023	0.000	18.9	64	1
04/25/17	6:33 p	-15.5	-15.5	-15.5	---	---	6.1	N	0.10	7.0	-22.2	---	---	720.7	0.023	0.000	18.9	64	1
04/25/17	6:34 p	-15.5	-15.5	-15.6	---	---	6.1	N	0.10	7.0	-22.2	---	---	720.8	0.023	0.000	18.9	64	1
04/25/17	6:35 p	-15.5	-15.5	-15.6	---	---	6.1	N	0.10	7.0	-22.2	---	---	720.7	0.023	0.000	18.9	65	1
04/25/17	6:36 p	-15.6	-15.5	-15.6	---	---	6.1	N	0.10	7.0	-22.3	---	---	720.7	0.024	0.000	18.9	65	1
04/25/17	6:37 p	-15.5	-15.5	-15.6	---	---	6.1	N	0.10	7.0	-22.2	---	---	720.7	0.023	0.000	18.9	64	1
04/25/17	6:38 p	-15.6	-15.6	-15.6	---	---	6.1	N	0.10	7.0	-22.3	---	---	720.7	0.024	0.000	18.9	64	1
04/25/17	6:39 p	-15.6	-15.6	-15.6	---	---	6.1	N	0.10	7.0	-22.3	---	---	720.7	0.024	0.000	18.9	65	1
04/25/17	6:40 p	-15.6	-15.6	-15.6	---	---	6.1	N	0.10	7.0	-22.3	---	---	720.6	0.024	0.000	18.8	65	1
04/25/17	6:41 p	-15.6	-15.5	-15.6	---	---	6.1	N	0.10	7.0	-22.3	---	---	720.6	0.024	0.000	18.8	64	1
04/25/17	6:42 p	-15.6	-15.5	-15.6	---	---	5.2	N	0.09	6.1	-21.7	---	---	720.7	0.024	0.000	18.8	64	1
04/25/17	6:43 p	-15.6	-15.5	-15.6	---	---	6.1	N	0.10	6.1	-22.3	---	---	720.7	0.024	0.000	18.8	64	1
04/25/17	6:44 p	-15.6	-15.5	-15.6	---	---	6.1	N	0.10	6.1	-22.3	---	---	720.6	0.024	0.000	18.8	64	1
04/25/17	6:45 p	-15.6	-15.6	-15.6	---	---	6.1	N	0.10	6.1	-22.3	---	---	720.6	0.024	0.000	18.8	64	1
04/25/17	6:46 p	-15.6	-15.5	-15.6	---	---	6.1	N	0.10	7.0	-22.3	---	---	720.6	0.024	0.000	18.8	64	1
04/25/17	6:47 p	-15.6	-15.6	-15.6	---	---	6.1	N	0.10	6.1	-22.3	---	---	720.6	0.024	0.000	18.8	64	1
04/25/17	6:48 p	-15.6	-15.6	-15.6	---	---	5.2	N	0.09	6.1	-21.7	---	---	720.6	0.024	0.000	18.8	64	1
04/25/17	6:49 p	-15.6	-15.6	-15.6	---	---	5.2	N	0.09	6.1	-21.7	---	---	720.7	0.024	0.000	18.9	64	1
04/25/17	6:50 p	-15.6	-15.5	-15.6	---	---	5.2	N	0.09	6.1	-21.7	---	---	720.6	0.024	0.000	18.9	64	1
04/25/17	6:51 p	-15.6	-15.5	-15.6	---	---	4.3	N	0.07	5.2	-20.9	---	---	720.6	0.024	0.000	18.9	64	1
04/25/17	6:52 p	-15.6	-15.5	-15.6	---	---	4.3	N	0.07	5.2	-20.9	---	---	720.6	0.024	0.000	18.9	64	1
04/25/17	6:53 p	-15.5	-15.5	-15.5	---	---	5.2	N	0.09	6.1	-21.6	---	---	720.6	0.023	0.000	18.9	64	1
04/25/17	6:54 p	-15.5	-15.5	-15.5	---	---	5.2	N	0.09	6.1	-21.6	---	---	720.6	0.023	0.000	18.9	64	1
04/25/17	6:55 p	-15.5	-15.5	-15.5	---	---	5.2	N	0.09	6.1	-21.6	---	---	720.7	0.023	0.000	18.9	64	1
04/25/17	6:56 p	-15.5	-15.4	-15.5	---	---	6.1	N	0.10	7.0	-22.2	---	---	720.6	0.023	0.000	18.9	64	1
04/25/17	6:57 p	-15.5	-15.4	-15.5	---	---	6.1	N	0.10	6.1	-22.2	---	---	720.6	0.023	0.000	18.9	64	1
04/25/17	6:58 p	-15.4	-15.4	-15.5	---	---	6.1	N	0.10	7.0	-22.2	---	---	720.6	0.023	0.000	18.9	64	1
04/25/17	6:59 p	-15.5	-15.4	-15.5	---	---	6.1	N	0.10	7.0	-22.2	---	---	720.6	0.023	0.000	18.9	64	1
04/25/17	7:00 p	-15.4	-15.4	-15.4	---	---	6.1	N	0.10	6.1	-22.2	---	---	720.6	0.023	0.000	18.9	64	1
04/25/17	7:01 p	-15.4	-15.4	-15.4	---	---	6.1	N	0.10	7.0	-22.2	---	---	720.6	0.023	0.000	18.9	64	1
04/25/17	7:02 p	-15.4	-15.4	-15.4	---	---	6.1	N	0.10	7.0	-22.2	---	---	720.6	0.023	0.000	18.9	64	1
04/25/17	7:03 p	-15.4	-15.4	-15.4	---	---	6.1	N	0.10	6.1	-22.2	---	---	720.5	0.023	0.000	18.9	64	1
04/25/17	7:04 p	-15.4	-15.4	-15.4	---	---	6.1	N	0.10	6.1	-22.2	---	---	720.5	0.023	0.000	18.9	64	1
04/25/17	7:05 p	-15.4	-15.4	-15.4	---	---	6.1	N	0.10	6.1	-22.2	---	---	720.5	0.023	0.000	18.9	64	1
04/25/17	7:06 p	-15.4	-15.4	-15.4	---	---	6.1	N	0.10	6.1	-22.2	---	---	720.5	0.023	0.000	18.9	63	1
04/25/17	7:07 p	-15.4	-15.4	-15.4	---	---	5.2	N	0.09	6.1	-21.6	---	---	720.5	0.023	0.000	18.8	64	1
04/25/17	7:08 p	-15.4	-15.4	-15.4	---	---	5.2	N	0.09	6.1	-21.6	---	---	720.6	0.023	0.000	18.8	64	1
04/25/17	7:09 p	-15.4	-15.4	-15.4	---	---	4.3	N	0.07	5.2	-20.8	---	---	720.6	0.023	0.000	18.8	64	1
04/25/17	7:10 p	-15.4	-15.4	-15.4	---	---	5.2	N	0.09	6.1	-21.6	---	---	720.5	0.023	0.000	18.8	64	1
04/25/17	7:11 p	-15.4	-15.4	-15.4	---	---	5.2	N	0.09	6.1	-21.6	---	---	720.6	0.023	0.000	18.8	64	1
04/25/17	7:12 p	-15.4	-15.4	-15.4	---	---	5.2	N	0.09	5.2	-21.5	---	---	720.5	0.023	0.000	18.8	64	1
04/25/17	7:13 p	-15.4	-15.4	-15.4	---	---	5.2	N	0.09	6.1	-21.5	---	---	720.6	0.023	0.000	18.8	64	1
04/25/17	7:14 p	-15.4	-15.4	-15.4	---	---	5.2	N	0.09	6.1	-21.5	---	---	720.6	0.023	0.000	18.8	64	1
04/25/17	7:15 p	-15.4	-15.3	-15.4	---	---	5.2	N	0.09	6.1	-21.5	---	---	720.6	0.023	0.000	18.8	64	1
04/25/17	7:16 p	-15.4	-15.3	-15.4	---	---	5.2	N	0.09	6.1	-21.5	---	---	720.6	0.023	0.000	18.9	64	1
04/25/17	7:17 p	-15.4	-15.3	-15.4	---	---	4.3	N	0.07	6.1	-20.8	---	---	720.6	0.023	0.000	18.9	64	1
04/25/17	7:18 p	-15.4	-15.4	-15.4	---	---	4.3	N	0.07	4.3	-20.8	---	---	720.6	0.023	0.000	18.9	64	1
04/25/17	7:19 p	-15.4	-15.3	-15.4	---	---	4.3	N	0.07	4.3	-20.8	---	---	720.6	0.023	0.000	18.9	64	1
04/25/17	7:20 p	-15.4	-15.3	-15.4	---	---	4.3	N	0.07	5.2	-20.8	---	---	720.5	0.023	0.000	18.9	64	1
04/25/17	7:21 p	-15.4	-15.4	-15.4	---	---	3.5	N	0.06	4.3	-19.9	---	---	720.6	0.023	0.000	19.0	64	1
04/25/17	7:22 p	-15.4	-15.3	-15.4	---	---	4.3	N	0.07	4.3	-20.8	---	---	720.6	0.023	0.000	19.0	65	1
04/25/17	7:23 p	-15.4	-15.4	-15.4	---	---	3.5	N	0.06	4.3	-19.9	---	---	720.5	0.023	0.000	19.0	63	1
04/25/17	7:24 p	-15.3	-15.3	-15.4	---	---	3.5	N	0.06	3.5	-19.8	---	---	720.6	0.023	0.000	19.0	64	1
04/25/17	7:25 p	-15.3	-15.3	-15.4	---	---	3.5	N	0.06	3.5	-19.8	---	---	720.6	0.023	0.000	18.9	64	1
04/25/17	7:26 p	-15.3	-15.3	-15.3	---	---	2.6	N	0.04	3.5	-18.8	---	---	720.5	0.023	0.000	18.9	64	1
04/25/17	7:27 p	-15.3	-15.3	-15.3	---	---	2.6	N	0.04	3.5	-18.8	---	---	720.6	0.023	0.000	18.9	64	1
04/25/17	7:28 p	-15.3	-15.3	-15.3	---	---	1.7	N	0.03	2.6	-17.4	---	---	720.6	0.023	0.000	18.9	64	1
04/25/17	7:29 p	-15.3	-15.3	-15.3	---	---	1.7	NNE	0.03	2.6	-17.4	---	---	720.5	0.023	0.000	18.9	64	1
04/25/17	7:30 p	-15.3	-15.3	-15.3	---	---	1.7	NNE	0.03	2.6	-17.4	---	---	720.6	0.023	0.000	18.9	64	1
04/25/17	7:31 p	-15.3	-15.3	-15.3	---	---	2.6	ENE	0.04	3.5	-18.8	---	---	720.6	0.023	0.000	18.9	64	1
04/25/17	7:32 p	-15.3	-15.3	-15.3	---	---	3.5	ENE	0.06	3.5	-19.8	---	---	720.6	0.023	0.000	18.9	64	1
04/25/17	7:33 p	-15.4	-15.3	-15.4	---	---	3.5	E	0.06	3.5	-19.9	---	---	720.6	0.023	0.000	18.8	64	1
04/25/17	7:34 p	-15.4	-15.4	-15.4	---	---	3.5	ENE	0.06	4.3	-19.9	---	---	720.5	0.023	0.000	18.8	64	1
04/25/17	7:35 p	-15.4	-15.4	-15.4	---	---	3.5	ENE	0.06	3.5	-19.9	---	---	720.5	0.023	0.000	18.8	64	1
04/25/17	7:36 p	-15.4	-15.4	-15.5	---	---	3.5	ENE	0.06	4.3	-19.9	---	---	720.6	0.023	0.000	18.8	64	1
04/25/17	7:37 p	-15.5	-15.5	-15.5	---	---	3.5	ENE	0.06	4.3	-20.1	---	---	720.5	0.023	0.000	18.8	64	1
04/25/17	7:38 p	-15.5	-15.5	-15.6	---	---	3.5	ENE	0.06	4.3	-20.1	---	---	720.6	0.023	0.000	18.8	64	1
04/25/17	7:39 p	-15.6	-15.5	-15.6	---	---	3.5	ENE	0.06	5.2	-20.1	---	---	720.6	0.024	0.000	18.8	64	1
04/25/17	7:40 p	-15.6	-15.6	-15.6	---	---	3.5	NE	0.06	4.3	-20.1	---	---	720.5	0.024	0.000	18.8	64	1
04/25/17	7:41 p	-15.6	-15.6	-15.6	---	---	2.6	NE	0.04	3.5	-19.1	---	---	720.6	0.024	0.000	18.8	64	1
04/25/17	7:42 p	-15.6	-15.6	-15.6	---	---	3.5	NE	0.06	3.5	-20.2	---	---	720.6	0.024	0.000	18.9	64	1
04/25/17	7:43 p	-15.6	-15.6	-15.6	---	---	3.5	NNE	0.06	4.3	-20.1	---	---	720.5	0.024	0.000	18.9	64	1
04/25/17	7:44 p	-15.6	-15.6	-15.6	---	---	3.5	NE	0.06	4.3	-20.1	---	---	720.6	0.024	0.000	18.9	64	1
04/25/17	7:45 p	-15.6	-15.5	-15.6	---	---	3.5	NNE	0.06	4.3	-20.1	---	---	720.5	0.024	0.000	18.9	64	1
04/25/17	7:46 p	-15.5	-15.5	-15.5	---	---	3.5	NNE	0.06	4.3	-20.1	---	---	720.5	0.023	0.000	18.9	63	1
04/25/17	7:47 p	-15.4	-15.4	-15.5	---	---	3.5	NNE	0.06	4.3	-19.9	---	---	720.5	0.023	0.000	18.9	63	1
04/25/17	7:48 p	-15.4	-15.4	-15.4	---	---	3.5	NNE	0.06	4.3	-19.9	---	---	720.5	0.023	0.000	18.9	63	1
04/25/17	7:49 p	-15.4	-15.3	-15.4	---	---	3.5	NNE	0.06	4.3	-19.9	---	---	720.5	0.023	0.000	18.9	63	1
04/25/17	7:50 p	-15.3	-15.3	-15.3	---	---	4.3	N	0.07	5.2	-20.7	---	---	720.4	0.023	0.000	18.9	63	1
04/25/17	7:51 p	-15.3	-15.3	-15.3	---	---	3.5	N	0.06	4.3	-19.8	---	---	720.4	0.023	0.000	18.9	63	1
04/25/17	7:52 p	-15.2	-15.2	-15.2	---	---	3.5	N	0.06	4.3	-19.7	---	---	720.4	0.023	0.000	18.9	63	1
04/25/17	7:53 p	-15.2	-15.2	-15.2	---	---	3.5	N	0.06	4.3	-19.7	---	---	720.4	0.023	0.000	18.9	63	1
04/25/17	7:54 p	-15.2	-15.2	-15.2	---	---	2.6	N	0.04	3.5	-18.7	---	---	720.4	0.023	0.000	18.9	63	1
04/25/17	7:55 p	-15.2	-15.2	-15.2	---	---	3.5	N	0.06	4.3	-19.7	---	---	720.4	0.023	0.000	18.9	63	1
04/25/17	7:56 p	-15.2	-15.1	-15.2	---	---	3.5	NNE	0.06	4.3	-19.7	---	---	720.3	0.023	0.000	18.9	63	1
04/25/17	7:57 p	-15.1	-15.1	-15.1	---	---	3.5	NNE	0.06	5.2	-19.6	---	---	720.4	0.023	0.000	18.9	63	1
04/25/17	7:58 p	-15.1	-15.1	-15.1	---	---	3.5	N	0.06	4.3	-19.6	---	---	720.4	0.023	0.000	18.8	64	1
04/25/17	7:59 p	-15.1	-15.1	-15.1	---	---	4.3	N	0.07	5.2	-20.4	---	---	720.4	0.023	0.000	18.8	63	1
04/25/17	8:00 p	-15.1	-15.0	-15.1	---	---	3.5	N	0.06	4.3	-19.5	---	---	720.4	0.023	0.000	18.8	63	1
04/25/17	8:01 p	-15.0	-15.0	-15.0	---	---	3.5	NNE	0.06	4.3	-19.4	---	---	720.4	0.023	0.000	18.8	64	1
04/25/17	8:02 p	-14.9	-14.9	-15.0	---	---	3.5	NNE	0.06	4.3	-19.4	---	---	720.3	0.023	0.000	18.8	63	1
04/25/17	8:03 p	-14.9	-14.9	-14.9	---	---	3.5	N	0.06	4.3	-19.4	---	---	720.4	0.023	0.000	18.8	64	1
04/25/17	8:04 p	-14.9	-14.9	-14.9	---	---	3.5	N	0.06	4.3	-19.3	---	---	720.4	0.023	0.000	18.8	64	1
04/25/17	8:05 p	-14.8	-14.8	-14.8	---	---	3.5	N	0.06	4.3	-19.3	---	---	720.4	0.023	0.000	18.9	63	1
04/25/17	8:06 p	-14.8	-14.8	-14.8	---	---	3.5	N	0.06	4.3	-19.3	---	---	720.4	0.023	0.000	18.9	63	1
04/25/17	8:07 p	-14.8	-14.8	-14.8	---	---	3.5	N	0.06	4.3	-19.2	---	---	720.4	0.023	0.000	18.9	63	1
04/25/17	8:08 p	-14.8	-14.8	-14.8	---	---	3.5	N	0.06	4.3	-19.2	---	---	720.5	0.023	0.000	18.9	63	1
04/25/17	8:09 p	-14.8	-14.8	-14.8	---	---	3.5	N	0.06	4.3	-19.2	---	---	720.4	0.023	0.000	18.9	63	1
04/25/17	8:10 p	-14.8	-14.7	-14.8	---	---	3.5	N	0.06	3.5	-19.2	---	---	720.4	0.023	0.000	19.0	63	1
04/25/17	8:11 p	-14.7	-14.7	-14.7	---	---	3.5	N	0.06	4.3	-19.1	---	---	720.5	0.023	0.000	19.0	63	1
04/25/17	8:12 p	-14.7	-14.7	-14.8	---	---	3.5	N	0.06	4.3	-19.1	---	---	720.4	0.023	0.000	19.0	62	1
04/25/17	8:13 p	-14.7	-14.7	-14.7	---	---	3.5	N	0.06	5.2	-19.1	---	---	720.4	0.023	0.000	19.0	63	1
04/25/17	8:14 p	-14.7	-14.7	-14.7	---	---	3.5	N	0.06	4.3	-19.1	---	---	720.4	0.023	0.000	19.0	63	1
04/25/17	8:15 p	-14.7	-14.7	-14.7	---	---	4.3	N	0.07	5.2	-19.9	---	---	720.4	0.023	0.000	19.0	63	1
04/25/17	8:16 p	-14.7	-14.7	-14.7	---	---	3.5	N	0.06	4.3	-19.1	---	---	720.4	0.023	0.000	19.0	63	1
04/25/17	8:17 p	-14.7	-14.7	-14.7	---	---	3.5	N	0.06	4.3	-19.1	---	---	720.4	0.023	0.000	19.0	63	1
04/25/17	8:18 p	-14.7	-14.7	-14.7	---	---	2.6	N	0.04	3.5	-18.1	---	---	720.4	0.023	0.000	19.0	63	1
04/25/17	8:19 p	-14.7	-14.7	-14.7	---	---	2.6	N	0.04	2.6	-18.1	---	---	720.3	0.023	0.000	18.9	63	1
04/25/17	8:20 p	-14.7	-14.7	-14.7	---	---	2.6	N	0.04	3.5	-18.1	---	---	720.3	0.023	0.000	18.9	63	1
04/25/17	8:21 p	-14.7	-14.7	-14.7	---	---	2.6	NNE	0.04	3.5	-18.1	---	---	720.3	0.023	0.000	18.9	63	1
04/25/17	8:22 p	-14.7	-14.7	-14.7	---	---	2.6	NE	0.04	3.5	-18.1	---	---	720.4	0.023	0.000	18.9	63	1
04/25/17	8:23 p	-14.7	-14.7	-14.7	---	---	1.7	NE	0.03	2.6	-16.7	---	---	720.4	0.023	0.000	18.9	63	1
04/25/17	8:24 p	-14.7	-14.7	-14.7	---	---	1.7	NE	0.03	3.5	-16.8	---	---	720.4	0.023	0.000	18.9	63	1
04/25/17	8:25 p	-14.7	-14.7	-14.7	---	---	1.7	NE	0.03	2.6	-16.7	---	---	720.3	0.023	0.000	18.9	63	1
04/25/17	8:26 p	-14.7	-14.7	-14.7	---	---	1.7	NE	0.03	3.5	-16.8	---	---	720.3	0.023	0.000	18.9	63	1
04/25/17	8:27 p	-14.7	-14.7	-14.7	---	---	3.5	NNE	0.06	3.5	-19.1	---	---	720.3	0.023	0.000	18.9	63	1
04/25/17	8:28 p	-14.7	-14.7	-14.7	---	---	2.6	N	0.04	3.5	-18.0	---	---	720.4	0.023	0.000	18.9	63	1
04/25/17	8:29 p	-14.7	-14.7	-14.7	---	---	3.5	N	0.06	4.3	-19.1	---	---	720.3	0.023	0.000	18.9	63	1
04/25/17	8:30 p	-14.7	-14.7	-14.7	---	---	3.5	N	0.06	3.5	-19.1	---	---	720.3	0.023	0.000	18.9	63	1
04/25/17	8:31 p	-14.7	-14.6	-14.7	---	---	3.5	N	0.06	3.5	-19.1	---	---	720.3	0.023	0.000	18.9	63	1
04/25/17	8:32 p	-14.7	-14.6	-14.7	---	---	3.5	N	0.06	4.3	-19.1	---	---	720.2	0.023	0.000	18.9	63	1
04/25/17	8:33 p	-14.6	-14.6	-14.7	---	---	3.5	N	0.06	4.3	-19.0	---	---	720.3	0.023	0.000	18.9	63	1
04/25/17	8:34 p	-14.7	-14.6	-14.7	---	---	3.5	N	0.06	3.5	-19.1	---	---	720.3	0.023	0.000	19.0	63	1
04/25/17	8:35 p	-14.6	-14.6	-14.7	---	---	2.6	N	0.04	3.5	-17.9	---	---	720.3	0.023	0.000	19.0	63	1
04/25/17	8:36 p	-14.6	-14.6	-14.7	---	---	3.5	N	0.06	3.5	-19.0	---	---	720.3	0.023	0.000	19.0	63	1
04/25/17	8:37 p	-14.6	-14.6	-14.7	---	---	2.6	N	0.04	3.5	-17.9	---	---	720.3	0.023	0.000	19.1	63	1
04/25/17	8:38 p	-14.6	-14.6	-14.6	---	---	2.6	N	0.04	3.5	-17.9	---	---	720.3	0.023	0.000	19.1	63	1
04/25/17	8:39 p	-14.6	-14.6	-14.7	---	---	2.6	N	0.04	3.5	-17.9	---	---	720.3	0.023	0.000	19.1	63	1
04/25/17	8:40 p	-14.6	-14.6	-14.6	---	---	2.6	N	0.04	3.5	-17.9	---	---	720.3	0.023	0.000	19.1	63	1
04/25/17	8:41 p	-14.6	-14.6	-14.6	---	---	2.6	N	0.04	3.5	-17.9	---	---	720.3	0.023	0.000	19.1	63	1
04/25/17	8:42 p	-14.6	-14.6	-14.6	---	---	1.7	N	0.03	2.6	-16.6	---	---	720.3	0.023	0.000	19.1	63	1
04/25/17	8:43 p	-14.6	-14.6	-14.6	---	---	2.6	N	0.04	2.6	-17.9	---	---	720.3	0.023	0.000	19.0	63	1
04/25/17	8:44 p	-14.6	-14.6	-14.6	---	---	1.7	N	0.03	2.6	-16.6	---	---	720.3	0.023	0.000	19.0	63	1
04/25/17	8:45 p	-14.6	-14.6	-14.6	---	---	1.7	N	0.03	2.6	-16.6	---	---	720.3	0.023	0.000	19.0	63	1
04/25/17	8:46 p	-14.6	-14.6	-14.6	---	---	0.9	N	0.01	1.7	-14.6	---	---	720.3	0.023	0.000	19.0	63	1
04/25/17	8:47 p	-14.6	-14.6	-14.6	---	---	0.9	N	0.01	1.7	-14.6	---	---	720.3	0.023	0.000	19.0	63	1
04/25/17	8:48 p	-14.6	-14.6	-14.6	---	---	1.7	N	0.03	1.7	-16.6	---	---	720.4	0.023	0.000	18.9	63	1
04/25/17	8:49 p	-14.6	-14.6	-14.6	---	---	0.9	N	0.01	1.7	-14.6	---	---	720.3	0.023	0.000	18.9	63	1
04/25/17	8:50 p	-14.6	-14.6	-14.6	---	---	0.9	N	0.01	1.7	-14.6	---	---	720.3	0.023	0.000	18.9	63	1
04/25/17	8:51 p	-14.6	-14.6	-14.6	---	---	0.9	N	0.01	1.7	-14.6	---	---	720.3	0.023	0.000	18.9	63	1
04/25/17	8:52 p	-14.6	-14.6	-14.6	---	---	1.7	N	0.03	1.7	-16.6	---	---	720.3	0.023	0.000	18.9	63	1
04/25/17	8:53 p	-14.6	-14.6	-14.6	---	---	1.7	N	0.03	2.6	-16.6	---	---	720.3	0.023	0.000	18.9	63	1
04/25/17	8:54 p	-14.6	-14.6	-14.7	---	---	1.7	N	0.03	2.6	-16.6	---	---	720.3	0.023	0.000	18.9	63	1
04/25/17	8:55 p	-14.7	-14.7	-14.7	---	---	1.7	N	0.03	2.6	-16.7	---	---	720.3	0.023	0.000	18.9	63	1
04/25/17	8:56 p	-14.7	-14.7	-14.7	---	---	1.7	N	0.03	2.6	-16.7	---	---	720.3	0.023	0.000	18.9	63	1
04/25/17	8:57 p	-14.7	-14.7	-14.7	---	---	2.6	N	0.04	2.6	-18.0	---	---	720.3	0.023	0.000	18.9	63	1
04/25/17	8:58 p	-14.7	-14.7	-14.7	---	---	1.7	N	0.03	2.6	-16.8	---	---	720.3	0.023	0.000	19.0	63	1
04/25/17	8:59 p	-14.7	-14.7	-14.7	---	---	1.7	N	0.03	2.6	-16.8	---	---	720.3	0.023	0.000	19.0	63	1
04/25/17	9:00 p	-14.8	-14.7	-14.8	---	---	1.7	N	0.03	2.6	-16.8	---	---	720.3	0.023	0.000	19.0	64	1
04/25/17	9:01 p	-14.8	-14.8	-14.8	---	---	1.7	N	0.03	1.7	-16.8	---	---	720.2	0.023	0.000	19.1	63	1
04/25/17	9:02 p	-14.8	-14.8	-14.8	---	---	1.7	N	0.03	1.7	-16.8	---	---	720.2	0.023	0.000	19.1	64	1
04/25/17	9:03 p	-14.8	-14.8	-14.8	---	---	1.7	N	0.03	2.6	-16.8	---	---	720.2	0.023	0.000	19.1	64	1
04/25/17	9:04 p	-14.8	-14.8	-14.8	---	---	1.7	N	0.03	2.6	-16.9	---	---	720.2	0.023	0.000	19.1	64	1
04/25/17	9:05 p	-14.8	-14.8	-14.8	---	---	1.7	N	0.03	1.7	-16.9	---	---	720.3	0.023	0.000	19.1	64	1
04/25/17	9:06 p	-14.8	-14.8	-14.8	---	---	1.7	N	0.03	2.6	-16.9	---	---	720.2	0.023	0.000	19.1	63	1
04/25/17	9:07 p	-14.8	-14.8	-14.8	---	---	1.7	N	0.03	2.6	-16.8	---	---	720.3	0.023	0.000	19.0	63	1
04/25/17	9:08 p	-14.8	-14.8	-14.8	---	---	1.7	N	0.03	2.6	-16.8	---	---	720.3	0.023	0.000	19.0	63	1
04/25/17	9:09 p	-14.8	-14.8	-14.8	---	---	1.7	N	0.03	1.7	-16.8	---	---	720.2	0.023	0.000	19.0	63	1
04/25/17	9:10 p	-14.8	-14.8	-14.8	---	---	1.7	N	0.03	1.7	-16.8	---	---	720.2	0.023	0.000	19.0	64	1
04/25/17	9:11 p	-14.8	-14.7	-14.8	---	---	1.7	N	0.03	1.7	-16.8	---	---	720.2	0.023	0.000	19.0	63	1
04/25/17	9:12 p	-14.7	-14.7	-14.8	---	---	0.9	N	0.01	1.7	-14.7	---	---	720.2	0.023	0.000	18.9	63	1
04/25/17	9:13 p	-14.7	-14.7	-14.7	---	---	1.7	N	0.03	1.7	-16.8	---	---	720.2	0.023	0.000	18.9	63	1
04/25/17	9:14 p	-14.7	-14.7	-14.7	---	---	1.7	N	0.03	1.7	-16.8	---	---	720.2	0.023	0.000	18.9	63	1
04/25/17	9:15 p	-14.7	-14.7	-14.7	---	---	0.9	N	0.01	1.7	-14.7	---	---	720.2	0.023	0.000	18.9	64	1
04/25/17	9:16 p	-14.7	-14.7	-14.7	---	---	0.9	N	0.01	1.7	-14.7	---	---	720.2	0.023	0.000	18.9	63	1
04/25/17	9:17 p	-14.7	-14.7	-14.7	---	---	0.9	N	0.01	1.7	-14.7	---	---	720.2	0.023	0.000	18.9	64	1
04/25/17	9:18 p	-14.7	-14.7	-14.7	---	---	0.9	N	0.01	1.7	-14.7	---	---	720.1	0.023	0.000	18.9	63	1
04/25/17	9:19 p	-14.7	-14.7	-14.7	---	---	0.9	N	0.01	0.9	-14.7	---	---	720.2	0.023	0.000	18.9	63	1
04/25/17	9:20 p	-14.7	-14.7	-14.7	---	---	0.0	N	0.00	0.9	-14.7	---	---	720.1	0.023	0.000	18.9	63	1
04/25/17	9:21 p	-14.7	-14.7	-14.7	---	---	0.0	N	0.00	0.9	-14.7	---	---	720.1	0.023	0.000	19.0	63	1
04/25/17	9:22 p	-14.7	-14.7	-14.7	---	---	0.0	---	0.00	0.0	-14.7	---	---	720.2	0.023	0.000	19.0	63	1
04/25/17	9:23 p	-14.7	-14.7	-14.7	---	---	0.0	---	0.00	0.0	-14.7	---	---	720.2	0.023	0.000	19.0	63	1
04/25/17	9:24 p	-14.7	-14.7	-14.7	---	---	0.0	---	0.00	0.0	-14.7	---	---	720.2	0.023	0.000	19.1	63	1
04/25/17	9:25 p	-14.7	-14.7	-14.7	---	---	0.0	---	0.00	0.0	-14.7	---	---	720.2	0.023	0.000	19.1	63	1
04/25/17	9:26 p	-14.7	-14.7	-14.7	---	---	0.0	---	0.00	0.0	-14.7	---	---	720.1	0.023	0.000	19.1	63	1
04/25/17	9:27 p	-14.7	-14.7	-14.7	---	---	0.0	---	0.00	0.0	-14.7	---	---	720.1	0.023	0.000	19.1	63	1
04/25/17	9:28 p	-14.7	-14.7	-14.7	---	---	0.0	---	0.00	0.0	-14.7	---	---	720.1	0.023	0.000	19.1	63	1
04/25/17	9:29 p	-14.7	-14.7	-14.7	---	---	0.0	---	0.00	0.0	-14.7	---	---	720.1	0.023	0.000	19.1	63	1
04/25/17	9:30 p	-14.8	-14.7	-14.8	---	---	0.0	N	0.00	0.9	-14.8	---	---	720.1	0.023	0.000	19.1	63	1
04/25/17	9:31 p	-14.8	-14.7	-14.8	---	---	0.9	N	0.01	0.9	-14.8	---	---	720.2	0.023	0.000	19.1	64	1
04/25/17	9:32 p	-14.8	-14.8	-14.8	---	---	0.9	N	0.01	0.9	-14.8	---	---	720.1	0.023	0.000	19.0	63	1
04/25/17	9:33 p	-14.8	-14.8	-14.8	---	---	0.9	N	0.01	0.9	-14.8	---	---	720.1	0.023	0.000	19.0	63	1
04/25/17	9:34 p	-14.8	-14.8	-14.8	---	---	0.9	N	0.01	1.7	-14.8	---	---	720.1	0.023	0.000	19.0	63	1
04/25/17	9:35 p	-14.8	-14.8	-14.8	---	---	0.9	N	0.01	1.7	-14.8	---	---	720.1	0.023	0.000	19.0	63	1
04/25/17	9:36 p	-14.8	-14.8	-14.8	---	---	0.9	N	0.01	1.7	-14.8	---	---	720.1	0.023	0.000	19.0	63	1
04/25/17	9:37 p	-14.9	-14.8	-14.9	---	---	0.9	N	0.01	1.7	-14.9	---	---	720.1	0.023	0.000	18.9	64	1
04/25/17	9:38 p	-14.9	-14.9	-14.9	---	---	1.7	N	0.03	1.7	-16.9	---	---	720.2	0.023	0.000	18.9	64	1
04/25/17	9:39 p	-14.9	-14.9	-14.9	---	---	1.7	N	0.03	1.7	-16.9	---	---	720.1	0.023	0.000	18.9	64	1
04/25/17	9:40 p	-14.9	-14.9	-14.9	---	---	1.7	N	0.03	2.6	-17.0	---	---	720.1	0.023	0.000	18.9	64	1
04/25/17	9:41 p	-14.9	-14.9	-14.9	---	---	1.7	N	0.03	2.6	-17.0	---	---	720.2	0.023	0.000	18.9	64	1
04/25/17	9:42 p	-14.9	-14.9	-15.0	---	---	1.7	N	0.03	2.6	-17.0	---	---	720.1	0.023	0.000	19.0	63	1
04/25/17	9:43 p	-15.0	-15.0	-15.0	---	---	2.6	N	0.04	2.6	-18.4	---	---	720.2	0.023	0.000	19.0	63	1
04/25/17	9:44 p	-15.0	-15.0	-15.1	---	---	2.6	N	0.04	3.5	-18.4	---	---	720.3	0.023	0.000	19.0	64	1
04/25/17	9:45 p	-15.0	-15.0	-15.1	---	---	2.6	N	0.04	3.5	-18.4	---	---	720.2	0.023	0.000	19.1	63	1
04/25/17	9:46 p	-15.1	-15.1	-15.1	---	---	2.6	N	0.04	3.5	-18.4	---	---	720.2	0.023	0.000	19.1	63	1
04/25/17	9:47 p	-15.1	-15.1	-15.1	---	---	2.6	N	0.04	3.5	-18.4	---	---	720.2	0.023	0.000	19.1	63	1
04/25/17	9:48 p	-15.1	-15.1	-15.1	---	---	3.5	N	0.06	4.3	-19.5	---	---	720.2	0.023	0.000	19.1	63	1
04/25/17	9:49 p	-15.1	-15.1	-15.1	---	---	3.5	N	0.06	3.5	-19.5	---	---	720.1	0.023	0.000	19.1	63	1
04/25/17	9:50 p	-15.1	-15.1	-15.1	---	---	2.6	N	0.04	3.5	-18.4	---	---	720.2	0.023	0.000	19.1	63	1
04/25/17	9:51 p	-15.1	-15.1	-15.1	---	---	2.6	N	0.04	3.5	-18.4	---	---	720.2	0.023	0.000	19.1	63	1
04/25/17	9:52 p	-15.1	-15.1	-15.1	---	---	2.6	N	0.04	2.6	-18.4	---	---	720.1	0.023	0.000	19.1	64	1
04/25/17	9:53 p	-15.1	-15.1	-15.1	---	---	2.6	N	0.04	3.5	-18.4	---	---	720.2	0.023	0.000	19.1	64	1
04/25/17	9:54 p	-15.1	-15.1	-15.1	---	---	2.6	N	0.04	3.5	-18.6	---	---	720.2	0.023	0.000	19.0	63	1
04/25/17	9:55 p	-15.1	-15.1	-15.1	---	---	2.6	N	0.04	2.6	-18.6	---	---	720.2	0.023	0.000	19.0	63	1
04/25/17	9:56 p	-15.1	-15.1	-15.1	---	---	2.6	N	0.04	3.5	-18.6	---	---	720.2	0.023	0.000	19.0	63	1
04/25/17	9:57 p	-15.1	-15.1	-15.1	---	---	2.6	N	0.04	3.5	-18.6	---	---	720.2	0.023	0.000	19.0	64	1
04/25/17	9:58 p	-15.1	-15.1	-15.1	---	---	2.6	N	0.04	3.5	-18.6	---	---	720.2	0.023	0.000	18.9	63	1
04/25/17	9:59 p	-15.1	-15.1	-15.1	---	---	3.5	N	0.06	3.5	-19.6	---	---	720.1	0.023	0.000	18.9	64	1
04/25/17	10:00 p	-15.1	-15.1	-15.1	---	---	3.5	N	0.06	3.5	-19.6	---	---	720.1	0.023	0.000	18.9	64	1
04/25/17	10:01 p	-15.1	-15.1	-15.2	---	---	3.5	N	0.06	3.5	-19.6	---	---	720.1	0.023	0.000	18.9	63	1
04/25/17	10:02 p	-15.1	-15.1	-15.2	---	---	3.5	N	0.06	3.5	-19.6	---	---	720.1	0.023	0.000	18.9	63	1
04/25/17	10:03 p	-15.1	-15.1	-15.1	---	---	2.6	N	0.04	3.5	-18.6	---	---	720.1	0.023	0.000	18.9	63	1
04/25/17	10:04 p	-15.1	-15.1	-15.2	---	---	2.6	N	0.04	3.5	-18.6	---	---	720.0	0.023	0.000	18.9	63	1
04/25/17	10:05 p	-15.1	-15.1	-15.1	---	---	2.6	N	0.04	3.5	-18.6	---	---	720.1	0.023	0.000	18.9	63	1
04/25/17	10:06 p	-15.1	-15.1	-15.1	---	---	2.6	N	0.04	3.5	-18.6	---	---	720.1	0.023	0.000	19.0	63	1
04/25/17	10:07 p	-15.1	-15.1	-15.1	---	---	2.6	N	0.04	3.5	-18.6	---	---	720.1	0.023	0.000	19.0	63	1
04/25/17	10:08 p	-15.1	-15.1	-15.2	---	---	2.6	N	0.04	3.5	-18.6	---	---	720.1	0.023	0.000	19.0	63	1
04/25/17	10:09 p	-15.1	-15.1	-15.1	---	---	2.6	N	0.04	3.5	-18.6	---	---	720.0	0.023	0.000	19.0	64	1
04/25/17	10:10 p	-15.1	-15.1	-15.1	---	---	2.6	N	0.04	2.6	-18.6	---	---	720.0	0.023	0.000	19.0	63	1
04/25/17	10:11 p	-15.1	-15.1	-15.1	---	---	2.6	N	0.04	2.6	-18.6	---	---	720.0	0.023	0.000	19.1	64	1
04/25/17	10:12 p	-15.1	-15.1	-15.2	---	---	2.6	N	0.04	3.5	-18.6	---	---	720.0	0.023	0.000	19.1	63	1
04/25/17	10:13 p	-15.2	-15.2	-15.2	---	---	2.6	N	0.04	3.5	-18.6	---	---	720.0	0.023	0.000	19.1	63	1
04/25/17	10:14 p	-15.2	-15.2	-15.2	---	---	3.5	N	0.06	3.5	-19.7	---	---	720.0	0.023	0.000	19.1	63	1
04/25/17	10:15 p	-15.2	-15.2	-15.2	---	---	2.6	N	0.04	3.5	-18.6	---	---	720.0	0.023	0.000	19.1	63	1
04/25/17	10:16 p	-15.2	-15.2	-15.2	---	---	3.5	N	0.06	3.5	-19.7	---	---	720.0	0.023	0.000	19.1	63	1
04/25/17	10:17 p	-15.2	-15.2	-15.3	---	---	2.6	N	0.04	3.5	-18.7	---	---	720.0	0.023	0.000	19.1	63	1
04/25/17	10:18 p	-15.3	-15.2	-15.3	---	---	2.6	N	0.04	3.5	-18.7	---	---	720.0	0.023	0.000	19.1	64	1
04/25/17	10:19 p	-15.3	-15.3	-15.3	---	---	2.6	N	0.04	2.6	-18.8	---	---	720.1	0.023	0.000	19.1	63	1
04/25/17	10:20 p	-15.3	-15.3	-15.3	---	---	2.6	N	0.04	2.6	-18.8	---	---	720.1	0.023	0.000	19.1	63	1
04/25/17	10:21 p	-15.4	-15.4	-15.4	---	---	2.6	N	0.04	3.5	-18.8	---	---	720.1	0.023	0.000	19.1	64	1
04/25/17	10:22 p	-15.4	-15.4	-15.4	---	---	2.6	N	0.04	3.5	-18.8	---	---	720.1	0.023	0.000	19.1	64	1
04/25/17	10:23 p	-15.4	-15.4	-15.4	---	---	2.6	N	0.04	3.5	-18.8	---	---	720.2	0.023	0.000	19.1	63	1
04/25/17	10:24 p	-15.4	-15.4	-15.4	---	---	2.6	N	0.04	3.5	-18.9	---	---	720.1	0.023	0.000	19.1	64	1
04/25/17	10:25 p	-15.4	-15.4	-15.4	---	---	2.6	N	0.04	2.6	-18.9	---	---	720.1	0.023	0.000	19.1	64	1
04/25/17	10:26 p	-15.4	-15.4	-15.4	---	---	1.7	N	0.03	2.6	-17.6	---	---	720.1	0.023	0.000	19.1	64	1
04/25/17	10:27 p	-15.4	-15.4	-15.4	---	---	1.7	N	0.03	1.7	-17.6	---	---	720.2	0.023	0.000	19.1	65	1
04/25/17	10:28 p	-15.4	-15.4	-15.5	---	---	1.7	N	0.03	1.7	-17.6	---	---	720.1	0.023	0.000	19.1	64	1
04/25/17	10:29 p	-15.5	-15.5	-15.5	---	---	0.9	N	0.01	1.7	-15.5	---	---	720.1	0.023	0.000	19.2	64	1
04/25/17	10:30 p	-15.6	-15.5	-15.6	---	---	0.0	N	0.00	0.9	-15.6	---	---	720.2	0.024	0.000	19.2	64	1
04/25/17	10:31 p	-15.6	-15.6	-15.6	---	---	0.0	N	0.00	0.9	-15.6	---	---	720.1	0.024	0.000	19.2	64	1
04/25/17	10:32 p	-15.6	-15.6	-15.6	---	---	0.9	N	0.01	0.9	-15.6	---	---	720.1	0.024	0.000	19.2	64	1
04/25/17	10:33 p	-15.6	-15.6	-15.6	---	---	0.9	N	0.01	0.9	-15.6	---	---	720.1	0.024	0.000	19.2	64	1
04/25/17	10:34 p	-15.6	-15.6	-15.6	---	---	0.9	N	0.01	1.7	-15.6	---	---	720.1	0.024	0.000	19.3	65	1
04/25/17	10:35 p	-15.6	-15.6	-15.7	---	---	1.7	N	0.03	1.7	-17.7	---	---	720.1	0.024	0.000	19.3	64	1
04/25/17	10:36 p	-15.6	-15.6	-15.7	---	---	1.7	N	0.03	2.6	-17.7	---	---	720.0	0.024	0.000	19.3	64	1
04/25/17	10:37 p	-15.6	-15.6	-15.7	---	---	2.6	N	0.04	2.6	-19.1	---	---	720.1	0.024	0.000	19.3	64	1
04/25/17	10:38 p	-15.6	-15.6	-15.7	---	---	1.7	N	0.03	2.6	-17.7	---	---	720.1	0.024	0.000	19.3	64	1
04/25/17	10:39 p	-15.6	-15.6	-15.7	---	---	1.7	N	0.03	2.6	-17.7	---	---	720.1	0.024	0.000	19.3	64	1
04/25/17	10:40 p	-15.7	-15.6	-15.7	---	---	1.7	N	0.03	2.6	-17.8	---	---	720.0	0.024	0.000	19.3	64	1
04/25/17	10:41 p	-15.7	-15.7	-15.7	---	---	1.7	N	0.03	2.6	-17.8	---	---	720.1	0.024	0.000	19.3	64	1
04/25/17	10:42 p	-15.7	-15.7	-15.7	---	---	1.7	N	0.03	2.6	-17.8	---	---	720.1	0.024	0.000	19.2	64	1
04/25/17	10:43 p	-15.7	-15.7	-15.8	---	---	1.7	N	0.03	2.6	-17.8	---	---	720.1	0.024	0.000	19.2	64	1
04/25/17	10:44 p	-15.8	-15.8	-15.8	---	---	1.7	N	0.03	2.6	-17.8	---	---	720.0	0.024	0.000	19.2	64	1
04/25/17	10:45 p	-15.8	-15.8	-15.8	---	---	2.6	N	0.04	3.5	-19.3	---	---	720.1	0.024	0.000	19.2	65	1
04/25/17	10:46 p	-15.8	-15.8	-15.9	---	---	2.6	N	0.04	3.5	-19.3	---	---	720.1	0.024	0.000	19.2	64	1
04/25/17	10:47 p	-15.9	-15.9	-15.9	---	---	2.6	N	0.04	3.5	-19.4	---	---	720.1	0.024	0.000	19.2	64	1
04/25/17	10:48 p	-15.9	-15.9	-15.9	---	---	3.5	N	0.06	3.5	-20.6	---	---	720.1	0.024	0.000	19.2	65	1
04/25/17	10:49 p	-16.0	-15.9	-16.0	---	---	2.6	N	0.04	3.5	-19.6	---	---	720.1	0.024	0.000	19.2	65	1
04/25/17	10:50 p	-16.1	-16.1	-16.1	---	---	2.6	N	0.04	3.5	-19.6	---	---	720.1	0.024	0.000	19.2	64	1
04/25/17	10:51 p	-16.1	-16.1	-16.1	---	---	2.6	N	0.04	3.5	-19.6	---	---	720.1	0.024	0.000	19.2	64	1
04/25/17	10:52 p	-16.1	-16.1	-16.1	---	---	2.6	N	0.04	3.5	-19.7	---	---	720.1	0.024	0.000	19.2	64	1
04/25/17	10:53 p	-16.1	-16.1	-16.2	---	---	2.6	N	0.04	3.5	-19.7	---	---	720.1	0.024	0.000	19.2	64	1
04/25/17	10:54 p	-16.2	-16.2	-16.2	---	---	3.5	N	0.06	4.3	-20.8	---	---	720.1	0.024	0.000	19.2	64	1
04/25/17	10:55 p	-16.2	-16.2	-16.2	---	---	4.3	N	0.07	4.3	-21.7	---	---	720.1	0.024	0.000	19.3	64	1
04/25/17	10:56 p	-16.2	-16.2	-16.2	---	---	4.3	N	0.07	5.2	-21.7	---	---	720.1	0.024	0.000	19.3	64	1
04/25/17	10:57 p	-16.2	-16.1	-16.2	---	---	4.3	N	0.07	5.2	-21.7	---	---	720.2	0.024	0.000	19.3	65	1
04/25/17	10:58 p	-16.2	-16.1	-16.2	---	---	4.3	N	0.07	5.2	-21.7	---	---	720.1	0.024	0.000	19.3	65	1
04/25/17	10:59 p	-16.1	-16.1	-16.1	---	---	4.3	N	0.07	5.2	-21.6	---	---	720.2	0.024	0.000	19.3	65	1
04/25/17	11:00 p	-16.1	-16.1	-16.1	---	---	4.3	N	0.07	5.2	-21.6	---	---	720.0	0.024	0.000	19.3	65	1
04/25/17	11:01 p	-16.0	-16.0	-16.1	---	---	5.2	N	0.09	5.2	-22.2	---	---	720.1	0.024	0.000	19.3	64	1
04/25/17	11:02 p	-15.9	-15.9	-16.0	---	---	4.3	N	0.07	5.2	-21.4	---	---	720.1	0.024	0.000	19.3	64	1
04/25/17	11:03 p	-15.9	-15.9	-15.9	---	---	5.2	N	0.09	5.2	-22.1	---	---	720.1	0.024	0.000	19.3	64	1
04/25/17	11:04 p	-15.9	-15.8	-15.9	---	---	4.3	N	0.07	5.2	-21.3	---	---	720.1	0.024	0.000	19.3	65	1
04/25/17	11:05 p	-15.8	-15.8	-15.8	---	---	5.2	N	0.09	5.2	-22.0	---	---	720.1	0.024	0.000	19.3	64	1
04/25/17	11:06 p	-15.8	-15.8	-15.8	---	---	5.2	N	0.09	5.2	-21.9	---	---	720.1	0.024	0.000	19.3	65	1
04/25/17	11:07 p	-15.7	-15.7	-15.8	---	---	5.2	N	0.09	5.2	-21.9	---	---	720.1	0.024	0.000	19.3	65	1
04/25/17	11:08 p	-15.7	-15.7	-15.7	---	---	4.3	N	0.07	5.2	-21.2	---	---	720.1	0.024	0.000	19.3	64	1
04/25/17	11:09 p	-15.7	-15.7	-15.7	---	---	5.2	N	0.09	5.2	-21.8	---	---	720.1	0.024	0.000	19.3	64	1
04/25/17	11:10 p	-15.7	-15.7	-15.7	---	---	4.3	N	0.07	5.2	-21.1	---	---	720.2	0.024	0.000	19.3	65	1
04/25/17	11:11 p	-15.6	-15.6	-15.7	---	---	4.3	N	0.07	5.2	-21.0	---	---	720.1	0.024	0.000	19.2	64	1
04/25/17	11:12 p	-15.6	-15.6	-15.6	---	---	5.2	N	0.09	5.2	-21.7	---	---	720.2	0.024	0.000	19.2	65	1
04/25/17	11:13 p	-15.6	-15.6	-15.6	---	---	4.3	N	0.07	5.2	-20.9	---	---	720.2	0.024	0.000	19.2	64	1
04/25/17	11:14 p	-15.6	-15.6	-15.6	---	---	4.3	N	0.07	5.2	-20.9	---	---	720.2	0.024	0.000	19.2	64	1
04/25/17	11:15 p	-15.6	-15.5	-15.6	---	---	4.3	N	0.07	4.3	-20.9	---	---	720.1	0.024	0.000	19.2	64	1
04/25/17	11:16 p	-15.5	-15.5	-15.6	---	---	4.3	N	0.07	4.3	-20.9	---	---	720.2	0.023	0.000	19.2	65	1
04/25/17	11:17 p	-15.5	-15.4	-15.5	---	---	4.3	N	0.07	4.3	-20.9	---	---	720.2	0.023	0.000	19.2	65	1
04/25/17	11:18 p	-15.4	-15.4	-15.5	---	---	3.5	N	0.06	4.3	-19.9	---	---	720.2	0.023	0.000	19.3	65	1
04/25/17	11:19 p	-15.4	-15.4	-15.4	---	---	3.5	N	0.06	4.3	-19.9	---	---	720.1	0.023	0.000	19.3	65	1
04/25/17	11:20 p	-15.4	-15.4	-15.4	---	---	3.5	N	0.06	4.3	-19.9	---	---	720.2	0.023	0.000	19.3	65	1
04/25/17	11:21 p	-15.4	-15.3	-15.4	---	---	3.5	N	0.06	4.3	-19.9	---	---	720.1	0.023	0.000	19.3	65	1
04/25/17	11:22 p	-15.4	-15.4	-15.4	---	---	3.5	N	0.06	4.3	-19.9	---	---	720.1	0.023	0.000	19.4	65	1
04/25/17	11:23 p	-15.4	-15.3	-15.4	---	---	3.5	N	0.06	4.3	-19.9	---	---	720.1	0.023	0.000	19.4	65	1
04/25/17	11:24 p	-15.3	-15.3	-15.3	---	---	4.3	N	0.07	4.3	-20.7	---	---	720.1	0.023	0.000	19.4	65	1
04/25/17	11:25 p	-15.3	-15.3	-15.3	---	---	4.3	N	0.07	5.2	-20.7	---	---	720.1	0.023	0.000	19.5	65	1
04/25/17	11:26 p	-15.3	-15.3	-15.3	---	---	4.3	N	0.07	5.2	-20.7	---	---	720.1	0.023	0.000	19.5	65	1
04/25/17	11:27 p	-15.3	-15.3	-15.3	---	---	4.3	N	0.07	5.2	-20.7	---	---	720.0	0.023	0.000	19.6	65	1
04/25/17	11:28 p	-15.3	-15.3	-15.3	---	---	5.2	N	0.09	5.2	-21.4	---	---	720.0	0.023	0.000	19.5	65	1
04/25/17	11:29 p	-15.3	-15.3	-15.4	---	---	5.2	N	0.09	6.1	-21.4	---	---	720.1	0.023	0.000	19.6	65	1
04/25/17	11:30 p	-15.4	-15.3	-15.4	---	---	5.2	N	0.09	6.1	-21.5	---	---	720.1	0.023	0.000	19.6	65	1
04/25/17	11:31 p	-15.4	-15.4	-15.4	---	---	5.2	N	0.09	6.1	-21.5	---	---	720.2	0.023	0.000	19.6	65	1
04/25/17	11:32 p	-15.4	-15.4	-15.4	---	---	5.2	N	0.09	6.1	-21.6	---	---	720.0	0.023	0.000	19.5	65	1
04/25/17	11:33 p	-15.4	-15.4	-15.5	---	---	5.2	N	0.09	6.1	-21.6	---	---	720.1	0.023	0.000	19.5	65	1
04/25/17	11:34 p	-15.5	-15.5	-15.5	---	---	5.2	N	0.09	6.1	-21.6	---	---	720.1	0.023	0.000	19.4	65	1
04/25/17	11:35 p	-15.6	-15.5	-15.6	---	---	4.3	N	0.07	5.2	-20.9	---	---	720.1	0.024	0.000	19.4	65	1
04/25/17	11:36 p	-15.6	-15.6	-15.6	---	---	4.3	N	0.07	5.2	-20.9	---	---	720.0	0.024	0.000	19.4	65	1
04/25/17	11:37 p	-15.6	-15.6	-15.6	---	---	4.3	N	0.07	5.2	-21.0	---	---	720.1	0.024	0.000	19.4	65	1
04/25/17	11:38 p	-15.6	-15.6	-15.6	---	---	4.3	N	0.07	5.2	-21.0	---	---	720.1	0.024	0.000	19.4	65	1
04/25/17	11:39 p	-15.6	-15.6	-15.7	---	---	4.3	N	0.07	5.2	-21.0	---	---	720.1	0.024	0.000	19.4	65	1
04/25/17	11:40 p	-15.7	-15.7	-15.7	---	---	5.2	N	0.09	5.2	-21.8	---	---	720.0	0.024	0.000	19.3	65	1
04/25/17	11:41 p	-15.7	-15.6	-15.7	---	---	4.3	N	0.07	5.2	-21.1	---	---	720.1	0.024	0.000	19.3	65	1
04/25/17	11:42 p	-15.7	-15.7	-15.7	---	---	5.2	N	0.09	6.1	-21.8	---	---	720.1	0.024	0.000	19.3	65	1
04/25/17	11:43 p	-15.7	-15.7	-15.7	---	---	5.2	N	0.09	6.1	-21.9	---	---	720.1	0.024	0.000	19.3	65	1
04/25/17	11:44 p	-15.7	-15.7	-15.7	---	---	5.2	N	0.09	6.1	-21.9	---	---	720.2	0.024	0.000	19.3	65	1
04/25/17	11:45 p	-15.7	-15.7	-15.8	---	---	5.2	N	0.09	6.1	-21.9	---	---	720.1	0.024	0.000	19.3	65	1
04/25/17	11:46 p	-15.7	-15.7	-15.8	---	---	6.1	N	0.10	6.1	-22.5	---	---	720.1	0.024	0.000	19.3	65	1
04/25/17	11:47 p	-15.8	-15.8	-15.8	---	---	6.1	N	0.10	6.1	-22.6	---	---	720.1	0.024	0.000	19.3	65	1
04/25/17	11:48 p	-15.8	-15.8	-15.8	---	---	6.1	N	0.10	7.0	-22.7	---	---	720.1	0.024	0.000	19.3	65	1
04/25/17	11:49 p	-15.8	-15.8	-15.8	---	---	6.1	N	0.10	6.1	-22.7	---	---	720.1	0.024	0.000	19.3	65	1
04/25/17	11:50 p	-15.9	-15.8	-15.9	---	---	6.1	N	0.10	6.1	-22.7	---	---	720.1	0.024	0.000	19.3	65	1
04/25/17	11:51 p	-15.9	-15.9	-15.9	---	---	6.1	N	0.10	6.1	-22.7	---	---	720.2	0.024	0.000	19.3	65	1
04/25/17	11:52 p	-15.9	-15.9	-15.9	---	---	6.1	N	0.10	6.1	-22.8	---	---	720.2	0.024	0.000	19.3	65	1
04/25/17	11:53 p	-15.9	-15.9	-15.9	---	---	6.1	N	0.10	6.1	-22.8	---	---	720.2	0.024	0.000	19.3	65	1
04/25/17	11:54 p	-16.0	-15.9	-16.0	---	---	6.1	N	0.10	7.0	-22.8	---	---	720.1	0.024	0.000	19.3	65	1
04/25/17	11:55 p	-16.0	-15.9	-16.0	---	---	6.1	N	0.10	7.0	-22.8	---	---	720.2	0.024	0.000	19.2	65	1
04/25/17	11:56 p	-16.0	-16.0	-16.1	---	---	6.1	N	0.10	6.1	-22.8	---	---	720.3	0.024	0.000	19.2	65	1
04/25/17	11:57 p	-16.0	-16.0	-16.1	---	---	6.1	N	0.10	6.1	-22.8	---	---	720.2	0.024	0.000	19.2	65	1
04/25/17	11:58 p	-16.1	-16.1	-16.1	---	---	6.1	N	0.10	7.0	-22.9	---	---	720.3	0.024	0.000	19.2	65	1
04/25/17	11:59 p	-16.1	-16.1	-16.1	---	---	6.1	N	0.10	7.0	-22.9	---	---	720.1	0.024	0.000	19.2	65	1
04/26/17	12:00 a	-16.1	-16.1	-16.1	---	---	6.1	N	0.10	6.1	-23.0	---	---	720.2	0.024	0.000	19.1	65	1
04/26/17	12:01 a	-16.2	-16.1	-16.2	---	---	6.1	N	0.10	6.1	-23.1	---	---	720.2	0.024	0.000	19.1	65	1
04/26/17	12:02 a	-16.2	-16.2	-16.2	---	---	6.1	N	0.10	6.1	-23.1	---	---	720.2	0.024	0.000	19.1	65	1
04/26/17	12:03 a	-16.2	-16.2	-16.2	---	---	5.2	N	0.09	6.1	-22.4	---	---	720.2	0.024	0.000	19.1	65	1
04/26/17	12:04 a	-16.2	-16.2	-16.2	---	---	6.1	N	0.10	6.1	-23.1	---	---	720.2	0.024	0.000	19.1	65	1
04/26/17	12:05 a	-16.2	-16.2	-16.3	---	---	5.2	N	0.09	6.1	-22.4	---	---	720.3	0.024	0.000	19.0	65	1
04/26/17	12:06 a	-16.3	-16.2	-16.3	---	---	5.2	N	0.09	6.1	-22.6	---	---	720.3	0.024	0.000	19.0	65	1
04/26/17	12:07 a	-16.3	-16.3	-16.3	---	---	6.1	N	0.10	6.1	-23.2	---	---	720.3	0.024	0.000	19.0	64	1
04/26/17	12:08 a	-16.3	-16.3	-16.3	---	---	5.2	N	0.09	6.1	-22.6	---	---	720.2	0.024	0.000	19.0	64	1
04/26/17	12:09 a	-16.3	-16.3	-16.3	---	---	5.2	N	0.09	6.1	-22.6	---	---	720.3	0.024	0.000	19.0	64	1
04/26/17	12:10 a	-16.3	-16.3	-16.3	---	---	5.2	N	0.09	6.1	-22.6	---	---	720.2	0.024	0.000	19.1	65	1
04/26/17	12:11 a	-16.3	-16.3	-16.3	---	---	5.2	N	0.09	6.1	-22.6	---	---	720.2	0.024	0.000	19.1	64	1
04/26/17	12:12 a	-16.3	-16.2	-16.3	---	---	5.2	N	0.09	6.1	-22.6	---	---	720.3	0.024	0.000	19.1	64	1
04/26/17	12:13 a	-16.3	-16.2	-16.3	---	---	6.1	N	0.10	7.0	-23.2	---	---	720.1	0.024	0.000	19.1	64	1
04/26/17	12:14 a	-16.2	-16.2	-16.3	---	---	6.1	N	0.10	7.0	-23.1	---	---	720.2	0.024	0.000	19.1	65	1
04/26/17	12:15 a	-16.2	-16.2	-16.2	---	---	7.0	N	0.12	7.0	-23.7	---	---	720.1	0.024	0.000	19.1	65	1
04/26/17	12:16 a	-16.2	-16.2	-16.2	---	---	7.0	N	0.12	7.8	-23.7	---	---	720.2	0.024	0.000	19.1	64	1
04/26/17	12:17 a	-16.2	-16.2	-16.2	---	---	7.0	N	0.12	7.8	-23.7	---	---	720.2	0.024	0.000	19.1	65	1
04/26/17	12:18 a	-16.2	-16.2	-16.2	---	---	7.8	N	0.13	7.8	-24.2	---	---	720.1	0.024	0.000	19.1	65	1
04/26/17	12:19 a	-16.2	-16.2	-16.2	---	---	7.0	N	0.12	7.8	-23.7	---	---	720.1	0.024	0.000	19.1	64	1
04/26/17	12:20 a	-16.2	-16.2	-16.2	---	---	7.0	N	0.12	7.8	-23.7	---	---	720.1	0.024	0.000	19.1	64	1
04/26/17	12:21 a	-16.2	-16.2	-16.2	---	---	7.8	N	0.13	7.8	-24.2	---	---	720.2	0.024	0.000	19.1	64	1
04/26/17	12:22 a	-16.2	-16.2	-16.3	---	---	7.8	N	0.13	7.8	-24.2	---	---	720.2	0.024	0.000	19.1	65	1
04/26/17	12:23 a	-16.2	-16.2	-16.3	---	---	7.0	N	0.12	7.8	-23.7	---	---	720.1	0.024	0.000	19.1	65	1
04/26/17	12:24 a	-16.2	-16.2	-16.3	---	---	7.0	N	0.12	7.8	-23.7	---	---	720.1	0.024	0.000	19.1	64	1
04/26/17	12:25 a	-16.3	-16.2	-16.3	---	---	7.8	N	0.13	7.8	-24.3	---	---	720.1	0.024	0.000	19.0	64	1
04/26/17	12:26 a	-16.3	-16.3	-16.3	---	---	7.0	N	0.12	7.8	-23.7	---	---	720.2	0.024	0.000	19.0	64	1
04/26/17	12:27 a	-16.3	-16.3	-16.3	---	---	7.0	N	0.12	7.8	-23.8	---	---	720.2	0.024	0.000	19.0	64	1
04/26/17	12:28 a	-16.3	-16.3	-16.4	---	---	7.8	N	0.13	7.8	-24.3	---	---	720.1	0.024	0.000	18.9	65	1
04/26/17	12:29 a	-16.4	-16.4	-16.4	---	---	7.8	N	0.13	8.7	-24.4	---	---	720.2	0.024	0.000	18.9	64	1
04/26/17	12:30 a	-16.4	-16.4	-16.4	---	---	7.8	N	0.13	8.7	-24.4	---	---	720.1	0.024	0.000	18.9	64	1
04/26/17	12:31 a	-16.5	-16.4	-16.5	---	---	8.7	N	0.14	9.6	-25.0	---	---	720.2	0.024	0.000	18.9	64	1
04/26/17	12:32 a	-16.6	-16.5	-16.6	---	---	8.7	N	0.14	9.6	-25.1	---	---	720.2	0.024	0.000	18.9	64	1
04/26/17	12:33 a	-16.6	-16.6	-16.7	---	---	8.7	N	0.14	9.6	-25.1	---	---	720.2	0.024	0.000	18.9	65	1
04/26/17	12:34 a	-16.7	-16.7	-16.7	---	---	7.8	N	0.13	8.7	-24.7	---	---	720.1	0.024	0.000	18.9	65	1
04/26/17	12:35 a	-16.7	-16.7	-16.7	---	---	8.7	N	0.14	9.6	-25.2	---	---	720.1	0.024	0.000	18.8	65	1
04/26/17	12:36 a	-16.7	-16.7	-16.8	---	---	8.7	N	0.14	10.4	-25.3	---	---	720.1	0.024	0.000	18.8	65	1
04/26/17	12:37 a	-16.8	-16.8	-16.8	---	---	10.4	N	0.17	11.3	-26.2	---	---	720.2	0.024	0.000	18.8	65	1
04/26/17	12:38 a	-16.8	-16.8	-16.8	---	---	10.4	N	0.17	11.3	-26.2	---	---	720.2	0.024	0.000	18.8	64	1
04/26/17	12:39 a	-16.8	-16.8	-16.9	---	---	10.4	N	0.17	11.3	-26.2	---	---	720.2	0.024	0.000	18.8	65	1
04/26/17	12:40 a	-16.9	-16.9	-16.9	---	---	10.4	N	0.17	11.3	-26.3	---	---	720.2	0.024	0.000	18.8	65	1
04/26/17	12:41 a	-16.9	-16.9	-17.0	---	---	10.4	N	0.17	11.3	-26.4	---	---	720.2	0.024	0.000	18.8	64	1
04/26/17	12:42 a	-17.0	-16.9	-17.0	---	---	10.4	N	0.17	11.3	-26.4	---	---	720.1	0.025	0.000	18.8	65	1
04/26/17	12:43 a	-17.0	-17.0	-17.1	---	---	10.4	N	0.17	11.3	-26.4	---	---	720.1	0.025	0.000	18.9	64	1
04/26/17	12:44 a	-17.0	-16.9	-17.0	---	---	9.6	N	0.16	10.4	-26.1	---	---	720.2	0.025	0.000	18.9	64	1
04/26/17	12:45 a	-17.0	-17.0	-17.0	---	---	9.6	N	0.16	10.4	-26.1	---	---	720.1	0.025	0.000	18.9	64	1
04/26/17	12:46 a	-17.0	-17.0	-17.0	---	---	10.4	N	0.17	11.3	-26.4	---	---	720.1	0.025	0.000	18.9	64	1
04/26/17	12:47 a	-17.0	-17.0	-17.0	---	---	9.6	N	0.16	10.4	-26.1	---	---	720.2	0.025	0.000	18.9	64	1
04/26/17	12:48 a	-17.0	-17.0	-17.0	---	---	9.6	N	0.16	9.6	-26.1	---	---	720.1	0.025	0.000	18.9	64	1
04/26/17	12:49 a	-17.0	-17.0	-17.0	---	---	9.6	N	0.16	10.4	-26.1	---	---	720.1	0.025	0.000	18.9	64	1
04/26/17	12:50 a	-17.0	-16.9	-17.0	---	---	8.7	N	0.14	9.6	-25.6	---	---	720.2	0.025	0.000	18.8	65	1
04/26/17	12:51 a	-16.9	-16.9	-17.0	---	---	7.8	N	0.13	9.6	-25.1	---	---	720.2	0.024	0.000	18.8	65	1
04/26/17	12:52 a	-16.9	-16.9	-16.9	---	---	9.6	N	0.16	10.4	-26.0	---	---	720.2	0.024	0.000	18.8	64	1
04/26/17	12:53 a	-16.9	-16.9	-16.9	---	---	7.8	N	0.13	9.6	-25.1	---	---	720.3	0.024	0.000	18.8	64	1
04/26/17	12:54 a	-16.9	-16.8	-16.9	---	---	8.7	N	0.14	9.6	-25.5	---	---	720.2	0.024	0.000	18.8	65	1
04/26/17	12:55 a	-16.8	-16.8	-16.8	---	---	8.7	N	0.14	9.6	-25.4	---	---	720.2	0.024	0.000	18.8	65	1
04/26/17	12:56 a	-16.8	-16.8	-16.8	---	---	8.7	N	0.14	10.4	-25.3	---	---	720.2	0.024	0.000	18.8	64	1
04/26/17	12:57 a	-16.8	-16.7	-16.8	---	---	7.8	N	0.13	9.6	-24.9	---	---	720.2	0.024	0.000	18.7	64	1
04/26/17	12:58 a	-16.7	-16.7	-16.8	---	---	8.7	N	0.14	10.4	-25.3	---	---	720.2	0.024	0.000	18.7	64	1
04/26/17	12:59 a	-16.7	-16.7	-16.7	---	---	8.7	N	0.14	9.6	-25.3	---	---	720.2	0.024	0.000	18.7	65	1
04/26/17	1:00 a	-16.7	-16.7	-16.7	---	---	8.7	N	0.14	10.4	-25.2	---	---	720.2	0.024	0.000	18.7	64	1
04/26/17	1:01 a	-16.7	-16.6	-16.7	---	---	9.6	N	0.16	10.4	-25.6	---	---	720.1	0.024	0.000	18.7	64	1
04/26/17	1:02 a	-16.7	-16.6	-16.7	---	---	7.8	N	0.13	8.7	-24.7	---	---	720.2	0.024	0.000	18.7	65	1
04/26/17	1:03 a	-16.6	-16.6	-16.7	---	---	7.8	N	0.13	9.6	-24.7	---	---	720.1	0.024	0.000	18.7	65	1
04/26/17	1:04 a	-16.6	-16.6	-16.6	---	---	7.8	N	0.13	9.6	-24.7	---	---	720.2	0.024	0.000	18.7	64	1
04/26/17	1:05 a	-16.6	-16.6	-16.6	---	---	8.7	N	0.14	9.6	-25.1	---	---	720.2	0.024	0.000	18.7	64	1
04/26/17	1:06 a	-16.6	-16.6	-16.6	---	---	8.7	N	0.14	10.4	-25.1	---	---	720.2	0.024	0.000	18.7	64	1
04/26/17	1:07 a	-16.6	-16.6	-16.6	---	---	9.6	N	0.16	10.4	-25.5	---	---	720.2	0.024	0.000	18.7	65	1
04/26/17	1:08 a	-16.6	-16.6	-16.6	---	---	8.7	N	0.14	9.6	-25.1	---	---	720.2	0.024	0.000	18.7	65	1
04/26/17	1:09 a	-16.6	-16.6	-16.7	---	---	7.8	N	0.13	9.6	-24.7	---	---	720.2	0.024	0.000	18.8	64	1
04/26/17	1:10 a	-16.7	-16.7	-16.7	---	---	8.7	N	0.14	9.6	-25.2	---	---	720.2	0.024	0.000	18.8	64	1
04/26/17	1:11 a	-16.7	-16.7	-16.7	---	---	7.8	N	0.13	9.6	-24.8	---	---	720.2	0.024	0.000	18.8	64	1
04/26/17	1:12 a	-16.7	-16.7	-16.8	---	---	9.6	N	0.16	10.4	-25.7	---	---	720.2	0.024	0.000	18.8	64	1
04/26/17	1:13 a	-16.8	-16.8	-16.8	---	---	9.6	N	0.16	10.4	-25.8	---	---	720.2	0.024	0.000	18.7	64	1
04/26/17	1:14 a	-16.8	-16.8	-16.9	---	---	9.6	N	0.16	10.4	-25.8	---	---	720.2	0.024	0.000	18.7	64	1
04/26/17	1:15 a	-16.9	-16.9	-17.0	---	---	9.6	N	0.16	11.3	-26.0	---	---	720.2	0.024	0.000	18.7	64	1
04/26/17	1:16 a	-17.0	-16.9	-17.1	---	---	9.6	N	0.16	9.6	-26.1	---	---	720.1	0.025	0.000	18.7	64	1
04/26/17	1:17 a	-17.1	-17.1	-17.1	---	---	9.6	N	0.16	11.3	-26.1	---	---	720.2	0.025	0.000	18.7	64	1
04/26/17	1:18 a	-17.1	-17.1	-17.1	---	---	9.6	N	0.16	10.4	-26.2	---	---	720.2	0.025	0.000	18.7	64	1
04/26/17	1:19 a	-17.1	-17.1	-17.2	---	---	9.6	N	0.16	10.4	-26.2	---	---	720.2	0.025	0.000	18.7	64	1
04/26/17	1:20 a	-17.2	-17.2	-17.2	---	---	9.6	N	0.16	10.4	-26.3	---	---	720.2	0.025	0.000	18.6	64	1
04/26/17	1:21 a	-17.2	-17.2	-17.3	---	---	9.6	N	0.16	10.4	-26.3	---	---	720.3	0.025	0.000	18.6	64	1
04/26/17	1:22 a	-17.3	-17.3	-17.3	---	---	9.6	N	0.16	10.4	-26.4	---	---	720.3	0.025	0.000	18.6	64	1
04/26/17	1:23 a	-17.3	-17.3	-17.4	---	---	10.4	N	0.17	10.4	-26.9	---	---	720.2	0.025	0.000	18.6	63	1
04/26/17	1:24 a	-17.4	-17.3	-17.4	---	---	9.6	N	0.16	10.4	-26.6	---	---	720.3	0.025	0.000	18.6	63	1
04/26/17	1:25 a	-17.4	-17.4	-17.4	---	---	9.6	N	0.16	10.4	-26.6	---	---	720.3	0.025	0.000	18.6	63	1
04/26/17	1:26 a	-17.4	-17.4	-17.5	---	---	9.6	N	0.16	10.4	-26.6	---	---	720.3	0.025	0.000	18.6	64	1
04/26/17	1:27 a	-17.5	-17.5	-17.5	---	---	10.4	N	0.17	11.3	-27.1	---	---	720.3	0.025	0.000	18.6	64	1
04/26/17	1:28 a	-17.5	-17.5	-17.6	---	---	9.6	N	0.16	11.3	-26.7	---	---	720.3	0.025	0.000	18.7	63	1
04/26/17	1:29 a	-17.6	-17.6	-17.6	---	---	10.4	N	0.17	11.3	-27.2	---	---	720.3	0.025	0.000	18.7	63	1
04/26/17	1:30 a	-17.6	-17.5	-17.6	---	---	10.4	N	0.17	11.3	-27.2	---	---	720.2	0.025	0.000	18.7	63	1
04/26/17	1:31 a	-17.6	-17.6	-17.6	---	---	10.4	N	0.17	11.3	-27.2	---	---	720.3	0.025	0.000	18.7	63	1
04/26/17	1:32 a	-17.6	-17.6	-17.6	---	---	10.4	N	0.17	11.3	-27.2	---	---	720.3	0.025	0.000	18.7	63	1
04/26/17	1:33 a	-17.7	-17.6	-17.7	---	---	10.4	N	0.17	11.3	-27.3	---	---	720.3	0.025	0.000	18.7	63	1
04/26/17	1:34 a	-17.7	-17.6	-17.7	---	---	10.4	N	0.17	11.3	-27.3	---	---	720.2	0.025	0.000	18.7	63	1
04/26/17	1:35 a	-17.7	-17.6	-17.7	---	---	9.6	N	0.16	10.4	-26.9	---	---	720.3	0.025	0.000	18.7	63	1
04/26/17	1:36 a	-17.7	-17.7	-17.7	---	---	10.4	N	0.17	10.4	-27.3	---	---	720.3	0.025	0.000	18.7	63	1
04/26/17	1:37 a	-17.7	-17.6	-17.7	---	---	10.4	N	0.17	12.2	-27.3	---	---	720.2	0.025	0.000	18.7	63	1
04/26/17	1:38 a	-17.7	-17.7	-17.7	---	---	9.6	N	0.16	10.4	-26.9	---	---	720.3	0.025	0.000	18.7	62	1
04/26/17	1:39 a	-17.7	-17.7	-17.7	---	---	9.6	N	0.16	10.4	-26.9	---	---	720.3	0.025	0.000	18.6	60	1
04/26/17	1:40 a	-17.7	-17.7	-17.7	---	---	9.6	N	0.16	11.3	-26.9	---	---	720.3	0.025	0.000	18.6	62	1
04/26/17	1:41 a	-17.7	-17.7	-17.7	---	---	8.7	N	0.14	9.6	-26.4	---	---	720.2	0.025	0.000	18.6	62	1
04/26/17	1:42 a	-17.7	-17.7	-17.7	---	---	8.7	N	0.14	9.6	-26.4	---	---	720.3	0.025	0.000	18.6	61	1
04/26/17	1:43 a	-17.7	-17.7	-17.7	---	---	9.6	N	0.16	10.4	-26.9	---	---	720.2	0.025	0.000	18.6	61	1
04/26/17	1:44 a	-17.7	-17.7	-17.7	---	---	9.6	N	0.16	10.4	-26.9	---	---	720.3	0.025	0.000	18.6	62	1
04/26/17	1:45 a	-17.7	-17.7	-17.7	---	---	9.6	N	0.16	10.4	-26.9	---	---	720.3	0.025	0.000	18.6	61	1
04/26/17	1:46 a	-17.7	-17.7	-17.7	---	---	9.6	N	0.16	10.4	-26.9	---	---	720.3	0.025	0.000	18.5	61	1
04/26/17	1:47 a	-17.7	-17.7	-17.7	---	---	9.6	N	0.16	10.4	-26.9	---	---	720.3	0.025	0.000	18.5	61	1
04/26/17	1:48 a	-17.7	-17.7	-17.7	---	---	8.7	N	0.14	9.6	-26.5	---	---	720.3	0.025	0.000	18.5	61	1
04/26/17	1:49 a	-17.7	-17.7	-17.7	---	---	9.6	N	0.16	10.4	-26.9	---	---	720.3	0.025	0.000	18.6	61	1
04/26/17	1:50 a	-17.7	-17.7	-17.8	---	---	9.6	N	0.16	10.4	-26.9	---	---	720.3	0.025	0.000	18.6	61	1
04/26/17	1:51 a	-17.7	-17.7	-17.8	---	---	9.6	N	0.16	11.3	-26.9	---	---	720.3	0.025	0.000	18.6	61	1
04/26/17	1:52 a	-17.7	-17.7	-17.7	---	---	10.4	N	0.17	10.4	-27.3	---	---	720.3	0.025	0.000	18.6	61	1
04/26/17	1:53 a	-17.7	-17.7	-17.7	---	---	10.4	N	0.17	11.3	-27.3	---	---	720.3	0.025	0.000	18.6	61	1
04/26/17	1:54 a	-17.7	-17.7	-17.7	---	---	9.6	N	0.16	10.4	-26.9	---	---	720.3	0.025	0.000	18.6	61	1
04/26/17	1:55 a	-17.7	-17.7	-17.7	---	---	10.4	N	0.17	11.3	-27.3	---	---	720.4	0.025	0.000	18.7	61	1
04/26/17	1:56 a	-17.7	-17.7	-17.7	---	---	10.4	N	0.17	12.2	-27.3	---	---	720.4	0.025	0.000	18.8	61	1
04/26/17	1:57 a	-17.7	-17.7	-17.7	---	---	10.4	N	0.17	11.3	-27.3	---	---	720.3	0.025	0.000	18.8	61	1
04/26/17	1:58 a	-17.7	-17.7	-17.7	---	---	10.4	N	0.17	12.2	-27.3	---	---	720.3	0.025	0.000	18.9	62	1
04/26/17	1:59 a	-17.7	-17.7	-17.7	---	---	9.6	N	0.16	11.3	-26.9	---	---	720.3	0.025	0.000	19.0	61	1
04/26/17	2:00 a	-17.7	-17.7	-17.7	---	---	10.4	N	0.17	11.3	-27.3	---	---	720.2	0.025	0.000	19.0	61	1
04/26/17	2:01 a	-17.7	-17.6	-17.7	---	---	9.6	N	0.16	10.4	-26.9	---	---	720.3	0.025	0.000	19.0	61	1
04/26/17	2:02 a	-17.6	-17.6	-17.7	---	---	10.4	N	0.17	12.2	-27.2	---	---	720.2	0.025	0.000	19.0	61	1
04/26/17	2:03 a	-17.6	-17.6	-17.6	---	---	9.6	N	0.16	10.4	-26.8	---	---	720.3	0.025	0.000	19.0	61	1
04/26/17	2:04 a	-17.6	-17.6	-17.6	---	---	9.6	N	0.16	10.4	-26.7	---	---	720.2	0.025	0.000	19.0	61	1
04/26/17	2:05 a	-17.6	-17.6	-17.6	---	---	8.7	N	0.14	11.3	-26.3	---	---	720.2	0.025	0.000	19.1	61	1
04/26/17	2:09 a	-17.6	-17.5	-17.6	---	---	9.6	N	0.16	13.0	-26.7	---	---	720.2	0.025	0.000	19.2	61	1
04/26/17	2:10 a	-17.5	-17.5	-17.6	---	---	9.6	N	0.16	10.4	-26.7	---	---	720.3	0.025	0.000	19.2	61	1
04/26/17	2:11 a	-17.5	-17.5	-17.5	---	---	10.4	N	0.17	11.3	-27.1	---	---	720.2	0.025	0.000	19.2	61	1
04/26/17	2:12 a	-17.5	-17.5	-17.5	---	---	10.4	N	0.17	11.3	-27.1	---	---	720.2	0.025	0.000	19.2	61	1
04/26/17	2:13 a	-17.5	-17.5	-17.5	---	---	11.3	N	0.19	13.9	-27.4	---	---	720.3	0.025	0.000	19.2	61	1
04/26/17	2:14 a	-17.4	-17.4	-17.5	---	---	11.3	N	0.19	13.0	-27.4	---	---	720.3	0.025	0.000	19.3	61	1
04/26/17	2:15 a	-17.5	-17.4	-17.5	---	---	10.4	N	0.17	12.2	-27.1	---	---	720.3	0.025	0.000	19.3	61	1
04/26/17	2:16 a	-17.4	-17.4	-17.5	---	---	11.3	N	0.19	12.2	-27.4	---	---	720.3	0.025	0.000	19.3	61	1
04/26/17	2:17 a	-17.4	-17.4	-17.5	---	---	11.3	N	0.19	13.0	-27.4	---	---	720.3	0.025	0.000	19.4	61	1
04/26/17	2:18 a	-17.4	-17.4	-17.5	---	---	10.4	N	0.17	11.3	-27.0	---	---	720.3	0.025	0.000	19.4	61	1
04/26/17	2:19 a	-17.5	-17.4	-17.5	---	---	11.3	N	0.19	12.2	-27.4	---	---	720.3	0.025	0.000	19.4	60	1
04/26/17	2:20 a	-17.5	-17.5	-17.5	---	---	10.4	N	0.17	13.0	-27.1	---	---	720.3	0.025	0.000	19.6	61	1
04/26/17	2:21 a	-17.5	-17.5	-17.6	---	---	10.4	N	0.17	11.3	-27.1	---	---	720.3	0.025	0.000	19.6	60	1
04/26/17	2:22 a	-17.6	-17.6	-17.6	---	---	10.4	N	0.17	11.3	-27.2	---	---	720.2	0.025	0.000	19.7	61	1
04/26/17	2:23 a	-17.6	-17.6	-17.6	---	---	11.3	N	0.19	12.2	-27.6	---	---	720.2	0.025	0.000	19.7	61	1
04/26/17	2:24 a	-17.6	-17.6	-17.7	---	---	11.3	N	0.19	12.2	-27.6	---	---	720.2	0.025	0.000	19.7	61	1
04/26/17	2:25 a	-17.7	-17.7	-17.7	---	---	11.3	N	0.19	12.2	-27.7	---	---	720.3	0.025	0.000	19.8	61	1
04/26/17	2:26 a	-17.7	-17.7	-17.8	---	---	11.3	N	0.19	12.2	-27.7	---	---	720.2	0.025	0.000	19.8	61	1
04/26/17	2:27 a	-17.8	-17.7	-17.8	---	---	11.3	N	0.19	13.0	-27.8	---	---	720.3	0.025	0.000	19.8	61	1
04/26/17	2:28 a	-17.8	-17.8	-17.8	---	---	11.3	N	0.19	12.2	-27.9	---	---	720.3	0.025	0.000	19.8	61	1
04/26/17	2:29 a	-17.8	-17.8	-17.8	---	---	11.3	N	0.19	12.2	-27.9	---	---	720.2	0.025	0.000	19.8	61	1
04/26/17	2:30 a	-17.8	-17.8	-17.9	---	---	10.4	N	0.17	11.3	-27.5	---	---	720.2	0.025	0.000	19.8	61	1
04/26/17	2:31 a	-17.9	-17.9	-17.9	---	---	10.4	N	0.17	12.2	-27.6	---	---	720.2	0.025	0.000	19.8	61	1
04/26/17	2:32 a	-17.9	-17.9	-17.9	---	---	10.4	N	0.17	12.2	-27.6	---	---	720.3	0.025	0.000	19.8	61	1
04/26/17	2:33 a	-17.9	-17.9	-17.9	---	---	10.4	N	0.17	11.3	-27.6	---	---	720.3	0.025	0.000	19.8	61	1
04/26/17	2:34 a	-17.9	-17.9	-17.9	---	---	9.6	N	0.16	10.4	-27.2	---	---	720.3	0.025	0.000	19.8	62	1
04/26/17	2:35 a	-18.0	-17.9	-18.0	---	---	9.6	N	0.16	10.4	-27.3	---	---	720.2	0.025	0.000	19.7	61	1
04/26/17	2:36 a	-18.0	-17.9	-18.0	---	---	9.6	N	0.16	10.4	-27.3	---	---	720.3	0.025	0.000	19.7	61	1
04/26/17	2:37 a	-18.0	-18.0	-18.1	---	---	9.6	N	0.16	10.4	-27.3	---	---	720.3	0.025	0.000	19.7	61	1
04/26/17	2:38 a	-18.0	-18.0	-18.1	---	---	8.7	N	0.14	10.4	-26.8	---	---	720.2	0.025	0.000	19.7	61	1
04/26/17	2:39 a	-18.0	-18.0	-18.0	---	---	8.7	N	0.14	9.6	-26.8	---	---	720.3	0.025	0.000	19.7	61	1
04/26/17	2:40 a	-18.0	-18.0	-18.0	---	---	9.6	N	0.16	10.4	-27.3	---	---	720.3	0.025	0.000	19.7	61	1
04/26/17	2:41 a	-18.0	-17.9	-18.0	---	---	8.7	N	0.14	9.6	-26.8	---	---	720.3	0.025	0.000	19.7	61	1
04/26/17	2:42 a	-17.9	-17.9	-17.9	---	---	8.7	N	0.14	9.6	-26.8	---	---	720.3	0.025	0.000	19.7	61	1
04/26/17	2:43 a	-17.9	-17.9	-17.9	---	---	8.7	N	0.14	9.6	-26.7	---	---	720.4	0.025	0.000	19.7	61	1
04/26/17	2:44 a	-17.9	-17.9	-17.9	---	---	8.7	N	0.14	9.6	-26.7	---	---	720.2	0.025	0.000	19.7	61	1
04/26/17	2:45 a	-17.9	-17.9	-17.9	---	---	7.8	N	0.13	10.4	-26.2	---	---	720.3	0.025	0.000	19.7	61	1
04/26/17	2:46 a	-17.9	-17.8	-17.9	---	---	7.8	N	0.13	9.6	-26.2	---	---	720.3	0.025	0.000	19.8	61	1
04/26/17	2:47 a	-17.8	-17.8	-17.9	---	---	7.8	N	0.13	9.6	-26.2	---	---	720.3	0.025	0.000	19.8	61	1
04/26/17	2:48 a	-17.8	-17.8	-17.8	---	---	7.8	N	0.13	9.6	-26.2	---	---	720.3	0.025	0.000	19.8	61	1
04/26/17	2:49 a	-17.8	-17.8	-17.8	---	---	8.7	N	0.14	8.7	-26.6	---	---	720.3	0.025	0.000	19.9	62	1
04/26/17	2:50 a	-17.8	-17.7	-17.8	---	---	8.7	N	0.14	9.6	-26.6	---	---	720.3	0.025	0.000	19.9	62	1
04/26/17	2:51 a	-17.7	-17.7	-17.8	---	---	7.8	N	0.13	8.7	-26.0	---	---	720.3	0.025	0.000	20.0	62	1
04/26/17	2:52 a	-17.7	-17.7	-17.7	---	---	8.7	N	0.14	10.4	-26.5	---	---	720.2	0.025	0.000	20.1	62	1
04/26/17	2:53 a	-17.7	-17.7	-17.7	---	---	7.8	N	0.13	8.7	-26.0	---	---	720.3	0.025	0.000	20.1	62	1
04/26/17	2:54 a	-17.7	-17.7	-17.7	---	---	8.7	N	0.14	10.4	-26.4	---	---	720.4	0.025	0.000	20.1	63	1
04/26/17	2:55 a	-17.7	-17.7	-17.7	---	---	9.6	N	0.16	9.6	-26.9	---	---	720.3	0.025	0.000	20.1	63	1
04/26/17	2:56 a	-17.7	-17.7	-17.7	---	---	7.8	N	0.13	8.7	-25.9	---	---	720.3	0.025	0.000	20.1	63	1
04/26/17	2:57 a	-17.7	-17.6	-17.7	---	---	7.8	N	0.13	7.8	-25.9	---	---	720.3	0.025	0.000	20.1	61	1
04/26/17	2:58 a	-17.6	-17.6	-17.7	---	---	7.8	N	0.13	8.7	-25.9	---	---	720.3	0.025	0.000	20.1	61	1
04/26/17	2:59 a	-17.7	-17.6	-17.7	---	---	7.8	N	0.13	8.7	-25.9	---	---	720.3	0.025	0.000	20.1	61	1
04/26/17	3:00 a	-17.6	-17.6	-17.6	---	---	7.8	N	0.13	8.7	-25.9	---	---	720.3	0.025	0.000	20.1	62	1
04/26/17	3:01 a	-17.6	-17.6	-17.6	---	---	7.8	N	0.13	9.6	-25.9	---	---	720.2	0.025	0.000	20.1	63	1
04/26/17	3:02 a	-17.6	-17.6	-17.6	---	---	7.8	N	0.13	8.7	-25.9	---	---	720.3	0.025	0.000	20.1	63	1
04/26/17	3:03 a	-17.6	-17.6	-17.6	---	---	7.8	N	0.13	8.7	-25.8	---	---	720.3	0.025	0.000	20.1	63	1
04/26/17	3:04 a	-17.6	-17.6	-17.6	---	---	7.8	N	0.13	9.6	-25.9	---	---	720.3	0.025	0.000	20.0	63	1
04/26/17	3:05 a	-17.6	-17.6	-17.6	---	---	8.7	N	0.14	8.7	-26.4	---	---	720.2	0.025	0.000	20.0	63	1
04/26/17	3:06 a	-17.6	-17.6	-17.6	---	---	7.0	N	0.12	8.7	-25.3	---	---	720.3	0.025	0.000	20.0	64	1
04/26/17	3:07 a	-17.6	-17.6	-17.6	---	---	7.8	N	0.13	9.6	-25.9	---	---	720.4	0.025	0.000	20.0	63	1
04/26/17	3:08 a	-17.6	-17.6	-17.6	---	---	7.8	N	0.13	8.7	-25.9	---	---	720.3	0.025	0.000	20.0	64	1
04/26/17	3:09 a	-17.6	-17.6	-17.6	---	---	6.1	N	0.10	7.0	-24.8	---	---	720.3	0.025	0.000	19.9	64	1
04/26/17	3:10 a	-17.6	-17.6	-17.6	---	---	7.0	N	0.12	8.7	-25.3	---	---	720.3	0.025	0.000	19.9	64	1
04/26/17	3:11 a	-17.6	-17.6	-17.6	---	---	6.1	N	0.10	7.8	-24.7	---	---	720.4	0.025	0.000	19.9	64	1
04/26/17	3:12 a	-17.6	-17.6	-17.6	---	---	7.8	N	0.13	10.4	-25.8	---	---	720.4	0.025	0.000	19.9	64	1
04/26/17	3:13 a	-17.6	-17.5	-17.6	---	---	7.0	N	0.12	7.8	-25.3	---	---	720.4	0.025	0.000	19.9	64	1
04/26/17	3:14 a	-17.5	-17.5	-17.6	---	---	7.0	N	0.12	7.8	-25.2	---	---	720.4	0.025	0.000	19.9	64	1
04/26/17	3:15 a	-17.5	-17.5	-17.6	---	---	7.0	N	0.12	7.8	-25.2	---	---	720.4	0.025	0.000	19.9	64	1
04/26/17	3:16 a	-17.5	-17.4	-17.5	---	---	7.8	N	0.13	8.7	-25.8	---	---	720.4	0.025	0.000	20.0	65	1
04/26/17	3:17 a	-17.5	-17.4	-17.5	---	---	7.0	N	0.12	8.7	-25.2	---	---	720.4	0.025	0.000	20.0	64	1
04/26/17	3:18 a	-17.4	-17.4	-17.5	---	---	7.8	N	0.13	8.7	-25.7	---	---	720.4	0.025	0.000	20.1	65	1
04/26/17	3:19 a	-17.4	-17.4	-17.5	---	---	7.0	N	0.12	8.7	-25.2	---	---	720.4	0.025	0.000	20.1	65	1
04/26/17	3:20 a	-17.4	-17.4	-17.4	---	---	7.0	N	0.12	7.8	-25.2	---	---	720.4	0.025	0.000	20.1	65	1
04/26/17	3:21 a	-17.4	-17.4	-17.4	---	---	7.8	N	0.13	8.7	-25.7	---	---	720.4	0.025	0.000	20.2	65	1
04/26/17	3:22 a	-17.4	-17.4	-17.4	---	---	7.0	N	0.12	8.7	-25.2	---	---	720.4	0.025	0.000	20.2	65	1
04/26/17	3:23 a	-17.4	-17.4	-17.4	---	---	7.0	N	0.12	7.8	-25.2	---	---	720.4	0.025	0.000	20.2	65	1
04/26/17	3:24 a	-17.4	-17.4	-17.4	---	---	7.0	N	0.12	8.7	-25.2	---	---	720.4	0.025	0.000	20.3	65	1
04/26/17	3:25 a	-17.4	-17.4	-17.4	---	---	7.0	N	0.12	7.8	-25.2	---	---	720.4	0.025	0.000	20.3	63	1
04/26/17	3:26 a	-17.4	-17.4	-17.4	---	---	6.1	N	0.10	7.0	-24.6	---	---	720.4	0.025	0.000	20.3	63	1
04/26/17	3:27 a	-17.4	-17.4	-17.4	---	---	6.1	N	0.10	7.0	-24.5	---	---	720.4	0.025	0.000	20.2	64	1
04/26/17	3:28 a	-17.4	-17.4	-17.4	---	---	6.1	N	0.10	7.8	-24.6	---	---	720.4	0.025	0.000	20.2	63	1
04/26/17	3:29 a	-17.4	-17.4	-17.4	---	---	7.0	N	0.12	7.8	-25.1	---	---	720.3	0.025	0.000	20.2	63	1
04/26/17	3:30 a	-17.4	-17.4	-17.4	---	---	7.0	N	0.12	7.8	-25.2	---	---	720.3	0.025	0.000	20.2	65	1
04/26/17	3:31 a	-17.4	-17.4	-17.4	---	---	7.0	N	0.12	7.8	-25.2	---	---	720.4	0.025	0.000	20.2	65	1
04/26/17	3:32 a	-17.4	-17.4	-17.4	---	---	6.1	N	0.10	7.0	-24.6	---	---	720.4	0.025	0.000	20.2	65	1
04/26/17	3:33 a	-17.4	-17.4	-17.4	---	---	7.0	N	0.12	7.8	-25.2	---	---	720.5	0.025	0.000	20.2	64	1
04/26/17	3:34 a	-17.4	-17.4	-17.4	---	---	7.0	N	0.12	7.8	-25.2	---	---	720.4	0.025	0.000	20.2	65	1
04/26/17	3:35 a	-17.4	-17.4	-17.4	---	---	7.0	N	0.12	8.7	-25.2	---	---	720.4	0.025	0.000	20.2	64	1
04/26/17	3:36 a	-17.4	-17.4	-17.4	---	---	7.0	N	0.12	7.8	-25.2	---	---	720.4	0.025	0.000	20.1	65	1
04/26/17	3:37 a	-17.4	-17.4	-17.4	---	---	7.0	N	0.12	7.0	-25.2	---	---	720.5	0.025	0.000	20.1	65	1
04/26/17	3:38 a	-17.4	-17.4	-17.4	---	---	7.8	N	0.13	8.7	-25.6	---	---	720.5	0.025	0.000	20.1	65	1
04/26/17	3:39 a	-17.4	-17.4	-17.4	---	---	6.1	N	0.10	7.8	-24.5	---	---	720.5	0.025	0.000	20.1	65	1
04/26/17	3:40 a	-17.4	-17.4	-17.4	---	---	6.1	N	0.10	7.0	-24.5	---	---	720.5	0.025	0.000	20.0	63	1
04/26/17	3:41 a	-17.4	-17.4	-17.4	---	---	6.1	N	0.10	7.0	-24.5	---	---	720.5	0.025	0.000	19.9	66	1
04/26/17	3:42 a	-17.4	-17.4	-17.4	---	---	7.0	N	0.12	8.7	-25.1	---	---	720.5	0.025	0.000	19.9	66	1
04/26/17	3:43 a	-17.4	-17.4	-17.4	---	---	7.0	N	0.12	7.8	-25.1	---	---	720.4	0.025	0.000	19.9	66	1
04/26/17	3:44 a	-17.4	-17.3	-17.4	---	---	6.1	N	0.10	7.0	-24.5	---	---	720.5	0.025	0.000	19.8	66	1
04/26/17	3:45 a	-17.4	-17.4	-17.4	---	---	6.1	N	0.10	7.0	-24.5	---	---	720.4	0.025	0.000	19.8	66	1
04/26/17	3:46 a	-17.4	-17.3	-17.4	---	---	6.1	N	0.10	6.1	-24.5	---	---	720.5	0.025	0.000	19.8	66	1
04/26/17	3:47 a	-17.3	-17.3	-17.4	---	---	6.1	N	0.10	7.0	-24.4	---	---	720.5	0.025	0.000	19.8	63	1
04/26/17	3:48 a	-17.3	-17.3	-17.4	---	---	5.2	N	0.09	7.0	-23.8	---	---	720.5	0.025	0.000	19.8	66	1
04/26/17	3:49 a	-17.3	-17.3	-17.3	---	---	6.1	N	0.10	7.0	-24.4	---	---	720.5	0.025	0.000	19.8	66	1
04/26/17	3:50 a	-17.3	-17.3	-17.4	---	---	6.1	N	0.10	7.8	-24.4	---	---	720.5	0.025	0.000	19.7	66	1
04/26/17	3:51 a	-17.3	-17.3	-17.3	---	---	5.2	N	0.09	6.1	-23.8	---	---	720.4	0.025	0.000	19.7	66	1
04/26/17	3:52 a	-17.3	-17.3	-17.3	---	---	6.1	N	0.10	7.0	-24.4	---	---	720.4	0.025	0.000	19.7	66	1
04/26/17	3:53 a	-17.3	-17.3	-17.3	---	---	5.2	N	0.09	6.1	-23.8	---	---	720.4	0.025	0.000	19.8	66	1
04/26/17	3:54 a	-17.3	-17.3	-17.3	---	---	6.1	N	0.10	7.0	-24.4	---	---	720.4	0.025	0.000	19.7	66	1
04/26/17	3:55 a	-17.3	-17.3	-17.3	---	---	6.1	N	0.10	7.0	-24.4	---	---	720.3	0.025	0.000	19.7	66	1
04/26/17	3:56 a	-17.3	-17.3	-17.3	---	---	5.2	N	0.09	6.1	-23.8	---	---	720.5	0.025	0.000	19.7	66	1
04/26/17	3:57 a	-17.3	-17.3	-17.3	---	---	6.1	N	0.10	7.0	-24.4	---	---	720.4	0.025	0.000	19.7	66	1
04/26/17	3:58 a	-17.3	-17.3	-17.3	---	---	5.2	N	0.09	7.0	-23.8	---	---	720.4	0.025	0.000	19.7	66	1
04/26/17	3:59 a	-17.3	-17.3	-17.3	---	---	6.1	N	0.10	6.1	-24.4	---	---	720.5	0.025	0.000	19.6	66	1
04/26/17	4:00 a	-17.3	-17.3	-17.3	---	---	5.2	N	0.09	6.1	-23.7	---	---	720.4	0.025	0.000	19.6	66	1
04/26/17	4:01 a	-17.3	-17.3	-17.3	---	---	5.2	N	0.09	7.0	-23.8	---	---	720.4	0.025	0.000	19.6	64	1
04/26/17	4:02 a	-17.3	-17.3	-17.3	---	---	5.2	N	0.09	6.1	-23.7	---	---	720.4	0.025	0.000	19.5	62	1
04/26/17	4:03 a	-17.3	-17.3	-17.3	---	---	5.2	N	0.09	6.1	-23.7	---	---	720.4	0.025	0.000	19.4	64	1
04/26/17	4:04 a	-17.3	-17.3	-17.3	---	---	5.2	N	0.09	6.1	-23.7	---	---	720.5	0.025	0.000	19.4	63	1
04/26/17	4:05 a	-17.3	-17.3	-17.3	---	---	5.2	N	0.09	6.1	-23.7	---	---	720.4	0.025	0.000	19.4	63	1
04/26/17	4:06 a	-17.3	-17.3	-17.3	---	---	4.3	N	0.07	5.2	-23.0	---	---	720.4	0.025	0.000	19.4	63	1
04/26/17	4:07 a	-17.3	-17.2	-17.3	---	---	5.2	N	0.09	6.1	-23.7	---	---	720.4	0.025	0.000	19.4	63	1
04/26/17	4:08 a	-17.3	-17.3	-17.3	---	---	5.2	N	0.09	6.1	-23.7	---	---	720.5	0.025	0.000	19.4	63	1
04/26/17	4:09 a	-17.3	-17.3	-17.3	---	---	5.2	N	0.09	6.1	-23.7	---	---	720.3	0.025	0.000	19.4	63	1
04/26/17	4:10 a	-17.3	-17.2	-17.3	---	---	5.2	N	0.09	6.1	-23.7	---	---	720.3	0.025	0.000	19.4	63	1
04/26/17	4:11 a	-17.3	-17.2	-17.3	---	---	4.3	N	0.07	5.2	-23.0	---	---	720.4	0.025	0.000	19.4	63	1
04/26/17	4:12 a	-17.3	-17.3	-17.3	---	---	4.3	N	0.07	5.2	-23.0	---	---	720.4	0.025	0.000	19.4	63	1
04/26/17	4:13 a	-17.2	-17.2	-17.3	---	---	5.2	N	0.09	5.2	-23.7	---	---	720.4	0.025	0.000	19.4	63	1
04/26/17	4:14 a	-17.3	-17.2	-17.3	---	---	4.3	N	0.07	5.2	-23.0	---	---	720.4	0.025	0.000	19.4	62	1
04/26/17	4:15 a	-17.2	-17.2	-17.3	---	---	4.3	N	0.07	6.1	-22.9	---	---	720.4	0.025	0.000	19.4	63	1
04/26/17	4:16 a	-17.3	-17.2	-17.3	---	---	4.3	N	0.07	5.2	-23.0	---	---	720.4	0.025	0.000	19.4	63	1
04/26/17	4:17 a	-17.2	-17.2	-17.3	---	---	4.3	N	0.07	5.2	-22.9	---	---	720.4	0.025	0.000	19.4	62	1
04/26/17	4:18 a	-17.3	-17.2	-17.3	---	---	4.3	N	0.07	5.2	-23.0	---	---	720.4	0.025	0.000	19.4	62	1
04/26/17	4:19 a	-17.2	-17.2	-17.3	---	---	4.3	N	0.07	5.2	-22.9	---	---	720.4	0.025	0.000	19.3	62	1
04/26/17	4:20 a	-17.2	-17.2	-17.2	---	---	5.2	N	0.09	5.2	-23.7	---	---	720.4	0.025	0.000	19.3	62	1
04/26/17	4:21 a	-17.2	-17.2	-17.2	---	---	4.3	NNW	0.07	5.2	-22.9	---	---	720.4	0.025	0.000	19.3	62	1
04/26/17	4:22 a	-17.2	-17.2	-17.2	---	---	5.2	N	0.09	6.1	-23.7	---	---	720.4	0.025	0.000	19.3	62	1
04/26/17	4:23 a	-17.2	-17.2	-17.2	---	---	5.2	N	0.09	5.2	-23.7	---	---	720.4	0.025	0.000	19.3	62	1
04/26/17	4:24 a	-17.2	-17.2	-17.2	---	---	5.2	N	0.09	6.1	-23.7	---	---	720.4	0.025	0.000	19.3	62	1
04/26/17	4:25 a	-17.2	-17.2	-17.2	---	---	5.2	NNW	0.09	6.1	-23.7	---	---	720.3	0.025	0.000	19.2	62	1
04/26/17	4:26 a	-17.2	-17.2	-17.2	---	---	4.3	NNW	0.07	5.2	-22.8	---	---	720.5	0.025	0.000	19.2	62	1
04/26/17	4:27 a	-17.2	-17.2	-17.2	---	---	4.3	NNW	0.07	4.3	-22.8	---	---	720.5	0.025	0.000	19.2	62	1
04/26/17	4:28 a	-17.2	-17.1	-17.2	---	---	4.3	NNW	0.07	5.2	-22.8	---	---	720.5	0.025	0.000	19.2	62	1
04/26/17	4:29 a	-17.2	-17.1	-17.2	---	---	4.3	N	0.07	4.3	-22.8	---	---	720.5	0.025	0.000	19.2	62	1
04/26/17	4:30 a	-17.2	-17.1	-17.2	---	---	4.3	N	0.07	4.3	-22.8	---	---	720.4	0.025	0.000	19.1	62	1
04/26/17	4:31 a	-17.2	-17.1	-17.2	---	---	4.3	NNW	0.07	5.2	-22.8	---	---	720.4	0.025	0.000	19.1	62	1
04/26/17	4:32 a	-17.2	-17.1	-17.2	---	---	4.3	NNW	0.07	4.3	-22.8	---	---	720.5	0.025	0.000	19.1	62	1
04/26/17	4:33 a	-17.1	-17.1	-17.2	---	---	4.3	N	0.07	5.2	-22.8	---	---	720.4	0.025	0.000	19.1	62	1
04/26/17	4:34 a	-17.2	-17.1	-17.2	---	---	4.3	NNW	0.07	5.2	-22.8	---	---	720.5	0.025	0.000	19.1	62	1
04/26/17	4:35 a	-17.1	-17.1	-17.2	---	---	5.2	NNW	0.09	6.1	-23.5	---	---	720.4	0.025	0.000	19.1	62	1
04/26/17	4:36 a	-17.1	-17.1	-17.2	---	---	5.2	NNW	0.09	6.1	-23.5	---	---	720.5	0.025	0.000	19.1	63	1
04/26/17	4:37 a	-17.1	-17.1	-17.1	---	---	5.2	N	0.09	6.1	-23.5	---	---	720.5	0.025	0.000	19.1	63	1
04/26/17	4:38 a	-17.1	-17.1	-17.2	---	---	4.3	NNW	0.07	5.2	-22.8	---	---	720.6	0.025	0.000	19.2	63	1
04/26/17	4:39 a	-17.1	-17.1	-17.1	---	---	5.2	N	0.09	6.1	-23.5	---	---	720.5	0.025	0.000	19.2	62	1
04/26/17	4:40 a	-17.1	-17.1	-17.1	---	---	5.2	NNW	0.09	6.1	-23.5	---	---	720.5	0.025	0.000	19.2	62	1
04/26/17	4:41 a	-17.1	-17.1	-17.1	---	---	4.3	NNW	0.07	5.2	-22.8	---	---	720.5	0.025	0.000	19.2	62	1
04/26/17	4:42 a	-17.1	-17.1	-17.1	---	---	4.3	NNW	0.07	5.2	-22.8	---	---	720.6	0.025	0.000	19.2	62	1
04/26/17	4:43 a	-17.1	-17.1	-17.1	---	---	4.3	NNW	0.07	4.3	-22.8	---	---	720.5	0.025	0.000	19.2	62	1
04/26/17	4:44 a	-17.1	-17.1	-17.1	---	---	4.3	NNW	0.07	5.2	-22.8	---	---	720.5	0.025	0.000	19.2	62	1
04/26/17	4:45 a	-17.1	-17.1	-17.1	---	---	4.3	NNW	0.07	4.3	-22.8	---	---	720.5	0.025	0.000	19.1	61	1
04/26/17	4:46 a	-17.1	-17.1	-17.1	---	---	4.3	NNW	0.07	4.3	-22.8	---	---	720.5	0.025	0.000	19.1	61	1
04/26/17	4:47 a	-17.1	-17.1	-17.1	---	---	4.3	NNW	0.07	5.2	-22.8	---	---	720.5	0.025	0.000	19.1	61	1
04/26/17	4:48 a	-17.1	-17.1	-17.2	---	---	4.3	N	0.07	6.1	-22.8	---	---	720.5	0.025	0.000	19.1	62	1
04/26/17	4:49 a	-17.2	-17.1	-17.2	---	---	4.3	NNW	0.07	5.2	-22.8	---	---	720.5	0.025	0.000	19.1	63	1
04/26/17	4:50 a	-17.2	-17.1	-17.2	---	---	4.3	NNW	0.07	5.2	-22.8	---	---	720.5	0.025	0.000	19.1	62	1
04/26/17	4:51 a	-17.1	-17.1	-17.2	---	---	4.3	NNW	0.07	5.2	-22.8	---	---	720.5	0.025	0.000	19.0	63	1
04/26/17	4:52 a	-17.2	-17.2	-17.2	---	---	4.3	NNW	0.07	5.2	-22.8	---	---	720.4	0.025	0.000	19.0	63	1
04/26/17	4:53 a	-17.2	-17.2	-17.2	---	---	4.3	NNW	0.07	4.3	-22.8	---	---	720.5	0.025	0.000	19.0	63	1
04/26/17	4:54 a	-17.2	-17.2	-17.2	---	---	3.5	NNW	0.06	4.3	-21.9	---	---	720.5	0.025	0.000	18.9	62	1
04/26/17	4:55 a	-17.2	-17.2	-17.2	---	---	4.3	NNW	0.07	4.3	-22.8	---	---	720.4	0.025	0.000	18.9	63	1
04/26/17	4:56 a	-17.2	-17.2	-17.2	---	---	3.5	NNW	0.06	4.3	-21.9	---	---	720.5	0.025	0.000	18.9	63	1
04/26/17	4:57 a	-17.2	-17.2	-17.2	---	---	4.3	N	0.07	5.2	-22.8	---	---	720.5	0.025	0.000	18.9	62	1
04/26/17	4:58 a	-17.2	-17.2	-17.2	---	---	3.5	NNW	0.06	4.3	-22.0	---	---	720.5	0.025	0.000	18.9	62	1
04/26/17	4:59 a	-17.2	-17.2	-17.2	---	---	3.5	N	0.06	5.2	-21.9	---	---	720.5	0.025	0.000	18.9	62	1
04/26/17	5:00 a	-17.2	-17.2	-17.2	---	---	4.3	NNW	0.07	5.2	-22.8	---	---	720.6	0.025	0.000	18.9	62	1
04/26/17	5:01 a	-17.2	-17.2	-17.2	---	---	4.3	N	0.07	5.2	-22.8	---	---	720.5	0.025	0.000	18.9	62	1
04/26/17	5:02 a	-17.2	-17.1	-17.2	---	---	4.3	N	0.07	5.2	-22.8	---	---	720.5	0.025	0.000	18.9	63	1
04/26/17	5:03 a	-17.1	-17.1	-17.2	---	---	4.3	NNW	0.07	5.2	-22.8	---	---	720.5	0.025	0.000	18.9	63	1
04/26/17	5:04 a	-17.2	-17.1	-17.2	---	---	3.5	NNW	0.06	4.3	-21.9	---	---	720.5	0.025	0.000	18.9	63	1
04/26/17	5:05 a	-17.1	-17.1	-17.2	---	---	3.5	N	0.06	4.3	-21.9	---	---	720.6	0.025	0.000	18.9	63	1
04/26/17	5:06 a	-17.2	-17.1	-17.2	---	---	4.3	NNW	0.07	5.2	-22.8	---	---	720.6	0.025	0.000	18.9	63	1
04/26/17	5:07 a	-17.2	-17.1	-17.2	---	---	4.3	NNW	0.07	5.2	-22.8	---	---	720.6	0.025	0.000	18.9	63	1
04/26/17	5:08 a	-17.1	-17.1	-17.1	---	---	3.5	NNW	0.06	4.3	-21.9	---	---	720.6	0.025	0.000	19.0	63	1
04/26/17	5:09 a	-17.1	-17.1	-17.2	---	---	4.3	NNW	0.07	5.2	-22.8	---	---	720.6	0.025	0.000	19.0	63	1
04/26/17	5:10 a	-17.1	-17.1	-17.1	---	---	3.5	NNW	0.06	4.3	-21.9	---	---	720.5	0.025	0.000	19.0	63	1
04/26/17	5:11 a	-17.1	-17.1	-17.1	---	---	3.5	NNW	0.06	4.3	-21.9	---	---	720.6	0.025	0.000	19.0	62	1
04/26/17	5:12 a	-17.1	-17.1	-17.2	---	---	4.3	NNW	0.07	4.3	-22.8	---	---	720.6	0.025	0.000	19.1	62	1
04/26/17	5:13 a	-17.1	-17.1	-17.2	---	---	3.5	NNW	0.06	4.3	-21.9	---	---	720.6	0.025	0.000	19.1	62	1
04/26/17	5:14 a	-17.1	-17.1	-17.2	---	---	4.3	NNW	0.07	5.2	-22.8	---	---	720.6	0.025	0.000	19.1	62	1
04/26/17	5:15 a	-17.1	-17.1	-17.2	---	---	4.3	NNW	0.07	4.3	-22.8	---	---	720.6	0.025	0.000	19.1	62	1
04/26/17	5:16 a	-17.2	-17.1	-17.2	---	---	4.3	NNW	0.07	5.2	-22.8	---	---	720.6	0.025	0.000	19.1	62	1
04/26/17	5:17 a	-17.2	-17.1	-17.2	---	---	4.3	N	0.07	4.3	-22.8	---	---	720.5	0.025	0.000	19.0	62	1
04/26/17	5:18 a	-17.1	-17.1	-17.2	---	---	3.5	NNW	0.06	3.5	-21.9	---	---	720.7	0.025	0.000	19.0	62	1
04/26/17	5:19 a	-17.1	-17.1	-17.2	---	---	4.3	NNW	0.07	4.3	-22.8	---	---	720.6	0.025	0.000	19.0	62	1
04/26/17	5:20 a	-17.1	-17.1	-17.2	---	---	4.3	NNW	0.07	4.3	-22.8	---	---	720.6	0.025	0.000	19.0	62	1
04/26/17	5:21 a	-17.1	-17.1	-17.2	---	---	4.3	NNW	0.07	5.2	-22.8	---	---	720.7	0.025	0.000	18.9	62	1
04/26/17	5:22 a	-17.1	-17.1	-17.2	---	---	4.3	NNW	0.07	4.3	-22.8	---	---	720.7	0.025	0.000	18.9	62	1
04/26/17	5:23 a	-17.1	-17.1	-17.2	---	---	4.3	N	0.07	5.2	-22.8	---	---	720.6	0.025	0.000	18.9	62	1
04/26/17	5:24 a	-17.1	-17.1	-17.2	---	---	4.3	N	0.07	5.2	-22.8	---	---	720.6	0.025	0.000	18.9	62	1
04/26/17	5:25 a	-17.1	-17.1	-17.2	---	---	4.3	NNW	0.07	5.2	-22.8	---	---	720.6	0.025	0.000	18.9	62	1
04/26/17	5:26 a	-17.1	-17.1	-17.1	---	---	4.3	N	0.07	5.2	-22.8	---	---	720.6	0.025	0.000	18.9	62	1
04/26/17	5:27 a	-17.1	-17.1	-17.2	---	---	4.3	N	0.07	5.2	-22.8	---	---	720.6	0.025	0.000	18.8	62	1
04/26/17	5:28 a	-17.1	-17.1	-17.1	---	---	4.3	N	0.07	5.2	-22.8	---	---	720.6	0.025	0.000	18.8	61	1
04/26/17	5:29 a	-17.1	-17.1	-17.1	---	---	4.3	NNW	0.07	5.2	-22.8	---	---	720.6	0.025	0.000	18.8	61	1
04/26/17	5:30 a	-17.1	-17.1	-17.1	---	---	4.3	N	0.07	5.2	-22.8	---	---	720.6	0.025	0.000	18.8	61	1
04/26/17	5:31 a	-17.1	-17.1	-17.1	---	---	3.5	NNW	0.06	4.3	-21.9	---	---	720.6	0.025	0.000	18.8	61	1
04/26/17	5:32 a	-17.1	-17.1	-17.1	---	---	4.3	N	0.07	5.2	-22.8	---	---	720.7	0.025	0.000	18.8	61	1
04/26/17	5:33 a	-17.1	-17.1	-17.1	---	---	4.3	N	0.07	5.2	-22.8	---	---	720.6	0.025	0.000	18.8	61	1
04/26/17	5:34 a	-17.1	-17.1	-17.1	---	---	4.3	N	0.07	5.2	-22.8	---	---	720.7	0.025	0.000	18.8	61	1
04/26/17	5:35 a	-17.1	-17.1	-17.1	---	---	4.3	N	0.07	5.2	-22.8	---	---	720.6	0.025	0.000	18.9	61	1
04/26/17	5:36 a	-17.1	-17.1	-17.1	---	---	4.3	N	0.07	4.3	-22.8	---	---	720.7	0.025	0.000	18.9	61	1
04/26/17	5:37 a	-17.1	-17.1	-17.2	---	---	4.3	N	0.07	6.1	-22.8	---	---	720.6	0.025	0.000	18.9	61	1
04/26/17	5:38 a	-17.1	-17.1	-17.1	---	---	4.3	N	0.07	5.2	-22.8	---	---	720.7	0.025	0.000	18.9	61	1
04/26/17	5:39 a	-17.1	-17.1	-17.2	---	---	4.3	N	0.07	5.2	-22.8	---	---	720.6	0.025	0.000	18.9	61	1
04/26/17	5:40 a	-17.1	-17.1	-17.2	---	---	5.2	N	0.09	6.1	-23.5	---	---	720.7	0.025	0.000	18.9	61	1
04/26/17	5:41 a	-17.2	-17.2	-17.2	---	---	4.3	N	0.07	5.2	-22.8	---	---	720.7	0.025	0.000	18.9	61	1
04/26/17	5:42 a	-17.2	-17.1	-17.2	---	---	4.3	N	0.07	5.2	-22.8	---	---	720.7	0.025	0.000	18.9	61	1
04/26/17	5:43 a	-17.2	-17.2	-17.2	---	---	5.2	N	0.09	5.2	-23.6	---	---	720.7	0.025	0.000	18.8	61	1
04/26/17	5:44 a	-17.2	-17.2	-17.2	---	---	5.2	N	0.09	6.1	-23.6	---	---	720.6	0.025	0.000	18.8	61	1
04/26/17	5:45 a	-17.2	-17.2	-17.2	---	---	4.3	N	0.07	5.2	-22.9	---	---	720.6	0.025	0.000	18.8	61	1
04/26/17	5:46 a	-17.2	-17.2	-17.2	---	---	4.3	NNW	0.07	5.2	-22.9	---	---	720.7	0.025	0.000	18.8	61	1
04/26/17	5:47 a	-17.2	-17.2	-17.2	---	---	5.2	N	0.09	6.1	-23.7	---	---	720.7	0.025	0.000	18.8	61	1
04/26/17	5:48 a	-17.2	-17.2	-17.3	---	---	5.2	N	0.09	6.1	-23.7	---	---	720.8	0.025	0.000	18.7	61	1
04/26/17	5:49 a	-17.2	-17.2	-17.3	---	---	5.2	N	0.09	7.0	-23.7	---	---	720.7	0.025	0.000	18.7	61	1
04/26/17	5:50 a	-17.2	-17.2	-17.3	---	---	5.2	N	0.09	7.0	-23.7	---	---	720.8	0.025	0.000	18.7	61	1
04/26/17	5:51 a	-17.2	-17.2	-17.2	---	---	5.2	N	0.09	6.1	-23.7	---	---	720.7	0.025	0.000	18.7	61	1
04/26/17	5:52 a	-17.2	-17.2	-17.2	---	---	5.2	NNW	0.09	6.1	-23.7	---	---	720.8	0.025	0.000	18.7	61	1
04/26/17	5:53 a	-17.2	-17.2	-17.3	---	---	4.3	NNW	0.07	5.2	-22.9	---	---	720.8	0.025	0.000	18.7	61	1
04/26/17	5:54 a	-17.2	-17.2	-17.3	---	---	4.3	NNW	0.07	5.2	-22.9	---	---	720.8	0.025	0.000	18.7	61	1
04/26/17	5:55 a	-17.2	-17.2	-17.2	---	---	5.2	N	0.09	6.1	-23.7	---	---	720.9	0.025	0.000	18.7	61	1
04/26/17	5:56 a	-17.2	-17.2	-17.3	---	---	4.3	N	0.07	6.1	-22.9	---	---	720.9	0.025	0.000	18.7	61	1
04/26/17	5:57 a	-17.2	-17.2	-17.2	---	---	5.2	N	0.09	6.1	-23.7	---	---	720.9	0.025	0.000	18.7	61	1
04/26/17	5:58 a	-17.2	-17.2	-17.3	---	---	4.3	NNW	0.07	5.2	-22.9	---	---	720.8	0.025	0.000	18.7	61	1
04/26/17	5:59 a	-17.2	-17.2	-17.2	---	---	4.3	NNW	0.07	5.2	-22.9	---	---	720.9	0.025	0.000	18.7	61	1
04/26/17	6:00 a	-17.2	-17.2	-17.3	---	---	4.3	NNW	0.07	5.2	-22.9	---	---	720.9	0.025	0.000	18.7	61	1
04/26/17	6:01 a	-17.2	-17.2	-17.3	---	---	3.5	NNW	0.06	4.3	-22.0	---	---	720.9	0.025	0.000	18.8	60	1
04/26/17	6:02 a	-17.2	-17.2	-17.3	---	---	4.3	NNW	0.07	5.2	-22.9	---	---	720.8	0.025	0.000	18.8	60	1
04/26/17	6:03 a	-17.2	-17.2	-17.3	---	---	5.2	N	0.09	5.2	-23.7	---	---	720.9	0.025	0.000	18.8	60	1
04/26/17	6:04 a	-17.3	-17.2	-17.3	---	---	4.3	NNW	0.07	5.2	-23.0	---	---	720.9	0.025	0.000	18.8	61	1
04/26/17	6:05 a	-17.3	-17.2	-17.3	---	---	3.5	N	0.06	5.2	-22.1	---	---	720.9	0.025	0.000	18.8	60	1
04/26/17	6:06 a	-17.3	-17.2	-17.3	---	---	5.2	N	0.09	6.1	-23.7	---	---	720.8	0.025	0.000	18.8	61	1
04/26/17	6:07 a	-17.3	-17.2	-17.3	---	---	5.2	N	0.09	6.1	-23.7	---	---	720.9	0.025	0.000	18.8	60	1
04/26/17	6:08 a	-17.3	-17.3	-17.3	---	---	4.3	NNW	0.07	5.2	-23.0	---	---	721.0	0.025	0.000	18.9	61	1
04/26/17	6:09 a	-17.3	-17.3	-17.3	---	---	4.3	N	0.07	4.3	-23.0	---	---	720.9	0.025	0.000	18.8	60	1
04/26/17	6:10 a	-17.3	-17.3	-17.3	---	---	3.5	N	0.06	4.3	-22.1	---	---	721.0	0.025	0.000	18.8	61	1
04/26/17	6:11 a	-17.3	-17.3	-17.3	---	---	4.3	N	0.07	5.2	-23.0	---	---	720.9	0.025	0.000	18.8	61	1
04/26/17	6:12 a	-17.3	-17.3	-17.3	---	---	4.3	N	0.07	5.2	-23.1	---	---	721.0	0.025	0.000	18.8	60	1
04/26/17	6:13 a	-17.3	-17.3	-17.3	---	---	4.3	N	0.07	5.2	-23.1	---	---	720.9	0.025	0.000	18.8	60	1
04/26/17	6:14 a	-17.3	-17.3	-17.4	---	---	6.1	NNW	0.10	7.0	-24.4	---	---	720.9	0.025	0.000	18.8	60	1
04/26/17	6:15 a	-17.4	-17.4	-17.4	---	---	5.2	NNW	0.09	6.1	-23.8	---	---	720.9	0.025	0.000	18.8	61	1
04/26/17	6:16 a	-17.4	-17.4	-17.4	---	---	4.3	NNW	0.07	5.2	-23.1	---	---	720.9	0.025	0.000	18.8	61	1
04/26/17	6:17 a	-17.4	-17.4	-17.4	---	---	4.3	NNW	0.07	7.0	-23.2	---	---	721.0	0.025	0.000	18.7	61	1
04/26/17	6:18 a	-17.4	-17.4	-17.4	---	---	4.3	NW	0.07	6.1	-23.2	---	---	721.0	0.025	0.000	18.7	61	1
04/26/17	6:19 a	-17.4	-17.4	-17.5	---	---	4.3	NW	0.07	5.2	-23.2	---	---	721.0	0.025	0.000	18.7	61	1
04/26/17	6:20 a	-17.5	-17.4	-17.5	---	---	3.5	NW	0.06	4.3	-22.3	---	---	721.0	0.025	0.000	18.7	62	1
04/26/17	6:21 a	-17.5	-17.5	-17.5	---	---	3.5	NNW	0.06	4.3	-22.3	---	---	720.9	0.025	0.000	18.7	61	1
04/26/17	6:22 a	-17.5	-17.5	-17.6	---	---	3.5	NW	0.06	3.5	-22.3	---	---	720.9	0.025	0.000	18.7	61	1
04/26/17	6:23 a	-17.5	-17.5	-17.6	---	---	3.5	NW	0.06	4.3	-22.3	---	---	720.9	0.025	0.000	18.7	61	1
04/26/17	6:24 a	-17.6	-17.5	-17.6	---	---	3.5	NW	0.06	3.5	-22.4	---	---	720.9	0.025	0.000	18.7	62	1
04/26/17	6:25 a	-17.5	-17.5	-17.6	---	---	3.5	NNW	0.06	4.3	-22.3	---	---	720.9	0.025	0.000	18.7	61	1
04/26/17	6:26 a	-17.6	-17.6	-17.6	---	---	3.5	NNW	0.06	4.3	-22.4	---	---	720.9	0.025	0.000	18.7	61	1
04/26/17	6:27 a	-17.6	-17.6	-17.6	---	---	3.5	NNW	0.06	4.3	-22.4	---	---	720.9	0.025	0.000	18.7	62	1
04/26/17	6:28 a	-17.6	-17.6	-17.6	---	---	4.3	NNW	0.07	5.2	-23.3	---	---	720.8	0.025	0.000	18.7	61	1
04/26/17	6:29 a	-17.6	-17.6	-17.6	---	---	4.3	NNW	0.07	5.2	-23.3	---	---	720.8	0.025	0.000	18.7	62	1
04/26/17	6:30 a	-17.6	-17.6	-17.6	---	---	4.3	NNW	0.07	6.1	-23.3	---	---	720.9	0.025	0.000	18.7	62	1
04/26/17	6:31 a	-17.6	-17.6	-17.6	---	---	4.3	NNW	0.07	6.1	-23.3	---	---	720.9	0.025	0.000	18.7	62	1
04/26/17	6:32 a	-17.6	-17.6	-17.6	---	---	4.3	NNW	0.07	5.2	-23.3	---	---	720.8	0.025	0.000	18.7	62	1
04/26/17	6:33 a	-17.6	-17.6	-17.6	---	---	4.3	NNW	0.07	4.3	-23.3	---	---	720.9	0.025	0.000	18.7	62	1
04/26/17	6:34 a	-17.6	-17.6	-17.6	---	---	4.3	NNW	0.07	5.2	-23.3	---	---	720.9	0.025	0.000	18.8	62	1
04/26/17	6:35 a	-17.6	-17.6	-17.6	---	---	3.5	NNW	0.06	4.3	-22.4	---	---	721.0	0.025	0.000	18.7	62	1
04/26/17	6:36 a	-17.6	-17.6	-17.6	---	---	3.5	NNW	0.06	4.3	-22.4	---	---	721.0	0.025	0.000	18.7	62	1
04/26/17	6:37 a	-17.6	-17.6	-17.6	---	---	3.5	NNW	0.06	4.3	-22.4	---	---	720.9	0.025	0.000	18.7	62	1
04/26/17	6:38 a	-17.6	-17.6	-17.6	---	---	3.5	NNW	0.06	4.3	-22.4	---	---	721.0	0.025	0.000	18.7	62	1
04/26/17	6:39 a	-17.6	-17.6	-17.6	---	---	4.3	NNW	0.07	5.2	-23.4	---	---	720.9	0.025	0.000	18.7	61	1
04/26/17	6:40 a	-17.6	-17.6	-17.6	---	---	4.3	NNW	0.07	5.2	-23.4	---	---	720.9	0.025	0.000	18.7	62	1
04/26/17	6:41 a	-17.6	-17.6	-17.6	---	---	4.3	NNW	0.07	4.3	-23.4	---	---	721.0	0.025	0.000	18.7	61	1
04/26/17	6:42 a	-17.6	-17.6	-17.7	---	---	3.5	NNW	0.06	5.2	-22.4	---	---	721.0	0.025	0.000	18.7	62	1
04/26/17	6:43 a	-17.7	-17.6	-17.7	---	---	4.3	NNW	0.07	4.3	-23.4	---	---	721.0	0.025	0.000	18.7	62	1
04/26/17	6:44 a	-17.7	-17.7	-17.7	---	---	3.5	NNW	0.06	4.3	-22.6	---	---	721.0	0.025	0.000	18.6	62	1
04/26/17	6:45 a	-17.7	-17.7	-17.7	---	---	3.5	NNW	0.06	4.3	-22.6	---	---	721.0	0.025	0.000	18.6	61	1
04/26/17	6:46 a	-17.7	-17.7	-17.7	---	---	4.3	NNW	0.07	5.2	-23.5	---	---	721.0	0.025	0.000	18.6	62	1
04/26/17	6:47 a	-17.7	-17.7	-17.7	---	---	5.2	NNW	0.09	6.1	-24.3	---	---	721.0	0.025	0.000	18.6	62	1
04/26/17	6:48 a	-17.7	-17.7	-17.8	---	---	4.3	NNW	0.07	5.2	-23.5	---	---	721.1	0.025	0.000	18.6	61	1
04/26/17	6:49 a	-17.7	-17.7	-17.8	---	---	3.5	NNW	0.06	4.3	-22.6	---	---	721.0	0.025	0.000	18.7	61	1
04/26/17	6:50 a	-17.8	-17.8	-17.8	---	---	4.3	NNW	0.07	5.2	-23.6	---	---	721.0	0.025	0.000	18.7	62	1
04/26/17	6:51 a	-17.8	-17.8	-17.8	---	---	4.3	NNW	0.07	4.3	-23.6	---	---	721.0	0.025	0.000	18.7	62	1
04/26/17	6:52 a	-17.8	-17.8	-17.8	---	---	5.2	NNW	0.09	5.2	-24.4	---	---	720.9	0.025	0.000	18.7	62	1
04/26/17	6:53 a	-17.8	-17.8	-17.9	---	---	4.3	NNW	0.07	5.2	-23.6	---	---	721.0	0.025	0.000	18.7	62	1
04/26/17	6:54 a	-17.8	-17.8	-17.9	---	---	4.3	NNW	0.07	5.2	-23.6	---	---	721.0	0.025	0.000	18.7	62	1
04/26/17	6:55 a	-17.9	-17.9	-17.9	---	---	4.3	NNW	0.07	5.2	-23.7	---	---	721.0	0.025	0.000	18.7	62	1
04/26/17	6:56 a	-17.9	-17.9	-17.9	---	---	5.2	NNW	0.09	5.2	-24.4	---	---	721.0	0.025	0.000	18.7	62	1
04/26/17	6:57 a	-17.9	-17.9	-17.9	---	---	5.2	N	0.09	6.1	-24.5	---	---	721.0	0.025	0.000	18.7	62	1
04/26/17	6:58 a	-17.9	-17.9	-17.9	---	---	5.2	NNW	0.09	5.2	-24.5	---	---	721.0	0.025	0.000	18.7	62	1
04/26/17	6:59 a	-17.9	-17.9	-17.9	---	---	4.3	NNW	0.07	5.2	-23.8	---	---	721.0	0.025	0.000	18.7	62	1
04/26/17	7:00 a	-17.9	-17.9	-17.9	---	---	5.2	NNW	0.09	6.1	-24.5	---	---	721.0	0.025	0.000	18.7	61	1
04/26/17	7:01 a	-17.9	-17.9	-17.9	---	---	4.3	NNW	0.07	6.1	-23.8	---	---	721.1	0.025	0.000	18.7	61	1
04/26/17	7:02 a	-17.9	-17.9	-17.9	---	---	4.3	NNW	0.07	6.1	-23.8	---	---	721.1	0.025	0.000	18.7	62	1
04/26/17	7:03 a	-17.9	-17.9	-18.0	---	---	4.3	NNW	0.07	5.2	-23.8	---	---	721.0	0.025	0.000	18.7	62	1
04/26/17	7:04 a	-17.9	-17.9	-18.0	---	---	4.3	NNW	0.07	5.2	-23.8	---	---	721.1	0.025	0.000	18.7	62	1
04/26/17	7:05 a	-17.9	-17.9	-18.0	---	---	4.3	NNW	0.07	5.2	-23.8	---	---	721.1	0.025	0.000	18.7	61	1
04/26/17	7:06 a	-17.9	-17.9	-18.0	---	---	4.3	NNW	0.07	4.3	-23.8	---	---	721.1	0.025	0.000	18.6	61	1
04/26/17	7:07 a	-17.9	-17.9	-18.0	---	---	3.5	NNW	0.06	4.3	-22.8	---	---	721.0	0.025	0.000	18.6	61	1
04/26/17	7:08 a	-17.9	-17.9	-18.0	---	---	4.3	NNW	0.07	5.2	-23.8	---	---	721.1	0.025	0.000	18.6	61	1
04/26/17	7:09 a	-18.0	-17.9	-18.0	---	---	4.3	NNW	0.07	4.3	-23.8	---	---	721.0	0.025	0.000	18.6	62	1
04/26/17	7:10 a	-18.0	-17.9	-18.0	---	---	3.5	NNW	0.06	4.3	-22.9	---	---	721.1	0.025	0.000	18.6	62	1
04/26/17	7:11 a	-18.0	-18.0	-18.1	---	---	3.5	NNW	0.06	4.3	-22.9	---	---	721.1	0.025	0.000	18.6	62	1
04/26/17	7:12 a	-18.1	-18.0	-18.1	---	---	3.5	NNW	0.06	4.3	-23.0	---	---	721.1	0.025	0.000	18.6	62	1
04/26/17	7:13 a	-18.1	-18.0	-18.1	---	---	4.3	N	0.07	4.3	-23.9	---	---	721.2	0.025	0.000	18.6	62	1
04/26/17	7:14 a	-18.1	-18.0	-18.1	---	---	3.5	NNW	0.06	5.2	-23.0	---	---	721.2	0.025	0.000	18.7	62	1
04/26/17	7:15 a	-18.1	-18.0	-18.1	---	---	3.5	NNW	0.06	4.3	-23.0	---	---	721.1	0.025	0.000	18.7	62	1
04/26/17	7:16 a	-18.1	-18.0	-18.1	---	---	2.6	NNW	0.04	4.3	-21.8	---	---	721.2	0.025	0.000	18.7	62	1
04/26/17	7:17 a	-18.1	-18.0	-18.1	---	---	3.5	NNW	0.06	4.3	-23.0	---	---	721.2	0.025	0.000	18.7	62	1
04/26/17	7:18 a	-18.1	-18.1	-18.1	---	---	2.6	NNW	0.04	4.3	-21.8	---	---	721.2	0.025	0.000	18.7	61	1
04/26/17	7:19 a	-18.1	-18.1	-18.1	---	---	3.5	NNW	0.06	4.3	-23.0	---	---	721.2	0.025	0.000	18.7	61	1
04/26/17	7:20 a	-18.1	-18.1	-18.1	---	---	3.5	NNW	0.06	4.3	-23.0	---	---	721.1	0.025	0.000	18.7	61	1
04/26/17	7:21 a	-18.1	-18.1	-18.1	---	---	3.5	NNW	0.06	3.5	-23.1	---	---	721.2	0.025	0.000	18.7	62	1
04/26/17	7:22 a	-18.1	-18.1	-18.1	---	---	3.5	NNW	0.06	3.5	-23.1	---	---	721.2	0.025	0.000	18.7	61	1
04/26/17	7:23 a	-18.1	-18.1	-18.1	---	---	3.5	N	0.06	4.3	-23.1	---	---	721.2	0.025	0.000	18.7	61	1
04/26/17	7:24 a	-18.1	-18.1	-18.1	---	---	3.5	NNW	0.06	3.5	-23.1	---	---	721.2	0.025	0.000	18.7	61	1
04/26/17	7:25 a	-18.1	-18.1	-18.1	---	---	3.5	N	0.06	3.5	-23.1	---	---	721.2	0.025	0.000	18.7	61	1
04/26/17	7:26 a	-18.1	-18.1	-18.2	---	---	3.5	NNW	0.06	3.5	-23.1	---	---	721.1	0.025	0.000	18.7	61	1
04/26/17	7:27 a	-18.1	-18.1	-18.2	---	---	3.5	NNW	0.06	3.5	-23.1	---	---	721.2	0.025	0.000	18.7	61	1
04/26/17	7:28 a	-18.2	-18.1	-18.2	---	---	2.6	NNW	0.04	3.5	-22.0	---	---	721.1	0.025	0.000	18.6	61	1
04/26/17	7:29 a	-18.2	-18.1	-18.2	---	---	2.6	NNW	0.04	4.3	-22.0	---	---	721.2	0.025	0.000	18.6	61	1
04/26/17	7:30 a	-18.2	-18.1	-18.2	---	---	2.6	NNW	0.04	3.5	-22.0	---	---	721.2	0.025	0.000	18.6	61	1
04/26/17	7:31 a	-18.2	-18.2	-18.2	---	---	2.6	NNW	0.04	3.5	-22.0	---	---	721.2	0.025	0.000	18.6	61	1
04/26/17	7:32 a	-18.2	-18.2	-18.2	---	---	3.5	NNW	0.06	3.5	-23.1	---	---	721.2	0.025	0.000	18.6	61	1
04/26/17	7:33 a	-18.2	-18.2	-18.2	---	---	2.6	NNW	0.04	3.5	-22.0	---	---	721.3	0.025	0.000	18.6	61	1
04/26/17	7:34 a	-18.2	-18.2	-18.2	---	---	2.6	NNW	0.04	3.5	-22.1	---	---	721.3	0.025	0.000	18.6	61	1
04/26/17	7:35 a	-18.2	-18.2	-18.2	---	---	2.6	NNW	0.04	3.5	-22.1	---	---	721.3	0.025	0.000	18.6	61	1
04/26/17	7:36 a	-18.2	-18.2	-18.2	---	---	3.5	NNW	0.06	3.5	-23.1	---	---	721.3	0.025	0.000	18.6	61	1
04/26/17	7:37 a	-18.2	-18.2	-18.2	---	---	2.6	NNW	0.04	3.5	-22.1	---	---	721.3	0.025	0.000	18.6	61	1
04/26/17	7:38 a	-18.2	-18.2	-18.2	---	---	2.6	NNW	0.04	3.5	-22.1	---	---	721.3	0.025	0.000	18.7	61	1
04/26/17	7:39 a	-18.2	-18.2	-18.3	---	---	2.6	NNW	0.04	3.5	-22.1	---	---	721.2	0.025	0.000	18.7	61	1
04/26/17	7:40 a	-18.3	-18.2	-18.3	---	---	2.6	NNW	0.04	3.5	-22.1	---	---	721.3	0.025	0.000	18.7	60	1
04/26/17	7:41 a	-18.2	-18.2	-18.3	---	---	2.6	N	0.04	3.5	-22.1	---	---	721.3	0.025	0.000	18.7	60	1
04/26/17	7:42 a	-18.3	-18.2	-18.3	---	---	2.6	NNW	0.04	2.6	-22.1	---	---	721.3	0.025	0.000	18.7	60	1
04/26/17	7:43 a	-18.3	-18.3	-18.3	---	---	2.6	NNW	0.04	3.5	-22.1	---	---	721.3	0.025	0.000	18.7	61	1
04/26/17	7:44 a	-18.3	-18.3	-18.3	---	---	3.5	NNW	0.06	3.5	-23.2	---	---	721.2	0.025	0.000	18.7	60	1
04/26/17	7:45 a	-18.3	-18.3	-18.3	---	---	2.6	NNW	0.04	3.5	-22.1	---	---	721.3	0.025	0.000	18.7	60	1
04/26/17	7:46 a	-18.3	-18.3	-18.3	---	---	2.6	NNW	0.04	3.5	-22.2	---	---	721.3	0.025	0.000	18.7	60	1
04/26/17	7:47 a	-18.3	-18.3	-18.3	---	---	2.6	NNW	0.04	3.5	-22.2	---	---	721.3	0.025	0.000	18.7	61	1
04/26/17	7:48 a	-18.3	-18.3	-18.3	---	---	2.6	N	0.04	3.5	-22.2	---	---	721.3	0.025	0.000	18.7	61	1
04/26/17	7:49 a	-18.3	-18.3	-18.4	---	---	3.5	N	0.06	3.5	-23.3	---	---	721.3	0.025	0.000	18.6	60	1
04/26/17	7:50 a	-18.3	-18.3	-18.4	---	---	3.5	NNW	0.06	3.5	-23.3	---	---	721.3	0.025	0.000	18.6	60	1
04/26/17	7:51 a	-18.3	-18.3	-18.4	---	---	2.6	NNW	0.04	3.5	-22.2	---	---	721.3	0.025	0.000	18.6	61	1
04/26/17	7:52 a	-18.3	-18.3	-18.4	---	---	3.5	N	0.06	4.3	-23.3	---	---	721.2	0.025	0.000	18.6	60	1
04/26/17	7:53 a	-18.3	-18.3	-18.4	---	---	3.5	NNW	0.06	3.5	-23.3	---	---	721.3	0.025	0.000	18.6	60	1
04/26/17	7:54 a	-18.3	-18.3	-18.4	---	---	3.5	NNW	0.06	3.5	-23.3	---	---	721.3	0.025	0.000	18.6	61	1
04/26/17	7:55 a	-18.3	-18.3	-18.4	---	---	2.6	NNW	0.04	3.5	-22.2	---	---	721.3	0.025	0.000	18.6	60	1
04/26/17	7:56 a	-18.3	-18.3	-18.3	---	---	2.6	NNW	0.04	3.5	-22.2	---	---	721.2	0.025	0.000	18.6	60	1
04/26/17	7:57 a	-18.3	-18.3	-18.3	---	---	3.5	N	0.06	4.3	-23.3	---	---	721.3	0.025	0.000	18.6	60	1
04/26/17	7:58 a	-18.3	-18.3	-18.3	---	---	3.5	N	0.06	4.3	-23.3	---	---	721.3	0.025	0.000	18.6	60	1
04/26/17	7:59 a	-18.3	-18.3	-18.3	---	---	3.5	N	0.06	3.5	-23.2	---	---	721.4	0.025	0.000	18.6	60	1
04/26/17	8:00 a	-18.3	-18.3	-18.3	---	---	3.5	N	0.06	4.3	-23.2	---	---	721.3	0.025	0.000	18.6	60	1
04/26/17	8:01 a	-18.3	-18.3	-18.3	---	---	3.5	N	0.06	3.5	-23.3	---	---	721.4	0.025	0.000	18.6	60	1
04/26/17	8:02 a	-18.3	-18.3	-18.3	---	---	2.6	N	0.04	3.5	-22.2	---	---	721.3	0.025	0.000	18.7	60	1
04/26/17	8:03 a	-18.3	-18.3	-18.3	---	---	3.5	N	0.06	4.3	-23.3	---	---	721.3	0.025	0.000	18.7	60	1
04/26/17	8:04 a	-18.3	-18.3	-18.3	---	---	3.5	NNW	0.06	3.5	-23.3	---	---	721.3	0.025	0.000	18.7	61	1
04/26/17	8:05 a	-18.3	-18.3	-18.3	---	---	2.6	NNW	0.04	3.5	-22.2	---	---	721.3	0.025	0.000	18.7	60	1
04/26/17	8:06 a	-18.3	-18.3	-18.3	---	---	2.6	NNW	0.04	3.5	-22.2	---	---	721.3	0.025	0.000	18.7	60	1
04/26/17	8:07 a	-18.3	-18.3	-18.3	---	---	3.5	N	0.06	4.3	-23.2	---	---	721.4	0.025	0.000	18.7	60	1
04/26/17	8:08 a	-18.3	-18.3	-18.3	---	---	3.5	N	0.06	3.5	-23.3	---	---	721.3	0.025	0.000	18.7	60	1
04/26/17	8:09 a	-18.3	-18.3	-18.3	---	---	3.5	NNW	0.06	3.5	-23.2	---	---	721.4	0.025	0.000	18.7	60	1
04/26/17	8:10 a	-18.3	-18.3	-18.3	---	---	3.5	NNW	0.06	4.3	-23.2	---	---	721.3	0.025	0.000	18.7	60	1
04/26/17	8:11 a	-18.3	-18.3	-18.3	---	---	3.5	N	0.06	4.3	-23.2	---	---	721.4	0.025	0.000	18.7	60	1
04/26/17	8:12 a	-18.3	-18.2	-18.3	---	---	2.6	N	0.04	4.3	-22.1	---	---	721.5	0.025	0.000	18.6	60	1
04/26/17	8:13 a	-18.2	-18.2	-18.3	---	---	3.5	N	0.06	4.3	-23.2	---	---	721.3	0.025	0.000	18.6	60	1
04/26/17	8:14 a	-18.2	-18.2	-18.3	---	---	3.5	N	0.06	3.5	-23.2	---	---	721.3	0.025	0.000	18.6	60	1
04/26/17	8:15 a	-18.3	-18.2	-18.3	---	---	3.5	N	0.06	4.3	-23.2	---	---	721.3	0.025	0.000	18.6	60	1
04/26/17	8:16 a	-18.2	-18.2	-18.3	---	---	3.5	N	0.06	3.5	-23.2	---	---	721.4	0.025	0.000	18.6	60	1
04/26/17	8:17 a	-18.2	-18.2	-18.2	---	---	3.5	N	0.06	4.3	-23.2	---	---	721.4	0.025	0.000	18.6	60	1
04/26/17	8:18 a	-18.2	-18.2	-18.2	---	---	3.5	N	0.06	4.3	-23.2	---	---	721.4	0.025	0.000	18.6	60	1
04/26/17	8:19 a	-18.2	-18.2	-18.2	---	---	3.5	NNW	0.06	3.5	-23.2	---	---	721.5	0.025	0.000	18.6	60	1
04/26/17	8:20 a	-18.2	-18.2	-18.2	---	---	3.5	NNW	0.06	3.5	-23.1	---	---	721.4	0.025	0.000	18.6	60	1
04/26/17	8:21 a	-18.2	-18.2	-18.2	---	---	3.5	N	0.06	4.3	-23.1	---	---	721.4	0.025	0.000	18.6	60	1
04/26/17	8:22 a	-18.2	-18.2	-18.2	---	---	3.5	N	0.06	4.3	-23.1	---	---	721.4	0.025	0.000	18.6	60	1
04/26/17	8:23 a	-18.2	-18.1	-18.2	---	---	3.5	NNW	0.06	4.3	-23.1	---	---	721.5	0.025	0.000	18.6	60	1
04/26/17	8:24 a	-18.1	-18.1	-18.2	---	---	3.5	NNW	0.06	4.3	-23.1	---	---	721.5	0.025	0.000	18.6	60	1
04/26/17	8:25 a	-18.1	-18.1	-18.2	---	---	3.5	NNW	0.06	4.3	-23.1	---	---	721.5	0.025	0.000	18.6	60	1
04/26/17	8:26 a	-18.1	-18.1	-18.2	---	---	3.5	NNW	0.06	4.3	-23.1	---	---	721.4	0.025	0.000	18.6	60	1
04/26/17	8:27 a	-18.1	-18.1	-18.1	---	---	3.5	N	0.06	4.3	-23.1	---	---	721.4	0.025	0.000	18.7	60	1
04/26/17	8:28 a	-18.1	-18.1	-18.1	---	---	4.3	NNW	0.07	4.3	-23.9	---	---	721.4	0.025	0.000	18.7	60	1
04/26/17	8:29 a	-18.1	-18.1	-18.1	---	---	3.5	NNW	0.06	4.3	-23.1	---	---	721.5	0.025	0.000	18.7	60	1
04/26/17	8:30 a	-18.1	-18.1	-18.1	---	---	3.5	N	0.06	4.3	-23.1	---	---	721.5	0.025	0.000	18.7	60	1
04/26/17	8:31 a	-18.1	-18.1	-18.1	---	---	3.5	NNW	0.06	3.5	-23.1	---	---	721.5	0.025	0.000	18.7	60	1
04/26/17	8:32 a	-18.1	-18.1	-18.1	---	---	3.5	N	0.06	4.3	-23.0	---	---	721.6	0.025	0.000	18.7	60	1
04/26/17	8:33 a	-18.1	-18.1	-18.1	---	---	3.5	N	0.06	3.5	-23.0	---	---	721.5	0.025	0.000	18.7	60	1
04/26/17	8:34 a	-18.1	-18.1	-18.1	---	---	3.5	N	0.06	3.5	-23.0	---	---	721.5	0.025	0.000	18.7	60	1
04/26/17	8:35 a	-18.1	-18.1	-18.1	---	---	3.5	NNW	0.06	3.5	-23.0	---	---	721.6	0.025	0.000	18.7	60	1
04/26/17	8:36 a	-18.1	-18.1	-18.1	---	---	3.5	NNW	0.06	3.5	-23.0	---	---	721.5	0.025	0.000	18.7	60	1
04/26/17	8:37 a	-18.1	-18.1	-18.1	---	---	3.5	NNW	0.06	3.5	-23.0	---	---	721.6	0.025	0.000	18.7	60	1
04/26/17	8:38 a	-18.1	-18.1	-18.1	---	---	3.5	NNW	0.06	4.3	-23.0	---	---	721.6	0.025	0.000	18.6	60	1
04/26/17	8:39 a	-18.1	-18.1	-18.1	---	---	3.5	NNW	0.06	3.5	-23.0	---	---	721.6	0.025	0.000	18.6	60	1
04/26/17	8:40 a	-18.1	-18.1	-18.1	---	---	3.5	N	0.06	4.3	-23.0	---	---	721.6	0.025	0.000	18.6	60	1
04/26/17	8:41 a	-18.1	-18.1	-18.1	---	---	3.5	N	0.06	4.3	-23.1	---	---	721.6	0.025	0.000	18.6	60	1
04/26/17	8:42 a	-18.1	-18.1	-18.1	---	---	4.3	NNW	0.07	4.3	-23.9	---	---	721.6	0.025	0.000	18.6	60	1
04/26/17	8:43 a	-18.1	-18.1	-18.1	---	---	4.3	NNW	0.07	5.2	-23.9	---	---	721.5	0.025	0.000	18.6	60	1
04/26/17	8:44 a	-18.1	-18.1	-18.1	---	---	4.3	NNW	0.07	5.2	-23.9	---	---	721.6	0.025	0.000	18.6	60	1
04/26/17	8:45 a	-18.1	-18.1	-18.1	---	---	4.3	NNW	0.07	5.2	-23.9	---	---	721.6	0.025	0.000	18.6	60	1
04/26/17	8:46 a	-18.1	-18.1	-18.1	---	---	4.3	N	0.07	5.2	-23.9	---	---	721.6	0.025	0.000	18.6	60	1
04/26/17	8:47 a	-18.1	-18.1	-18.1	---	---	4.3	NNW	0.07	5.2	-23.9	---	---	721.6	0.025	0.000	18.6	60	1
04/26/17	8:48 a	-18.1	-18.1	-18.1	---	---	4.3	NNW	0.07	5.2	-23.9	---	---	721.5	0.025	0.000	18.6	59	1
04/26/17	8:49 a	-18.1	-18.1	-18.1	---	---	4.3	NNW	0.07	5.2	-23.9	---	---	721.5	0.025	0.000	18.6	60	1
04/26/17	8:50 a	-18.1	-18.1	-18.1	---	---	4.3	NNW	0.07	4.3	-23.9	---	---	721.6	0.025	0.000	18.6	59	1
04/26/17	8:51 a	-18.1	-18.1	-18.1	---	---	4.3	NNW	0.07	5.2	-23.9	---	---	721.6	0.025	0.000	18.7	60	1
04/26/17	8:52 a	-18.1	-18.1	-18.1	---	---	4.3	NNW	0.07	4.3	-23.9	---	---	721.6	0.025	0.000	18.7	59	1
04/26/17	8:53 a	-18.1	-18.1	-18.1	---	---	4.3	NNW	0.07	4.3	-23.9	---	---	721.6	0.025	0.000	18.7	59	1
04/26/17	8:54 a	-18.1	-18.1	-18.1	---	---	4.3	NNW	0.07	5.2	-23.9	---	---	721.6	0.025	0.000	18.7	60	1
04/26/17	8:55 a	-18.1	-18.1	-18.1	---	---	4.3	NNW	0.07	5.2	-23.9	---	---	721.6	0.025	0.000	18.7	60	1
04/26/17	8:56 a	-18.1	-18.1	-18.1	---	---	4.3	NNW	0.07	5.2	-23.9	---	---	721.7	0.025	0.000	18.7	59	1
04/26/17	8:57 a	-18.1	-18.1	-18.2	---	---	4.3	N	0.07	4.3	-23.9	---	---	721.6	0.025	0.000	18.7	60	1
04/26/17	8:58 a	-18.1	-18.1	-18.2	---	---	3.5	NNW	0.06	4.3	-23.1	---	---	721.7	0.025	0.000	18.8	59	1
04/26/17	8:59 a	-18.1	-18.1	-18.2	---	---	3.5	NNW	0.06	4.3	-23.1	---	---	721.7	0.025	0.000	18.8	60	1
04/26/17	9:00 a	-18.1	-18.1	-18.2	---	---	3.5	NNW	0.06	4.3	-23.1	---	---	721.7	0.025	0.000	18.8	60	1
04/26/17	9:01 a	-18.1	-18.1	-18.2	---	---	3.5	NNW	0.06	4.3	-23.1	---	---	721.7	0.025	0.000	18.8	60	1
04/26/17	9:02 a	-18.2	-18.2	-18.2	---	---	3.5	NNW	0.06	4.3	-23.1	---	---	721.7	0.025	0.000	18.8	60	1
04/26/17	9:03 a	-18.2	-18.2	-18.2	---	---	3.5	N	0.06	3.5	-23.1	---	---	721.8	0.025	0.000	18.8	60	1
04/26/17	9:04 a	-18.2	-18.2	-18.2	---	---	3.5	N	0.06	3.5	-23.2	---	---	721.7	0.025	0.000	18.8	60	1
04/26/17	9:05 a	-18.2	-18.2	-18.2	---	---	3.5	N	0.06	3.5	-23.2	---	---	721.8	0.025	0.000	18.8	60	1
04/26/17	9:06 a	-18.2	-18.2	-18.2	---	---	3.5	N	0.06	3.5	-23.2	---	---	721.8	0.025	0.000	18.8	60	1
04/26/17	9:07 a	-18.2	-18.2	-18.3	---	---	3.5	N	0.06	3.5	-23.2	---	---	721.7	0.025	0.000	18.8	60	1
04/26/17	9:08 a	-18.3	-18.2	-18.3	---	---	2.6	N	0.04	3.5	-22.1	---	---	721.7	0.025	0.000	18.8	60	1
04/26/17	9:09 a	-18.3	-18.3	-18.3	---	---	3.5	N	0.06	3.5	-23.2	---	---	721.8	0.025	0.000	18.8	60	1
04/26/17	9:10 a	-18.3	-18.3	-18.3	---	---	3.5	N	0.06	4.3	-23.2	---	---	721.9	0.025	0.000	18.7	60	1
04/26/17	9:11 a	-18.3	-18.3	-18.3	---	---	3.5	N	0.06	4.3	-23.3	---	---	721.8	0.025	0.000	18.7	60	1
04/26/17	9:12 a	-18.3	-18.3	-18.3	---	---	3.5	N	0.06	4.3	-23.2	---	---	721.8	0.025	0.000	18.7	60	1
04/26/17	9:13 a	-18.3	-18.3	-18.3	---	---	3.5	N	0.06	4.3	-23.3	---	---	721.8	0.025	0.000	18.7	60	1
04/26/17	9:14 a	-18.3	-18.3	-18.3	---	---	3.5	N	0.06	4.3	-23.3	---	---	721.8	0.025	0.000	18.7	60	1
04/26/17	9:15 a	-18.3	-18.3	-18.3	---	---	3.5	N	0.06	4.3	-23.3	---	---	721.8	0.025	0.000	18.7	60	1
04/26/17	9:16 a	-18.3	-18.3	-18.3	---	---	4.3	N	0.07	4.3	-24.2	---	---	721.8	0.025	0.000	18.6	60	1
04/26/17	9:17 a	-18.3	-18.3	-18.3	---	---	4.3	N	0.07	4.3	-24.2	---	---	721.8	0.025	0.000	18.6	60	1
04/26/17	9:18 a	-18.3	-18.3	-18.3	---	---	4.3	N	0.07	5.2	-24.2	---	---	721.7	0.025	0.000	18.6	60	1
04/26/17	9:19 a	-18.3	-18.3	-18.3	---	---	5.2	N	0.09	5.2	-25.0	---	---	721.9	0.025	0.000	18.6	60	1
04/26/17	9:20 a	-18.3	-18.3	-18.3	---	---	4.3	N	0.07	5.2	-24.2	---	---	721.8	0.025	0.000	18.6	60	1
04/26/17	9:21 a	-18.3	-18.3	-18.3	---	---	5.2	N	0.09	6.1	-25.0	---	---	721.7	0.025	0.000	18.6	60	1
04/26/17	9:22 a	-18.3	-18.2	-18.3	---	---	4.3	N	0.07	5.2	-24.2	---	---	721.8	0.025	0.000	18.6	60	1
04/26/17	9:23 a	-18.3	-18.3	-18.3	---	---	5.2	N	0.09	6.1	-24.9	---	---	721.8	0.025	0.000	18.6	60	1
04/26/17	9:24 a	-18.3	-18.2	-18.3	---	---	5.2	N	0.09	5.2	-24.9	---	---	721.8	0.025	0.000	18.7	60	1
04/26/17	9:25 a	-18.2	-18.2	-18.3	---	---	4.3	N	0.07	5.2	-24.1	---	---	721.8	0.025	0.000	18.7	60	1
04/26/17	9:26 a	-18.3	-18.2	-18.3	---	---	4.3	N	0.07	5.2	-24.2	---	---	721.8	0.025	0.000	18.7	60	1
04/26/17	9:27 a	-18.2	-18.2	-18.2	---	---	5.2	N	0.09	5.2	-24.8	---	---	721.9	0.025	0.000	18.7	59	1
04/26/17	9:28 a	-18.2	-18.2	-18.2	---	---	4.3	N	0.07	5.2	-24.1	---	---	721.9	0.025	0.000	18.7	59	1
04/26/17	9:29 a	-18.2	-18.2	-18.2	---	---	5.2	N	0.09	5.2	-24.8	---	---	721.9	0.025	0.000	18.7	60	1
04/26/17	9:30 a	-18.2	-18.2	-18.2	---	---	5.2	N	0.09	5.2	-24.8	---	---	721.8	0.025	0.000	18.7	59	1
04/26/17	9:31 a	-18.2	-18.2	-18.2	---	---	4.3	N	0.07	5.2	-24.0	---	---	721.9	0.025	0.000	18.7	60	1
04/26/17	9:32 a	-18.2	-18.2	-18.2	---	---	4.3	N	0.07	5.2	-24.0	---	---	721.9	0.025	0.000	18.7	60	1
04/26/17	9:33 a	-18.2	-18.2	-18.2	---	---	4.3	N	0.07	5.2	-24.1	---	---	721.9	0.025	0.000	18.7	60	1
04/26/17	9:34 a	-18.2	-18.2	-18.2	---	---	4.3	N	0.07	5.2	-24.0	---	---	721.8	0.025	0.000	18.7	59	1
04/26/17	9:35 a	-18.2	-18.1	-18.2	---	---	4.3	N	0.07	4.3	-24.0	---	---	721.9	0.025	0.000	18.7	59	1
04/26/17	9:36 a	-18.2	-18.1	-18.2	---	---	4.3	N	0.07	5.2	-24.0	---	---	721.9	0.025	0.000	18.7	60	1
04/26/17	9:37 a	-18.2	-18.1	-18.2	---	---	4.3	N	0.07	5.2	-24.0	---	---	721.9	0.025	0.000	18.7	59	1
04/26/17	9:38 a	-18.2	-18.1	-18.2	---	---	4.3	N	0.07	5.2	-24.0	---	---	721.9	0.025	0.000	18.7	60	1
04/26/17	9:39 a	-18.2	-18.2	-18.2	---	---	4.3	N	0.07	5.2	-24.0	---	---	721.9	0.025	0.000	18.7	60	1
04/26/17	9:40 a	-18.2	-18.2	-18.2	---	---	4.3	N	0.07	4.3	-24.0	---	---	721.9	0.025	0.000	18.6	60	1
04/26/17	9:41 a	-18.2	-18.2	-18.2	---	---	4.3	N	0.07	5.2	-24.1	---	---	722.0	0.025	0.000	18.6	59	1
04/26/17	9:42 a	-18.2	-18.2	-18.2	---	---	3.5	N	0.06	5.2	-23.2	---	---	722.0	0.025	0.000	18.6	60	1
04/26/17	9:43 a	-18.2	-18.2	-18.2	---	---	4.3	N	0.07	4.3	-24.1	---	---	722.0	0.025	0.000	18.6	59	1
04/26/17	9:44 a	-18.2	-18.2	-18.3	---	---	3.5	N	0.06	4.3	-23.2	---	---	722.0	0.025	0.000	18.6	59	1
04/26/17	9:45 a	-18.3	-18.2	-18.3	---	---	3.5	N	0.06	5.2	-23.2	---	---	722.0	0.025	0.000	18.6	59	1
04/26/17	9:46 a	-18.3	-18.2	-18.3	---	---	3.5	N	0.06	5.2	-23.2	---	---	722.0	0.025	0.000	18.6	60	1
04/26/17	9:47 a	-18.3	-18.3	-18.3	---	---	3.5	N	0.06	4.3	-23.2	---	---	722.0	0.025	0.000	18.6	60	1
04/26/17	9:48 a	-18.3	-18.3	-18.3	---	---	3.5	N	0.06	4.3	-23.2	---	---	722.0	0.025	0.000	18.6	59	1
04/26/17	9:49 a	-18.3	-18.2	-18.3	---	---	3.5	N	0.06	4.3	-23.2	---	---	722.0	0.025	0.000	18.6	60	1
04/26/17	9:50 a	-18.3	-18.3	-18.3	---	---	2.6	N	0.04	3.5	-22.1	---	---	722.0	0.025	0.000	18.6	60	1
04/26/17	9:51 a	-18.3	-18.3	-18.3	---	---	3.5	N	0.06	3.5	-23.2	---	---	722.1	0.025	0.000	18.7	60	1
04/26/17	9:52 a	-18.3	-18.2	-18.3	---	---	2.6	N	0.04	4.3	-22.1	---	---	722.0	0.025	0.000	18.7	60	1
04/26/17	9:53 a	-18.3	-18.3	-18.3	---	---	4.3	N	0.07	4.3	-24.2	---	---	722.1	0.025	0.000	18.7	60	1
04/26/17	9:54 a	-18.3	-18.3	-18.3	---	---	3.5	N	0.06	4.3	-23.2	---	---	722.1	0.025	0.000	18.7	60	1
04/26/17	9:55 a	-18.3	-18.3	-18.3	---	---	3.5	N	0.06	4.3	-23.3	---	---	722.1	0.025	0.000	18.7	60	1
04/26/17	9:56 a	-18.3	-18.3	-18.3	---	---	3.5	N	0.06	4.3	-23.3	---	---	722.1	0.025	0.000	18.7	60	1
04/26/17	9:57 a	-18.3	-18.3	-18.3	---	---	3.5	N	0.06	3.5	-23.3	---	---	722.0	0.025	0.000	18.7	61	1
04/26/17	9:58 a	-18.3	-18.3	-18.3	---	---	3.5	N	0.06	3.5	-23.3	---	---	722.0	0.025	0.000	18.7	61	1
04/26/17	9:59 a	-18.3	-18.3	-18.3	---	---	3.5	N	0.06	4.3	-23.3	---	---	722.0	0.025	0.000	18.7	61	1
04/26/17	10:00 a	-18.3	-18.3	-18.3	---	---	3.5	N	0.06	4.3	-23.2	---	---	722.0	0.025	0.000	18.6	61	1
04/26/17	10:01 a	-18.3	-18.3	-18.3	---	---	3.5	N	0.06	4.3	-23.2	---	---	722.1	0.025	0.000	18.6	61	1
04/26/17	10:02 a	-18.2	-18.2	-18.3	---	---	3.5	N	0.06	4.3	-23.2	---	---	722.0	0.025	0.000	18.6	61	1
04/26/17	10:03 a	-18.2	-18.2	-18.2	---	---	3.5	N	0.06	4.3	-23.2	---	---	722.0	0.025	0.000	18.6	61	1
04/26/17	10:04 a	-18.2	-18.2	-18.2	---	---	4.3	N	0.07	4.3	-24.1	---	---	722.1	0.025	0.000	18.6	61	1
04/26/17	10:05 a	-18.2	-18.2	-18.2	---	---	3.5	N	0.06	4.3	-23.2	---	---	722.0	0.025	0.000	18.6	61	1
04/26/17	10:06 a	-18.1	-18.1	-18.2	---	---	3.5	N	0.06	4.3	-23.1	---	---	722.0	0.025	0.000	18.6	61	1
04/26/17	10:07 a	-18.1	-18.1	-18.2	---	---	3.5	N	0.06	4.3	-23.1	---	---	722.0	0.025	0.000	18.6	61	1
04/26/17	10:08 a	-18.1	-18.1	-18.2	---	---	2.6	N	0.04	3.5	-21.9	---	---	722.0	0.025	0.000	18.6	61	1
04/26/17	10:09 a	-18.1	-18.1	-18.1	---	---	2.6	N	0.04	3.5	-21.9	---	---	722.0	0.025	0.000	18.6	61	1
04/26/17	10:10 a	-18.1	-18.1	-18.1	---	---	2.6	N	0.04	3.5	-21.8	---	---	722.1	0.025	0.000	18.6	61	1
04/26/17	10:11 a	-18.1	-18.1	-18.1	---	---	2.6	N	0.04	3.5	-21.8	---	---	722.1	0.025	0.000	18.6	61	1
04/26/17	10:12 a	-18.1	-18.0	-18.1	---	---	3.5	N	0.06	4.3	-23.0	---	---	722.1	0.025	0.000	18.6	61	1
04/26/17	10:13 a	-18.1	-18.1	-18.1	---	---	2.6	N	0.04	3.5	-21.8	---	---	722.1	0.025	0.000	18.6	61	1
04/26/17	10:14 a	-18.1	-18.0	-18.1	---	---	2.6	N	0.04	3.5	-21.8	---	---	722.1	0.025	0.000	18.6	61	1
04/26/17	10:15 a	-18.0	-18.0	-18.1	---	---	2.6	N	0.04	3.5	-21.8	---	---	722.1	0.025	0.000	18.6	61	1
04/26/17	10:16 a	-18.0	-18.0	-18.1	---	---	2.6	NNW	0.04	3.5	-21.8	---	---	722.2	0.025	0.000	18.7	61	1
04/26/17	10:17 a	-18.1	-18.0	-18.1	---	---	2.6	N	0.04	3.5	-21.8	---	---	722.1	0.025	0.000	18.7	61	1
04/26/17	10:18 a	-18.0	-18.0	-18.0	---	---	2.6	N	0.04	3.5	-21.8	---	---	722.1	0.025	0.000	18.7	61	1
04/26/17	10:19 a	-18.0	-18.0	-18.0	---	---	2.6	NNW	0.04	2.6	-21.8	---	---	722.1	0.025	0.000	18.7	61	1
04/26/17	10:20 a	-18.0	-18.0	-18.0	---	---	1.7	NNW	0.03	2.6	-20.3	---	---	722.1	0.025	0.000	18.7	61	1
04/26/17	10:21 a	-18.0	-18.0	-18.1	---	---	2.6	N	0.04	2.6	-21.8	---	---	722.2	0.025	0.000	18.7	61	1
04/26/17	10:22 a	-18.0	-18.0	-18.1	---	---	2.6	N	0.04	2.6	-21.8	---	---	722.1	0.025	0.000	18.7	61	1
04/26/17	10:23 a	-18.1	-18.1	-18.1	---	---	2.6	N	0.04	3.5	-21.8	---	---	722.2	0.025	0.000	18.7	61	1
04/26/17	10:24 a	-18.1	-18.0	-18.1	---	---	2.6	N	0.04	3.5	-21.8	---	---	722.2	0.025	0.000	18.6	61	1
04/26/17	10:25 a	-18.1	-18.1	-18.1	---	---	2.6	N	0.04	3.5	-21.8	---	---	722.2	0.025	0.000	18.6	61	1
04/26/17	10:26 a	-18.1	-18.1	-18.1	---	---	2.6	N	0.04	3.5	-21.9	---	---	722.3	0.025	0.000	18.6	61	1
04/26/17	10:27 a	-18.1	-18.1	-18.1	---	---	2.6	N	0.04	3.5	-21.9	---	---	722.3	0.025	0.000	18.6	61	1
04/26/17	10:28 a	-18.1	-18.1	-18.1	---	---	2.6	N	0.04	3.5	-21.9	---	---	722.2	0.025	0.000	18.6	61	1
04/26/17	10:29 a	-18.1	-18.1	-18.1	---	---	3.5	N	0.06	3.5	-23.1	---	---	722.1	0.025	0.000	18.6	61	1
04/26/17	10:30 a	-18.1	-18.1	-18.1	---	---	3.5	N	0.06	4.3	-23.1	---	---	722.2	0.025	0.000	18.6	60	1
04/26/17	10:31 a	-18.1	-18.1	-18.1	---	---	3.5	N	0.06	4.3	-23.1	---	---	722.2	0.025	0.000	18.6	60	1
04/26/17	10:32 a	-18.1	-18.1	-18.1	---	---	3.5	N	0.06	4.3	-23.1	---	---	722.1	0.025	0.000	18.6	61	1
04/26/17	10:33 a	-18.1	-18.1	-18.1	---	---	3.5	N	0.06	3.5	-23.1	---	---	722.2	0.025	0.000	18.6	60	1
04/26/17	10:34 a	-18.1	-18.1	-18.1	---	---	3.5	N	0.06	3.5	-23.1	---	---	722.2	0.025	0.000	18.6	60	1
04/26/17	10:35 a	-18.1	-18.1	-18.1	---	---	3.5	N	0.06	4.3	-23.1	---	---	722.2	0.025	0.000	18.6	60	1
04/26/17	10:36 a	-18.1	-18.1	-18.1	---	---	3.5	N	0.06	3.5	-23.1	---	---	722.2	0.025	0.000	18.6	60	1
04/26/17	10:37 a	-18.1	-18.1	-18.1	---	---	3.5	N	0.06	4.3	-23.1	---	---	722.2	0.025	0.000	18.7	61	1
04/26/17	10:38 a	-18.1	-18.1	-18.1	---	---	3.5	N	0.06	3.5	-23.1	---	---	722.4	0.025	0.000	18.7	60	1
04/26/17	10:39 a	-18.1	-18.1	-18.2	---	---	3.5	N	0.06	4.3	-23.1	---	---	722.4	0.025	0.000	18.7	61	1
04/26/17	10:40 a	-18.1	-18.1	-18.2	---	---	3.5	N	0.06	4.3	-23.1	---	---	722.4	0.025	0.000	18.7	61	1
04/26/17	10:41 a	-18.1	-18.1	-18.2	---	---	3.5	N	0.06	3.5	-23.1	---	---	722.4	0.025	0.000	18.7	61	1
04/26/17	10:42 a	-18.2	-18.1	-18.2	---	---	3.5	N	0.06	4.3	-23.1	---	---	722.4	0.025	0.000	18.7	61	1
04/26/17	10:43 a	-18.2	-18.2	-18.2	---	---	3.5	N	0.06	4.3	-23.1	---	---	722.4	0.025	0.000	18.7	61	1
04/26/17	10:44 a	-18.2	-18.1	-18.2	---	---	3.5	N	0.06	4.3	-23.1	---	---	722.3	0.025	0.000	18.7	60	1
04/26/17	10:45 a	-18.2	-18.2	-18.2	---	---	3.5	N	0.06	4.3	-23.1	---	---	722.4	0.025	0.000	18.7	61	1
04/26/17	10:46 a	-18.2	-18.2	-18.2	---	---	3.5	N	0.06	4.3	-23.1	---	---	722.3	0.025	0.000	18.6	60	1
04/26/17	10:47 a	-18.2	-18.2	-18.2	---	---	3.5	N	0.06	4.3	-23.1	---	---	722.4	0.025	0.000	18.6	60	1
04/26/17	10:48 a	-18.2	-18.2	-18.2	---	---	3.5	N	0.06	3.5	-23.1	---	---	722.4	0.025	0.000	18.6	60	1
04/26/17	10:49 a	-18.2	-18.2	-18.2	---	---	3.5	N	0.06	3.5	-23.1	---	---	722.4	0.025	0.000	18.6	60	1
04/26/17	10:50 a	-18.2	-18.2	-18.2	---	---	2.6	N	0.04	3.5	-22.0	---	---	722.5	0.025	0.000	18.6	60	1
04/26/17	10:51 a	-18.2	-18.2	-18.2	---	---	2.6	N	0.04	3.5	-22.0	---	---	722.5	0.025	0.000	18.6	60	1
04/26/17	10:52 a	-18.2	-18.2	-18.2	---	---	2.6	N	0.04	3.5	-22.0	---	---	722.5	0.025	0.000	18.6	60	1
04/26/17	10:53 a	-18.2	-18.1	-18.2	---	---	2.6	N	0.04	2.6	-22.0	---	---	722.5	0.025	0.000	18.6	60	1
04/26/17	10:54 a	-18.2	-18.1	-18.2	---	---	2.6	N	0.04	2.6	-22.0	---	---	722.5	0.025	0.000	18.5	61	1
04/26/17	10:55 a	-18.1	-18.1	-18.2	---	---	2.6	N	0.04	3.5	-21.9	---	---	722.5	0.025	0.000	18.6	60	1
04/26/17	10:56 a	-18.1	-18.1	-18.2	---	---	2.6	N	0.04	2.6	-21.9	---	---	722.5	0.025	0.000	18.6	60	1
04/26/17	10:57 a	-18.1	-18.1	-18.2	---	---	2.6	N	0.04	2.6	-21.9	---	---	722.5	0.025	0.000	18.6	60	1
04/26/17	10:58 a	-18.1	-18.1	-18.1	---	---	1.7	NNW	0.03	2.6	-20.4	---	---	722.4	0.025	0.000	18.6	60	1
04/26/17	10:59 a	-18.1	-18.1	-18.1	---	---	2.6	NNW	0.04	2.6	-21.9	---	---	722.5	0.025	0.000	18.6	60	1
04/26/17	11:00 a	-18.1	-18.1	-18.1	---	---	2.6	N	0.04	2.6	-21.8	---	---	722.5	0.025	0.000	18.6	60	1
04/26/17	11:01 a	-18.1	-18.1	-18.1	---	---	2.6	N	0.04	2.6	-21.8	---	---	722.5	0.025	0.000	18.6	59	1
04/26/17	11:02 a	-18.1	-18.1	-18.1	---	---	1.7	N	0.03	2.6	-20.4	---	---	722.5	0.025	0.000	18.6	60	1
04/26/17	11:03 a	-18.1	-18.0	-18.1	---	---	1.7	NNW	0.03	1.7	-20.4	---	---	722.5	0.025	0.000	18.7	60	1
04/26/17	11:04 a	-18.1	-18.0	-18.1	---	---	0.9	NNW	0.01	1.7	-18.0	---	---	722.7	0.025	0.000	18.7	60	1
04/26/17	11:05 a	-18.0	-18.0	-18.1	---	---	0.0	NNW	0.00	0.9	-17.9	---	---	722.7	0.025	0.000	18.7	60	1
04/26/17	11:06 a	-18.0	-18.0	-18.1	---	---	0.0	NNE	0.00	1.7	-17.9	---	---	722.7	0.025	0.000	18.7	60	1
04/26/17	11:07 a	-18.1	-18.0	-18.1	---	---	1.7	SSE	0.03	1.7	-20.4	---	---	722.7	0.025	0.000	18.7	61	1
04/26/17	11:08 a	-18.1	-18.0	-18.1	---	---	0.9	SSE	0.01	1.7	-18.0	---	---	722.7	0.025	0.000	18.6	60	1
04/26/17	11:09 a	-18.1	-18.1	-18.1	---	---	0.0	SSE	0.00	0.9	-18.0	---	---	722.7	0.025	0.000	18.6	61	1
04/26/17	11:10 a	-18.1	-18.1	-18.1	---	---	0.0	SSE	0.00	0.9	-18.0	---	---	722.6	0.025	0.000	18.6	60	1
04/26/17	11:11 a	-18.1	-18.1	-18.1	---	---	0.0	SSE	0.00	0.9	-18.1	---	---	722.7	0.025	0.000	18.6	60	1
04/26/17	11:12 a	-18.1	-18.1	-18.1	---	---	0.0	SSE	0.00	0.9	-18.1	---	---	722.6	0.025	0.000	18.6	60	1
04/26/17	11:13 a	-18.1	-18.1	-18.2	---	---	0.0	SSE	0.00	0.9	-18.1	---	---	722.7	0.025	0.000	18.6	60	1
04/26/17	11:14 a	-18.2	-18.1	-18.2	---	---	0.9	SSE	0.01	0.9	-18.1	---	---	722.7	0.025	0.000	18.6	60	1
04/26/17	11:15 a	-18.2	-18.1	-18.2	---	---	0.0	SSE	0.00	0.9	-18.1	---	---	722.6	0.025	0.000	18.6	60	1
04/26/17	11:16 a	-18.2	-18.2	-18.2	---	---	0.0	SSE	0.00	0.9	-18.1	---	---	722.6	0.025	0.000	18.6	60	1
04/26/17	11:17 a	-18.2	-18.2	-18.2	---	---	0.0	SSE	0.00	0.9	-18.2	---	---	722.5	0.025	0.000	18.5	60	1
04/26/17	11:18 a	-18.2	-18.2	-18.3	---	---	0.0	SSE	0.00	0.9	-18.2	---	---	722.6	0.025	0.000	18.6	58	1
04/26/17	11:19 a	-18.3	-18.3	-18.3	---	---	0.9	SSE	0.01	1.7	-18.3	---	---	722.5	0.025	0.000	18.6	58	1
04/26/17	11:20 a	-18.3	-18.3	-18.3	---	---	1.7	ESE	0.03	2.6	-20.6	---	---	722.5	0.025	0.000	18.6	58	1
04/26/17	11:21 a	-18.3	-18.3	-18.4	---	---	1.7	E	0.03	2.6	-20.7	---	---	722.5	0.025	0.000	18.6	58	1
04/26/17	11:22 a	-18.4	-18.3	-18.4	---	---	1.7	E	0.03	1.7	-20.7	---	---	722.5	0.026	0.000	18.6	58	1
04/26/17	11:23 a	-18.4	-18.4	-18.4	---	---	1.7	E	0.03	1.7	-20.7	---	---	722.6	0.026	0.000	18.6	58	1
04/26/17	11:24 a	-18.4	-18.4	-18.5	---	---	1.7	E	0.03	1.7	-20.8	---	---	722.6	0.026	0.000	18.6	58	1
04/26/17	11:25 a	-18.6	-18.5	-18.6	---	---	1.7	E	0.03	2.6	-20.9	---	---	722.5	0.026	0.000	18.7	58	1
04/26/17	11:26 a	-18.6	-18.6	-18.6	---	---	1.7	E	0.03	2.6	-20.9	---	---	722.6	0.026	0.000	18.7	58	1
04/26/17	11:27 a	-18.6	-18.6	-18.6	---	---	1.7	E	0.03	2.6	-21.0	---	---	722.7	0.026	0.000	18.7	58	1
04/26/17	11:28 a	-18.7	-18.7	-18.7	---	---	0.9	E	0.01	1.7	-18.7	---	---	722.6	0.026	0.000	18.7	58	1
04/26/17	11:29 a	-18.7	-18.7	-18.8	---	---	1.7	E	0.03	1.7	-21.1	---	---	722.6	0.026	0.000	18.7	58	1
04/26/17	11:30 a	-18.8	-18.8	-18.8	---	---	0.9	E	0.01	1.7	-18.8	---	---	722.6	0.026	0.000	18.7	58	1
04/26/17	11:31 a	-18.8	-18.8	-18.8	---	---	1.7	E	0.03	1.7	-21.2	---	---	722.5	0.026	0.000	18.7	58	1
04/26/17	11:32 a	-18.8	-18.8	-18.9	---	---	1.7	E	0.03	1.7	-21.2	---	---	722.5	0.026	0.000	18.7	58	1
04/26/17	11:33 a	-18.9	-18.9	-18.9	---	---	1.7	E	0.03	1.7	-21.3	---	---	722.6	0.026	0.000	18.6	58	1
04/26/17	11:34 a	-18.9	-18.9	-18.9	---	---	1.7	E	0.03	1.7	-21.3	---	---	722.5	0.026	0.000	18.6	58	1
04/26/17	11:35 a	-19.0	-18.9	-19.0	---	---	0.9	E	0.01	1.7	-19.0	---	---	722.5	0.026	0.000	18.6	58	1
04/26/17	11:36 a	-19.1	-19.0	-19.1	---	---	0.9	E	0.01	1.7	-19.1	---	---	722.5	0.026	0.000	18.6	58	1
04/26/17	11:37 a	-19.1	-19.1	-19.1	---	---	0.9	E	0.01	1.7	-19.1	---	---	722.6	0.026	0.000	18.6	58	1
04/26/17	11:38 a	-19.1	-19.1	-19.1	---	---	0.9	ENE	0.01	1.7	-19.1	---	---	722.6	0.026	0.000	18.6	58	1
04/26/17	11:39 a	-19.1	-19.1	-19.1	---	---	1.7	ENE	0.03	1.7	-21.5	---	---	722.6	0.026	0.000	18.6	58	1
04/26/17	11:40 a	-19.1	-19.1	-19.1	---	---	0.9	ENE	0.01	1.7	-19.1	---	---	722.6	0.026	0.000	18.6	58	1
04/26/17	11:41 a	-19.1	-19.1	-19.1	---	---	0.9	ENE	0.01	1.7	-19.1	---	---	722.6	0.026	0.000	18.6	58	1
04/26/17	11:42 a	-19.1	-19.1	-19.2	---	---	0.9	ENE	0.01	0.9	-19.1	---	---	722.6	0.026	0.000	18.6	59	1
04/26/17	11:43 a	-19.1	-19.1	-19.2	---	---	1.7	ENE	0.03	1.7	-21.5	---	---	722.6	0.026	0.000	18.6	58	1
04/26/17	11:44 a	-19.2	-19.1	-19.2	---	---	1.7	ESE	0.03	2.6	-21.6	---	---	722.5	0.026	0.000	18.6	58	1
04/26/17	11:45 a	-19.2	-19.1	-19.2	---	---	2.6	E	0.04	2.6	-23.1	---	---	722.6	0.026	0.000	18.6	58	1
04/26/17	11:46 a	-19.2	-19.2	-19.2	---	---	2.6	E	0.04	2.6	-23.1	---	---	722.6	0.026	0.000	18.7	58	1
04/26/17	11:47 a	-19.2	-19.2	-19.2	---	---	3.5	E	0.06	3.5	-24.3	---	---	722.6	0.026	0.000	18.7	58	1
04/26/17	11:48 a	-19.2	-19.2	-19.2	---	---	3.5	E	0.06	4.3	-24.3	---	---	722.6	0.026	0.000	18.7	58	1
04/26/17	11:49 a	-19.2	-19.2	-19.2	---	---	3.5	E	0.06	4.3	-24.3	---	---	722.6	0.026	0.000	18.7	58	1
04/26/17	11:50 a	-19.2	-19.2	-19.3	---	---	3.5	E	0.06	3.5	-24.3	---	---	722.6	0.026	0.000	18.7	58	1
04/26/17	11:51 a	-19.3	-19.3	-19.3	---	---	3.5	E	0.06	4.3	-24.4	---	---	722.7	0.026	0.000	18.7	58	1
04/26/17	11:52 a	-19.3	-19.3	-19.3	---	---	4.3	E	0.07	4.3	-25.3	---	---	722.6	0.026	0.000	18.7	58	1
04/26/17	11:53 a	-19.3	-19.3	-19.3	---	---	3.5	E	0.06	4.3	-24.4	---	---	722.7	0.026	0.000	18.7	58	1
04/26/17	11:54 a	-19.3	-19.3	-19.4	---	---	3.5	E	0.06	3.5	-24.4	---	---	722.7	0.026	0.000	18.7	58	1
04/26/17	11:55 a	-19.4	-19.4	-19.4	---	---	2.6	E	0.04	3.5	-23.4	---	---	722.7	0.026	0.000	18.7	58	1
04/26/17	11:56 a	-19.4	-19.4	-19.5	---	---	2.6	ENE	0.04	3.5	-23.4	---	---	722.7	0.026	0.000	18.7	59	1
04/26/17	11:57 a	-19.5	-19.4	-19.5	---	---	1.7	ENE	0.03	2.6	-21.9	---	---	722.7	0.026	0.000	18.7	59	1
04/26/17	11:58 a	-19.5	-19.5	-19.5	---	---	1.7	ENE	0.03	1.7	-21.9	---	---	722.7	0.026	0.000	18.7	59	1
04/26/17	11:59 a	-19.6	-19.5	-19.6	---	---	0.9	ENE	0.01	1.7	-19.6	---	---	722.7	0.026	0.000	18.6	59	1
04/26/17	12:00 p	-19.6	-19.6	-19.6	---	---	0.9	ENE	0.01	0.9	-19.6	---	---	722.7	0.026	0.000	18.6	59	1
04/26/17	12:01 p	-19.6	-19.6	-19.6	---	---	0.9	ENE	0.01	0.9	-19.6	---	---	722.7	0.026	0.000	18.6	59	1
04/26/17	12:02 p	-19.6	-19.6	-19.6	---	---	0.0	ENE	0.00	0.9	-19.5	---	---	722.7	0.026	0.000	18.6	59	1
04/26/17	12:03 p	-19.6	-19.6	-19.6	---	---	0.0	ENE	0.00	0.9	-19.5	---	---	722.7	0.026	0.000	18.6	59	1
04/26/17	12:04 p	-19.6	-19.6	-19.6	---	---	0.9	ENE	0.01	0.9	-19.6	---	---	722.7	0.026	0.000	18.6	59	1
04/26/17	12:05 p	-19.6	-19.6	-19.6	---	---	0.9	ENE	0.01	0.9	-19.6	---	---	722.7	0.026	0.000	18.6	59	1
04/26/17	12:06 p	-19.6	-19.6	-19.6	---	---	0.9	ENE	0.01	1.7	-19.7	---	---	722.7	0.026	0.000	18.6	60	1
04/26/17	12:07 p	-19.6	-19.6	-19.6	---	---	0.9	ENE	0.01	1.7	-19.7	---	---	722.7	0.026	0.000	18.6	60	1
04/26/17	12:08 p	-19.6	-19.6	-19.6	---	---	0.9	ENE	0.01	0.9	-19.6	---	---	722.7	0.026	0.000	18.6	59	1
04/26/17	12:09 p	-19.6	-19.6	-19.6	---	---	0.9	ENE	0.01	0.9	-19.7	---	---	722.7	0.026	0.000	18.7	59	1
04/26/17	12:10 p	-19.6	-19.6	-19.6	---	---	0.9	ENE	0.01	0.9	-19.6	---	---	722.8	0.026	0.000	18.7	59	1
04/26/17	12:11 p	-19.6	-19.6	-19.6	---	---	0.9	ENE	0.01	0.9	-19.6	---	---	722.8	0.026	0.000	18.7	58	1
04/26/17	12:12 p	-19.6	-19.6	-19.6	---	---	0.9	ENE	0.01	0.9	-19.6	---	---	722.8	0.026	0.000	18.7	58	1
04/26/17	12:13 p	-19.6	-19.6	-19.6	---	---	0.9	ENE	0.01	0.9	-19.6	---	---	722.8	0.026	0.000	18.7	59	1
04/26/17	12:14 p	-19.6	-19.6	-19.6	---	---	0.9	ENE	0.01	1.7	-19.6	---	---	722.7	0.026	0.000	18.7	58	1
04/26/17	12:15 p	-19.6	-19.6	-19.6	---	---	1.7	E	0.03	1.7	-22.0	---	---	722.6	0.026	0.000	18.7	59	1
04/26/17	12:16 p	-19.6	-19.6	-19.6	---	---	1.7	ESE	0.03	2.6	-22.0	---	---	722.7	0.026	0.000	18.7	59	1
04/26/17	12:17 p	-19.6	-19.6	-19.6	---	---	2.6	ESE	0.04	2.6	-23.6	---	---	722.7	0.026	0.000	18.7	58	1
04/26/17	12:18 p	-19.6	-19.6	-19.6	---	---	2.6	ESE	0.04	3.5	-23.6	---	---	722.7	0.026	0.000	18.7	59	1
04/26/17	12:19 p	-19.6	-19.5	-19.6	---	---	2.6	E	0.04	3.5	-23.6	---	---	722.7	0.026	0.000	18.7	58	1
04/26/17	12:20 p	-19.6	-19.6	-19.6	---	---	2.6	E	0.04	3.5	-23.6	---	---	722.8	0.026	0.000	18.7	59	1
04/26/17	12:21 p	-19.6	-19.6	-19.6	---	---	2.6	E	0.04	3.5	-23.6	---	---	722.7	0.026	0.000	18.7	59	1
04/26/17	12:22 p	-19.6	-19.6	-19.6	---	---	2.6	E	0.04	3.5	-23.6	---	---	722.8	0.026	0.000	18.7	60	1
04/26/17	12:23 p	-19.6	-19.6	-19.6	---	---	2.6	E	0.04	3.5	-23.6	---	---	722.8	0.026	0.000	18.6	59	1
04/26/17	12:24 p	-19.6	-19.6	-19.6	---	---	2.6	E	0.04	3.5	-23.6	---	---	722.8	0.026	0.000	18.6	59	1
04/26/17	12:25 p	-19.6	-19.6	-19.7	---	---	3.5	E	0.06	3.5	-24.8	---	---	722.7	0.026	0.000	18.6	59	1
04/26/17	12:26 p	-19.7	-19.7	-19.7	---	---	3.5	E	0.06	4.3	-24.8	---	---	722.8	0.026	0.000	18.6	59	1
04/26/17	12:27 p	-19.7	-19.7	-19.7	---	---	3.5	E	0.06	4.3	-24.9	---	---	722.8	0.026	0.000	18.6	59	1
04/26/17	12:28 p	-19.7	-19.7	-19.7	---	---	4.3	E	0.07	5.2	-25.8	---	---	722.7	0.026	0.000	18.6	59	1
04/26/17	12:29 p	-19.7	-19.7	-19.8	---	---	5.2	E	0.09	6.1	-26.6	---	---	722.8	0.026	0.000	18.6	58	1
04/26/17	12:30 p	-19.8	-19.7	-19.8	---	---	5.2	E	0.09	6.1	-26.7	---	---	722.7	0.026	0.000	18.6	58	1
04/26/17	12:31 p	-19.8	-19.8	-19.9	---	---	5.2	E	0.09	5.2	-26.8	---	---	722.7	0.027	0.000	18.7	58	1
04/26/17	12:32 p	-19.9	-19.8	-19.9	---	---	4.3	E	0.07	5.2	-26.1	---	---	722.7	0.027	0.000	18.7	59	1
04/26/17	12:33 p	-19.9	-19.9	-19.9	---	---	4.3	E	0.07	5.2	-26.1	---	---	722.8	0.027	0.000	18.7	59	1
04/26/17	12:34 p	-19.9	-19.9	-20.0	---	---	4.3	E	0.07	5.2	-26.1	---	---	722.8	0.027	0.000	18.7	60	1
04/26/17	12:35 p	-20.0	-19.9	-20.1	---	---	4.3	E	0.07	5.2	-26.2	---	---	722.8	0.027	0.000	18.7	58	1
04/26/17	12:36 p	-20.1	-20.0	-20.1	---	---	4.3	E	0.07	5.2	-26.2	---	---	722.9	0.027	0.000	18.7	58	1
04/26/17	12:37 p	-20.1	-20.1	-20.1	---	---	4.3	E	0.07	4.3	-26.3	---	---	722.8	0.027	0.000	18.7	59	1
04/26/17	12:38 p	-20.1	-20.1	-20.2	---	---	4.3	ESE	0.07	4.3	-26.3	---	---	722.8	0.027	0.000	18.7	58	1
04/26/17	12:39 p	-20.2	-20.1	-20.2	---	---	3.5	ESE	0.06	4.3	-25.4	---	---	722.8	0.027	0.000	18.7	58	1
04/26/17	12:40 p	-20.2	-20.2	-20.2	---	---	3.5	ESE	0.06	4.3	-25.5	---	---	722.9	0.027	0.000	18.7	58	1
04/26/17	12:41 p	-20.2	-20.2	-20.3	---	---	4.3	E	0.07	5.2	-26.4	---	---	722.8	0.027	0.000	18.7	59	1
04/26/17	12:42 p	-20.3	-20.3	-20.3	---	---	5.2	E	0.09	5.2	-27.3	---	---	722.7	0.027	0.000	18.7	58	1
04/26/17	12:43 p	-20.3	-20.3	-20.4	---	---	4.3	E	0.07	5.2	-26.6	---	---	722.8	0.027	0.000	18.7	58	1
04/26/17	12:44 p	-20.3	-20.3	-20.4	---	---	4.3	E	0.07	5.2	-26.6	---	---	722.8	0.027	0.000	18.7	60	1
04/26/17	12:45 p	-20.4	-20.4	-20.4	---	---	4.3	E	0.07	5.2	-26.7	---	---	722.8	0.027	0.000	18.6	58	1
04/26/17	12:46 p	-20.4	-20.4	-20.5	---	---	4.3	E	0.07	4.3	-26.7	---	---	722.8	0.027	0.000	18.6	58	1
04/26/17	12:47 p	-20.5	-20.4	-20.5	---	---	4.3	E	0.07	5.2	-26.8	---	---	722.8	0.027	0.000	18.6	58	1
04/26/17	12:48 p	-20.5	-20.5	-20.6	---	---	4.3	E	0.07	4.3	-26.8	---	---	722.8	0.027	0.000	18.6	59	1
04/26/17	12:49 p	-20.6	-20.5	-20.6	---	---	3.5	E	0.06	4.3	-25.9	---	---	722.9	0.027	0.000	18.6	59	1
04/26/17	12:50 p	-20.6	-20.6	-20.6	---	---	3.5	E	0.06	4.3	-25.9	---	---	722.8	0.027	0.000	18.6	58	1
04/26/17	12:51 p	-20.6	-20.6	-20.6	---	---	3.5	ENE	0.06	4.3	-25.9	---	---	722.9	0.027	0.000	18.6	58	1
04/26/17	12:52 p	-20.6	-20.6	-20.6	---	---	3.5	ENE	0.06	3.5	-25.9	---	---	722.8	0.027	0.000	18.6	58	1
04/26/17	12:53 p	-20.6	-20.6	-20.6	---	---	3.5	ENE	0.06	3.5	-25.9	---	---	722.9	0.027	0.000	18.6	59	1
04/26/17	12:54 p	-20.6	-20.6	-20.7	---	---	2.6	NE	0.04	3.5	-24.7	---	---	722.9	0.027	0.000	18.6	59	1
04/26/17	12:55 p	-20.6	-20.6	-20.7	---	---	2.6	NE	0.04	2.6	-24.7	---	---	722.8	0.027	0.000	18.6	59	1
04/26/17	12:56 p	-20.6	-20.6	-20.7	---	---	1.7	NE	0.03	2.6	-23.2	---	---	723.0	0.027	0.000	18.7	59	1
04/26/17	12:57 p	-20.6	-20.6	-20.6	---	---	1.7	ENE	0.03	2.6	-23.2	---	---	723.0	0.027	0.000	18.7	60	1
04/26/17	12:58 p	-20.6	-20.6	-20.6	---	---	1.7	ENE	0.03	2.6	-23.2	---	---	722.9	0.027	0.000	18.7	59	1
04/26/17	12:59 p	-20.6	-20.6	-20.6	---	---	1.7	ENE	0.03	1.7	-23.1	---	---	723.0	0.027	0.000	18.7	60	1
04/26/17	1:00 p	-20.6	-20.6	-20.6	---	---	1.7	ENE	0.03	1.7	-23.1	---	---	722.9	0.027	0.000	18.7	60	1
04/26/17	1:01 p	-20.6	-20.5	-20.6	---	---	2.6	ENE	0.04	2.6	-24.7	---	---	722.9	0.027	0.000	18.7	59	1
04/26/17	1:02 p	-20.5	-20.5	-20.5	---	---	2.6	ENE	0.04	2.6	-24.6	---	---	722.9	0.027	0.000	18.7	60	1
04/26/17	1:03 p	-20.5	-20.4	-20.5	---	---	2.6	ENE	0.04	2.6	-24.6	---	---	722.9	0.027	0.000	18.7	60	1
04/26/17	1:04 p	-20.4	-20.4	-20.5	---	---	1.7	NE	0.03	2.6	-23.0	---	---	722.9	0.027	0.000	18.7	60	1
04/26/17	1:05 p	-20.4	-20.4	-20.4	---	---	1.7	NE	0.03	2.6	-23.0	---	---	722.9	0.027	0.000	18.7	60	1
04/26/17	1:06 p	-20.4	-20.3	-20.4	---	---	1.7	ENE	0.03	3.5	-22.9	---	---	722.9	0.027	0.000	18.7	60	1
04/26/17	1:07 p	-20.3	-20.3	-20.3	---	---	1.7	ENE	0.03	2.6	-22.9	---	---	722.9	0.027	0.000	18.7	60	1
04/26/17	1:08 p	-20.3	-20.3	-20.3	---	---	1.7	ESE	0.03	2.6	-22.8	---	---	722.9	0.027	0.000	18.7	60	1
04/26/17	1:09 p	-20.2	-20.2	-20.3	---	---	1.7	ESE	0.03	2.6	-22.7	---	---	723.0	0.027	0.000	18.7	60	1
04/26/17	1:10 p	-20.2	-20.2	-20.2	---	---	1.7	ENE	0.03	2.6	-22.7	---	---	722.9	0.027	0.000	18.7	60	1
04/26/17	1:11 p	-20.2	-20.2	-20.2	---	---	1.7	ENE	0.03	1.7	-22.7	---	---	722.9	0.027	0.000	18.6	60	1
04/26/17	1:12 p	-20.2	-20.1	-20.2	---	---	0.9	ENE	0.01	1.7	-20.2	---	---	722.9	0.027	0.000	18.6	60	1
04/26/17	1:13 p	-20.1	-20.1	-20.1	---	---	0.9	ENE	0.01	1.7	-20.2	---	---	722.8	0.027	0.000	18.6	60	1
04/26/17	1:14 p	-20.1	-20.1	-20.1	---	---	0.9	E	0.01	1.7	-20.2	---	---	722.9	0.027	0.000	18.6	60	1
04/26/17	1:15 p	-20.1	-20.0	-20.1	---	---	0.9	E	0.01	1.7	-20.1	---	---	722.9	0.027	0.000	18.6	60	1
04/26/17	1:16 p	-20.1	-20.0	-20.1	---	---	1.7	ENE	0.03	2.6	-22.6	---	---	722.9	0.027	0.000	18.6	60	1
04/26/17	1:17 p	-20.0	-20.0	-20.0	---	---	0.9	E	0.01	2.6	-20.1	---	---	722.8	0.027	0.000	18.6	60	1
04/26/17	1:18 p	-20.0	-19.9	-20.0	---	---	0.9	ENE	0.01	1.7	-20.1	---	---	723.0	0.027	0.000	18.6	60	1
04/26/17	1:19 p	-19.9	-19.9	-19.9	---	---	1.7	ESE	0.03	1.7	-22.4	---	---	722.9	0.027	0.000	18.7	60	1
04/26/17	1:20 p	-19.9	-19.9	-19.9	---	---	0.9	ESE	0.01	1.7	-19.9	---	---	722.9	0.027	0.000	18.7	60	1
04/26/17	1:21 p	-19.9	-19.9	-19.9	---	---	0.9	ESE	0.01	1.7	-19.9	---	---	722.9	0.027	0.000	18.7	60	1
04/26/17	1:22 p	-19.9	-19.8	-19.9	---	---	0.9	ESE	0.01	1.7	-19.9	---	---	722.8	0.027	0.000	18.7	60	1
04/26/17	1:23 p	-19.8	-19.8	-19.8	---	---	1.7	ESE	0.03	2.6	-22.3	---	---	722.9	0.027	0.000	18.7	60	1
04/26/17	1:24 p	-19.8	-19.8	-19.8	---	---	1.7	SE	0.03	1.7	-22.3	---	---	722.8	0.027	0.000	18.7	60	1
04/26/17	1:25 p	-19.8	-19.8	-19.8	---	---	1.7	SE	0.03	1.7	-22.3	---	---	722.9	0.027	0.000	18.7	60	1
04/26/17	1:26 p	-19.8	-19.8	-19.8	---	---	1.7	SE	0.03	1.7	-22.3	---	---	722.8	0.026	0.000	18.7	60	1
04/26/17	1:27 p	-19.8	-19.8	-19.8	---	---	1.7	ESE	0.03	2.6	-22.3	---	---	722.8	0.026	0.000	18.7	60	1
04/26/17	1:28 p	-19.8	-19.8	-19.8	---	---	0.9	ESE	0.01	1.7	-19.8	---	---	722.8	0.026	0.000	18.7	60	1
04/26/17	1:29 p	-19.8	-19.7	-19.8	---	---	0.9	ESE	0.01	1.7	-19.8	---	---	722.8	0.026	0.000	18.7	60	1
04/26/17	1:30 p	-19.8	-19.7	-19.8	---	---	1.7	E	0.03	1.7	-22.3	---	---	722.7	0.026	0.000	18.7	60	1
04/26/17	1:31 p	-19.8	-19.7	-19.8	---	---	0.9	ESE	0.01	1.7	-19.8	---	---	722.8	0.026	0.000	18.7	60	1
04/26/17	1:32 p	-19.8	-19.7	-19.8	---	---	1.7	ESE	0.03	1.7	-22.3	---	---	722.9	0.026	0.000	18.6	60	1
04/26/17	1:33 p	-19.8	-19.8	-19.8	---	---	1.7	E	0.03	1.7	-22.3	---	---	722.9	0.026	0.000	18.6	60	1
04/26/17	1:34 p	-19.8	-19.7	-19.8	---	---	0.9	E	0.01	1.7	-19.8	---	---	722.9	0.026	0.000	18.6	60	1
04/26/17	1:35 p	-19.8	-19.7	-19.8	---	---	0.9	ESE	0.01	1.7	-19.8	---	---	722.9	0.026	0.000	18.6	60	1
04/26/17	1:36 p	-19.8	-19.8	-19.8	---	---	0.9	ESE	0.01	1.7	-19.8	---	---	722.9	0.026	0.000	18.6	60	1
04/26/17	1:37 p	-19.8	-19.8	-19.8	---	---	0.9	E	0.01	1.7	-19.8	---	---	722.9	0.026	0.000	18.6	60	1
04/26/17	1:38 p	-19.8	-19.8	-19.8	---	---	0.9	E	0.01	1.7	-19.8	---	---	723.0	0.026	0.000	18.6	60	1
04/26/17	1:39 p	-19.8	-19.8	-19.8	---	---	0.9	E	0.01	1.7	-19.8	---	---	723.0	0.026	0.000	18.6	60	1
04/26/17	1:40 p	-19.8	-19.8	-19.8	---	---	0.9	E	0.01	1.7	-19.8	---	---	723.0	0.026	0.000	18.6	60	1
04/26/17	1:41 p	-19.8	-19.8	-19.8	---	---	0.9	E	0.01	1.7	-19.8	---	---	723.0	0.026	0.000	18.6	60	1
04/26/17	1:42 p	-19.8	-19.8	-19.8	---	---	1.7	E	0.03	1.7	-22.3	---	---	722.9	0.026	0.000	18.6	60	1
04/26/17	1:43 p	-19.8	-19.8	-19.8	---	---	1.7	E	0.03	1.7	-22.3	---	---	723.0	0.026	0.000	18.7	60	1
04/26/17	1:44 p	-19.8	-19.8	-19.8	---	---	1.7	E	0.03	1.7	-22.3	---	---	723.0	0.026	0.000	18.7	60	1
04/26/17	1:45 p	-19.7	-19.7	-19.8	---	---	1.7	E	0.03	1.7	-22.2	---	---	723.0	0.026	0.000	18.7	60	1
04/26/17	1:46 p	-19.7	-19.7	-19.7	---	---	0.9	E	0.01	1.7	-19.8	---	---	722.9	0.026	0.000	18.7	60	1
04/26/17	1:47 p	-19.7	-19.7	-19.7	---	---	0.9	E	0.01	0.9	-19.8	---	---	722.9	0.026	0.000	18.7	60	1
04/26/17	1:48 p	-19.7	-19.7	-19.7	---	---	0.0	E	0.00	0.9	-19.7	---	---	722.9	0.026	0.000	18.7	60	1
04/26/17	1:49 p	-19.7	-19.7	-19.7	---	---	0.0	E	0.00	0.9	-19.6	---	---	722.9	0.026	0.000	18.7	60	1
04/26/17	1:50 p	-19.7	-19.7	-19.7	---	---	0.0	E	0.00	0.9	-19.6	---	---	723.0	0.026	0.000	18.7	60	1
04/26/17	1:51 p	-19.7	-19.6	-19.7	---	---	0.0	E	0.00	0.9	-19.6	---	---	722.9	0.026	0.000	18.7	60	1
04/26/17	1:52 p	-19.7	-19.6	-19.7	---	---	0.0	E	0.00	0.9	-19.6	---	---	723.0	0.026	0.000	18.7	60	1
04/26/17	1:53 p	-19.6	-19.6	-19.7	---	---	0.9	E	0.01	0.9	-19.7	---	---	722.9	0.026	0.000	18.7	60	1
04/26/17	1:54 p	-19.6	-19.6	-19.6	---	---	0.9	E	0.01	0.9	-19.7	---	---	723.0	0.026	0.000	18.7	60	1
04/26/17	1:55 p	-19.6	-19.6	-19.6	---	---	0.9	E	0.01	0.9	-19.7	---	---	723.0	0.026	0.000	18.7	60	1
04/26/17	1:56 p	-19.6	-19.6	-19.6	---	---	0.9	E	0.01	0.9	-19.7	---	---	723.0	0.026	0.000	18.7	60	1
04/26/17	1:57 p	-19.6	-19.6	-19.6	---	---	0.9	E	0.01	1.7	-19.6	---	---	723.0	0.026	0.000	18.6	60	1
04/26/17	1:58 p	-19.6	-19.6	-19.6	---	---	0.9	E	0.01	1.7	-19.7	---	---	723.0	0.026	0.000	18.6	60	1
04/26/17	1:59 p	-19.6	-19.6	-19.6	---	---	1.7	E	0.03	1.7	-22.0	---	---	723.1	0.026	0.000	18.6	60	1
04/26/17	2:00 p	-19.6	-19.6	-19.6	---	---	1.7	E	0.03	1.7	-22.0	---	---	723.1	0.026	0.000	18.6	60	1
04/26/17	2:01 p	-19.6	-19.6	-19.6	---	---	1.7	ESE	0.03	2.6	-22.0	---	---	723.0	0.026	0.000	18.6	60	1
04/26/17	2:02 p	-19.6	-19.6	-19.6	---	---	2.6	E	0.04	2.6	-23.6	---	---	723.0	0.026	0.000	18.6	60	1
04/26/17	2:03 p	-19.6	-19.6	-19.6	---	---	2.6	ESE	0.04	3.5	-23.6	---	---	723.0	0.026	0.000	18.6	60	1
04/26/17	2:04 p	-19.6	-19.6	-19.6	---	---	2.6	ESE	0.04	3.5	-23.6	---	---	723.0	0.026	0.000	18.6	60	1
04/26/17	2:05 p	-19.6	-19.6	-19.6	---	---	2.6	ESE	0.04	3.5	-23.6	---	---	723.0	0.026	0.000	18.6	60	1
04/26/17	2:06 p	-19.6	-19.6	-19.6	---	---	2.6	ESE	0.04	2.6	-23.6	---	---	722.9	0.026	0.000	18.7	60	1
04/26/17	2:07 p	-19.6	-19.6	-19.6	---	---	2.6	SE	0.04	3.5	-23.6	---	---	723.0	0.026	0.000	18.7	60	1
04/26/17	2:08 p	-19.6	-19.6	-19.6	---	---	2.6	ESE	0.04	3.5	-23.6	---	---	723.0	0.026	0.000	18.7	60	1
04/26/17	2:09 p	-19.6	-19.6	-19.6	---	---	2.6	ESE	0.04	3.5	-23.6	---	---	723.0	0.026	0.000	18.7	60	1
04/26/17	2:10 p	-19.6	-19.6	-19.7	---	---	2.6	ESE	0.04	3.5	-23.6	---	---	723.0	0.026	0.000	18.7	60	1
04/26/17	2:11 p	-19.7	-19.6	-19.7	---	---	2.6	ESE	0.04	3.5	-23.7	---	---	723.1	0.026	0.000	18.7	60	1
04/26/17	2:12 p	-19.7	-19.7	-19.7	---	---	3.5	ESE	0.06	3.5	-24.8	---	---	723.1	0.026	0.000	18.7	60	1
04/26/17	2:13 p	-19.7	-19.7	-19.7	---	---	3.5	ESE	0.06	4.3	-24.8	---	---	723.0	0.026	0.000	18.7	60	1
04/26/17	2:14 p	-19.7	-19.7	-19.7	---	---	4.3	E	0.07	4.3	-25.8	---	---	723.1	0.026	0.000	18.7	60	1
04/26/17	2:15 p	-19.7	-19.7	-19.7	---	---	3.5	E	0.06	4.3	-24.9	---	---	723.0	0.026	0.000	18.7	60	1
04/26/17	2:16 p	-19.7	-19.7	-19.8	---	---	3.5	E	0.06	3.5	-24.9	---	---	723.0	0.026	0.000	18.7	60	1
04/26/17	2:17 p	-19.8	-19.7	-19.8	---	---	2.6	E	0.04	3.5	-23.8	---	---	723.1	0.026	0.000	18.7	60	1
04/26/17	2:18 p	-19.8	-19.7	-19.8	---	---	3.5	E	0.06	3.5	-24.9	---	---	723.1	0.026	0.000	18.7	60	1
04/26/17	2:19 p	-19.8	-19.8	-19.8	---	---	2.6	E	0.04	3.5	-23.8	---	---	723.1	0.026	0.000	18.7	60	1
04/26/17	2:20 p	-19.8	-19.8	-19.8	---	---	2.6	E	0.04	3.5	-23.9	---	---	723.1	0.027	0.000	18.7	60	1
04/26/17	2:21 p	-19.8	-19.8	-19.8	---	---	2.6	E	0.04	3.5	-23.9	---	---	723.1	0.027	0.000	18.6	60	1
04/26/17	2:22 p	-19.9	-19.8	-19.9	---	---	2.6	E	0.04	3.5	-23.9	---	---	723.1	0.027	0.000	18.6	60	1
04/26/17	2:23 p	-19.9	-19.9	-19.9	---	---	2.6	ENE	0.04	3.5	-23.9	---	---	723.1	0.027	0.000	18.6	60	1
04/26/17	2:24 p	-19.9	-19.9	-19.9	---	---	2.6	ENE	0.04	2.6	-24.0	---	---	723.0	0.027	0.000	18.6	60	1
04/26/17	2:25 p	-19.9	-19.9	-19.9	---	---	2.6	ENE	0.04	2.6	-24.0	---	---	723.1	0.027	0.000	18.6	60	1
04/26/17	2:26 p	-19.9	-19.9	-20.0	---	---	1.7	ENE	0.03	2.6	-22.4	---	---	723.1	0.027	0.000	18.6	60	1
04/26/17	2:27 p	-20.0	-19.9	-20.0	---	---	1.7	NE	0.03	1.7	-22.5	---	---	723.1	0.027	0.000	18.6	60	1
04/26/17	2:28 p	-20.0	-19.9	-20.0	---	---	1.7	NE	0.03	2.6	-22.5	---	---	723.1	0.027	0.000	18.6	60	1
04/26/17	2:29 p	-20.0	-20.0	-20.1	---	---	2.6	ENE	0.04	3.5	-24.1	---	---	723.1	0.027	0.000	18.6	60	1
04/26/17	2:30 p	-20.0	-20.0	-20.1	---	---	2.6	E	0.04	2.6	-24.1	---	---	723.1	0.027	0.000	18.6	60	1
04/26/17	2:31 p	-20.0	-20.0	-20.1	---	---	1.7	E	0.03	2.6	-22.5	---	---	723.0	0.027	0.000	18.7	60	1
04/26/17	2:32 p	-20.0	-20.0	-20.1	---	---	1.7	SE	0.03	2.6	-22.5	---	---	723.2	0.027	0.000	18.7	60	1
04/26/17	2:33 p	-20.0	-20.0	-20.1	---	---	1.7	ESE	0.03	2.6	-22.5	---	---	723.1	0.027	0.000	18.7	60	1
04/26/17	2:34 p	-20.1	-20.0	-20.1	---	---	1.7	ESE	0.03	2.6	-22.6	---	---	723.1	0.027	0.000	18.7	60	1
04/26/17	2:35 p	-20.0	-20.0	-20.1	---	---	2.6	E	0.04	3.5	-24.1	---	---	723.1	0.027	0.000	18.7	60	1
04/26/17	2:36 p	-20.1	-20.0	-20.1	---	---	2.6	E	0.04	3.5	-24.1	---	---	723.1	0.027	0.000	18.7	60	1
04/26/17	2:37 p	-20.0	-20.0	-20.1	---	---	3.5	E	0.06	4.3	-25.2	---	---	723.1	0.027	0.000	18.7	60	1
04/26/17	2:38 p	-20.1	-20.0	-20.1	---	---	2.6	E	0.04	3.5	-24.1	---	---	723.1	0.027	0.000	18.7	60	1
04/26/17	2:39 p	-20.0	-20.0	-20.1	---	---	3.5	E	0.06	3.5	-25.2	---	---	723.1	0.027	0.000	18.7	60	1
04/26/17	2:40 p	-20.0	-20.0	-20.1	---	---	2.6	E	0.04	3.5	-24.1	---	---	723.1	0.027	0.000	18.7	60	1
04/26/17	2:41 p	-20.0	-20.0	-20.1	---	---	3.5	E	0.06	3.5	-25.2	---	---	723.1	0.027	0.000	18.7	60	1
04/26/17	2:42 p	-20.0	-20.0	-20.0	---	---	2.6	E	0.04	3.5	-24.1	---	---	723.2	0.027	0.000	18.7	60	1
04/26/17	2:43 p	-20.0	-20.0	-20.0	---	---	2.6	E	0.04	2.6	-24.1	---	---	723.1	0.027	0.000	18.7	60	1
04/26/17	2:44 p	-20.0	-20.0	-20.0	---	---	2.6	E	0.04	2.6	-24.1	---	---	723.1	0.027	0.000	18.6	60	1
04/26/17	2:45 p	-20.0	-20.0	-20.0	---	---	2.6	E	0.04	2.6	-24.1	---	---	723.1	0.027	0.000	18.6	60	1
04/26/17	2:46 p	-20.0	-19.9	-20.0	---	---	2.6	E	0.04	2.6	-24.1	---	---	723.1	0.027	0.000	18.6	60	1
04/26/17	2:47 p	-19.9	-19.9	-20.0	---	---	2.6	E	0.04	3.5	-24.0	---	---	723.2	0.027	0.000	18.6	60	1
04/26/17	2:48 p	-19.9	-19.9	-20.0	---	---	2.6	E	0.04	3.5	-24.0	---	---	723.2	0.027	0.000	18.6	60	1
04/26/17	2:49 p	-19.9	-19.9	-19.9	---	---	2.6	E	0.04	3.5	-24.0	---	---	723.2	0.027	0.000	18.6	61	1
04/26/17	2:50 p	-19.9	-19.9	-19.9	---	---	2.6	E	0.04	2.6	-24.0	---	---	723.3	0.027	0.000	18.6	60	1
04/26/17	2:51 p	-19.9	-19.9	-19.9	---	---	1.7	E	0.03	2.6	-22.4	---	---	723.2	0.027	0.000	18.6	60	1
04/26/17	2:52 p	-19.9	-19.9	-19.9	---	---	1.7	E	0.03	1.7	-22.4	---	---	723.3	0.027	0.000	18.6	60	1
04/26/17	2:53 p	-19.9	-19.9	-19.9	---	---	1.7	E	0.03	2.6	-22.4	---	---	723.4	0.027	0.000	18.6	60	1
04/26/17	2:54 p	-19.9	-19.8	-19.9	---	---	1.7	E	0.03	2.6	-22.4	---	---	723.3	0.027	0.000	18.6	60	1
04/26/17	2:55 p	-19.9	-19.8	-19.9	---	---	1.7	E	0.03	1.7	-22.4	---	---	723.3	0.027	0.000	18.7	60	1
04/26/17	2:56 p	-19.8	-19.8	-19.8	---	---	0.9	E	0.01	2.6	-19.9	---	---	723.3	0.027	0.000	18.7	60	1
04/26/17	2:57 p	-19.8	-19.8	-19.8	---	---	0.9	ESE	0.01	1.7	-19.9	---	---	723.4	0.027	0.000	18.7	60	1
04/26/17	2:58 p	-19.8	-19.8	-19.8	---	---	1.7	ESE	0.03	2.6	-22.3	---	---	723.3	0.027	0.000	18.7	60	1
04/26/17	2:59 p	-19.8	-19.8	-19.8	---	---	2.6	SE	0.04	2.6	-23.8	---	---	723.3	0.026	0.000	18.7	60	1
04/26/17	3:00 p	-19.8	-19.8	-19.8	---	---	1.7	SE	0.03	2.6	-22.3	---	---	723.3	0.026	0.000	18.7	60	1
04/26/17	3:01 p	-19.8	-19.7	-19.8	---	---	1.7	ESE	0.03	2.6	-22.3	---	---	723.4	0.026	0.000	18.7	60	1
04/26/17	3:02 p	-19.8	-19.8	-19.8	---	---	1.7	ESE	0.03	2.6	-22.3	---	---	723.3	0.026	0.000	18.7	60	1
04/26/17	3:03 p	-19.8	-19.8	-19.8	---	---	2.6	ESE	0.04	3.5	-23.8	---	---	723.3	0.026	0.000	18.7	60	1
04/26/17	3:04 p	-19.8	-19.8	-19.8	---	---	3.5	ESE	0.06	4.3	-24.9	---	---	723.4	0.026	0.000	18.7	60	1
04/26/17	3:05 p	-19.8	-19.7	-19.8	---	---	2.6	ESE	0.04	3.5	-23.8	---	---	723.4	0.026	0.000	18.7	60	1
04/26/17	3:06 p	-19.8	-19.8	-19.8	---	---	2.6	ESE	0.04	2.6	-23.9	---	---	723.4	0.027	0.000	18.7	60	1
04/26/17	3:07 p	-19.8	-19.8	-19.8	---	---	2.6	ESE	0.04	3.5	-23.9	---	---	723.4	0.027	0.000	18.7	60	1
04/26/17	3:08 p	-19.8	-19.8	-19.8	---	---	2.6	ESE	0.04	3.5	-23.9	---	---	723.4	0.027	0.000	18.7	60	1
04/26/17	3:09 p	-19.8	-19.8	-19.8	---	---	2.6	ESE	0.04	3.5	-23.9	---	---	723.4	0.027	0.000	18.7	60	1
04/26/17	3:10 p	-19.8	-19.8	-19.9	---	---	2.6	ESE	0.04	3.5	-23.9	---	---	723.4	0.027	0.000	18.7	60	1
04/26/17	3:11 p	-19.8	-19.8	-19.9	---	---	2.6	E	0.04	3.5	-23.9	---	---	723.4	0.027	0.000	18.6	60	1
04/26/17	3:12 p	-19.9	-19.8	-19.9	---	---	2.6	E	0.04	2.6	-23.9	---	---	723.4	0.027	0.000	18.6	60	1
04/26/17	3:13 p	-19.9	-19.9	-19.9	---	---	1.7	E	0.03	2.6	-22.4	---	---	723.4	0.027	0.000	18.6	60	1
04/26/17	3:14 p	-19.9	-19.9	-19.9	---	---	1.7	E	0.03	2.6	-22.4	---	---	723.4	0.027	0.000	18.6	60	1
04/26/17	3:15 p	-19.9	-19.9	-19.9	---	---	2.6	E	0.04	3.5	-23.9	---	---	723.4	0.027	0.000	18.6	60	1
04/26/17	3:16 p	-19.9	-19.9	-19.9	---	---	2.6	E	0.04	3.5	-23.9	---	---	723.4	0.027	0.000	18.6	60	1
04/26/17	3:17 p	-19.9	-19.9	-19.9	---	---	2.6	E	0.04	3.5	-24.0	---	---	723.4	0.027	0.000	18.6	59	1
04/26/17	3:18 p	-19.9	-19.9	-19.9	---	---	2.6	E	0.04	3.5	-23.9	---	---	723.4	0.027	0.000	18.6	60	1
04/26/17	3:19 p	-19.9	-19.9	-19.9	---	---	2.6	E	0.04	3.5	-23.9	---	---	723.4	0.027	0.000	18.6	59	1
04/26/17	3:20 p	-19.9	-19.9	-19.9	---	---	2.6	E	0.04	3.5	-23.9	---	---	723.4	0.027	0.000	18.7	60	1
04/26/17	3:21 p	-19.9	-19.8	-19.9	---	---	2.6	ENE	0.04	2.6	-23.9	---	---	723.4	0.027	0.000	18.7	60	1
04/26/17	3:22 p	-19.9	-19.8	-19.9	---	---	2.6	ENE	0.04	2.6	-23.9	---	---	723.4	0.027	0.000	18.7	60	1
04/26/17	3:23 p	-19.9	-19.8	-19.9	---	---	1.7	ENE	0.03	2.6	-22.4	---	---	723.5	0.027	0.000	18.7	60	1
04/26/17	3:24 p	-19.8	-19.8	-19.8	---	---	1.7	ENE	0.03	2.6	-22.3	---	---	723.5	0.027	0.000	18.7	60	1
04/26/17	3:25 p	-19.8	-19.8	-19.8	---	---	1.7	ENE	0.03	2.6	-22.3	---	---	723.5	0.027	0.000	18.7	60	1
04/26/17	3:26 p	-19.8	-19.8	-19.8	---	---	2.6	ENE	0.04	2.6	-23.9	---	---	723.5	0.027	0.000	18.7	60	1
04/26/17	3:27 p	-19.8	-19.8	-19.8	---	---	2.6	ENE	0.04	2.6	-23.9	---	---	723.5	0.027	0.000	18.7	60	1
04/26/17	3:28 p	-19.8	-19.8	-19.8	---	---	1.7	NE	0.03	2.6	-22.3	---	---	723.5	0.026	0.000	18.7	60	1
04/26/17	3:29 p	-19.8	-19.7	-19.8	---	---	1.7	ENE	0.03	2.6	-22.3	---	---	723.5	0.026	0.000	18.7	60	1
04/26/17	3:30 p	-19.7	-19.7	-19.7	---	---	0.9	ENE	0.01	1.7	-19.8	---	---	723.6	0.026	0.000	18.7	60	1
04/26/17	3:31 p	-19.7	-19.7	-19.7	---	---	0.0	ENE	0.00	0.9	-19.6	---	---	723.5	0.026	0.000	18.7	60	1
04/26/17	3:32 p	-19.6	-19.6	-19.6	---	---	0.0	---	0.00	0.0	-19.6	---	---	723.5	0.026	0.000	18.7	60	1
04/26/17	3:33 p	-19.6	-19.6	-19.6	---	---	0.0	NE	0.00	0.9	-19.5	---	---	723.6	0.026	0.000	18.6	60	1
04/26/17	3:34 p	-19.6	-19.5	-19.6	---	---	0.9	NE	0.01	1.7	-19.6	---	---	723.6	0.026	0.000	18.6	60	1
04/26/17	3:35 p	-19.5	-19.4	-19.5	---	---	0.9	N	0.01	1.7	-19.6	---	---	723.6	0.026	0.000	18.6	60	1
04/26/17	3:36 p	-19.4	-19.4	-19.5	---	---	1.7	N	0.03	2.6	-21.9	---	---	723.5	0.026	0.000	18.6	60	1
04/26/17	3:37 p	-19.4	-19.4	-19.4	---	---	1.7	NNE	0.03	2.6	-21.9	---	---	723.6	0.026	0.000	18.6	60	1
04/26/17	3:38 p	-19.4	-19.4	-19.4	---	---	1.7	NNE	0.03	1.7	-21.8	---	---	723.5	0.026	0.000	18.6	60	1
04/26/17	3:39 p	-19.3	-19.3	-19.4	---	---	0.9	NNE	0.01	0.9	-19.3	---	---	723.5	0.026	0.000	18.6	60	1
04/26/17	3:40 p	-19.3	-19.3	-19.3	---	---	0.9	NE	0.01	1.7	-19.3	---	---	723.6	0.026	0.000	18.6	60	1
04/26/17	3:41 p	-19.3	-19.3	-19.3	---	---	0.9	NE	0.01	1.7	-19.3	---	---	723.6	0.026	0.000	18.6	60	1
04/26/17	3:42 p	-19.3	-19.2	-19.3	---	---	0.9	NE	0.01	1.7	-19.3	---	---	723.6	0.026	0.000	18.7	60	1
04/26/17	3:43 p	-19.3	-19.2	-19.3	---	---	1.7	ESE	0.03	1.7	-21.7	---	---	723.6	0.026	0.000	18.7	60	1
04/26/17	3:44 p	-19.2	-19.2	-19.2	---	---	1.7	ESE	0.03	1.7	-21.7	---	---	723.6	0.026	0.000	18.7	60	1
04/26/17	3:45 p	-19.2	-19.2	-19.2	---	---	1.7	ESE	0.03	1.7	-21.7	---	---	723.6	0.026	0.000	18.7	60	1
04/26/17	3:46 p	-19.2	-19.2	-19.2	---	---	1.7	SE	0.03	2.6	-21.7	---	---	723.6	0.026	0.000	18.7	60	1
04/26/17	3:47 p	-19.2	-19.2	-19.2	---	---	1.7	SSW	0.03	2.6	-21.7	---	---	723.6	0.026	0.000	18.7	60	1
04/26/17	3:48 p	-19.2	-19.2	-19.3	---	---	1.7	SE	0.03	2.6	-21.7	---	---	723.6	0.026	0.000	18.7	60	1
04/26/17	3:49 p	-19.2	-19.2	-19.2	---	---	1.7	SE	0.03	1.7	-21.7	---	---	723.7	0.026	0.000	18.7	60	1
04/26/17	3:50 p	-19.2	-19.2	-19.3	---	---	1.7	ESE	0.03	2.6	-21.7	---	---	723.6	0.026	0.000	18.7	60	1
04/26/17	3:51 p	-19.3	-19.3	-19.3	---	---	2.6	ESE	0.04	3.5	-23.2	---	---	723.6	0.026	0.000	18.7	60	1
04/26/17	3:52 p	-19.3	-19.3	-19.3	---	---	2.6	ESE	0.04	3.5	-23.2	---	---	723.7	0.026	0.000	18.7	60	1
04/26/17	3:53 p	-19.3	-19.3	-19.3	---	---	2.6	ESE	0.04	2.6	-23.3	---	---	723.7	0.026	0.000	18.7	60	1
04/26/17	3:54 p	-19.4	-19.3	-19.4	---	---	2.6	ESE	0.04	2.6	-23.4	---	---	723.7	0.026	0.000	18.7	60	1
04/26/17	3:55 p	-19.4	-19.4	-19.5	---	---	1.7	SE	0.03	1.7	-21.9	---	---	723.7	0.026	0.000	18.6	60	1
04/26/17	3:56 p	-19.5	-19.5	-19.6	---	---	1.7	SE	0.03	1.7	-21.9	---	---	723.7	0.026	0.000	18.7	60	1
04/26/17	3:57 p	-19.6	-19.6	-19.7	---	---	1.7	ESE	0.03	2.6	-22.1	---	---	723.8	0.026	0.000	18.6	60	1
04/26/17	3:58 p	-19.7	-19.7	-19.7	---	---	1.7	ESE	0.03	1.7	-22.1	---	---	723.7	0.026	0.000	18.6	60	1
04/26/17	3:59 p	-19.8	-19.7	-19.8	---	---	1.7	ESE	0.03	1.7	-22.3	---	---	723.7	0.026	0.000	18.6	60	1
04/26/17	4:00 p	-19.9	-19.8	-19.9	---	---	0.9	ESE	0.01	1.7	-19.9	---	---	723.7	0.027	0.000	18.6	60	1
04/26/17	4:01 p	-19.9	-19.9	-19.9	---	---	0.0	ESE	0.00	0.9	-19.9	---	---	723.6	0.027	0.000	18.6	60	1
04/26/17	4:02 p	-20.0	-20.0	-20.1	---	---	0.9	ESE	0.01	1.7	-20.1	---	---	723.6	0.027	0.000	18.6	59	1
04/26/17	4:03 p	-20.1	-20.1	-20.1	---	---	1.7	SE	0.03	2.6	-22.6	---	---	723.7	0.027	0.000	18.6	60	1
04/26/17	4:04 p	-20.2	-20.2	-20.2	---	---	1.7	ESE	0.03	2.6	-22.7	---	---	723.6	0.027	0.000	18.6	60	1
04/26/17	4:05 p	-20.3	-20.2	-20.3	---	---	2.6	ESE	0.04	3.5	-24.4	---	---	723.5	0.027	0.000	18.6	60	1
04/26/17	4:06 p	-20.3	-20.3	-20.3	---	---	2.6	ESE	0.04	3.5	-24.4	---	---	723.5	0.027	0.000	18.7	60	1
04/26/17	4:07 p	-20.4	-20.4	-20.4	---	---	2.6	ESE	0.04	3.5	-24.5	---	---	723.5	0.027	0.000	18.7	60	1
04/26/17	4:08 p	-20.4	-20.4	-20.5	---	---	2.6	ESE	0.04	3.5	-24.6	---	---	723.5	0.027	0.000	18.7	60	1
04/26/17	4:09 p	-20.5	-20.5	-20.6	---	---	3.5	ESE	0.06	3.5	-25.8	---	---	723.5	0.027	0.000	18.7	60	1
04/26/17	4:10 p	-20.6	-20.6	-20.6	---	---	2.6	ESE	0.04	3.5	-24.7	---	---	723.6	0.027	0.000	18.7	60	1
04/26/17	4:11 p	-20.7	-20.6	-20.7	---	---	1.7	ESE	0.03	2.6	-23.2	---	---	723.5	0.027	0.000	18.7	60	1
04/26/17	4:12 p	-20.7	-20.7	-20.8	---	---	1.7	ESE	0.03	2.6	-23.3	---	---	723.7	0.027	0.000	18.7	60	1
04/26/17	4:13 p	-20.8	-20.8	-20.8	---	---	2.6	ESE	0.04	2.6	-24.9	---	---	723.7	0.027	0.000	18.7	60	1
04/26/17	4:14 p	-20.8	-20.8	-20.9	---	---	1.7	E	0.03	2.6	-23.4	---	---	723.6	0.027	0.000	18.7	60	1
04/26/17	4:15 p	-20.9	-20.9	-20.9	---	---	1.7	ESE	0.03	2.6	-23.5	---	---	723.7	0.027	0.000	18.7	60	1
04/26/17	4:16 p	-20.9	-20.9	-21.0	---	---	1.7	ESE	0.03	2.6	-23.6	---	---	723.7	0.027	0.000	18.7	60	1
04/26/17	4:17 p	-21.0	-21.0	-21.0	---	---	1.7	ESE	0.03	2.6	-23.6	---	---	723.6	0.027	0.000	18.7	60	1
04/26/17	4:18 p	-21.1	-21.1	-21.1	---	---	1.7	ESE	0.03	2.6	-23.7	---	---	723.7	0.027	0.000	18.7	60	1
04/26/17	4:19 p	-21.1	-21.1	-21.1	---	---	1.7	ESE	0.03	1.7	-23.7	---	---	723.7	0.027	0.000	18.7	60	1
04/26/17	4:20 p	-21.2	-21.1	-21.2	---	---	1.7	ESE	0.03	1.7	-23.8	---	---	723.6	0.027	0.000	18.6	60	1
04/26/17	4:21 p	-21.2	-21.2	-21.2	---	---	0.9	ESE	0.01	1.7	-21.3	---	---	723.7	0.027	0.000	18.6	60	1
04/26/17	4:22 p	-21.2	-21.2	-21.2	---	---	0.9	ESE	0.01	1.7	-21.3	---	---	723.7	0.027	0.000	18.6	60	1
04/26/17	4:23 p	-21.2	-21.2	-21.3	---	---	1.7	ESE	0.03	2.6	-23.8	---	---	723.7	0.027	0.000	18.6	60	1
04/26/17	4:24 p	-21.3	-21.3	-21.3	---	---	1.7	ESE	0.03	2.6	-23.9	---	---	723.6	0.028	0.000	18.6	60	1
04/26/17	4:25 p	-21.3	-21.3	-21.3	---	---	1.7	ESE	0.03	2.6	-23.9	---	---	723.7	0.028	0.000	18.6	60	1
04/26/17	4:26 p	-21.3	-21.3	-21.3	---	---	1.7	ESE	0.03	1.7	-23.9	---	---	723.7	0.028	0.000	18.6	60	1
04/26/17	4:27 p	-21.4	-21.3	-21.4	---	---	0.9	SE	0.01	1.7	-21.5	---	---	723.7	0.028	0.000	18.6	60	1
04/26/17	4:28 p	-21.4	-21.3	-21.4	---	---	0.9	SE	0.01	1.7	-21.5	---	---	723.7	0.028	0.000	18.6	60	1
04/26/17	4:29 p	-21.4	-21.4	-21.4	---	---	0.0	SE	0.00	0.9	-21.3	---	---	723.6	0.028	0.000	18.6	60	1
04/26/17	4:30 p	-21.4	-21.4	-21.4	---	---	0.9	SE	0.01	1.7	-21.5	---	---	723.7	0.028	0.000	18.6	60	1
04/26/17	4:31 p	-21.4	-21.4	-21.4	---	---	0.9	ESE	0.01	1.7	-21.5	---	---	723.7	0.028	0.000	18.7	60	1
04/26/17	4:32 p	-21.4	-21.4	-21.4	---	---	0.9	E	0.01	1.7	-21.6	---	---	723.7	0.028	0.000	18.7	60	1
04/26/17	4:33 p	-21.4	-21.4	-21.4	---	---	0.9	ENE	0.01	0.9	-21.6	---	---	723.6	0.028	0.000	18.7	60	1
04/26/17	4:34 p	-21.4	-21.4	-21.4	---	---	0.0	ENE	0.00	0.9	-21.4	---	---	723.7	0.028	0.000	18.7	60	1
04/26/17	4:35 p	-21.4	-21.4	-21.4	---	---	0.0	ENE	0.00	0.9	-21.4	---	---	723.7	0.028	0.000	18.7	60	1
04/26/17	4:36 p	-21.4	-21.4	-21.4	---	---	0.0	ENE	0.00	0.9	-21.4	---	---	723.6	0.028	0.000	18.7	60	1
04/26/17	4:37 p	-21.4	-21.4	-21.4	---	---	0.9	E	0.01	1.7	-21.6	---	---	723.7	0.028	0.000	18.7	60	1
04/26/17	4:38 p	-21.4	-21.4	-21.4	---	---	1.7	E	0.03	2.6	-24.0	---	---	723.6	0.028	0.000	18.7	60	1
04/26/17	4:39 p	-21.4	-21.4	-21.4	---	---	2.6	E	0.04	2.6	-25.7	---	---	723.7	0.028	0.000	18.7	60	1
04/26/17	4:40 p	-21.4	-21.4	-21.4	---	---	2.6	ESE	0.04	3.5	-25.6	---	---	723.7	0.028	0.000	18.7	60	1
04/26/17	4:41 p	-21.4	-21.3	-21.4	---	---	2.6	ESE	0.04	3.5	-25.6	---	---	723.7	0.028	0.000	18.7	60	1
04/26/17	4:42 p	-21.4	-21.3	-21.4	---	---	2.6	ESE	0.04	3.5	-25.6	---	---	723.7	0.028	0.000	18.7	60	1
04/26/17	4:43 p	-21.3	-21.3	-21.4	---	---	2.6	ESE	0.04	3.5	-25.6	---	---	723.7	0.028	0.000	18.6	60	1
04/26/17	4:44 p	-21.3	-21.2	-21.3	---	---	2.6	ESE	0.04	2.6	-25.5	---	---	723.8	0.028	0.000	18.6	60	1
04/26/17	4:45 p	-21.2	-21.2	-21.3	---	---	2.6	ESE	0.04	3.5	-25.4	---	---	723.8	0.027	0.000	18.6	59	1
04/26/17	4:46 p	-21.2	-21.2	-21.2	---	---	2.6	E	0.04	3.5	-25.4	---	---	723.8	0.027	0.000	18.6	59	1
04/26/17	4:47 p	-21.2	-21.1	-21.2	---	---	2.6	E	0.04	3.5	-25.4	---	---	723.7	0.027	0.000	18.6	59	1
04/26/17	4:48 p	-21.2	-21.1	-21.2	---	---	2.6	E	0.04	3.5	-25.4	---	---	723.7	0.027	0.000	18.6	60	1
04/26/17	4:49 p	-21.1	-21.1	-21.1	---	---	2.6	E	0.04	3.5	-25.3	---	---	723.7	0.027	0.000	18.6	59	1
04/26/17	4:50 p	-21.1	-21.0	-21.1	---	---	2.6	ESE	0.04	2.6	-25.3	---	---	723.6	0.027	0.000	18.6	59	1
04/26/17	4:51 p	-21.0	-20.9	-21.0	---	---	2.6	ESE	0.04	2.6	-25.2	---	---	723.7	0.027	0.000	18.6	59	1
04/26/17	4:52 p	-20.9	-20.9	-21.0	---	---	3.5	ESE	0.06	4.3	-26.3	---	---	723.6	0.027	0.000	18.6	59	1
04/26/17	4:53 p	-20.9	-20.9	-20.9	---	---	3.5	SE	0.06	4.3	-26.3	---	---	723.6	0.027	0.000	18.6	59	1
04/26/17	4:54 p	-20.8	-20.8	-20.9	---	---	2.6	ESE	0.04	3.5	-25.0	---	---	723.6	0.027	0.000	18.6	59	1
04/26/17	4:55 p	-20.8	-20.8	-20.8	---	---	2.6	SE	0.04	3.5	-25.0	---	---	723.7	0.027	0.000	18.7	59	1
04/26/17	4:56 p	-20.8	-20.7	-20.8	---	---	0.9	SW	0.01	1.7	-20.9	---	---	723.7	0.027	0.000	18.7	59	1
04/26/17	4:57 p	-20.7	-20.7	-20.7	---	---	0.9	SW	0.01	0.9	-20.8	---	---	723.7	0.027	0.000	18.7	59	1
04/26/17	4:58 p	-20.7	-20.6	-20.7	---	---	0.9	SW	0.01	1.7	-20.8	---	---	723.7	0.027	0.000	18.7	59	1
04/26/17	4:59 p	-20.6	-20.6	-20.6	---	---	0.0	SW	0.00	0.9	-20.6	---	---	723.8	0.027	0.000	18.7	59	1
04/26/17	5:00 p	-20.6	-20.5	-20.6	---	---	0.0	SW	0.00	0.9	-20.5	---	---	723.7	0.027	0.000	18.7	59	1
04/26/17	5:01 p	-20.5	-20.5	-20.5	---	---	0.0	---	0.00	0.0	-20.4	---	---	723.7	0.027	0.000	18.7	59	1
04/26/17	5:02 p	-20.5	-20.4	-20.5	---	---	0.0	---	0.00	0.0	-20.4	---	---	723.7	0.027	0.000	18.7	59	1
04/26/17	5:03 p	-20.4	-20.4	-20.4	---	---	0.9	WNW	0.01	1.7	-20.5	---	---	723.7	0.027	0.000	18.7	59	1
04/26/17	5:04 p	-20.4	-20.4	-20.4	---	---	1.7	NW	0.03	1.7	-23.0	---	---	723.8	0.027	0.000	18.7	59	1
04/26/17	5:05 p	-20.4	-20.4	-20.4	---	---	0.9	NW	0.01	1.7	-20.4	---	---	723.8	0.027	0.000	18.7	59	1
04/26/17	5:06 p	-20.4	-20.3	-20.4	---	---	0.9	NW	0.01	1.7	-20.4	---	---	723.8	0.027	0.000	18.7	59	1
04/26/17	5:07 p	-20.3	-20.3	-20.3	---	---	0.9	NW	0.01	0.9	-20.4	---	---	723.8	0.027	0.000	18.7	59	1
04/26/17	5:08 p	-20.3	-20.3	-20.3	---	---	0.0	NW	0.00	0.9	-20.3	---	---	723.8	0.027	0.000	18.6	59	1
04/26/17	5:09 p	-20.3	-20.3	-20.3	---	---	0.9	ENE	0.01	1.7	-20.3	---	---	723.9	0.027	0.000	18.6	59	1
04/26/17	5:10 p	-20.3	-20.2	-20.3	---	---	0.0	E	0.00	0.9	-20.2	---	---	723.9	0.027	0.000	18.6	59	1
04/26/17	5:11 p	-20.2	-20.2	-20.3	---	---	0.0	E	0.00	0.9	-20.2	---	---	723.9	0.027	0.000	18.6	59	1
04/26/17	5:12 p	-20.2	-20.2	-20.2	---	---	0.0	E	0.00	0.9	-20.2	---	---	723.9	0.027	0.000	18.6	59	1
04/26/17	5:13 p	-20.2	-20.2	-20.2	---	---	0.9	E	0.01	0.9	-20.2	---	---	723.9	0.027	0.000	18.6	59	1
04/26/17	5:14 p	-20.2	-20.1	-20.2	---	---	0.9	E	0.01	0.9	-20.2	---	---	723.9	0.027	0.000	18.6	59	1
04/26/17	5:15 p	-20.1	-20.1	-20.2	---	---	0.0	E	0.00	0.9	-20.1	---	---	723.9	0.027	0.000	18.6	59	1
04/26/17	5:16 p	-20.1	-20.1	-20.1	---	---	0.0	---	0.00	0.0	-20.1	---	---	723.9	0.027	0.000	18.6	59	1
04/26/17	5:17 p	-20.1	-20.1	-20.1	---	---	0.0	---	0.00	0.0	-20.1	---	---	723.9	0.027	0.000	18.6	59	1
04/26/17	5:18 p	-20.1	-20.1	-20.1	---	---	0.0	---	0.00	0.0	-20.1	---	---	723.8	0.027	0.000	18.6	59	1
04/26/17	5:19 p	-20.1	-20.1	-20.1	---	---	0.0	E	0.00	0.9	-20.1	---	---	723.9	0.027	0.000	18.6	59	1
04/26/17	5:20 p	-20.1	-20.1	-20.1	---	---	0.9	ESE	0.01	1.7	-20.1	---	---	723.9	0.027	0.000	18.6	59	1
04/26/17	5:21 p	-20.1	-20.1	-20.1	---	---	1.7	ESE	0.03	1.7	-22.6	---	---	724.0	0.027	0.000	18.6	60	1
04/26/17	5:22 p	-20.1	-20.1	-20.1	---	---	0.9	E	0.01	1.7	-20.1	---	---	723.9	0.027	0.000	18.7	60	1
04/26/17	5:23 p	-20.1	-20.1	-20.1	---	---	0.9	E	0.01	1.7	-20.1	---	---	723.8	0.027	0.000	18.7	60	1
04/26/17	5:24 p	-20.1	-20.1	-20.1	---	---	0.9	ESE	0.01	1.7	-20.1	---	---	723.9	0.027	0.000	18.7	60	1
04/26/17	5:25 p	-20.1	-20.1	-20.1	---	---	1.7	E	0.03	2.6	-22.6	---	---	723.9	0.027	0.000	18.7	60	1
04/26/17	5:26 p	-20.1	-20.1	-20.1	---	---	2.6	E	0.04	2.6	-24.1	---	---	723.8	0.027	0.000	18.7	60	1
04/26/17	5:27 p	-20.1	-20.1	-20.1	---	---	2.6	E	0.04	2.6	-24.2	---	---	723.9	0.027	0.000	18.7	60	1
04/26/17	5:28 p	-20.1	-20.1	-20.1	---	---	2.6	E	0.04	2.6	-24.2	---	---	723.9	0.027	0.000	18.7	60	1
04/26/17	5:29 p	-20.1	-20.1	-20.1	---	---	2.6	E	0.04	3.5	-24.2	---	---	723.8	0.027	0.000	18.7	60	1
04/26/17	5:30 p	-20.1	-20.1	-20.2	---	---	2.6	E	0.04	3.5	-24.2	---	---	723.8	0.027	0.000	18.6	60	1
04/26/17	5:31 p	-20.2	-20.1	-20.2	---	---	2.6	ESE	0.04	3.5	-24.2	---	---	723.9	0.027	0.000	18.6	59	1
04/26/17	5:32 p	-20.2	-20.2	-20.2	---	---	2.6	ESE	0.04	3.5	-24.2	---	---	723.8	0.027	0.000	18.6	60	1
04/26/17	5:33 p	-20.2	-20.2	-20.2	---	---	2.6	ESE	0.04	3.5	-24.2	---	---	723.9	0.027	0.000	18.6	60	1
04/26/17	5:34 p	-20.2	-20.2	-20.2	---	---	3.5	E	0.06	3.5	-25.5	---	---	723.8	0.027	0.000	18.6	60	1
04/26/17	5:35 p	-20.2	-20.2	-20.3	---	---	3.5	E	0.06	4.3	-25.5	---	---	723.9	0.027	0.000	18.6	59	1
04/26/17	5:36 p	-20.3	-20.3	-20.3	---	---	3.5	E	0.06	3.5	-25.6	---	---	723.9	0.027	0.000	18.6	60	1
04/26/17	5:37 p	-20.3	-20.3	-20.3	---	---	3.5	E	0.06	4.3	-25.6	---	---	723.9	0.027	0.000	18.5	60	1
04/26/17	5:38 p	-20.3	-20.3	-20.3	---	---	3.5	E	0.06	4.3	-25.6	---	---	723.9	0.027	0.000	18.5	60	1
04/26/17	5:39 p	-20.4	-20.3	-20.4	---	---	3.5	E	0.06	3.5	-25.7	---	---	723.9	0.027	0.000	18.5	60	1
04/26/17	5:40 p	-20.4	-20.4	-20.4	---	---	3.5	E	0.06	3.5	-25.7	---	---	723.9	0.027	0.000	18.5	60	1
04/26/17	5:41 p	-20.4	-20.4	-20.4	---	---	3.5	E	0.06	3.5	-25.7	---	---	723.9	0.027	0.000	18.6	60	1
04/26/17	5:42 p	-20.5	-20.4	-20.5	---	---	3.5	E	0.06	4.3	-25.8	---	---	723.9	0.027	0.000	18.6	60	1
04/26/17	5:43 p	-20.5	-20.5	-20.6	---	---	2.6	ESE	0.04	3.5	-24.6	---	---	724.0	0.027	0.000	18.6	60	1
04/26/17	5:44 p	-20.6	-20.5	-20.6	---	---	2.6	E	0.04	3.5	-24.7	---	---	723.9	0.027	0.000	18.6	60	1
04/26/17	5:45 p	-20.6	-20.6	-20.6	---	---	2.6	ESE	0.04	3.5	-24.7	---	---	723.9	0.027	0.000	18.6	60	1
04/26/17	5:46 p	-20.6	-20.6	-20.6	---	---	2.6	ESE	0.04	3.5	-24.7	---	---	723.9	0.027	0.000	18.7	60	1
04/26/17	5:47 p	-20.6	-20.6	-20.7	---	---	2.6	ESE	0.04	2.6	-24.7	---	---	723.9	0.027	0.000	18.7	60	1
04/26/17	5:48 p	-20.7	-20.6	-20.7	---	---	2.6	E	0.04	2.6	-24.8	---	---	723.8	0.027	0.000	18.7	59	1
04/26/17	5:49 p	-20.7	-20.7	-20.7	---	---	2.6	E	0.04	2.6	-24.8	---	---	723.8	0.027	0.000	18.7	60	1
04/26/17	5:50 p	-20.7	-20.7	-20.7	---	---	1.7	ESE	0.03	2.6	-23.2	---	---	723.9	0.027	0.000	18.7	59	1
04/26/17	5:51 p	-20.7	-20.6	-20.7	---	---	1.7	E	0.03	2.6	-23.2	---	---	723.8	0.027	0.000	18.7	60	1
04/26/17	5:52 p	-20.7	-20.7	-20.7	---	---	1.7	E	0.03	2.6	-23.3	---	---	724.0	0.027	0.000	18.7	60	1
04/26/17	5:53 p	-20.7	-20.7	-20.7	---	---	1.7	E	0.03	2.6	-23.3	---	---	723.9	0.027	0.000	18.7	60	1
04/26/17	5:54 p	-20.7	-20.7	-20.7	---	---	1.7	E	0.03	2.6	-23.3	---	---	723.9	0.027	0.000	18.7	59	1
04/26/17	5:55 p	-20.7	-20.7	-20.7	---	---	1.7	E	0.03	2.6	-23.3	---	---	724.0	0.027	0.000	18.6	60	1
04/26/17	5:56 p	-20.7	-20.7	-20.7	---	---	1.7	E	0.03	2.6	-23.3	---	---	724.0	0.027	0.000	18.6	60	1
04/26/17	5:57 p	-20.7	-20.7	-20.7	---	---	1.7	E	0.03	1.7	-23.3	---	---	724.0	0.027	0.000	18.6	60	1
04/26/17	5:58 p	-20.7	-20.7	-20.7	---	---	0.9	E	0.01	1.7	-20.8	---	---	723.9	0.027	0.000	18.6	60	1
04/26/17	5:59 p	-20.7	-20.7	-20.7	---	---	1.7	E	0.03	1.7	-23.2	---	---	724.1	0.027	0.000	18.6	60	1
04/26/17	6:00 p	-20.7	-20.6	-20.7	---	---	1.7	E	0.03	1.7	-23.2	---	---	724.1	0.027	0.000	18.5	59	1
04/26/17	6:01 p	-20.6	-20.6	-20.7	---	---	1.7	E	0.03	1.7	-23.2	---	---	724.0	0.027	0.000	18.5	60	1
04/26/17	6:02 p	-20.6	-20.6	-20.6	---	---	1.7	E	0.03	1.7	-23.2	---	---	724.1	0.027	0.000	18.5	60	1
04/26/17	6:03 p	-20.6	-20.6	-20.6	---	---	0.9	E	0.01	1.7	-20.7	---	---	724.0	0.027	0.000	18.5	60	1
04/26/17	6:04 p	-20.6	-20.6	-20.6	---	---	0.9	E	0.01	1.7	-20.7	---	---	724.1	0.027	0.000	18.5	60	1
04/26/17	6:05 p	-20.6	-20.5	-20.6	---	---	0.9	E	0.01	1.7	-20.7	---	---	724.1	0.027	0.000	18.5	60	1
04/26/17	6:06 p	-20.5	-20.5	-20.5	---	---	0.9	ENE	0.01	1.7	-20.6	---	---	724.2	0.027	0.000	18.6	60	1
04/26/17	6:07 p	-20.5	-20.4	-20.5	---	---	0.9	ENE	0.01	1.7	-20.6	---	---	724.1	0.027	0.000	18.6	60	1
04/26/17	6:08 p	-20.4	-20.4	-20.4	---	---	0.9	ENE	0.01	0.9	-20.5	---	---	724.1	0.027	0.000	18.6	60	1
04/26/17	6:09 p	-20.4	-20.4	-20.4	---	---	0.0	ENE	0.00	0.9	-20.4	---	---	724.1	0.027	0.000	18.6	60	1
04/26/17	6:10 p	-20.4	-20.4	-20.4	---	---	0.0	ENE	0.00	0.9	-20.3	---	---	724.0	0.027	0.000	18.6	60	1
04/26/17	6:11 p	-20.4	-20.4	-20.4	---	---	0.9	ENE	0.01	1.7	-20.4	---	---	724.0	0.027	0.000	18.6	60	1
04/26/17	6:12 p	-20.3	-20.3	-20.3	---	---	0.0	ENE	0.00	0.9	-20.3	---	---	724.1	0.027	0.000	18.7	60	1
04/26/17	6:13 p	-20.3	-20.3	-20.3	---	---	0.0	ENE	0.00	0.9	-20.3	---	---	724.1	0.027	0.000	18.7	60	1
04/26/17	6:14 p	-20.3	-20.3	-20.3	---	---	0.9	ENE	0.01	0.9	-20.3	---	---	724.1	0.027	0.000	18.7	60	1
04/26/17	6:15 p	-20.3	-20.3	-20.3	---	---	0.9	ENE	0.01	1.7	-20.3	---	---	724.1	0.027	0.000	18.7	60	1
04/26/17	6:16 p	-20.3	-20.2	-20.3	---	---	0.9	NNE	0.01	1.7	-20.3	---	---	724.0	0.027	0.000	18.7	60	1
04/26/17	6:17 p	-20.2	-20.2	-20.3	---	---	0.9	N	0.01	1.7	-20.3	---	---	724.1	0.027	0.000	18.7	60	1
04/26/17	6:18 p	-20.2	-20.2	-20.3	---	---	0.9	N	0.01	1.7	-20.3	---	---	724.2	0.027	0.000	18.6	60	1
04/26/17	6:19 p	-20.2	-20.2	-20.2	---	---	0.9	N	0.01	1.7	-20.3	---	---	724.1	0.027	0.000	18.6	60	1
04/26/17	6:20 p	-20.2	-20.2	-20.2	---	---	0.9	N	0.01	1.7	-20.2	---	---	724.2	0.027	0.000	18.6	60	1
04/26/17	6:21 p	-20.2	-20.2	-20.2	---	---	0.9	N	0.01	0.9	-20.3	---	---	724.2	0.027	0.000	18.6	60	1
04/26/17	6:22 p	-20.2	-20.2	-20.2	---	---	0.9	N	0.01	0.9	-20.2	---	---	724.1	0.027	0.000	18.6	60	1
04/26/17	6:23 p	-20.2	-20.2	-20.2	---	---	0.9	N	0.01	1.7	-20.2	---	---	724.1	0.027	0.000	18.6	60	1
04/26/17	6:24 p	-20.2	-20.2	-20.2	---	---	0.9	N	0.01	1.7	-20.2	---	---	724.2	0.027	0.000	18.5	60	1
04/26/17	6:25 p	-20.2	-20.2	-20.2	---	---	0.9	N	0.01	1.7	-20.3	---	---	724.2	0.027	0.000	18.5	60	1
04/26/17	6:26 p	-20.2	-20.2	-20.2	---	---	0.9	N	0.01	1.7	-20.2	---	---	724.2	0.027	0.000	18.5	60	1
04/26/17	6:27 p	-20.2	-20.2	-20.2	---	---	0.9	N	0.01	1.7	-20.3	---	---	724.2	0.027	0.000	18.5	60	1
04/26/17	6:28 p	-20.2	-20.2	-20.2	---	---	0.9	N	0.01	1.7	-20.3	---	---	724.3	0.027	0.000	18.5	60	1
04/26/17	6:29 p	-20.2	-20.2	-20.2	---	---	0.9	N	0.01	1.7	-20.3	---	---	724.3	0.027	0.000	18.5	60	1
04/26/17	6:30 p	-20.2	-20.2	-20.2	---	---	0.9	N	0.01	1.7	-20.3	---	---	724.3	0.027	0.000	18.6	60	1
04/26/17	6:31 p	-20.2	-20.2	-20.2	---	---	0.0	N	0.00	0.9	-20.1	---	---	724.3	0.027	0.000	18.6	60	1
04/26/17	6:32 p	-20.2	-20.2	-20.2	---	---	0.0	N	0.00	0.9	-20.2	---	---	724.3	0.027	0.000	18.6	60	1
04/26/17	6:33 p	-20.2	-20.2	-20.2	---	---	0.0	N	0.00	0.9	-20.1	---	---	724.4	0.027	0.000	18.6	60	1
04/26/17	6:34 p	-20.2	-20.2	-20.2	---	---	0.0	N	0.00	0.9	-20.1	---	---	724.4	0.027	0.000	18.6	60	1
04/26/17	6:35 p	-20.2	-20.2	-20.2	---	---	0.0	N	0.00	0.9	-20.2	---	---	724.3	0.027	0.000	18.6	60	1
04/26/17	6:36 p	-20.2	-20.2	-20.2	---	---	0.9	N	0.01	0.9	-20.2	---	---	724.4	0.027	0.000	18.6	60	1
04/26/17	6:37 p	-20.2	-20.2	-20.2	---	---	0.0	N	0.00	0.9	-20.1	---	---	724.3	0.027	0.000	18.7	60	1
04/26/17	6:38 p	-20.2	-20.2	-20.2	---	---	0.0	---	0.00	0.0	-20.1	---	---	724.4	0.027	0.000	18.7	60	1
04/26/17	6:39 p	-20.2	-20.2	-20.2	---	---	0.0	---	0.00	0.0	-20.1	---	---	724.4	0.027	0.000	18.7	60	1
04/26/17	6:40 p	-20.2	-20.2	-20.2	---	---	0.0	---	0.00	0.0	-20.1	---	---	724.4	0.027	0.000	18.7	60	1
04/26/17	6:41 p	-20.2	-20.2	-20.2	---	---	0.0	---	0.00	0.9	-20.1	---	---	724.4	0.027	0.000	18.7	60	1
04/26/17	6:42 p	-20.2	-20.2	-20.2	---	---	0.9	N	0.01	0.9	-20.2	---	---	724.5	0.027	0.000	18.7	60	1
04/26/17	6:43 p	-20.2	-20.2	-20.2	---	---	0.9	N	0.01	0.9	-20.2	---	---	724.4	0.027	0.000	18.7	60	1
04/26/17	6:44 p	-20.2	-20.2	-20.2	---	---	0.9	N	0.01	0.9	-20.2	---	---	724.5	0.027	0.000	18.7	60	1
04/26/17	6:45 p	-20.2	-20.2	-20.2	---	---	0.0	N	0.00	0.9	-20.2	---	---	724.5	0.027	0.000	18.6	60	1
04/26/17	6:46 p	-20.2	-20.2	-20.2	---	---	0.0	N	0.00	0.9	-20.2	---	---	724.5	0.027	0.000	18.6	60	1
04/26/17	6:47 p	-20.2	-20.2	-20.2	---	---	0.0	N	0.00	0.9	-20.2	---	---	724.4	0.027	0.000	18.6	60	1
04/26/17	6:48 p	-20.2	-20.2	-20.3	---	---	0.0	---	0.00	0.0	-20.2	---	---	724.5	0.027	0.000	18.6	60	1
04/26/17	6:49 p	-20.3	-20.3	-20.3	---	---	0.0	---	0.00	0.0	-20.2	---	---	724.4	0.027	0.000	18.6	60	1
04/26/17	6:50 p	-20.3	-20.3	-20.3	---	---	0.0	---	0.00	0.0	-20.2	---	---	724.5	0.027	0.000	18.5	60	1
04/26/17	6:51 p	-20.3	-20.3	-20.3	---	---	0.0	---	0.00	0.9	-20.2	---	---	724.6	0.027	0.000	18.5	60	1
04/26/17	6:52 p	-20.3	-20.3	-20.3	---	---	0.0	N	0.00	0.9	-20.3	---	---	724.5	0.027	0.000	18.5	60	1
04/26/17	6:53 p	-20.3	-20.3	-20.3	---	---	0.0	N	0.00	0.9	-20.3	---	---	724.5	0.027	0.000	18.5	60	1
04/26/17	6:54 p	-20.3	-20.3	-20.4	---	---	0.0	N	0.00	0.9	-20.3	---	---	724.6	0.027	0.000	18.5	60	1
04/26/17	6:55 p	-20.4	-20.3	-20.4	---	---	0.0	N	0.00	0.9	-20.3	---	---	724.6	0.027	0.000	18.5	60	1
04/26/17	6:56 p	-20.4	-20.4	-20.4	---	---	0.9	N	0.01	0.9	-20.4	---	---	724.6	0.027	0.000	18.5	59	1
04/26/17	6:57 p	-20.4	-20.4	-20.4	---	---	0.9	N	0.01	0.9	-20.5	---	---	724.5	0.027	0.000	18.5	59	1
04/26/17	6:58 p	-20.4	-20.4	-20.4	---	---	0.0	N	0.00	0.9	-20.4	---	---	724.6	0.027	0.000	18.6	59	1
04/26/17	6:59 p	-20.4	-20.4	-20.5	---	---	0.9	N	0.01	0.9	-20.5	---	---	724.6	0.027	0.000	18.6	59	1
04/26/17	7:00 p	-20.5	-20.4	-20.5	---	---	0.9	N	0.01	0.9	-20.6	---	---	724.5	0.027	0.000	18.6	59	1
04/26/17	7:01 p	-20.5	-20.5	-20.5	---	---	0.0	N	0.00	0.9	-20.4	---	---	724.6	0.027	0.000	18.6	59	1
04/26/17	7:02 p	-20.5	-20.5	-20.5	---	---	0.0	N	0.00	0.9	-20.4	---	---	724.6	0.027	0.000	18.6	60	1
04/26/17	7:03 p	-20.5	-20.5	-20.5	---	---	0.0	N	0.00	0.9	-20.4	---	---	724.5	0.027	0.000	18.6	60	1
04/26/17	7:04 p	-20.5	-20.5	-20.6	---	---	0.0	N	0.00	0.9	-20.4	---	---	724.5	0.027	0.000	18.6	59	1
04/26/17	7:05 p	-20.6	-20.5	-20.6	---	---	0.0	N	0.00	0.9	-20.5	---	---	724.6	0.027	0.000	18.7	60	1
04/26/17	7:06 p	-20.6	-20.5	-20.6	---	---	0.9	N	0.01	0.9	-20.7	---	---	724.6	0.027	0.000	18.6	60	1
04/26/17	7:07 p	-20.6	-20.6	-20.6	---	---	0.9	N	0.01	0.9	-20.7	---	---	724.5	0.027	0.000	18.6	60	1
04/26/17	7:08 p	-20.6	-20.6	-20.6	---	---	0.9	N	0.01	0.9	-20.7	---	---	724.6	0.027	0.000	18.6	60	1
04/26/17	7:09 p	-20.6	-20.6	-20.6	---	---	0.0	N	0.00	0.9	-20.5	---	---	724.6	0.027	0.000	18.6	60	1
04/26/17	7:10 p	-20.6	-20.6	-20.6	---	---	0.9	N	0.01	0.9	-20.7	---	---	724.6	0.027	0.000	18.6	60	1
04/26/17	7:11 p	-20.6	-20.6	-20.6	---	---	0.9	N	0.01	1.7	-20.7	---	---	724.5	0.027	0.000	18.6	60	1
04/26/17	7:12 p	-20.6	-20.6	-20.7	---	---	0.9	N	0.01	0.9	-20.7	---	---	724.6	0.027	0.000	18.6	60	1
04/26/17	7:13 p	-20.6	-20.6	-20.7	---	---	0.9	N	0.01	0.9	-20.7	---	---	724.6	0.027	0.000	18.6	60	1
04/26/17	7:14 p	-20.7	-20.7	-20.7	---	---	0.9	N	0.01	0.9	-20.8	---	---	724.5	0.027	0.000	18.6	60	1
04/26/17	7:15 p	-20.7	-20.7	-20.7	---	---	0.9	N	0.01	0.9	-20.8	---	---	724.6	0.027	0.000	18.5	60	1
04/26/17	7:16 p	-20.7	-20.7	-20.7	---	---	0.9	N	0.01	1.7	-20.8	---	---	724.6	0.027	0.000	18.5	60	1
04/26/17	7:17 p	-20.7	-20.7	-20.7	---	---	0.9	N	0.01	1.7	-20.8	---	---	724.5	0.027	0.000	18.5	60	1
04/26/17	7:18 p	-20.7	-20.7	-20.7	---	---	0.9	N	0.01	1.7	-20.8	---	---	724.6	0.027	0.000	18.5	60	1
04/26/17	7:19 p	-20.8	-20.7	-20.8	---	---	0.0	N	0.00	0.9	-20.7	---	---	724.6	0.027	0.000	18.5	60	1
04/26/17	7:20 p	-20.8	-20.7	-20.8	---	---	0.9	N	0.01	0.9	-20.9	---	---	724.5	0.027	0.000	18.5	60	1
04/26/17	7:21 p	-20.7	-20.7	-20.8	---	---	0.9	N	0.01	0.9	-20.8	---	---	724.6	0.027	0.000	18.5	60	1
04/26/17	7:22 p	-20.7	-20.7	-20.8	---	---	0.9	N	0.01	0.9	-20.8	---	---	724.6	0.027	0.000	18.6	60	1
04/26/17	7:23 p	-20.8	-20.7	-20.8	---	---	0.9	N	0.01	1.7	-20.9	---	---	724.6	0.027	0.000	18.6	60	1
04/26/17	7:24 p	-20.8	-20.7	-20.8	---	---	0.9	N	0.01	1.7	-20.9	---	---	724.7	0.027	0.000	18.6	60	1
04/26/17	7:25 p	-20.8	-20.7	-20.8	---	---	0.9	N	0.01	1.7	-20.9	---	---	724.7	0.027	0.000	18.6	60	1
04/26/17	7:26 p	-20.7	-20.7	-20.8	---	---	0.9	N	0.01	1.7	-20.8	---	---	724.6	0.027	0.000	18.6	60	1
04/26/17	7:27 p	-20.7	-20.7	-20.7	---	---	0.9	N	0.01	0.9	-20.8	---	---	724.6	0.027	0.000	18.6	60	1
04/26/17	7:28 p	-20.7	-20.7	-20.7	---	---	0.9	N	0.01	0.9	-20.8	---	---	724.6	0.027	0.000	18.7	60	1
04/26/17	7:29 p	-20.7	-20.7	-20.7	---	---	0.9	N	0.01	0.9	-20.8	---	---	724.6	0.027	0.000	18.7	60	1
04/26/17	7:30 p	-20.7	-20.6	-20.7	---	---	0.9	N	0.01	0.9	-20.8	---	---	724.7	0.027	0.000	18.7	60	1
04/26/17	7:31 p	-20.7	-20.6	-20.7	---	---	0.9	N	0.01	0.9	-20.8	---	---	724.7	0.027	0.000	18.7	60	1
04/26/17	7:32 p	-20.6	-20.6	-20.6	---	---	0.0	N	0.00	0.9	-20.6	---	---	724.6	0.027	0.000	18.7	60	1
04/26/17	7:33 p	-20.6	-20.6	-20.6	---	---	0.0	N	0.00	0.9	-20.5	---	---	724.6	0.027	0.000	18.6	60	1
04/26/17	7:34 p	-20.6	-20.6	-20.6	---	---	0.9	N	0.01	0.9	-20.7	---	---	724.6	0.027	0.000	18.6	60	1
04/26/17	7:35 p	-20.6	-20.6	-20.6	---	---	0.9	N	0.01	1.7	-20.7	---	---	724.6	0.027	0.000	18.6	60	1
04/26/17	7:36 p	-20.5	-20.5	-20.5	---	---	0.9	N	0.01	1.7	-20.6	---	---	724.7	0.027	0.000	18.6	60	1
04/26/17	7:37 p	-20.5	-20.5	-20.6	---	---	0.9	N	0.01	1.7	-20.6	---	---	724.6	0.027	0.000	18.6	60	1
04/26/17	7:38 p	-20.5	-20.5	-20.6	---	---	0.9	N	0.01	1.7	-20.6	---	---	724.6	0.027	0.000	18.6	60	1
04/26/17	7:39 p	-20.5	-20.5	-20.5	---	---	1.7	N	0.03	1.7	-23.1	---	---	724.6	0.027	0.000	18.6	60	1
04/26/17	7:40 p	-20.5	-20.5	-20.5	---	---	0.9	N	0.01	1.7	-20.6	---	---	724.6	0.027	0.000	18.5	60	1
04/26/17	7:41 p	-20.5	-20.5	-20.5	---	---	0.9	N	0.01	1.7	-20.6	---	---	724.6	0.027	0.000	18.5	60	1
04/26/17	7:42 p	-20.5	-20.5	-20.6	---	---	0.9	N	0.01	1.7	-20.6	---	---	724.6	0.027	0.000	18.5	60	1
04/26/17	7:43 p	-20.6	-20.5	-20.6	---	---	0.9	N	0.01	1.7	-20.7	---	---	724.6	0.027	0.000	18.5	60	1
04/26/17	7:44 p	-20.6	-20.6	-20.6	---	---	0.9	N	0.01	0.9	-20.7	---	---	724.6	0.027	0.000	18.5	60	1
04/26/17	7:45 p	-20.6	-20.6	-20.6	---	---	0.0	N	0.00	0.9	-20.5	---	---	724.7	0.027	0.000	18.5	61	1
04/26/17	7:46 p	-20.6	-20.6	-20.6	---	---	0.9	N	0.01	1.7	-20.7	---	---	724.7	0.027	0.000	18.6	61	1
04/26/17	7:47 p	-20.6	-20.6	-20.6	---	---	0.9	N	0.01	1.7	-20.7	---	---	724.6	0.027	0.000	18.6	61	1
04/26/17	7:48 p	-20.6	-20.6	-20.6	---	---	0.9	N	0.01	1.7	-20.7	---	---	724.6	0.027	0.000	18.6	60	1
04/26/17	7:49 p	-20.6	-20.6	-20.6	---	---	0.9	N	0.01	1.7	-20.7	---	---	724.6	0.027	0.000	18.6	61	1
04/26/17	7:50 p	-20.6	-20.6	-20.6	---	---	0.9	N	0.01	0.9	-20.7	---	---	724.6	0.027	0.000	18.6	60	1
04/26/17	7:51 p	-20.6	-20.6	-20.6	---	---	0.9	N	0.01	0.9	-20.7	---	---	724.7	0.027	0.000	18.6	61	1
04/26/17	7:52 p	-20.6	-20.6	-20.6	---	---	0.9	N	0.01	0.9	-20.7	---	---	724.6	0.027	0.000	18.7	61	1
04/26/17	7:53 p	-20.6	-20.6	-20.6	---	---	0.9	N	0.01	1.7	-20.7	---	---	724.6	0.027	0.000	18.7	61	1
04/26/17	7:54 p	-20.6	-20.5	-20.6	---	---	0.9	N	0.01	1.7	-20.7	---	---	724.7	0.027	0.000	18.7	61	1
04/26/17	7:55 p	-20.5	-20.5	-20.5	---	---	0.9	N	0.01	0.9	-20.6	---	---	724.8	0.027	0.000	18.6	60	1
04/26/17	7:56 p	-20.5	-20.4	-20.5	---	---	1.7	N	0.03	1.7	-23.1	---	---	724.7	0.027	0.000	18.6	60	1
04/26/17	7:57 p	-20.4	-20.4	-20.5	---	---	0.9	N	0.01	1.7	-20.5	---	---	724.7	0.027	0.000	18.6	60	1
04/26/17	7:58 p	-20.4	-20.4	-20.4	---	---	0.9	N	0.01	1.7	-20.5	---	---	724.7	0.027	0.000	18.6	61	1
04/26/17	7:59 p	-20.4	-20.4	-20.4	---	---	0.9	N	0.01	1.7	-20.4	---	---	724.6	0.027	0.000	18.6	60	1
04/26/17	8:00 p	-20.4	-20.3	-20.4	---	---	0.0	N	0.00	0.9	-20.3	---	---	724.8	0.027	0.000	18.6	60	1
04/26/17	8:01 p	-20.3	-20.3	-20.3	---	---	0.0	N	0.00	0.9	-20.3	---	---	724.7	0.027	0.000	18.6	60	1
04/26/17	8:02 p	-20.3	-20.3	-20.3	---	---	0.0	N	0.00	0.9	-20.3	---	---	724.7	0.027	0.000	18.5	60	1
04/26/17	8:03 p	-20.3	-20.3	-20.3	---	---	0.9	N	0.01	0.9	-20.3	---	---	724.7	0.027	0.000	18.5	60	1
04/26/17	8:04 p	-20.3	-20.3	-20.3	---	---	0.0	N	0.00	0.9	-20.2	---	---	724.6	0.027	0.000	18.5	61	1
04/26/17	8:05 p	-20.3	-20.3	-20.3	---	---	0.9	N	0.01	1.7	-20.3	---	---	724.6	0.027	0.000	18.4	61	1
04/26/17	8:06 p	-20.3	-20.3	-20.3	---	---	0.9	N	0.01	1.7	-20.3	---	---	724.6	0.027	0.000	18.4	60	1
04/26/17	8:07 p	-20.3	-20.3	-20.3	---	---	0.9	N	0.01	0.9	-20.3	---	---	724.7	0.027	0.000	18.4	60	1
04/26/17	8:08 p	-20.3	-20.2	-20.3	---	---	0.9	N	0.01	0.9	-20.3	---	---	724.8	0.027	0.000	18.5	60	1
04/26/17	8:09 p	-20.3	-20.3	-20.3	---	---	0.9	N	0.01	0.9	-20.3	---	---	724.7	0.027	0.000	18.5	60	1
04/26/17	8:10 p	-20.3	-20.3	-20.3	---	---	0.9	N	0.01	1.7	-20.3	---	---	724.8	0.027	0.000	18.5	60	1
04/26/17	8:11 p	-20.3	-20.3	-20.3	---	---	0.9	N	0.01	1.7	-20.3	---	---	724.7	0.027	0.000	18.5	60	1
04/26/17	8:12 p	-20.3	-20.3	-20.3	---	---	0.9	N	0.01	1.7	-20.4	---	---	724.8	0.027	0.000	18.6	60	1
04/26/17	8:13 p	-20.3	-20.3	-20.3	---	---	0.9	N	0.01	1.7	-20.4	---	---	724.7	0.027	0.000	18.6	60	1
04/26/17	8:14 p	-20.3	-20.3	-20.4	---	---	1.7	N	0.03	1.7	-22.9	---	---	724.7	0.027	0.000	18.6	60	1
04/26/17	8:15 p	-20.3	-20.3	-20.4	---	---	0.9	N	0.01	1.7	-20.4	---	---	724.8	0.027	0.000	18.6	60	1
04/26/17	8:16 p	-20.4	-20.4	-20.4	---	---	0.9	N	0.01	1.7	-20.4	---	---	724.8	0.027	0.000	18.6	60	1
04/26/17	8:17 p	-20.4	-20.4	-20.4	---	---	1.7	N	0.03	1.7	-22.9	---	---	724.8	0.027	0.000	18.6	60	1
04/26/17	8:18 p	-20.4	-20.4	-20.4	---	---	0.9	N	0.01	1.7	-20.4	---	---	724.7	0.027	0.000	18.6	61	1
04/26/17	8:19 p	-20.4	-20.4	-20.4	---	---	0.9	N	0.01	1.7	-20.4	---	---	724.7	0.027	0.000	18.6	60	1
04/26/17	8:20 p	-20.4	-20.4	-20.4	---	---	0.9	N	0.01	1.7	-20.4	---	---	724.8	0.027	0.000	18.6	60	1
04/26/17	8:21 p	-20.4	-20.4	-20.4	---	---	0.9	N	0.01	1.7	-20.5	---	---	724.7	0.027	0.000	18.6	60	1
04/26/17	8:22 p	-20.4	-20.4	-20.4	---	---	0.9	N	0.01	1.7	-20.4	---	---	724.8	0.027	0.000	18.6	60	1
04/26/17	8:23 p	-20.4	-20.4	-20.4	---	---	1.7	N	0.03	1.7	-22.9	---	---	724.8	0.027	0.000	18.6	60	1
04/26/17	8:24 p	-20.4	-20.4	-20.4	---	---	0.9	N	0.01	1.7	-20.4	---	---	724.8	0.027	0.000	18.5	60	1
04/26/17	8:25 p	-20.4	-20.4	-20.4	---	---	1.7	N	0.03	1.7	-22.9	---	---	724.7	0.027	0.000	18.5	60	1
04/26/17	8:26 p	-20.4	-20.3	-20.4	---	---	0.9	N	0.01	1.7	-20.4	---	---	724.8	0.027	0.000	18.5	60	1
04/26/17	8:27 p	-20.3	-20.3	-20.3	---	---	0.9	N	0.01	1.7	-20.4	---	---	724.8	0.027	0.000	18.4	60	1
04/26/17	8:28 p	-20.3	-20.3	-20.3	---	---	0.9	N	0.01	1.7	-20.4	---	---	724.7	0.027	0.000	18.4	60	1
04/26/17	8:29 p	-20.3	-20.3	-20.3	---	---	0.9	N	0.01	1.7	-20.3	---	---	724.7	0.027	0.000	18.4	60	1
04/26/17	8:30 p	-20.3	-20.3	-20.3	---	---	0.9	N	0.01	0.9	-20.3	---	---	724.8	0.027	0.000	18.4	60	1
04/26/17	8:31 p	-20.2	-20.2	-20.3	---	---	0.9	N	0.01	0.9	-20.3	---	---	724.7	0.027	0.000	18.4	60	1
04/26/17	8:32 p	-20.2	-20.2	-20.2	---	---	0.9	N	0.01	0.9	-20.3	---	---	724.8	0.027	0.000	18.4	61	1
04/26/17	8:33 p	-20.2	-20.2	-20.2	---	---	0.9	N	0.01	0.9	-20.3	---	---	724.7	0.027	0.000	18.4	61	1
04/26/17	8:34 p	-20.2	-20.2	-20.2	---	---	0.9	N	0.01	0.9	-20.2	---	---	724.7	0.027	0.000	18.4	61	1
04/26/17	8:35 p	-20.2	-20.2	-20.2	---	---	0.9	N	0.01	1.7	-20.2	---	---	724.7	0.027	0.000	18.5	61	1
04/26/17	8:36 p	-20.2	-20.1	-20.2	---	---	0.9	N	0.01	1.7	-20.2	---	---	724.7	0.027	0.000	18.5	61	1
04/26/17	8:37 p	-20.2	-20.1	-20.2	---	---	0.9	N	0.01	1.7	-20.2	---	---	724.7	0.027	0.000	18.5	61	1
04/26/17	8:38 p	-20.2	-20.1	-20.2	---	---	0.9	N	0.01	1.7	-20.2	---	---	724.7	0.027	0.000	18.6	61	1
04/26/17	8:39 p	-20.1	-20.1	-20.1	---	---	1.7	N	0.03	1.7	-22.6	---	---	724.7	0.027	0.000	18.6	61	1
04/26/17	8:40 p	-20.1	-20.1	-20.1	---	---	0.9	N	0.01	1.7	-20.2	---	---	724.8	0.027	0.000	18.6	61	1
04/26/17	8:41 p	-20.1	-20.1	-20.2	---	---	0.9	N	0.01	1.7	-20.2	---	---	724.8	0.027	0.000	18.6	61	1
04/26/17	8:42 p	-20.2	-20.1	-20.2	---	---	0.9	N	0.01	1.7	-20.2	---	---	724.8	0.027	0.000	18.6	61	1
04/26/17	8:43 p	-20.2	-20.2	-20.2	---	---	0.9	N	0.01	1.7	-20.2	---	---	724.7	0.027	0.000	18.6	61	1
04/26/17	8:44 p	-20.2	-20.2	-20.2	---	---	0.9	N	0.01	1.7	-20.2	---	---	724.7	0.027	0.000	18.6	61	1
04/26/17	8:45 p	-20.2	-20.2	-20.2	---	---	0.9	N	0.01	1.7	-20.2	---	---	724.6	0.027	0.000	18.6	61	1
04/26/17	8:46 p	-20.2	-20.2	-20.2	---	---	0.9	N	0.01	1.7	-20.2	---	---	724.7	0.027	0.000	18.5	61	1
04/26/17	8:47 p	-20.2	-20.2	-20.2	---	---	0.9	N	0.01	1.7	-20.3	---	---	724.7	0.027	0.000	18.5	61	1
04/26/17	8:48 p	-20.2	-20.2	-20.3	---	---	0.9	N	0.01	1.7	-20.3	---	---	724.7	0.027	0.000	18.5	61	1
04/26/17	8:49 p	-20.3	-20.2	-20.3	---	---	1.7	N	0.03	1.7	-22.8	---	---	724.7	0.027	0.000	18.4	61	1
04/26/17	8:50 p	-20.3	-20.3	-20.3	---	---	1.7	N	0.03	1.7	-22.8	---	---	724.7	0.027	0.000	18.4	61	1
04/26/17	8:51 p	-20.3	-20.3	-20.3	---	---	1.7	N	0.03	1.7	-22.9	---	---	724.8	0.027	0.000	18.4	61	1
04/26/17	8:52 p	-20.3	-20.3	-20.4	---	---	1.7	N	0.03	1.7	-22.9	---	---	724.8	0.027	0.000	18.4	61	1
04/26/17	8:53 p	-20.4	-20.3	-20.4	---	---	1.7	N	0.03	1.7	-22.9	---	---	724.8	0.027	0.000	18.4	61	1
04/26/17	8:54 p	-20.4	-20.4	-20.4	---	---	1.7	N	0.03	1.7	-22.9	---	---	724.8	0.027	0.000	18.4	61	1
04/26/17	8:55 p	-20.4	-20.4	-20.4	---	---	1.7	N	0.03	1.7	-23.0	---	---	724.8	0.027	0.000	18.4	61	1
04/26/17	8:56 p	-20.4	-20.4	-20.4	---	---	1.7	N	0.03	1.7	-23.0	---	---	724.8	0.027	0.000	18.4	61	1
04/26/17	8:57 p	-20.4	-20.4	-20.4	---	---	1.7	N	0.03	1.7	-23.0	---	---	724.8	0.027	0.000	18.4	61	1
04/26/17	8:58 p	-20.4	-20.4	-20.4	---	---	1.7	N	0.03	1.7	-23.0	---	---	724.8	0.027	0.000	18.4	61	1
04/26/17	8:59 p	-20.4	-20.4	-20.4	---	---	0.9	N	0.01	1.7	-20.4	---	---	724.8	0.027	0.000	18.5	61	1
04/26/17	9:00 p	-20.4	-20.4	-20.4	---	---	1.7	N	0.03	1.7	-23.0	---	---	724.8	0.027	0.000	18.5	61	1
04/26/17	9:01 p	-20.4	-20.3	-20.4	---	---	1.7	N	0.03	1.7	-22.9	---	---	724.8	0.027	0.000	18.5	61	1
04/26/17	9:02 p	-20.4	-20.3	-20.4	---	---	0.9	N	0.01	1.7	-20.4	---	---	724.8	0.027	0.000	18.5	61	1
04/26/17	9:03 p	-20.3	-20.3	-20.3	---	---	0.9	N	0.01	1.7	-20.3	---	---	724.9	0.027	0.000	18.5	61	1
04/26/17	9:04 p	-20.3	-20.3	-20.3	---	---	0.9	N	0.01	1.7	-20.3	---	---	724.9	0.027	0.000	18.6	61	1
04/26/17	9:05 p	-20.3	-20.2	-20.3	---	---	0.0	---	0.00	0.9	-20.2	---	---	724.8	0.027	0.000	18.6	61	1
04/26/17	9:06 p	-20.2	-20.2	-20.3	---	---	0.0	---	0.00	0.0	-20.2	---	---	724.8	0.027	0.000	18.6	61	1
04/26/17	9:07 p	-20.2	-20.2	-20.2	---	---	0.0	---	0.00	0.0	-20.2	---	---	724.9	0.027	0.000	18.6	61	1
04/26/17	9:08 p	-20.2	-20.2	-20.2	---	---	0.0	---	0.00	0.0	-20.1	---	---	724.9	0.027	0.000	18.5	61	1
04/26/17	9:09 p	-20.2	-20.2	-20.2	---	---	0.9	N	0.01	1.7	-20.2	---	---	724.8	0.027	0.000	18.5	61	1
04/26/17	9:10 p	-20.2	-20.2	-20.2	---	---	0.9	N	0.01	1.7	-20.2	---	---	724.9	0.027	0.000	18.5	61	1
04/26/17	9:11 p	-20.2	-20.2	-20.2	---	---	0.9	N	0.01	1.7	-20.2	---	---	724.9	0.027	0.000	18.4	61	1
04/26/17	9:12 p	-20.1	-20.1	-20.2	---	---	0.9	N	0.01	0.9	-20.2	---	---	724.9	0.027	0.000	18.4	61	1
04/26/17	9:13 p	-20.1	-20.1	-20.2	---	---	0.9	N	0.01	0.9	-20.2	---	---	724.9	0.027	0.000	18.4	61	1
04/26/17	9:14 p	-20.1	-20.1	-20.2	---	---	0.9	N	0.01	0.9	-20.2	---	---	724.8	0.027	0.000	18.4	61	1
04/26/17	9:15 p	-20.1	-20.1	-20.1	---	---	0.9	N	0.01	0.9	-20.2	---	---	724.9	0.027	0.000	18.4	61	1
04/26/17	9:16 p	-20.1	-20.1	-20.2	---	---	0.9	N	0.01	0.9	-20.2	---	---	724.8	0.027	0.000	18.4	61	1
04/26/17	9:17 p	-20.1	-20.1	-20.1	---	---	0.0	N	0.00	0.9	-20.1	---	---	724.9	0.027	0.000	18.4	61	1
04/26/17	9:18 p	-20.1	-20.1	-20.1	---	---	0.0	---	0.00	0.0	-20.1	---	---	724.9	0.027	0.000	18.3	61	1
04/26/17	9:19 p	-20.1	-20.1	-20.2	---	---	0.0	---	0.00	0.0	-20.1	---	---	724.9	0.027	0.000	18.3	61	1
04/26/17	9:20 p	-20.1	-20.1	-20.2	---	---	0.0	---	0.00	0.0	-20.1	---	---	724.9	0.027	0.000	18.3	61	1
04/26/17	9:21 p	-20.1	-20.1	-20.1	---	---	0.0	---	0.00	0.0	-20.1	---	---	724.9	0.027	0.000	18.4	61	1
04/26/17	9:22 p	-20.1	-20.1	-20.1	---	---	0.0	---	0.00	0.0	-20.1	---	---	725.0	0.027	0.000	18.4	61	1
04/26/17	9:23 p	-20.1	-20.1	-20.2	---	---	0.0	---	0.00	0.0	-20.1	---	---	724.9	0.027	0.000	18.4	61	1
04/26/17	9:24 p	-20.1	-20.1	-20.2	---	---	0.0	---	0.00	0.0	-20.1	---	---	724.9	0.027	0.000	18.4	61	1
04/26/17	9:25 p	-20.1	-20.1	-20.2	---	---	0.0	---	0.00	0.0	-20.1	---	---	724.9	0.027	0.000	18.4	61	1
04/26/17	9:26 p	-20.2	-20.1	-20.2	---	---	0.0	N	0.00	0.9	-20.1	---	---	724.9	0.027	0.000	18.4	61	1
04/26/17	9:27 p	-20.2	-20.1	-20.2	---	---	0.0	N	0.00	0.9	-20.1	---	---	724.9	0.027	0.000	18.5	61	1
04/26/17	9:28 p	-20.2	-20.1	-20.2	---	---	0.0	---	0.00	0.9	-20.1	---	---	725.0	0.027	0.000	18.5	61	1
04/26/17	9:29 p	-20.2	-20.1	-20.2	---	---	0.0	N	0.00	0.9	-20.1	---	---	724.9	0.027	0.000	18.5	61	1
04/26/17	9:30 p	-20.2	-20.2	-20.2	---	---	0.0	N	0.00	0.9	-20.1	---	---	724.9	0.027	0.000	18.5	61	1
04/26/17	9:31 p	-20.2	-20.2	-20.2	---	---	0.9	N	0.01	0.9	-20.2	---	---	724.9	0.027	0.000	18.5	61	1
04/26/17	9:32 p	-20.2	-20.2	-20.2	---	---	0.9	N	0.01	0.9	-20.3	---	---	725.0	0.027	0.000	18.5	61	1
04/26/17	9:33 p	-20.2	-20.2	-20.3	---	---	0.9	N	0.01	0.9	-20.3	---	---	725.0	0.027	0.000	18.5	61	1
04/26/17	9:34 p	-20.2	-20.2	-20.3	---	---	0.0	N	0.00	0.9	-20.2	---	---	725.0	0.027	0.000	18.5	60	1
04/26/17	9:35 p	-20.3	-20.2	-20.3	---	---	0.0	N	0.00	0.9	-20.2	---	---	725.0	0.027	0.000	18.4	60	1
04/26/17	9:36 p	-20.3	-20.3	-20.3	---	---	0.0	N	0.00	0.9	-20.2	---	---	725.0	0.027	0.000	18.4	60	1
04/26/17	9:37 p	-20.3	-20.3	-20.3	---	---	0.0	N	0.00	0.9	-20.3	---	---	725.0	0.027	0.000	18.4	60	1
04/26/17	9:38 p	-20.3	-20.3	-20.3	---	---	0.0	---	0.00	0.9	-20.3	---	---	725.0	0.027	0.000	18.4	60	1
04/26/17	9:39 p	-20.3	-20.3	-20.3	---	---	0.0	N	0.00	0.9	-20.3	---	---	725.0	0.027	0.000	18.4	60	1
04/26/17	9:40 p	-20.3	-20.3	-20.3	---	---	0.0	N	0.00	0.9	-20.3	---	---	725.0	0.027	0.000	18.3	61	1
04/26/17	9:41 p	-20.4	-20.3	-20.4	---	---	0.0	N	0.00	0.9	-20.3	---	---	725.0	0.027	0.000	18.3	60	1
04/26/17	9:42 p	-20.4	-20.3	-20.4	---	---	0.0	---	0.00	0.0	-20.3	---	---	725.0	0.027	0.000	18.3	60	1
04/26/17	9:43 p	-20.4	-20.4	-20.4	---	---	0.0	N	0.00	0.9	-20.3	---	---	725.0	0.027	0.000	18.3	60	1
04/26/17	9:44 p	-20.4	-20.3	-20.4	---	---	0.0	---	0.00	0.0	-20.3	---	---	725.0	0.027	0.000	18.3	60	1
04/26/17	9:45 p	-20.4	-20.4	-20.4	---	---	0.0	---	0.00	0.0	-20.4	---	---	725.0	0.027	0.000	18.4	60	1
04/26/17	9:46 p	-20.4	-20.4	-20.4	---	---	0.0	---	0.00	0.0	-20.3	---	---	724.9	0.027	0.000	18.4	60	1
04/26/17	9:47 p	-20.4	-20.4	-20.4	---	---	0.0	---	0.00	0.0	-20.4	---	---	724.9	0.027	0.000	18.4	60	1
04/26/17	9:48 p	-20.4	-20.4	-20.4	---	---	0.0	---	0.00	0.0	-20.4	---	---	724.9	0.027	0.000	18.4	60	1
04/26/17	9:49 p	-20.4	-20.4	-20.4	---	---	0.0	---	0.00	0.0	-20.4	---	---	725.1	0.027	0.000	18.4	60	1
04/26/17	9:50 p	-20.4	-20.4	-20.5	---	---	0.0	---	0.00	0.0	-20.4	---	---	724.9	0.027	0.000	18.4	60	1
04/26/17	9:51 p	-20.5	-20.4	-20.5	---	---	0.0	---	0.00	0.0	-20.4	---	---	724.9	0.027	0.000	18.5	60	1
04/26/17	9:52 p	-20.5	-20.5	-20.5	---	---	0.0	---	0.00	0.0	-20.4	---	---	724.9	0.027	0.000	18.5	60	1
04/26/17	9:53 p	-20.5	-20.5	-20.6	---	---	0.0	---	0.00	0.0	-20.4	---	---	724.9	0.027	0.000	18.5	60	1
04/26/17	9:54 p	-20.6	-20.5	-20.6	---	---	0.0	---	0.00	0.0	-20.5	---	---	724.9	0.027	0.000	18.5	60	1
04/26/17	9:55 p	-20.6	-20.6	-20.6	---	---	0.0	---	0.00	0.0	-20.5	---	---	725.0	0.027	0.000	18.5	61	1
04/26/17	9:56 p	-20.6	-20.6	-20.6	---	---	0.0	N	0.00	0.9	-20.5	---	---	725.1	0.027	0.000	18.5	60	1
04/26/17	9:57 p	-20.6	-20.6	-20.7	---	---	0.0	N	0.00	0.9	-20.6	---	---	725.0	0.027	0.000	18.5	61	1
04/26/17	9:58 p	-20.7	-20.6	-20.7	---	---	0.0	---	0.00	0.0	-20.6	---	---	725.1	0.027	0.000	18.5	60	1
04/26/17	9:59 p	-20.7	-20.7	-20.7	---	---	0.0	---	0.00	0.9	-20.6	---	---	725.1	0.027	0.000	18.4	61	1
04/26/17	10:00 p	-20.7	-20.7	-20.7	---	---	0.0	N	0.00	0.9	-20.6	---	---	725.1	0.027	0.000	18.4	60	1
04/26/17	10:01 p	-20.7	-20.7	-20.7	---	---	0.0	---	0.00	0.0	-20.7	---	---	725.1	0.027	0.000	18.4	61	1
04/26/17	10:02 p	-20.7	-20.7	-20.8	---	---	0.0	---	0.00	0.0	-20.7	---	---	725.1	0.027	0.000	18.4	60	1
04/26/17	10:03 p	-20.8	-20.7	-20.8	---	---	0.0	---	0.00	0.0	-20.7	---	---	725.1	0.027	0.000	18.4	61	1
04/26/17	10:04 p	-20.8	-20.8	-20.8	---	---	0.0	---	0.00	0.0	-20.7	---	---	725.1	0.027	0.000	18.4	61	1
04/26/17	10:05 p	-20.8	-20.8	-20.8	---	---	0.0	---	0.00	0.0	-20.8	---	---	725.1	0.027	0.000	18.4	61	1
04/26/17	10:06 p	-20.8	-20.8	-20.8	---	---	0.0	---	0.00	0.0	-20.8	---	---	725.1	0.027	0.000	18.3	61	1
04/26/17	10:07 p	-20.8	-20.8	-20.8	---	---	0.0	---	0.00	0.0	-20.8	---	---	725.1	0.027	0.000	18.4	59	1
04/26/17	10:08 p	-20.9	-20.8	-20.9	---	---	0.0	---	0.00	0.0	-20.8	---	---	725.1	0.027	0.000	18.4	60	1
04/26/17	10:09 p	-20.9	-20.9	-20.9	---	---	0.0	---	0.00	0.0	-20.8	---	---	725.1	0.027	0.000	18.4	61	1
04/26/17	10:10 p	-20.9	-20.9	-20.9	---	---	0.0	---	0.00	0.0	-20.8	---	---	725.0	0.027	0.000	18.4	60	1
04/26/17	10:11 p	-20.9	-20.9	-20.9	---	---	0.0	---	0.00	0.0	-20.9	---	---	725.0	0.027	0.000	18.4	60	1
04/26/17	10:12 p	-20.9	-20.9	-20.9	---	---	0.0	---	0.00	0.0	-20.9	---	---	725.1	0.027	0.000	18.4	60	1
04/26/17	10:13 p	-21.0	-20.9	-21.0	---	---	0.0	---	0.00	0.0	-20.9	---	---	725.1	0.027	0.000	18.4	60	1
04/26/17	10:14 p	-21.0	-21.0	-21.0	---	---	0.0	---	0.00	0.0	-20.9	---	---	725.0	0.027	0.000	18.5	61	1
04/26/17	10:15 p	-21.0	-21.0	-21.0	---	---	0.0	---	0.00	0.0	-20.9	---	---	725.1	0.027	0.000	18.5	60	1
04/26/17	10:16 p	-21.1	-21.0	-21.1	---	---	0.0	---	0.00	0.0	-21.0	---	---	725.1	0.027	0.000	18.5	61	1
04/26/17	10:17 p	-21.1	-21.1	-21.1	---	---	0.0	---	0.00	0.0	-21.0	---	---	725.0	0.027	0.000	18.5	61	1
04/26/17	10:18 p	-21.1	-21.1	-21.1	---	---	0.0	---	0.00	0.0	-21.0	---	---	725.2	0.027	0.000	18.5	61	1
04/26/17	10:19 p	-21.1	-21.1	-21.1	---	---	0.0	---	0.00	0.0	-21.1	---	---	725.1	0.027	0.000	18.5	61	1
04/26/17	10:20 p	-21.1	-21.1	-21.1	---	---	0.0	---	0.00	0.0	-21.1	---	---	725.1	0.027	0.000	18.5	60	1
04/26/17	10:21 p	-21.1	-21.1	-21.2	---	---	0.0	N	0.00	0.9	-21.1	---	---	725.1	0.027	0.000	18.5	61	1
04/26/17	10:22 p	-21.2	-21.2	-21.2	---	---	0.9	N	0.01	0.9	-21.3	---	---	725.1	0.027	0.000	18.6	61	1
04/26/17	10:23 p	-21.2	-21.2	-21.2	---	---	0.9	N	0.01	0.9	-21.3	---	---	725.1	0.027	0.000	18.6	61	1
04/26/17	10:24 p	-21.2	-21.2	-21.2	---	---	0.9	N	0.01	0.9	-21.3	---	---	725.1	0.027	0.000	18.6	60	1
04/26/17	10:25 p	-21.2	-21.2	-21.2	---	---	0.0	N	0.00	0.9	-21.2	---	---	725.2	0.027	0.000	18.6	60	1
04/26/17	10:26 p	-21.2	-21.2	-21.2	---	---	0.0	---	0.00	0.0	-21.2	---	---	725.1	0.027	0.000	18.7	60	1
04/26/17	10:27 p	-21.2	-21.2	-21.2	---	---	0.0	---	0.00	0.0	-21.2	---	---	725.1	0.027	0.000	18.7	60	1
04/26/17	10:28 p	-21.2	-21.2	-21.3	---	---	0.0	---	0.00	0.0	-21.2	---	---	725.1	0.027	0.000	18.7	60	1
04/26/17	10:29 p	-21.2	-21.2	-21.3	---	---	0.0	---	0.00	0.9	-21.2	---	---	725.1	0.027	0.000	18.7	60	1
04/26/17	10:30 p	-21.3	-21.2	-21.3	---	---	0.0	---	0.00	0.0	-21.2	---	---	725.0	0.028	0.000	18.7	60	1
04/26/17	10:31 p	-21.3	-21.3	-21.3	---	---	0.0	N	0.00	0.9	-21.2	---	---	725.1	0.028	0.000	18.8	60	1
04/26/17	10:32 p	-21.3	-21.3	-21.3	---	---	0.9	N	0.01	0.9	-21.4	---	---	725.1	0.028	0.000	18.9	60	1
04/26/17	10:33 p	-21.3	-21.3	-21.3	---	---	0.9	N	0.01	0.9	-21.4	---	---	725.1	0.028	0.000	18.9	60	1
04/26/17	10:34 p	-21.3	-21.3	-21.3	---	---	0.9	N	0.01	0.9	-21.4	---	---	725.1	0.028	0.000	18.9	61	1
04/26/17	10:35 p	-21.3	-21.3	-21.3	---	---	0.0	N	0.00	0.9	-21.3	---	---	725.1	0.028	0.000	19.0	61	1
04/26/17	10:36 p	-21.3	-21.3	-21.3	---	---	0.0	N	0.00	0.9	-21.3	---	---	725.2	0.028	0.000	19.1	60	1
04/26/17	10:37 p	-21.3	-21.3	-21.3	---	---	0.0	N	0.00	0.9	-21.3	---	---	725.2	0.028	0.000	19.1	61	1
04/26/17	10:38 p	-21.3	-21.3	-21.3	---	---	0.9	N	0.01	0.9	-21.4	---	---	725.1	0.028	0.000	19.2	61	1
04/26/17	10:39 p	-21.3	-21.3	-21.3	---	---	0.9	N	0.01	0.9	-21.4	---	---	725.1	0.028	0.000	19.2	61	1
04/26/17	10:40 p	-21.3	-21.3	-21.3	---	---	0.0	---	0.00	0.9	-21.3	---	---	725.1	0.028	0.000	19.2	61	1
04/26/17	10:41 p	-21.3	-21.3	-21.3	---	---	0.0	N	0.00	0.9	-21.3	---	---	725.1	0.028	0.000	19.2	61	1
04/26/17	10:42 p	-21.3	-21.3	-21.3	---	---	0.9	N	0.01	1.7	-21.4	---	---	725.1	0.028	0.000	19.2	61	1
04/26/17	10:43 p	-21.3	-21.3	-21.3	---	---	0.9	N	0.01	1.7	-21.4	---	---	725.2	0.028	0.000	19.2	61	1
04/26/17	10:44 p	-21.3	-21.3	-21.3	---	---	1.7	E	0.03	1.7	-23.9	---	---	725.2	0.028	0.000	19.3	61	1
04/26/17	10:45 p	-21.3	-21.3	-21.4	---	---	1.7	E	0.03	1.7	-23.9	---	---	725.2	0.028	0.000	19.3	61	1
04/26/17	10:46 p	-21.3	-21.3	-21.3	---	---	0.9	E	0.01	1.7	-21.4	---	---	725.1	0.028	0.000	19.3	61	1
04/26/17	10:47 p	-21.3	-21.3	-21.4	---	---	0.9	NE	0.01	1.7	-21.4	---	---	725.2	0.028	0.000	19.3	61	1
04/26/17	10:48 p	-21.3	-21.3	-21.3	---	---	0.9	NE	0.01	0.9	-21.4	---	---	725.1	0.028	0.000	19.2	61	1
04/26/17	10:49 p	-21.3	-21.3	-21.3	---	---	0.9	NE	0.01	1.7	-21.4	---	---	725.2	0.028	0.000	19.2	61	1
04/26/17	10:50 p	-21.3	-21.2	-21.3	---	---	1.7	ENE	0.03	2.6	-23.9	---	---	725.1	0.028	0.000	19.2	61	1
04/26/17	10:51 p	-21.2	-21.2	-21.3	---	---	2.6	ENE	0.04	2.6	-25.4	---	---	725.1	0.027	0.000	19.2	61	1
04/26/17	10:52 p	-21.2	-21.2	-21.2	---	---	2.6	ENE	0.04	2.6	-25.4	---	---	725.1	0.027	0.000	19.3	61	1
04/26/17	10:53 p	-21.2	-21.1	-21.2	---	---	2.6	ENE	0.04	2.6	-25.4	---	---	725.1	0.027	0.000	19.3	61	1
04/26/17	10:54 p	-21.1	-21.1	-21.1	---	---	2.6	ENE	0.04	3.5	-25.3	---	---	725.2	0.027	0.000	19.3	61	1
04/26/17	10:55 p	-21.1	-21.1	-21.1	---	---	2.6	E	0.04	3.5	-25.3	---	---	725.1	0.027	0.000	19.4	61	1
04/26/17	10:56 p	-21.0	-20.9	-21.1	---	---	2.6	E	0.04	2.6	-25.2	---	---	725.2	0.027	0.000	19.4	61	1
04/26/17	10:57 p	-20.9	-20.9	-20.9	---	---	2.6	ENE	0.04	2.6	-25.1	---	---	725.2	0.027	0.000	19.4	61	1
04/26/17	10:58 p	-20.9	-20.9	-20.9	---	---	3.5	ENE	0.06	3.5	-26.3	---	---	725.2	0.027	0.000	19.4	61	1
04/26/17	10:59 p	-20.9	-20.8	-20.9	---	---	3.5	E	0.06	4.3	-26.3	---	---	725.1	0.027	0.000	19.6	61	1
04/26/17	11:00 p	-20.8	-20.8	-20.8	---	---	3.5	E	0.06	4.3	-26.2	---	---	725.2	0.027	0.000	19.6	61	1
04/26/17	11:01 p	-20.8	-20.8	-20.8	---	---	4.3	E	0.07	4.3	-27.2	---	---	725.1	0.027	0.000	19.6	61	1
04/26/17	11:02 p	-20.8	-20.7	-20.8	---	---	5.2	E	0.09	6.1	-27.9	---	---	725.2	0.027	0.000	19.6	61	1
04/26/17	11:03 p	-20.7	-20.7	-20.8	---	---	5.2	E	0.09	5.2	-27.8	---	---	725.2	0.027	0.000	19.6	61	1
04/26/17	11:04 p	-20.7	-20.7	-20.7	---	---	4.3	E	0.07	5.2	-27.0	---	---	725.2	0.027	0.000	19.6	61	1
04/26/17	11:05 p	-20.7	-20.7	-20.7	---	---	5.2	E	0.09	5.2	-27.8	---	---	725.2	0.027	0.000	19.6	61	1
04/26/17	11:06 p	-20.7	-20.6	-20.7	---	---	5.2	E	0.09	6.1	-27.8	---	---	725.1	0.027	0.000	19.6	61	1
04/26/17	11:07 p	-20.6	-20.6	-20.6	---	---	5.2	E	0.09	6.1	-27.7	---	---	725.2	0.027	0.000	19.6	61	1
04/26/17	11:08 p	-20.6	-20.6	-20.6	---	---	5.2	E	0.09	6.1	-27.7	---	---	725.3	0.027	0.000	19.5	61	1
04/26/17	11:09 p	-20.6	-20.6	-20.6	---	---	5.2	E	0.09	6.1	-27.7	---	---	725.2	0.027	0.000	19.5	61	1
04/26/17	11:10 p	-20.6	-20.6	-20.6	---	---	6.1	E	0.10	6.1	-28.4	---	---	725.2	0.027	0.000	19.5	61	1
04/26/17	11:11 p	-20.6	-20.6	-20.6	---	---	5.2	E	0.09	6.1	-27.7	---	---	725.2	0.027	0.000	19.4	61	1
04/26/17	11:12 p	-20.6	-20.6	-20.7	---	---	4.3	E	0.07	5.2	-26.9	---	---	725.2	0.027	0.000	19.4	61	1
04/26/17	11:13 p	-20.7	-20.6	-20.7	---	---	4.3	E	0.07	5.2	-26.9	---	---	725.3	0.027	0.000	19.4	61	1
04/26/17	11:14 p	-20.7	-20.7	-20.7	---	---	5.2	E	0.09	6.1	-27.8	---	---	725.2	0.027	0.000	19.4	61	1
04/26/17	11:15 p	-20.7	-20.7	-20.7	---	---	6.1	E	0.10	7.0	-28.6	---	---	725.3	0.027	0.000	19.4	61	1
04/26/17	11:16 p	-20.7	-20.7	-20.7	---	---	5.2	E	0.09	6.1	-27.8	---	---	725.2	0.027	0.000	19.4	61	1
04/26/17	11:17 p	-20.7	-20.7	-20.8	---	---	5.2	E	0.09	7.0	-27.8	---	---	725.2	0.027	0.000	19.4	61	1
04/26/17	11:18 p	-20.8	-20.7	-20.8	---	---	6.1	ESE	0.10	7.0	-28.6	---	---	725.2	0.027	0.000	19.5	61	1
04/26/17	11:19 p	-20.8	-20.8	-20.8	---	---	5.2	ESE	0.09	6.1	-27.9	---	---	725.3	0.027	0.000	19.6	61	1
04/26/17	11:20 p	-20.8	-20.8	-20.8	---	---	6.1	ESE	0.10	7.0	-28.6	---	---	725.2	0.027	0.000	19.6	61	1
04/26/17	11:21 p	-20.8	-20.8	-20.8	---	---	6.1	ESE	0.10	7.0	-28.7	---	---	725.2	0.027	0.000	19.6	61	1
04/26/17	11:22 p	-20.8	-20.8	-20.9	---	---	7.0	ESE	0.12	7.0	-29.3	---	---	725.3	0.027	0.000	19.7	61	1
04/26/17	11:23 p	-20.9	-20.8	-20.9	---	---	6.1	ESE	0.10	7.0	-28.7	---	---	725.3	0.027	0.000	19.7	61	1
04/26/17	11:24 p	-20.9	-20.8	-20.9	---	---	6.1	ESE	0.10	7.0	-28.7	---	---	725.2	0.027	0.000	19.7	61	1
04/26/17	11:25 p	-20.9	-20.9	-20.9	---	---	6.1	ESE	0.10	7.0	-28.7	---	---	725.1	0.027	0.000	19.7	61	1
04/26/17	11:26 p	-20.9	-20.9	-20.9	---	---	7.0	ESE	0.12	7.8	-29.3	---	---	725.2	0.027	0.000	19.7	61	1
04/26/17	11:27 p	-20.9	-20.9	-20.9	---	---	7.0	ESE	0.12	7.8	-29.4	---	---	725.1	0.027	0.000	19.7	61	1
04/26/17	11:28 p	-20.9	-20.9	-20.9	---	---	7.0	ESE	0.12	7.8	-29.3	---	---	725.2	0.027	0.000	19.7	61	1
04/26/17	11:29 p	-20.9	-20.9	-20.9	---	---	7.0	ESE	0.12	7.8	-29.4	---	---	725.1	0.027	0.000	19.7	62	1
04/26/17	11:30 p	-20.9	-20.9	-20.9	---	---	7.0	ESE	0.12	7.8	-29.4	---	---	725.2	0.027	0.000	19.7	61	1
04/26/17	11:31 p	-20.9	-20.9	-21.0	---	---	7.8	ESE	0.13	8.7	-30.0	---	---	725.2	0.027	0.000	19.7	61	1
04/26/17	11:32 p	-21.0	-21.0	-21.0	---	---	8.7	ESE	0.14	9.6	-30.6	---	---	725.2	0.027	0.000	19.6	61	1
04/26/17	11:33 p	-21.1	-21.1	-21.1	---	---	7.8	ESE	0.13	7.8	-30.1	---	---	725.2	0.027	0.000	19.6	61	1
04/26/17	11:34 p	-21.1	-21.1	-21.1	---	---	7.8	ESE	0.13	8.7	-30.2	---	---	725.3	0.027	0.000	19.6	62	1
04/26/17	11:35 p	-21.1	-21.1	-21.2	---	---	7.8	ESE	0.13	9.6	-30.2	---	---	725.2	0.027	0.000	19.5	61	1
04/26/17	11:36 p	-21.2	-21.2	-21.2	---	---	7.8	ESE	0.13	8.7	-30.3	---	---	725.2	0.027	0.000	19.4	61	1
04/26/17	11:37 p	-21.2	-21.2	-21.3	---	---	8.7	ESE	0.14	10.4	-30.8	---	---	725.2	0.027	0.000	19.4	61	1
04/26/17	11:38 p	-21.3	-21.3	-21.3	---	---	8.7	ESE	0.14	9.6	-31.0	---	---	725.2	0.028	0.000	19.3	61	1
04/26/17	11:39 p	-21.3	-21.3	-21.3	---	---	7.0	ESE	0.12	7.8	-29.9	---	---	725.2	0.028	0.000	19.3	61	1
04/26/17	11:40 p	-21.4	-21.3	-21.4	---	---	7.8	ESE	0.13	8.7	-30.6	---	---	725.3	0.028	0.000	19.3	61	1
04/26/17	11:41 p	-21.4	-21.4	-21.4	---	---	8.7	ESE	0.14	8.7	-31.1	---	---	725.4	0.028	0.000	19.3	61	1
04/26/17	11:42 p	-21.4	-21.4	-21.4	---	---	9.6	ESE	0.16	10.4	-31.6	---	---	725.2	0.028	0.000	19.3	61	1
04/26/17	11:43 p	-21.5	-21.4	-21.5	---	---	8.7	ESE	0.14	9.6	-31.2	---	---	725.3	0.028	0.000	19.2	61	1
04/26/17	11:44 p	-21.5	-21.5	-21.6	---	---	9.6	ESE	0.16	9.6	-31.7	---	---	725.2	0.028	0.000	19.2	61	1
04/26/17	11:45 p	-21.6	-21.6	-21.6	---	---	8.7	ESE	0.14	9.6	-31.3	---	---	725.3	0.028	0.000	19.2	61	1
04/26/17	11:46 p	-21.6	-21.6	-21.7	---	---	9.6	ESE	0.16	10.4	-31.8	---	---	725.2	0.028	0.000	19.2	61	1
04/26/17	11:47 p	-21.7	-21.6	-21.7	---	---	7.8	ESE	0.13	9.6	-30.9	---	---	725.2	0.028	0.000	19.2	61	1
04/26/17	11:48 p	-21.7	-21.7	-21.7	---	---	9.6	ESE	0.16	10.4	-31.9	---	---	725.3	0.028	0.000	19.2	61	1
04/26/17	11:49 p	-21.7	-21.7	-21.8	---	---	9.6	ESE	0.16	10.4	-31.9	---	---	725.2	0.028	0.000	19.2	61	1
04/26/17	11:50 p	-21.8	-21.8	-21.8	---	---	9.6	ESE	0.16	9.6	-32.0	---	---	725.2	0.028	0.000	19.2	61	1
04/26/17	11:51 p	-21.8	-21.8	-21.8	---	---	8.7	ESE	0.14	9.6	-31.6	---	---	725.3	0.028	0.000	19.2	61	1
04/26/17	11:52 p	-21.8	-21.8	-21.8	---	---	8.7	ESE	0.14	9.6	-31.6	---	---	725.3	0.028	0.000	19.2	61	1
04/26/17	11:53 p	-21.9	-21.8	-21.9	---	---	8.7	ESE	0.14	9.6	-31.7	---	---	725.3	0.028	0.000	19.2	61	1
04/26/17	11:54 p	-21.9	-21.9	-21.9	---	---	8.7	ESE	0.14	9.6	-31.7	---	---	725.3	0.028	0.000	19.2	61	1
04/26/17	11:55 p	-21.9	-21.9	-21.9	---	---	8.7	ESE	0.14	9.6	-31.7	---	---	725.3	0.028	0.000	19.2	61	1
04/26/17	11:56 p	-21.9	-21.9	-21.9	---	---	9.6	ESE	0.16	10.4	-32.2	---	---	725.3	0.028	0.000	19.1	61	1
04/26/17	11:57 p	-21.9	-21.9	-21.9	---	---	9.6	ESE	0.16	10.4	-32.2	---	---	725.2	0.028	0.000	19.1	61	1
04/26/17	11:58 p	-22.0	-21.9	-22.0	---	---	9.6	ESE	0.16	10.4	-32.3	---	---	725.4	0.028	0.000	19.1	61	1
04/26/17	11:59 p	-22.0	-22.0	-22.0	---	---	8.7	ESE	0.14	9.6	-31.8	---	---	725.3	0.028	0.000	19.1	61	1
04/27/17	12:00 a	-22.0	-21.9	-22.0	---	---	8.7	ESE	0.14	9.6	-31.8	---	---	725.3	0.028	0.000	19.0	61	1